<?xml version="1.0" encoding="UTF-8" standalone="no" ?>
<gpx xmlns="http://www.topografix.com/GPX/1/1" xmlns:xsi="http://www.w3.org/2001/XMLSchema-instance" xsi:schemaLocation="http://www.topografix.com/GPX/1/1 http://www.topografix.com/GPX/1/1/gpx.xsd" version="1.1" creator="VisuGPX - https://www.visugpx.com">
  <metadata>
    <name>Bruxelles-Kaliningrad 2: Bergen op Zoom -&amp;gt; Rotterdam</name>
  </metadata>
  <trk>
    <name><![CDATA[Day 2: Bergen op Zoom -> Rotterdam]]></name>
    <extensions>
      <line xmlns="http://www.topografix.com/GPX/gpx_style/0/2">
        <color>0000FF</color>
        <width>4</width>
      </line>
    </extensions>
    <trkseg>
      <trkpt lat="51.49004" lon="4.28898">
        <ele>53.369364</ele>
        <time>2024-07-02T07:02:08.360Z</time>
      </trkpt>
      <trkpt lat="51.48997" lon="4.28909">
        <ele>53.369364</ele>
        <time>2024-07-02T07:02:14.154Z</time>
      </trkpt>
      <trkpt lat="51.48988" lon="4.28908">
        <ele>53.369364</ele>
        <time>2024-07-02T07:02:21.130Z</time>
      </trkpt>
      <trkpt lat="51.48997" lon="4.28899">
        <ele>53.369364</ele>
        <time>2024-07-02T07:03:25.129Z</time>
      </trkpt>
      <trkpt lat="51.49005" lon="4.28893">
        <ele>53.369364</ele>
        <time>2024-07-02T07:03:53.134Z</time>
      </trkpt>
      <trkpt lat="51.4902" lon="4.2889">
        <ele>53.369364</ele>
        <time>2024-07-02T07:04:18.124Z</time>
      </trkpt>
      <trkpt lat="51.49029" lon="4.28894">
        <ele>53.369364</ele>
        <time>2024-07-02T07:04:49.132Z</time>
      </trkpt>
      <trkpt lat="51.49039" lon="4.28889">
        <ele>53.369364</ele>
        <time>2024-07-02T07:05:57.145Z</time>
      </trkpt>
      <trkpt lat="51.49038" lon="4.28873">
        <ele>53.369364</ele>
        <time>2024-07-02T07:06:02.155Z</time>
      </trkpt>
      <trkpt lat="51.49039" lon="4.28854">
        <ele>53.310358</ele>
        <time>2024-07-02T07:06:06.138Z</time>
      </trkpt>
      <trkpt lat="51.49039" lon="4.28838">
        <ele>53.208468</ele>
        <time>2024-07-02T07:06:09.143Z</time>
      </trkpt>
      <trkpt lat="51.49039" lon="4.28822">
        <ele>53.103374</ele>
        <time>2024-07-02T07:06:12.126Z</time>
      </trkpt>
      <trkpt lat="51.49039" lon="4.28805">
        <ele>52.996283</ele>
        <time>2024-07-02T07:06:15.135Z</time>
      </trkpt>
      <trkpt lat="51.4904" lon="4.28788">
        <ele>52.889312</ele>
        <time>2024-07-02T07:06:18.144Z</time>
      </trkpt>
      <trkpt lat="51.49041" lon="4.2877">
        <ele>52.770125</ele>
        <time>2024-07-02T07:06:21.143Z</time>
      </trkpt>
      <trkpt lat="51.49041" lon="4.28751">
        <ele>52.647523</ele>
        <time>2024-07-02T07:06:24.147Z</time>
      </trkpt>
      <trkpt lat="51.49042" lon="4.28735">
        <ele>52.544028</ele>
        <time>2024-07-02T07:06:27.141Z</time>
      </trkpt>
      <trkpt lat="51.49042" lon="4.28718">
        <ele>52.438254</ele>
        <time>2024-07-02T07:06:30.132Z</time>
      </trkpt>
      <trkpt lat="51.49043" lon="4.28702">
        <ele>52.332316</ele>
        <time>2024-07-02T07:06:33.137Z</time>
      </trkpt>
      <trkpt lat="51.49046" lon="4.28687">
        <ele>52.233778</ele>
        <time>2024-07-02T07:06:36.128Z</time>
      </trkpt>
      <trkpt lat="51.49046" lon="4.28671">
        <ele>52.13036</ele>
        <time>2024-07-02T07:06:39.130Z</time>
      </trkpt>
      <trkpt lat="51.49047" lon="4.28655">
        <ele>52.027582</ele>
        <time>2024-07-02T07:06:42.133Z</time>
      </trkpt>
      <trkpt lat="51.49051" lon="4.2864">
        <ele>51.928148</ele>
        <time>2024-07-02T07:06:45.132Z</time>
      </trkpt>
      <trkpt lat="51.49055" lon="4.28623">
        <ele>51.808401</ele>
        <time>2024-07-02T07:06:48.135Z</time>
      </trkpt>
      <trkpt lat="51.49059" lon="4.28607">
        <ele>51.694375</ele>
        <time>2024-07-02T07:06:51.137Z</time>
      </trkpt>
      <trkpt lat="51.49062" lon="4.28591">
        <ele>51.59128</ele>
        <time>2024-07-02T07:06:54.143Z</time>
      </trkpt>
      <trkpt lat="51.4907" lon="4.28582">
        <ele>51.519333</ele>
        <time>2024-07-02T07:06:58.134Z</time>
      </trkpt>
      <trkpt lat="51.4908" lon="4.28586">
        <ele>51.523846</ele>
        <time>2024-07-02T07:07:02.157Z</time>
      </trkpt>
      <trkpt lat="51.49089" lon="4.28592">
        <ele>51.527879</ele>
        <time>2024-07-02T07:07:05.129Z</time>
      </trkpt>
      <trkpt lat="51.49099" lon="4.28601">
        <ele>51.53295</ele>
        <time>2024-07-02T07:07:09.152Z</time>
      </trkpt>
      <trkpt lat="51.49108" lon="4.2861">
        <ele>51.537417</ele>
        <time>2024-07-02T07:07:13.134Z</time>
      </trkpt>
      <trkpt lat="51.49119" lon="4.28616">
        <ele>51.542279</ele>
        <time>2024-07-02T07:07:18.143Z</time>
      </trkpt>
      <trkpt lat="51.49129" lon="4.28623">
        <ele>51.546776</ele>
        <time>2024-07-02T07:07:22.148Z</time>
      </trkpt>
      <trkpt lat="51.49137" lon="4.28627">
        <ele>51.55071</ele>
        <time>2024-07-02T07:07:26.158Z</time>
      </trkpt>
      <trkpt lat="51.49147" lon="4.28628">
        <ele>51.55494</ele>
        <time>2024-07-02T07:07:31.132Z</time>
      </trkpt>
      <trkpt lat="51.49157" lon="4.28628">
        <ele>51.559072</ele>
        <time>2024-07-02T07:07:35.138Z</time>
      </trkpt>
      <trkpt lat="51.49166" lon="4.28614">
        <ele>51.56424</ele>
        <time>2024-07-02T07:07:39.124Z</time>
      </trkpt>
      <trkpt lat="51.49172" lon="4.28601">
        <ele>51.568661</ele>
        <time>2024-07-02T07:07:42.143Z</time>
      </trkpt>
      <trkpt lat="51.49176" lon="4.28586">
        <ele>51.57303</ele>
        <time>2024-07-02T07:07:45.131Z</time>
      </trkpt>
      <trkpt lat="51.49181" lon="4.2857">
        <ele>51.577892</ele>
        <time>2024-07-02T07:07:48.146Z</time>
      </trkpt>
      <trkpt lat="51.49186" lon="4.28555">
        <ele>51.582248</ele>
        <time>2024-07-02T07:07:51.136Z</time>
      </trkpt>
      <trkpt lat="51.49191" lon="4.28539">
        <ele>51.586947</ele>
        <time>2024-07-02T07:07:54.153Z</time>
      </trkpt>
      <trkpt lat="51.49195" lon="4.28524">
        <ele>51.591375</ele>
        <time>2024-07-02T07:07:57.132Z</time>
      </trkpt>
      <trkpt lat="51.492" lon="4.28511">
        <ele>51.611175</ele>
        <time>2024-07-02T07:08:00.142Z</time>
      </trkpt>
      <trkpt lat="51.49205" lon="4.28494">
        <ele>51.845559</ele>
        <time>2024-07-02T07:08:04.145Z</time>
      </trkpt>
      <trkpt lat="51.49209" lon="4.2848">
        <ele>52.036201</ele>
        <time>2024-07-02T07:08:07.137Z</time>
      </trkpt>
      <trkpt lat="51.49215" lon="4.28467">
        <ele>52.231745</ele>
        <time>2024-07-02T07:08:10.137Z</time>
      </trkpt>
      <trkpt lat="51.4922" lon="4.28452">
        <ele>52.44088</ele>
        <time>2024-07-02T07:08:13.141Z</time>
      </trkpt>
      <trkpt lat="51.49226" lon="4.28437">
        <ele>52.650252</ele>
        <time>2024-07-02T07:08:16.142Z</time>
      </trkpt>
      <trkpt lat="51.4923" lon="4.28422">
        <ele>52.85577</ele>
        <time>2024-07-02T07:08:19.134Z</time>
      </trkpt>
      <trkpt lat="51.49236" lon="4.28408">
        <ele>53.062753</ele>
        <time>2024-07-02T07:08:22.145Z</time>
      </trkpt>
      <trkpt lat="51.49241" lon="4.28393">
        <ele>53.27105</ele>
        <time>2024-07-02T07:08:25.117Z</time>
      </trkpt>
      <trkpt lat="51.49246" lon="4.28375">
        <ele>53.508351</ele>
        <time>2024-07-02T07:08:28.150Z</time>
      </trkpt>
      <trkpt lat="51.49251" lon="4.28359">
        <ele>53.728135</ele>
        <time>2024-07-02T07:08:31.148Z</time>
      </trkpt>
      <trkpt lat="51.49257" lon="4.28343">
        <ele>53.959052</ele>
        <time>2024-07-02T07:08:34.149Z</time>
      </trkpt>
      <trkpt lat="51.49263" lon="4.28327">
        <ele>54.198324</ele>
        <time>2024-07-02T07:08:37.143Z</time>
      </trkpt>
      <trkpt lat="51.49271" lon="4.28311">
        <ele>54.43739</ele>
        <time>2024-07-02T07:08:40.137Z</time>
      </trkpt>
      <trkpt lat="51.49278" lon="4.28296">
        <ele>54.673527</ele>
        <time>2024-07-02T07:08:43.143Z</time>
      </trkpt>
      <trkpt lat="51.49285" lon="4.28278">
        <ele>54.933513</ele>
        <time>2024-07-02T07:08:46.137Z</time>
      </trkpt>
      <trkpt lat="51.49291" lon="4.28261">
        <ele>55.106648</ele>
        <time>2024-07-02T07:08:49.139Z</time>
      </trkpt>
      <trkpt lat="51.49297" lon="4.28246">
        <ele>54.94084</ele>
        <time>2024-07-02T07:08:52.144Z</time>
      </trkpt>
      <trkpt lat="51.49303" lon="4.2823">
        <ele>54.764645</ele>
        <time>2024-07-02T07:08:55.139Z</time>
      </trkpt>
      <trkpt lat="51.49309" lon="4.28215">
        <ele>54.598032</ele>
        <time>2024-07-02T07:08:58.158Z</time>
      </trkpt>
      <trkpt lat="51.49315" lon="4.28204">
        <ele>54.456802</ele>
        <time>2024-07-02T07:09:01.142Z</time>
      </trkpt>
      <trkpt lat="51.49322" lon="4.28193">
        <ele>54.317766</ele>
        <time>2024-07-02T07:09:06.171Z</time>
      </trkpt>
      <trkpt lat="51.49331" lon="4.28189">
        <ele>54.179541</ele>
        <time>2024-07-02T07:10:01.150Z</time>
      </trkpt>
      <trkpt lat="51.49341" lon="4.2819">
        <ele>54.024465</ele>
        <time>2024-07-02T07:10:05.142Z</time>
      </trkpt>
      <trkpt lat="51.4935" lon="4.28192">
        <ele>53.888092</ele>
        <time>2024-07-02T07:10:08.149Z</time>
      </trkpt>
      <trkpt lat="51.4936" lon="4.28193">
        <ele>53.737891</ele>
        <time>2024-07-02T07:10:11.143Z</time>
      </trkpt>
      <trkpt lat="51.4937" lon="4.28193">
        <ele>53.57872</ele>
        <time>2024-07-02T07:10:14.147Z</time>
      </trkpt>
      <trkpt lat="51.49382" lon="4.28194">
        <ele>53.407111</ele>
        <time>2024-07-02T07:10:17.151Z</time>
      </trkpt>
      <trkpt lat="51.49393" lon="4.28198">
        <ele>53.239496</ele>
        <time>2024-07-02T07:10:20.151Z</time>
      </trkpt>
      <trkpt lat="51.49405" lon="4.28198">
        <ele>53.051866</ele>
        <time>2024-07-02T07:10:23.148Z</time>
      </trkpt>
      <trkpt lat="51.49418" lon="4.28199">
        <ele>52.85516</ele>
        <time>2024-07-02T07:10:26.142Z</time>
      </trkpt>
      <trkpt lat="51.49432" lon="4.282">
        <ele>52.653476</ele>
        <time>2024-07-02T07:10:29.135Z</time>
      </trkpt>
      <trkpt lat="51.49441" lon="4.28201">
        <ele>52.507775</ele>
        <time>2024-07-02T07:10:31.138Z</time>
      </trkpt>
      <trkpt lat="51.49451" lon="4.28201">
        <ele>52.390745</ele>
        <time>2024-07-02T07:10:33.146Z</time>
      </trkpt>
      <trkpt lat="51.49461" lon="4.28201">
        <ele>52.302873</ele>
        <time>2024-07-02T07:10:35.133Z</time>
      </trkpt>
      <trkpt lat="51.49471" lon="4.28199">
        <ele>52.210894</ele>
        <time>2024-07-02T07:10:37.151Z</time>
      </trkpt>
      <trkpt lat="51.49481" lon="4.28197">
        <ele>52.11842</ele>
        <time>2024-07-02T07:10:39.151Z</time>
      </trkpt>
      <trkpt lat="51.49491" lon="4.28193">
        <ele>52.021561</ele>
        <time>2024-07-02T07:10:41.147Z</time>
      </trkpt>
      <trkpt lat="51.49502" lon="4.28191">
        <ele>51.921415</ele>
        <time>2024-07-02T07:10:43.139Z</time>
      </trkpt>
      <trkpt lat="51.49514" lon="4.2819">
        <ele>51.819897</ele>
        <time>2024-07-02T07:10:45.145Z</time>
      </trkpt>
      <trkpt lat="51.49525" lon="4.2819">
        <ele>51.717549</ele>
        <time>2024-07-02T07:10:47.139Z</time>
      </trkpt>
      <trkpt lat="51.49536" lon="4.28191">
        <ele>51.614198</ele>
        <time>2024-07-02T07:10:49.145Z</time>
      </trkpt>
      <trkpt lat="51.49547" lon="4.28193">
        <ele>51.514894</ele>
        <time>2024-07-02T07:10:51.129Z</time>
      </trkpt>
      <trkpt lat="51.49558" lon="4.28195">
        <ele>51.418291</ele>
        <time>2024-07-02T07:10:53.149Z</time>
      </trkpt>
      <trkpt lat="51.49568" lon="4.28196">
        <ele>51.322118</ele>
        <time>2024-07-02T07:10:55.142Z</time>
      </trkpt>
      <trkpt lat="51.49578" lon="4.28199">
        <ele>51.230972</ele>
        <time>2024-07-02T07:10:57.136Z</time>
      </trkpt>
      <trkpt lat="51.49591" lon="4.28204">
        <ele>51.108477</ele>
        <time>2024-07-02T07:11:00.143Z</time>
      </trkpt>
      <trkpt lat="51.49602" lon="4.28209">
        <ele>51.005805</ele>
        <time>2024-07-02T07:11:03.151Z</time>
      </trkpt>
      <trkpt lat="51.49612" lon="4.28213">
        <ele>50.912466</ele>
        <time>2024-07-02T07:11:06.149Z</time>
      </trkpt>
      <trkpt lat="51.49622" lon="4.28218">
        <ele>50.820862</ele>
        <time>2024-07-02T07:11:09.149Z</time>
      </trkpt>
      <trkpt lat="51.49631" lon="4.28222">
        <ele>50.757753</ele>
        <time>2024-07-02T07:11:12.155Z</time>
      </trkpt>
      <trkpt lat="51.4964" lon="4.28228">
        <ele>50.700057</ele>
        <time>2024-07-02T07:11:15.144Z</time>
      </trkpt>
      <trkpt lat="51.4965" lon="4.28231">
        <ele>50.638246</ele>
        <time>2024-07-02T07:11:18.137Z</time>
      </trkpt>
      <trkpt lat="51.4966" lon="4.28236">
        <ele>50.574105</ele>
        <time>2024-07-02T07:11:21.147Z</time>
      </trkpt>
      <trkpt lat="51.4967" lon="4.28243">
        <ele>50.511956</ele>
        <time>2024-07-02T07:11:24.137Z</time>
      </trkpt>
      <trkpt lat="51.49677" lon="4.28256">
        <ele>50.448666</ele>
        <time>2024-07-02T07:11:27.142Z</time>
      </trkpt>
      <trkpt lat="51.49683" lon="4.28272">
        <ele>50.380124</ele>
        <time>2024-07-02T07:11:31.124Z</time>
      </trkpt>
      <trkpt lat="51.49687" lon="4.28286">
        <ele>50.321435</ele>
        <time>2024-07-02T07:11:34.153Z</time>
      </trkpt>
      <trkpt lat="51.49692" lon="4.28299">
        <ele>50.263022</ele>
        <time>2024-07-02T07:11:37.154Z</time>
      </trkpt>
      <trkpt lat="51.49697" lon="4.28313">
        <ele>50.200506</ele>
        <time>2024-07-02T07:11:40.143Z</time>
      </trkpt>
      <trkpt lat="51.49703" lon="4.28329">
        <ele>50.133841</ele>
        <time>2024-07-02T07:11:43.155Z</time>
      </trkpt>
      <trkpt lat="51.49708" lon="4.28344">
        <ele>50.069994</ele>
        <time>2024-07-02T07:11:46.137Z</time>
      </trkpt>
      <trkpt lat="51.49713" lon="4.28358">
        <ele>50.011918</ele>
        <time>2024-07-02T07:11:49.147Z</time>
      </trkpt>
      <trkpt lat="51.49718" lon="4.2837">
        <ele>49.956343</ele>
        <time>2024-07-02T07:11:52.145Z</time>
      </trkpt>
      <trkpt lat="51.49723" lon="4.28384">
        <ele>49.895983</ele>
        <time>2024-07-02T07:11:55.142Z</time>
      </trkpt>
      <trkpt lat="51.49727" lon="4.28401">
        <ele>49.826244</ele>
        <time>2024-07-02T07:11:59.151Z</time>
      </trkpt>
      <trkpt lat="51.49734" lon="4.28412">
        <ele>49.767611</ele>
        <time>2024-07-02T07:12:03.129Z</time>
      </trkpt>
      <trkpt lat="51.49743" lon="4.28404">
        <ele>49.891705</ele>
        <time>2024-07-02T07:12:12.150Z</time>
      </trkpt>
      <trkpt lat="51.49753" lon="4.28394">
        <ele>50.469629</ele>
        <time>2024-07-02T07:12:16.153Z</time>
      </trkpt>
      <trkpt lat="51.4976" lon="4.28385">
        <ele>50.949021</ele>
        <time>2024-07-02T07:12:19.151Z</time>
      </trkpt>
      <trkpt lat="51.49768" lon="4.28376">
        <ele>51.433967</ele>
        <time>2024-07-02T07:12:22.144Z</time>
      </trkpt>
      <trkpt lat="51.49776" lon="4.28369">
        <ele>51.911002</ele>
        <time>2024-07-02T07:12:25.132Z</time>
      </trkpt>
      <trkpt lat="51.49784" lon="4.28361">
        <ele>52.389052</ele>
        <time>2024-07-02T07:12:28.139Z</time>
      </trkpt>
      <trkpt lat="51.49794" lon="4.28352">
        <ele>52.944188</ele>
        <time>2024-07-02T07:12:31.128Z</time>
      </trkpt>
      <trkpt lat="51.49802" lon="4.28341">
        <ele>53.472206</ele>
        <time>2024-07-02T07:12:34.154Z</time>
      </trkpt>
      <trkpt lat="51.4981" lon="4.28332">
        <ele>53.974555</ele>
        <time>2024-07-02T07:12:37.141Z</time>
      </trkpt>
      <trkpt lat="51.49818" lon="4.28326">
        <ele>54.446829</ele>
        <time>2024-07-02T07:12:40.140Z</time>
      </trkpt>
      <trkpt lat="51.49827" lon="4.28319">
        <ele>54.933575</ele>
        <time>2024-07-02T07:12:43.143Z</time>
      </trkpt>
      <trkpt lat="51.49836" lon="4.28309">
        <ele>55.512297</ele>
        <time>2024-07-02T07:12:46.146Z</time>
      </trkpt>
      <trkpt lat="51.49845" lon="4.283">
        <ele>56.027476</ele>
        <time>2024-07-02T07:12:49.137Z</time>
      </trkpt>
      <trkpt lat="51.49854" lon="4.28289">
        <ele>56.593612</ele>
        <time>2024-07-02T07:12:52.143Z</time>
      </trkpt>
      <trkpt lat="51.4986" lon="4.28275">
        <ele>57.129964</ele>
        <time>2024-07-02T07:12:55.132Z</time>
      </trkpt>
      <trkpt lat="51.49869" lon="4.28264">
        <ele>57.714407</ele>
        <time>2024-07-02T07:12:58.133Z</time>
      </trkpt>
      <trkpt lat="51.49879" lon="4.28255">
        <ele>58.31071</ele>
        <time>2024-07-02T07:13:01.145Z</time>
      </trkpt>
      <trkpt lat="51.49889" lon="4.28246">
        <ele>58.861493</ele>
        <time>2024-07-02T07:13:04.150Z</time>
      </trkpt>
      <trkpt lat="51.49899" lon="4.28236">
        <ele>59.042913</ele>
        <time>2024-07-02T07:13:07.149Z</time>
      </trkpt>
      <trkpt lat="51.49907" lon="4.28225">
        <ele>59.213466</ele>
        <time>2024-07-02T07:13:10.157Z</time>
      </trkpt>
      <trkpt lat="51.49916" lon="4.28214">
        <ele>59.399745</ele>
        <time>2024-07-02T07:13:13.147Z</time>
      </trkpt>
      <trkpt lat="51.49926" lon="4.28203">
        <ele>59.587888</ele>
        <time>2024-07-02T07:13:16.142Z</time>
      </trkpt>
      <trkpt lat="51.49936" lon="4.28193">
        <ele>59.767321</ele>
        <time>2024-07-02T07:13:19.154Z</time>
      </trkpt>
      <trkpt lat="51.49946" lon="4.28188">
        <ele>59.939519</ele>
        <time>2024-07-02T07:13:22.140Z</time>
      </trkpt>
      <trkpt lat="51.49957" lon="4.28184">
        <ele>60.114053</ele>
        <time>2024-07-02T07:13:25.142Z</time>
      </trkpt>
      <trkpt lat="51.49963" lon="4.2817">
        <ele>60.284895</ele>
        <time>2024-07-02T07:13:28.136Z</time>
      </trkpt>
      <trkpt lat="51.49967" lon="4.28154">
        <ele>60.451608</ele>
        <time>2024-07-02T07:13:31.153Z</time>
      </trkpt>
      <trkpt lat="51.49975" lon="4.28142">
        <ele>60.625252</ele>
        <time>2024-07-02T07:13:34.128Z</time>
      </trkpt>
      <trkpt lat="51.49984" lon="4.28129">
        <ele>60.816526</ele>
        <time>2024-07-02T07:13:37.154Z</time>
      </trkpt>
      <trkpt lat="51.49993" lon="4.28118">
        <ele>60.995124</ele>
        <time>2024-07-02T07:13:40.146Z</time>
      </trkpt>
      <trkpt lat="51.50001" lon="4.28107">
        <ele>61.168804</ele>
        <time>2024-07-02T07:13:43.142Z</time>
      </trkpt>
      <trkpt lat="51.5001" lon="4.28093">
        <ele>61.366184</ele>
        <time>2024-07-02T07:13:46.138Z</time>
      </trkpt>
      <trkpt lat="51.5002" lon="4.28081">
        <ele>61.56338</ele>
        <time>2024-07-02T07:13:49.131Z</time>
      </trkpt>
      <trkpt lat="51.50026" lon="4.2807">
        <ele>61.694028</ele>
        <time>2024-07-02T07:13:51.134Z</time>
      </trkpt>
      <trkpt lat="51.50036" lon="4.28058">
        <ele>61.513604</ele>
        <time>2024-07-02T07:13:54.147Z</time>
      </trkpt>
      <trkpt lat="51.50048" lon="4.28048">
        <ele>61.324808</ele>
        <time>2024-07-02T07:13:57.136Z</time>
      </trkpt>
      <trkpt lat="51.50056" lon="4.2804">
        <ele>61.193812</ele>
        <time>2024-07-02T07:13:59.149Z</time>
      </trkpt>
      <trkpt lat="51.50065" lon="4.28034">
        <ele>61.065267</ele>
        <time>2024-07-02T07:14:01.152Z</time>
      </trkpt>
      <trkpt lat="51.50073" lon="4.28027">
        <ele>60.929337</ele>
        <time>2024-07-02T07:14:03.140Z</time>
      </trkpt>
      <trkpt lat="51.50082" lon="4.2802">
        <ele>60.797882</ele>
        <time>2024-07-02T07:14:05.132Z</time>
      </trkpt>
      <trkpt lat="51.5009" lon="4.28013">
        <ele>60.661094</ele>
        <time>2024-07-02T07:14:07.135Z</time>
      </trkpt>
      <trkpt lat="51.50099" lon="4.28006">
        <ele>60.519257</ele>
        <time>2024-07-02T07:14:09.147Z</time>
      </trkpt>
      <trkpt lat="51.50108" lon="4.27999">
        <ele>60.387473</ele>
        <time>2024-07-02T07:14:11.148Z</time>
      </trkpt>
      <trkpt lat="51.50116" lon="4.27992">
        <ele>60.250324</ele>
        <time>2024-07-02T07:14:13.142Z</time>
      </trkpt>
      <trkpt lat="51.50125" lon="4.27985">
        <ele>60.112312</ele>
        <time>2024-07-02T07:14:15.165Z</time>
      </trkpt>
      <trkpt lat="51.50135" lon="4.2798">
        <ele>59.969442</ele>
        <time>2024-07-02T07:14:17.113Z</time>
      </trkpt>
      <trkpt lat="51.50144" lon="4.27977">
        <ele>59.84057</ele>
        <time>2024-07-02T07:14:19.137Z</time>
      </trkpt>
      <trkpt lat="51.50154" lon="4.27975">
        <ele>59.693425</ele>
        <time>2024-07-02T07:14:21.143Z</time>
      </trkpt>
      <trkpt lat="51.50164" lon="4.27972">
        <ele>59.553011</ele>
        <time>2024-07-02T07:14:23.158Z</time>
      </trkpt>
      <trkpt lat="51.50174" lon="4.27969">
        <ele>59.410872</ele>
        <time>2024-07-02T07:14:25.130Z</time>
      </trkpt>
      <trkpt lat="51.50183" lon="4.27968">
        <ele>59.282181</ele>
        <time>2024-07-02T07:14:27.155Z</time>
      </trkpt>
      <trkpt lat="51.50197" lon="4.27967">
        <ele>59.043044</ele>
        <time>2024-07-02T07:14:30.154Z</time>
      </trkpt>
      <trkpt lat="51.50206" lon="4.27964">
        <ele>58.835681</ele>
        <time>2024-07-02T07:14:32.162Z</time>
      </trkpt>
      <trkpt lat="51.50215" lon="4.27961">
        <ele>58.62391</ele>
        <time>2024-07-02T07:14:34.159Z</time>
      </trkpt>
      <trkpt lat="51.50225" lon="4.27959">
        <ele>58.408629</ele>
        <time>2024-07-02T07:14:36.151Z</time>
      </trkpt>
      <trkpt lat="51.50234" lon="4.27956">
        <ele>58.192914</ele>
        <time>2024-07-02T07:14:38.149Z</time>
      </trkpt>
      <trkpt lat="51.50244" lon="4.27955">
        <ele>57.97411</ele>
        <time>2024-07-02T07:14:40.171Z</time>
      </trkpt>
      <trkpt lat="51.50254" lon="4.27953">
        <ele>57.750523</ele>
        <time>2024-07-02T07:14:42.150Z</time>
      </trkpt>
      <trkpt lat="51.50264" lon="4.27951">
        <ele>57.520873</ele>
        <time>2024-07-02T07:14:44.163Z</time>
      </trkpt>
      <trkpt lat="51.50274" lon="4.27952">
        <ele>57.287324</ele>
        <time>2024-07-02T07:14:46.138Z</time>
      </trkpt>
      <trkpt lat="51.50285" lon="4.27953">
        <ele>57.051704</ele>
        <time>2024-07-02T07:14:48.156Z</time>
      </trkpt>
      <trkpt lat="51.50295" lon="4.27954">
        <ele>56.829509</ele>
        <time>2024-07-02T07:14:50.152Z</time>
      </trkpt>
      <trkpt lat="51.50305" lon="4.27954">
        <ele>56.609838</ele>
        <time>2024-07-02T07:14:52.146Z</time>
      </trkpt>
      <trkpt lat="51.50314" lon="4.27956">
        <ele>56.396304</ele>
        <time>2024-07-02T07:14:54.151Z</time>
      </trkpt>
      <trkpt lat="51.50324" lon="4.27956">
        <ele>56.174183</ele>
        <time>2024-07-02T07:14:56.147Z</time>
      </trkpt>
      <trkpt lat="51.50334" lon="4.27957">
        <ele>55.952062</ele>
        <time>2024-07-02T07:14:58.145Z</time>
      </trkpt>
      <trkpt lat="51.50343" lon="4.27957">
        <ele>55.736926</ele>
        <time>2024-07-02T07:15:00.134Z</time>
      </trkpt>
      <trkpt lat="51.50354" lon="4.27958">
        <ele>55.510175</ele>
        <time>2024-07-02T07:15:02.154Z</time>
      </trkpt>
      <trkpt lat="51.50364" lon="4.2796">
        <ele>55.285244</ele>
        <time>2024-07-02T07:15:04.144Z</time>
      </trkpt>
      <trkpt lat="51.50373" lon="4.2796">
        <ele>55.134785</ele>
        <time>2024-07-02T07:15:06.146Z</time>
      </trkpt>
      <trkpt lat="51.50383" lon="4.27961">
        <ele>55.118306</ele>
        <time>2024-07-02T07:15:08.142Z</time>
      </trkpt>
      <trkpt lat="51.50392" lon="4.27961">
        <ele>55.102537</ele>
        <time>2024-07-02T07:15:10.147Z</time>
      </trkpt>
      <trkpt lat="51.50402" lon="4.27962">
        <ele>55.085359</ele>
        <time>2024-07-02T07:15:12.167Z</time>
      </trkpt>
      <trkpt lat="51.50411" lon="4.27962">
        <ele>55.06818</ele>
        <time>2024-07-02T07:15:14.169Z</time>
      </trkpt>
      <trkpt lat="51.50421" lon="4.27963">
        <ele>55.051186</ele>
        <time>2024-07-02T07:15:16.161Z</time>
      </trkpt>
      <trkpt lat="51.50431" lon="4.27963">
        <ele>55.034547</ele>
        <time>2024-07-02T07:15:18.162Z</time>
      </trkpt>
      <trkpt lat="51.5044" lon="4.27964">
        <ele>55.017701</ele>
        <time>2024-07-02T07:15:20.145Z</time>
      </trkpt>
      <trkpt lat="51.50453" lon="4.27964">
        <ele>54.994406</ele>
        <time>2024-07-02T07:15:23.162Z</time>
      </trkpt>
      <trkpt lat="51.50467" lon="4.27964">
        <ele>54.97076</ele>
        <time>2024-07-02T07:15:26.149Z</time>
      </trkpt>
      <trkpt lat="51.5048" lon="4.27966">
        <ele>54.947579</ele>
        <time>2024-07-02T07:15:29.162Z</time>
      </trkpt>
      <trkpt lat="51.50493" lon="4.27967">
        <ele>54.92528</ele>
        <time>2024-07-02T07:15:32.149Z</time>
      </trkpt>
      <trkpt lat="51.50506" lon="4.27968">
        <ele>54.903019</ele>
        <time>2024-07-02T07:15:35.122Z</time>
      </trkpt>
      <trkpt lat="51.50519" lon="4.27969">
        <ele>54.87972</ele>
        <time>2024-07-02T07:15:38.151Z</time>
      </trkpt>
      <trkpt lat="51.50532" lon="4.27969">
        <ele>54.856429</ele>
        <time>2024-07-02T07:15:41.148Z</time>
      </trkpt>
      <trkpt lat="51.50541" lon="4.27969">
        <ele>54.840488</ele>
        <time>2024-07-02T07:15:43.143Z</time>
      </trkpt>
      <trkpt lat="51.50553" lon="4.27971">
        <ele>54.85315</ele>
        <time>2024-07-02T07:15:46.173Z</time>
      </trkpt>
      <trkpt lat="51.50566" lon="4.27972">
        <ele>54.946339</ele>
        <time>2024-07-02T07:15:49.144Z</time>
      </trkpt>
      <trkpt lat="51.50578" lon="4.27974">
        <ele>55.041493</ele>
        <time>2024-07-02T07:15:52.161Z</time>
      </trkpt>
      <trkpt lat="51.50591" lon="4.27975">
        <ele>55.136124</ele>
        <time>2024-07-02T07:15:55.132Z</time>
      </trkpt>
      <trkpt lat="51.50603" lon="4.27977">
        <ele>55.230202</ele>
        <time>2024-07-02T07:15:58.152Z</time>
      </trkpt>
      <trkpt lat="51.50616" lon="4.27978">
        <ele>55.326307</ele>
        <time>2024-07-02T07:16:01.153Z</time>
      </trkpt>
      <trkpt lat="51.50629" lon="4.27978">
        <ele>55.4238</ele>
        <time>2024-07-02T07:16:04.150Z</time>
      </trkpt>
      <trkpt lat="51.50642" lon="4.27977">
        <ele>55.522881</ele>
        <time>2024-07-02T07:16:07.142Z</time>
      </trkpt>
      <trkpt lat="51.50655" lon="4.27977">
        <ele>55.618877</ele>
        <time>2024-07-02T07:16:10.153Z</time>
      </trkpt>
      <trkpt lat="51.50668" lon="4.27976">
        <ele>55.71341</ele>
        <time>2024-07-02T07:16:13.159Z</time>
      </trkpt>
      <trkpt lat="51.5068" lon="4.27975">
        <ele>55.805918</ele>
        <time>2024-07-02T07:16:16.162Z</time>
      </trkpt>
      <trkpt lat="51.5069" lon="4.27974">
        <ele>55.87645</ele>
        <time>2024-07-02T07:16:18.147Z</time>
      </trkpt>
      <trkpt lat="51.50702" lon="4.27974">
        <ele>55.9695</ele>
        <time>2024-07-02T07:16:21.163Z</time>
      </trkpt>
      <trkpt lat="51.50714" lon="4.27972">
        <ele>56.057485</ele>
        <time>2024-07-02T07:16:24.159Z</time>
      </trkpt>
      <trkpt lat="51.50725" lon="4.27971">
        <ele>56.145471</ele>
        <time>2024-07-02T07:16:27.153Z</time>
      </trkpt>
      <trkpt lat="51.50737" lon="4.27969">
        <ele>56.238953</ele>
        <time>2024-07-02T07:16:30.161Z</time>
      </trkpt>
      <trkpt lat="51.50748" lon="4.27967">
        <ele>56.333314</ele>
        <time>2024-07-02T07:16:33.147Z</time>
      </trkpt>
      <trkpt lat="51.50759" lon="4.27964">
        <ele>56.424085</ele>
        <time>2024-07-02T07:16:36.157Z</time>
      </trkpt>
      <trkpt lat="51.50771" lon="4.27962">
        <ele>56.523381</ele>
        <time>2024-07-02T07:16:39.159Z</time>
      </trkpt>
      <trkpt lat="51.50783" lon="4.27959">
        <ele>56.621592</ele>
        <time>2024-07-02T07:16:42.143Z</time>
      </trkpt>
      <trkpt lat="51.50795" lon="4.27956">
        <ele>56.720231</ele>
        <time>2024-07-02T07:16:45.126Z</time>
      </trkpt>
      <trkpt lat="51.50808" lon="4.27953">
        <ele>56.824391</ele>
        <time>2024-07-02T07:16:48.158Z</time>
      </trkpt>
      <trkpt lat="51.5082" lon="4.27951">
        <ele>56.927672</ele>
        <time>2024-07-02T07:16:51.144Z</time>
      </trkpt>
      <trkpt lat="51.50832" lon="4.27947">
        <ele>57.027635</ele>
        <time>2024-07-02T07:16:54.149Z</time>
      </trkpt>
      <trkpt lat="51.50844" lon="4.27946">
        <ele>57.125243</ele>
        <time>2024-07-02T07:16:57.156Z</time>
      </trkpt>
      <trkpt lat="51.50856" lon="4.27944">
        <ele>57.22002</ele>
        <time>2024-07-02T07:17:00.162Z</time>
      </trkpt>
      <trkpt lat="51.50866" lon="4.27943">
        <ele>57.307036</ele>
        <time>2024-07-02T07:17:03.170Z</time>
      </trkpt>
      <trkpt lat="51.50877" lon="4.2794">
        <ele>57.398082</ele>
        <time>2024-07-02T07:17:06.163Z</time>
      </trkpt>
      <trkpt lat="51.50888" lon="4.27938">
        <ele>57.487919</ele>
        <time>2024-07-02T07:17:09.163Z</time>
      </trkpt>
      <trkpt lat="51.50899" lon="4.27936">
        <ele>57.573752</ele>
        <time>2024-07-02T07:17:12.148Z</time>
      </trkpt>
      <trkpt lat="51.50909" lon="4.27934">
        <ele>57.651978</ele>
        <time>2024-07-02T07:17:15.130Z</time>
      </trkpt>
      <trkpt lat="51.5092" lon="4.27932">
        <ele>57.689941</ele>
        <time>2024-07-02T07:17:18.169Z</time>
      </trkpt>
      <trkpt lat="51.5093" lon="4.2793">
        <ele>57.727504</ele>
        <time>2024-07-02T07:17:21.142Z</time>
      </trkpt>
      <trkpt lat="51.50941" lon="4.27928">
        <ele>57.765091</ele>
        <time>2024-07-02T07:17:24.145Z</time>
      </trkpt>
      <trkpt lat="51.50951" lon="4.27925">
        <ele>57.801777</ele>
        <time>2024-07-02T07:17:27.167Z</time>
      </trkpt>
      <trkpt lat="51.50961" lon="4.27923">
        <ele>57.837767</ele>
        <time>2024-07-02T07:17:30.150Z</time>
      </trkpt>
      <trkpt lat="51.50971" lon="4.2792">
        <ele>57.874594</ele>
        <time>2024-07-02T07:17:33.158Z</time>
      </trkpt>
      <trkpt lat="51.50981" lon="4.27917">
        <ele>57.908533</ele>
        <time>2024-07-02T07:17:36.153Z</time>
      </trkpt>
      <trkpt lat="51.50992" lon="4.27915">
        <ele>57.947572</ele>
        <time>2024-07-02T07:17:39.159Z</time>
      </trkpt>
      <trkpt lat="51.51003" lon="4.27913">
        <ele>57.988359</ele>
        <time>2024-07-02T07:17:42.146Z</time>
      </trkpt>
      <trkpt lat="51.51015" lon="4.27911">
        <ele>58.029752</ele>
        <time>2024-07-02T07:17:45.141Z</time>
      </trkpt>
      <trkpt lat="51.51027" lon="4.27908">
        <ele>58.072426</ele>
        <time>2024-07-02T07:17:48.157Z</time>
      </trkpt>
      <trkpt lat="51.51039" lon="4.27905">
        <ele>58.115578</ele>
        <time>2024-07-02T07:17:51.145Z</time>
      </trkpt>
      <trkpt lat="51.51051" lon="4.27903">
        <ele>58.156666</ele>
        <time>2024-07-02T07:17:54.143Z</time>
      </trkpt>
      <trkpt lat="51.51062" lon="4.27901">
        <ele>58.197945</ele>
        <time>2024-07-02T07:17:57.153Z</time>
      </trkpt>
      <trkpt lat="51.51074" lon="4.27897">
        <ele>58.239899</ele>
        <time>2024-07-02T07:18:00.158Z</time>
      </trkpt>
      <trkpt lat="51.51085" lon="4.27896">
        <ele>58.27801</ele>
        <time>2024-07-02T07:18:03.158Z</time>
      </trkpt>
      <trkpt lat="51.51095" lon="4.27892">
        <ele>58.247732</ele>
        <time>2024-07-02T07:18:06.158Z</time>
      </trkpt>
      <trkpt lat="51.51105" lon="4.27891">
        <ele>58.210465</ele>
        <time>2024-07-02T07:18:09.142Z</time>
      </trkpt>
      <trkpt lat="51.51116" lon="4.27889">
        <ele>58.171483</ele>
        <time>2024-07-02T07:18:12.149Z</time>
      </trkpt>
      <trkpt lat="51.51126" lon="4.27886">
        <ele>58.133752</ele>
        <time>2024-07-02T07:18:15.160Z</time>
      </trkpt>
      <trkpt lat="51.51137" lon="4.27889">
        <ele>58.09474</ele>
        <time>2024-07-02T07:18:18.154Z</time>
      </trkpt>
      <trkpt lat="51.5114" lon="4.27905">
        <ele>58.05809</ele>
        <time>2024-07-02T07:18:21.135Z</time>
      </trkpt>
      <trkpt lat="51.51158" lon="4.27904">
        <ele>57.991864</ele>
        <time>2024-07-02T07:20:14.139Z</time>
      </trkpt>
      <trkpt lat="51.5117" lon="4.279">
        <ele>57.948666</ele>
        <time>2024-07-02T07:20:17.142Z</time>
      </trkpt>
      <trkpt lat="51.51181" lon="4.27891">
        <ele>57.903791</ele>
        <time>2024-07-02T07:20:20.152Z</time>
      </trkpt>
      <trkpt lat="51.51191" lon="4.2788">
        <ele>57.862471</ele>
        <time>2024-07-02T07:20:23.145Z</time>
      </trkpt>
      <trkpt lat="51.51204" lon="4.27876">
        <ele>57.814888</ele>
        <time>2024-07-02T07:20:26.136Z</time>
      </trkpt>
      <trkpt lat="51.51216" lon="4.27872">
        <ele>57.769096</ele>
        <time>2024-07-02T07:20:29.145Z</time>
      </trkpt>
      <trkpt lat="51.51229" lon="4.27871">
        <ele>57.724334</ele>
        <time>2024-07-02T07:20:32.151Z</time>
      </trkpt>
      <trkpt lat="51.51242" lon="4.27871">
        <ele>57.676732</ele>
        <time>2024-07-02T07:20:35.134Z</time>
      </trkpt>
      <trkpt lat="51.51251" lon="4.27869">
        <ele>57.644332</ele>
        <time>2024-07-02T07:20:37.137Z</time>
      </trkpt>
      <trkpt lat="51.51264" lon="4.27866">
        <ele>57.719207</ele>
        <time>2024-07-02T07:20:40.155Z</time>
      </trkpt>
      <trkpt lat="51.51273" lon="4.27865">
        <ele>57.787314</ele>
        <time>2024-07-02T07:20:42.143Z</time>
      </trkpt>
      <trkpt lat="51.51285" lon="4.27862">
        <ele>57.884315</ele>
        <time>2024-07-02T07:20:45.130Z</time>
      </trkpt>
      <trkpt lat="51.51295" lon="4.2786">
        <ele>57.954327</ele>
        <time>2024-07-02T07:20:47.150Z</time>
      </trkpt>
      <trkpt lat="51.51304" lon="4.27858">
        <ele>58.026641</ele>
        <time>2024-07-02T07:20:49.150Z</time>
      </trkpt>
      <trkpt lat="51.51316" lon="4.2785">
        <ele>58.120946</ele>
        <time>2024-07-02T07:20:52.142Z</time>
      </trkpt>
      <trkpt lat="51.51325" lon="4.27849">
        <ele>58.191348</ele>
        <time>2024-07-02T07:20:54.161Z</time>
      </trkpt>
      <trkpt lat="51.51334" lon="4.27848">
        <ele>58.261427</ele>
        <time>2024-07-02T07:20:56.148Z</time>
      </trkpt>
      <trkpt lat="51.51348" lon="4.27844">
        <ele>58.363768</ele>
        <time>2024-07-02T07:20:59.148Z</time>
      </trkpt>
      <trkpt lat="51.51357" lon="4.27841">
        <ele>58.432737</ele>
        <time>2024-07-02T07:21:01.150Z</time>
      </trkpt>
      <trkpt lat="51.51366" lon="4.27837">
        <ele>58.501325</ele>
        <time>2024-07-02T07:21:03.153Z</time>
      </trkpt>
      <trkpt lat="51.51379" lon="4.27832">
        <ele>58.6033</ele>
        <time>2024-07-02T07:21:06.155Z</time>
      </trkpt>
      <trkpt lat="51.51388" lon="4.27829">
        <ele>58.673111</ele>
        <time>2024-07-02T07:21:08.147Z</time>
      </trkpt>
      <trkpt lat="51.51397" lon="4.27824">
        <ele>58.744234</ele>
        <time>2024-07-02T07:21:10.139Z</time>
      </trkpt>
      <trkpt lat="51.51406" lon="4.27819">
        <ele>58.814464</ele>
        <time>2024-07-02T07:21:12.162Z</time>
      </trkpt>
      <trkpt lat="51.51414" lon="4.27814">
        <ele>58.884119</ele>
        <time>2024-07-02T07:21:14.152Z</time>
      </trkpt>
      <trkpt lat="51.51427" lon="4.27807">
        <ele>58.987319</ele>
        <time>2024-07-02T07:21:17.130Z</time>
      </trkpt>
      <trkpt lat="51.51436" lon="4.27803">
        <ele>58.991582</ele>
        <time>2024-07-02T07:21:19.167Z</time>
      </trkpt>
      <trkpt lat="51.51445" lon="4.27799">
        <ele>58.992027</ele>
        <time>2024-07-02T07:21:21.147Z</time>
      </trkpt>
      <trkpt lat="51.51454" lon="4.27795">
        <ele>58.992473</ele>
        <time>2024-07-02T07:21:23.151Z</time>
      </trkpt>
      <trkpt lat="51.51463" lon="4.2779">
        <ele>58.992937</ele>
        <time>2024-07-02T07:21:25.139Z</time>
      </trkpt>
      <trkpt lat="51.51471" lon="4.27785">
        <ele>58.993384</ele>
        <time>2024-07-02T07:21:27.146Z</time>
      </trkpt>
      <trkpt lat="51.5148" lon="4.2778">
        <ele>58.993846</ele>
        <time>2024-07-02T07:21:29.134Z</time>
      </trkpt>
      <trkpt lat="51.51493" lon="4.27773">
        <ele>58.994523</ele>
        <time>2024-07-02T07:21:32.149Z</time>
      </trkpt>
      <trkpt lat="51.51506" lon="4.27766">
        <ele>58.995193</ele>
        <time>2024-07-02T07:21:35.128Z</time>
      </trkpt>
      <trkpt lat="51.51519" lon="4.2776">
        <ele>58.995856</ele>
        <time>2024-07-02T07:21:38.147Z</time>
      </trkpt>
      <trkpt lat="51.51531" lon="4.27753">
        <ele>58.996496</ele>
        <time>2024-07-02T07:21:41.177Z</time>
      </trkpt>
      <trkpt lat="51.51544" lon="4.27746">
        <ele>58.997149</ele>
        <time>2024-07-02T07:21:44.162Z</time>
      </trkpt>
      <trkpt lat="51.51556" lon="4.27739">
        <ele>58.997812</ele>
        <time>2024-07-02T07:21:47.144Z</time>
      </trkpt>
      <trkpt lat="51.51569" lon="4.27733">
        <ele>58.998454</ele>
        <time>2024-07-02T07:21:50.150Z</time>
      </trkpt>
      <trkpt lat="51.51577" lon="4.27728">
        <ele>58.998903</ele>
        <time>2024-07-02T07:21:52.145Z</time>
      </trkpt>
      <trkpt lat="51.5159" lon="4.27721">
        <ele>58.999552</ele>
        <time>2024-07-02T07:21:55.153Z</time>
      </trkpt>
      <trkpt lat="51.51601" lon="4.27714">
        <ele>59.025807</ele>
        <time>2024-07-02T07:21:58.151Z</time>
      </trkpt>
      <trkpt lat="51.51613" lon="4.27708">
        <ele>59.135138</ele>
        <time>2024-07-02T07:22:01.157Z</time>
      </trkpt>
      <trkpt lat="51.51624" lon="4.27702">
        <ele>59.233771</ele>
        <time>2024-07-02T07:22:04.167Z</time>
      </trkpt>
      <trkpt lat="51.51636" lon="4.27695">
        <ele>59.341145</ele>
        <time>2024-07-02T07:22:07.149Z</time>
      </trkpt>
      <trkpt lat="51.51648" lon="4.27688">
        <ele>59.450059</ele>
        <time>2024-07-02T07:22:10.149Z</time>
      </trkpt>
      <trkpt lat="51.5166" lon="4.2768">
        <ele>59.556808</ele>
        <time>2024-07-02T07:22:13.146Z</time>
      </trkpt>
      <trkpt lat="51.51673" lon="4.27674">
        <ele>59.669202</ele>
        <time>2024-07-02T07:22:16.143Z</time>
      </trkpt>
      <trkpt lat="51.51681" lon="4.27669">
        <ele>59.746294</ele>
        <time>2024-07-02T07:22:18.144Z</time>
      </trkpt>
      <trkpt lat="51.51693" lon="4.27662">
        <ele>59.849905</ele>
        <time>2024-07-02T07:22:21.135Z</time>
      </trkpt>
      <trkpt lat="51.51704" lon="4.27657">
        <ele>59.953739</ele>
        <time>2024-07-02T07:22:24.134Z</time>
      </trkpt>
      <trkpt lat="51.51715" lon="4.2765">
        <ele>60.050846</ele>
        <time>2024-07-02T07:22:27.147Z</time>
      </trkpt>
      <trkpt lat="51.51725" lon="4.27645">
        <ele>60.143969</ele>
        <time>2024-07-02T07:22:30.140Z</time>
      </trkpt>
      <trkpt lat="51.51736" lon="4.2764">
        <ele>60.236149</ele>
        <time>2024-07-02T07:22:33.153Z</time>
      </trkpt>
      <trkpt lat="51.51746" lon="4.27635">
        <ele>60.326517</ele>
        <time>2024-07-02T07:22:36.143Z</time>
      </trkpt>
      <trkpt lat="51.51756" lon="4.27629">
        <ele>60.419156</ele>
        <time>2024-07-02T07:22:39.156Z</time>
      </trkpt>
      <trkpt lat="51.51767" lon="4.27627">
        <ele>60.508676</ele>
        <time>2024-07-02T07:22:42.151Z</time>
      </trkpt>
      <trkpt lat="51.51777" lon="4.27621">
        <ele>60.580901</ele>
        <time>2024-07-02T07:22:45.131Z</time>
      </trkpt>
      <trkpt lat="51.51787" lon="4.27613">
        <ele>60.647874</ele>
        <time>2024-07-02T07:22:48.140Z</time>
      </trkpt>
      <trkpt lat="51.51797" lon="4.27609">
        <ele>60.712426</ele>
        <time>2024-07-02T07:22:51.147Z</time>
      </trkpt>
      <trkpt lat="51.51807" lon="4.27604">
        <ele>60.777346</ele>
        <time>2024-07-02T07:22:54.129Z</time>
      </trkpt>
      <trkpt lat="51.51818" lon="4.27601">
        <ele>60.84719</ele>
        <time>2024-07-02T07:22:57.133Z</time>
      </trkpt>
      <trkpt lat="51.51829" lon="4.27599">
        <ele>60.918612</ele>
        <time>2024-07-02T07:23:00.139Z</time>
      </trkpt>
      <trkpt lat="51.51841" lon="4.27596">
        <ele>60.992567</ele>
        <time>2024-07-02T07:23:03.154Z</time>
      </trkpt>
      <trkpt lat="51.51852" lon="4.27592">
        <ele>61.063246</ele>
        <time>2024-07-02T07:23:06.136Z</time>
      </trkpt>
      <trkpt lat="51.51865" lon="4.27589">
        <ele>61.142296</ele>
        <time>2024-07-02T07:23:09.139Z</time>
      </trkpt>
      <trkpt lat="51.51878" lon="4.27586">
        <ele>61.220334</ele>
        <time>2024-07-02T07:23:12.137Z</time>
      </trkpt>
      <trkpt lat="51.5189" lon="4.27584">
        <ele>61.296136</ele>
        <time>2024-07-02T07:23:15.120Z</time>
      </trkpt>
      <trkpt lat="51.51903" lon="4.2758">
        <ele>61.376578</ele>
        <time>2024-07-02T07:23:18.160Z</time>
      </trkpt>
      <trkpt lat="51.51915" lon="4.27576">
        <ele>61.455807</ele>
        <time>2024-07-02T07:23:21.146Z</time>
      </trkpt>
      <trkpt lat="51.51928" lon="4.27573">
        <ele>61.533788</ele>
        <time>2024-07-02T07:23:24.141Z</time>
      </trkpt>
      <trkpt lat="51.51941" lon="4.27571">
        <ele>61.615729</ele>
        <time>2024-07-02T07:23:27.163Z</time>
      </trkpt>
      <trkpt lat="51.51954" lon="4.27569">
        <ele>61.574456</ele>
        <time>2024-07-02T07:23:30.159Z</time>
      </trkpt>
      <trkpt lat="51.51967" lon="4.27566">
        <ele>61.474128</ele>
        <time>2024-07-02T07:23:33.147Z</time>
      </trkpt>
      <trkpt lat="51.51979" lon="4.27563">
        <ele>61.377001</ele>
        <time>2024-07-02T07:23:36.161Z</time>
      </trkpt>
      <trkpt lat="51.51992" lon="4.27561">
        <ele>61.279368</ele>
        <time>2024-07-02T07:23:39.157Z</time>
      </trkpt>
      <trkpt lat="51.52006" lon="4.27558">
        <ele>61.177867</ele>
        <time>2024-07-02T07:23:42.147Z</time>
      </trkpt>
      <trkpt lat="51.52015" lon="4.27554">
        <ele>61.1071</ele>
        <time>2024-07-02T07:23:44.141Z</time>
      </trkpt>
      <trkpt lat="51.52023" lon="4.2755">
        <ele>61.039151</ele>
        <time>2024-07-02T07:23:46.142Z</time>
      </trkpt>
      <trkpt lat="51.52032" lon="4.27545">
        <ele>60.969513</ele>
        <time>2024-07-02T07:23:48.165Z</time>
      </trkpt>
      <trkpt lat="51.52041" lon="4.2754">
        <ele>60.897742</ele>
        <time>2024-07-02T07:23:50.144Z</time>
      </trkpt>
      <trkpt lat="51.52054" lon="4.27539">
        <ele>60.799708</ele>
        <time>2024-07-02T07:23:53.138Z</time>
      </trkpt>
      <trkpt lat="51.52067" lon="4.2754">
        <ele>60.69944</ele>
        <time>2024-07-02T07:23:56.144Z</time>
      </trkpt>
      <trkpt lat="51.52079" lon="4.27541">
        <ele>60.61186</ele>
        <time>2024-07-02T07:23:59.163Z</time>
      </trkpt>
      <trkpt lat="51.52088" lon="4.27547">
        <ele>60.535278</ele>
        <time>2024-07-02T07:24:02.146Z</time>
      </trkpt>
      <trkpt lat="51.52101" lon="4.2755">
        <ele>60.440624</ele>
        <time>2024-07-02T07:24:05.155Z</time>
      </trkpt>
      <trkpt lat="51.52112" lon="4.27543">
        <ele>60.350381</ele>
        <time>2024-07-02T07:24:08.137Z</time>
      </trkpt>
      <trkpt lat="51.52123" lon="4.27538">
        <ele>60.214266</ele>
        <time>2024-07-02T07:24:11.137Z</time>
      </trkpt>
      <trkpt lat="51.52136" lon="4.27536">
        <ele>59.923687</ele>
        <time>2024-07-02T07:24:14.137Z</time>
      </trkpt>
      <trkpt lat="51.52145" lon="4.27535">
        <ele>59.702358</ele>
        <time>2024-07-02T07:24:16.155Z</time>
      </trkpt>
      <trkpt lat="51.52155" lon="4.27534">
        <ele>59.482279</ele>
        <time>2024-07-02T07:24:18.145Z</time>
      </trkpt>
      <trkpt lat="51.52164" lon="4.27532">
        <ele>59.265215</ele>
        <time>2024-07-02T07:24:20.144Z</time>
      </trkpt>
      <trkpt lat="51.52174" lon="4.27531">
        <ele>59.048378</ele>
        <time>2024-07-02T07:24:22.144Z</time>
      </trkpt>
      <trkpt lat="51.52187" lon="4.2753">
        <ele>58.742173</ele>
        <time>2024-07-02T07:24:25.139Z</time>
      </trkpt>
      <trkpt lat="51.52197" lon="4.27529">
        <ele>58.517524</ele>
        <time>2024-07-02T07:24:27.128Z</time>
      </trkpt>
      <trkpt lat="51.52207" lon="4.27527">
        <ele>58.288459</ele>
        <time>2024-07-02T07:24:29.146Z</time>
      </trkpt>
      <trkpt lat="51.52216" lon="4.27525">
        <ele>58.063081</ele>
        <time>2024-07-02T07:24:31.147Z</time>
      </trkpt>
      <trkpt lat="51.52226" lon="4.27523">
        <ele>57.829586</ele>
        <time>2024-07-02T07:24:33.157Z</time>
      </trkpt>
      <trkpt lat="51.52238" lon="4.27522">
        <ele>57.571655</ele>
        <time>2024-07-02T07:24:35.120Z</time>
      </trkpt>
      <trkpt lat="51.52248" lon="4.27522">
        <ele>57.322979</ele>
        <time>2024-07-02T07:24:37.141Z</time>
      </trkpt>
      <trkpt lat="51.52259" lon="4.27522">
        <ele>57.079102</ele>
        <time>2024-07-02T07:24:39.137Z</time>
      </trkpt>
      <trkpt lat="51.5227" lon="4.27521">
        <ele>56.832891</ele>
        <time>2024-07-02T07:24:41.146Z</time>
      </trkpt>
      <trkpt lat="51.52281" lon="4.2752">
        <ele>56.581198</ele>
        <time>2024-07-02T07:24:43.145Z</time>
      </trkpt>
      <trkpt lat="51.52292" lon="4.27519">
        <ele>56.327718</ele>
        <time>2024-07-02T07:24:45.130Z</time>
      </trkpt>
      <trkpt lat="51.52302" lon="4.27518">
        <ele>56.129543</ele>
        <time>2024-07-02T07:24:47.137Z</time>
      </trkpt>
      <trkpt lat="51.52312" lon="4.27518">
        <ele>56.059362</ele>
        <time>2024-07-02T07:24:49.157Z</time>
      </trkpt>
      <trkpt lat="51.52321" lon="4.27518">
        <ele>55.99269</ele>
        <time>2024-07-02T07:24:51.147Z</time>
      </trkpt>
      <trkpt lat="51.52331" lon="4.27517">
        <ele>55.926651</ele>
        <time>2024-07-02T07:24:53.141Z</time>
      </trkpt>
      <trkpt lat="51.52341" lon="4.27516">
        <ele>55.857564</ele>
        <time>2024-07-02T07:24:55.132Z</time>
      </trkpt>
      <trkpt lat="51.52351" lon="4.27515">
        <ele>55.787351</ele>
        <time>2024-07-02T07:24:57.143Z</time>
      </trkpt>
      <trkpt lat="51.52361" lon="4.27516">
        <ele>55.71715</ele>
        <time>2024-07-02T07:24:59.137Z</time>
      </trkpt>
      <trkpt lat="51.52371" lon="4.27515">
        <ele>55.64413</ele>
        <time>2024-07-02T07:25:01.142Z</time>
      </trkpt>
      <trkpt lat="51.52381" lon="4.27515">
        <ele>55.57184</ele>
        <time>2024-07-02T07:25:03.135Z</time>
      </trkpt>
      <trkpt lat="51.52392" lon="4.27515">
        <ele>55.498821</ele>
        <time>2024-07-02T07:25:05.127Z</time>
      </trkpt>
      <trkpt lat="51.52402" lon="4.27516">
        <ele>55.427077</ele>
        <time>2024-07-02T07:25:07.157Z</time>
      </trkpt>
      <trkpt lat="51.52412" lon="4.27516">
        <ele>55.358279</ele>
        <time>2024-07-02T07:25:09.142Z</time>
      </trkpt>
      <trkpt lat="51.52422" lon="4.27517">
        <ele>55.288767</ele>
        <time>2024-07-02T07:25:11.144Z</time>
      </trkpt>
      <trkpt lat="51.52431" lon="4.27518">
        <ele>55.222706</ele>
        <time>2024-07-02T07:25:13.140Z</time>
      </trkpt>
      <trkpt lat="51.5244" lon="4.27518">
        <ele>55.156667</ele>
        <time>2024-07-02T07:25:15.127Z</time>
      </trkpt>
      <trkpt lat="51.5245" lon="4.27519">
        <ele>55.091394</ele>
        <time>2024-07-02T07:25:17.117Z</time>
      </trkpt>
      <trkpt lat="51.52459" lon="4.2752">
        <ele>55.025009</ele>
        <time>2024-07-02T07:25:19.141Z</time>
      </trkpt>
      <trkpt lat="51.52468" lon="4.27522">
        <ele>54.961463</ele>
        <time>2024-07-02T07:25:21.138Z</time>
      </trkpt>
      <trkpt lat="51.52481" lon="4.27524">
        <ele>54.865331</ele>
        <time>2024-07-02T07:25:24.140Z</time>
      </trkpt>
      <trkpt lat="51.5249" lon="4.27526">
        <ele>54.769805</ele>
        <time>2024-07-02T07:25:26.146Z</time>
      </trkpt>
      <trkpt lat="51.525" lon="4.27527">
        <ele>54.675334</ele>
        <time>2024-07-02T07:25:28.152Z</time>
      </trkpt>
      <trkpt lat="51.52509" lon="4.27529">
        <ele>54.5806</ele>
        <time>2024-07-02T07:25:30.161Z</time>
      </trkpt>
      <trkpt lat="51.52518" lon="4.27532">
        <ele>54.485424</ele>
        <time>2024-07-02T07:25:32.146Z</time>
      </trkpt>
      <trkpt lat="51.52528" lon="4.27535">
        <ele>54.39314</ele>
        <time>2024-07-02T07:25:34.152Z</time>
      </trkpt>
      <trkpt lat="51.52537" lon="4.27538">
        <ele>54.29254</ele>
        <time>2024-07-02T07:25:36.142Z</time>
      </trkpt>
      <trkpt lat="51.5255" lon="4.27543">
        <ele>54.166994</ele>
        <time>2024-07-02T07:25:39.164Z</time>
      </trkpt>
      <trkpt lat="51.5256" lon="4.27546">
        <ele>54.056627</ele>
        <time>2024-07-02T07:25:42.155Z</time>
      </trkpt>
      <trkpt lat="51.52574" lon="4.27548">
        <ele>53.9217</ele>
        <time>2024-07-02T07:25:45.142Z</time>
      </trkpt>
      <trkpt lat="51.52583" lon="4.27551">
        <ele>53.82918</ele>
        <time>2024-07-02T07:25:47.155Z</time>
      </trkpt>
      <trkpt lat="51.52592" lon="4.27555">
        <ele>53.730938</ele>
        <time>2024-07-02T07:25:49.140Z</time>
      </trkpt>
      <trkpt lat="51.52601" lon="4.27558">
        <ele>53.639393</ele>
        <time>2024-07-02T07:25:51.159Z</time>
      </trkpt>
      <trkpt lat="51.52614" lon="4.27564">
        <ele>53.510392</ele>
        <time>2024-07-02T07:25:54.138Z</time>
      </trkpt>
      <trkpt lat="51.52626" lon="4.2757">
        <ele>53.381155</ele>
        <time>2024-07-02T07:25:57.150Z</time>
      </trkpt>
      <trkpt lat="51.52635" lon="4.27574">
        <ele>53.291406</ele>
        <time>2024-07-02T07:25:59.154Z</time>
      </trkpt>
      <trkpt lat="51.52647" lon="4.27579">
        <ele>53.160583</ele>
        <time>2024-07-02T07:26:02.156Z</time>
      </trkpt>
      <trkpt lat="51.5266" lon="4.27585">
        <ele>53.075523</ele>
        <time>2024-07-02T07:26:05.138Z</time>
      </trkpt>
      <trkpt lat="51.52672" lon="4.27591">
        <ele>53.054068</ele>
        <time>2024-07-02T07:26:08.141Z</time>
      </trkpt>
      <trkpt lat="51.52683" lon="4.27597">
        <ele>53.035608</ele>
        <time>2024-07-02T07:26:11.127Z</time>
      </trkpt>
      <trkpt lat="51.52695" lon="4.27605">
        <ele>53.014256</ele>
        <time>2024-07-02T07:26:14.147Z</time>
      </trkpt>
      <trkpt lat="51.52706" lon="4.27611">
        <ele>52.993789</ele>
        <time>2024-07-02T07:26:17.150Z</time>
      </trkpt>
      <trkpt lat="51.52717" lon="4.27618">
        <ele>52.973672</ele>
        <time>2024-07-02T07:26:20.156Z</time>
      </trkpt>
      <trkpt lat="51.52729" lon="4.27626">
        <ele>52.953007</ele>
        <time>2024-07-02T07:26:23.140Z</time>
      </trkpt>
      <trkpt lat="51.5274" lon="4.27636">
        <ele>52.931963</ele>
        <time>2024-07-02T07:26:26.150Z</time>
      </trkpt>
      <trkpt lat="51.52748" lon="4.27644">
        <ele>52.91617</ele>
        <time>2024-07-02T07:26:28.149Z</time>
      </trkpt>
      <trkpt lat="51.52757" lon="4.2765">
        <ele>52.900396</ele>
        <time>2024-07-02T07:26:30.131Z</time>
      </trkpt>
      <trkpt lat="51.52765" lon="4.27656">
        <ele>52.885442</ele>
        <time>2024-07-02T07:26:32.136Z</time>
      </trkpt>
      <trkpt lat="51.52776" lon="4.27666">
        <ele>52.864353</ele>
        <time>2024-07-02T07:26:35.152Z</time>
      </trkpt>
      <trkpt lat="51.52783" lon="4.27682">
        <ele>52.844344</ele>
        <time>2024-07-02T07:26:38.142Z</time>
      </trkpt>
      <trkpt lat="51.52793" lon="4.27693">
        <ele>52.824076</ele>
        <time>2024-07-02T07:26:41.145Z</time>
      </trkpt>
      <trkpt lat="51.52804" lon="4.27701">
        <ele>52.803726</ele>
        <time>2024-07-02T07:26:44.125Z</time>
      </trkpt>
      <trkpt lat="51.52813" lon="4.27708">
        <ele>52.787758</ele>
        <time>2024-07-02T07:26:46.141Z</time>
      </trkpt>
      <trkpt lat="51.52821" lon="4.27715">
        <ele>52.812516</ele>
        <time>2024-07-02T07:26:48.141Z</time>
      </trkpt>
      <trkpt lat="51.52833" lon="4.27725">
        <ele>52.856217</ele>
        <time>2024-07-02T07:26:51.148Z</time>
      </trkpt>
      <trkpt lat="51.52841" lon="4.27732">
        <ele>52.88655</ele>
        <time>2024-07-02T07:26:53.143Z</time>
      </trkpt>
      <trkpt lat="51.52849" lon="4.2774">
        <ele>52.918181</ele>
        <time>2024-07-02T07:26:55.129Z</time>
      </trkpt>
      <trkpt lat="51.5286" lon="4.27749">
        <ele>52.959846</ele>
        <time>2024-07-02T07:26:58.140Z</time>
      </trkpt>
      <trkpt lat="51.52872" lon="4.27759">
        <ele>53.004047</ele>
        <time>2024-07-02T07:27:01.140Z</time>
      </trkpt>
      <trkpt lat="51.52883" lon="4.27766">
        <ele>53.044131</ele>
        <time>2024-07-02T07:27:04.145Z</time>
      </trkpt>
      <trkpt lat="51.52895" lon="4.27775">
        <ele>53.086517</ele>
        <time>2024-07-02T07:27:07.167Z</time>
      </trkpt>
      <trkpt lat="51.52903" lon="4.27782">
        <ele>53.117446</ele>
        <time>2024-07-02T07:27:09.144Z</time>
      </trkpt>
      <trkpt lat="51.52915" lon="4.27791">
        <ele>53.161498</ele>
        <time>2024-07-02T07:27:12.145Z</time>
      </trkpt>
      <trkpt lat="51.52926" lon="4.27801">
        <ele>53.20132</ele>
        <time>2024-07-02T07:27:15.152Z</time>
      </trkpt>
      <trkpt lat="51.52937" lon="4.27809">
        <ele>53.242589</ele>
        <time>2024-07-02T07:27:18.130Z</time>
      </trkpt>
      <trkpt lat="51.52949" lon="4.27819">
        <ele>53.286496</ele>
        <time>2024-07-02T07:27:21.147Z</time>
      </trkpt>
      <trkpt lat="51.52961" lon="4.27827">
        <ele>53.329006</ele>
        <time>2024-07-02T07:27:24.138Z</time>
      </trkpt>
      <trkpt lat="51.52972" lon="4.27836">
        <ele>53.369675</ele>
        <time>2024-07-02T07:27:27.140Z</time>
      </trkpt>
      <trkpt lat="51.52983" lon="4.27845">
        <ele>53.220682</ele>
        <time>2024-07-02T07:27:30.137Z</time>
      </trkpt>
      <trkpt lat="51.52996" lon="4.27847">
        <ele>53.014583</ele>
        <time>2024-07-02T07:27:33.134Z</time>
      </trkpt>
      <trkpt lat="51.53006" lon="4.27848">
        <ele>52.859278</ele>
        <time>2024-07-02T07:27:35.119Z</time>
      </trkpt>
      <trkpt lat="51.53017" lon="4.27857">
        <ele>52.670783</ele>
        <time>2024-07-02T07:27:38.152Z</time>
      </trkpt>
      <trkpt lat="51.53029" lon="4.27867">
        <ele>52.459538</ele>
        <time>2024-07-02T07:27:41.140Z</time>
      </trkpt>
      <trkpt lat="51.5304" lon="4.27876">
        <ele>52.262116</ele>
        <time>2024-07-02T07:27:44.149Z</time>
      </trkpt>
      <trkpt lat="51.53051" lon="4.27886">
        <ele>52.055979</ele>
        <time>2024-07-02T07:27:47.144Z</time>
      </trkpt>
      <trkpt lat="51.53064" lon="4.27895">
        <ele>51.836065</ele>
        <time>2024-07-02T07:27:50.148Z</time>
      </trkpt>
      <trkpt lat="51.53072" lon="4.27902">
        <ele>51.691211</ele>
        <time>2024-07-02T07:27:52.139Z</time>
      </trkpt>
      <trkpt lat="51.5308" lon="4.27909">
        <ele>51.546356</ele>
        <time>2024-07-02T07:27:54.146Z</time>
      </trkpt>
      <trkpt lat="51.53088" lon="4.27916">
        <ele>51.398702</ele>
        <time>2024-07-02T07:27:56.149Z</time>
      </trkpt>
      <trkpt lat="51.53097" lon="4.27922">
        <ele>51.248537</ele>
        <time>2024-07-02T07:27:58.145Z</time>
      </trkpt>
      <trkpt lat="51.53106" lon="4.27929">
        <ele>51.095913</ele>
        <time>2024-07-02T07:28:00.154Z</time>
      </trkpt>
      <trkpt lat="51.53115" lon="4.27936">
        <ele>50.93758</ele>
        <time>2024-07-02T07:28:02.162Z</time>
      </trkpt>
      <trkpt lat="51.53123" lon="4.27943">
        <ele>50.785566</ele>
        <time>2024-07-02T07:28:04.165Z</time>
      </trkpt>
      <trkpt lat="51.53135" lon="4.27952">
        <ele>50.573635</ele>
        <time>2024-07-02T07:28:07.162Z</time>
      </trkpt>
      <trkpt lat="51.53144" lon="4.27958">
        <ele>50.555126</ele>
        <time>2024-07-02T07:28:09.156Z</time>
      </trkpt>
      <trkpt lat="51.53152" lon="4.27965">
        <ele>50.581615</ele>
        <time>2024-07-02T07:28:11.151Z</time>
      </trkpt>
      <trkpt lat="51.53161" lon="4.27973">
        <ele>50.610164</ele>
        <time>2024-07-02T07:28:13.147Z</time>
      </trkpt>
      <trkpt lat="51.53169" lon="4.2798">
        <ele>50.6359</ele>
        <time>2024-07-02T07:28:15.134Z</time>
      </trkpt>
      <trkpt lat="51.53177" lon="4.27987">
        <ele>50.662071</ele>
        <time>2024-07-02T07:28:17.144Z</time>
      </trkpt>
      <trkpt lat="51.53185" lon="4.27995">
        <ele>50.689049</ele>
        <time>2024-07-02T07:28:19.162Z</time>
      </trkpt>
      <trkpt lat="51.53194" lon="4.28002">
        <ele>50.715864</ele>
        <time>2024-07-02T07:28:21.139Z</time>
      </trkpt>
      <trkpt lat="51.53204" lon="4.28013">
        <ele>50.751448</ele>
        <time>2024-07-02T07:28:24.145Z</time>
      </trkpt>
      <trkpt lat="51.53215" lon="4.28023">
        <ele>50.786637</ele>
        <time>2024-07-02T07:28:27.147Z</time>
      </trkpt>
      <trkpt lat="51.53227" lon="4.28032">
        <ele>50.82459</ele>
        <time>2024-07-02T07:28:30.144Z</time>
      </trkpt>
      <trkpt lat="51.53239" lon="4.28042">
        <ele>50.861004</ele>
        <time>2024-07-02T07:28:33.156Z</time>
      </trkpt>
      <trkpt lat="51.5325" lon="4.28052">
        <ele>50.898241</ele>
        <time>2024-07-02T07:28:36.155Z</time>
      </trkpt>
      <trkpt lat="51.53261" lon="4.28063">
        <ele>50.934063</ele>
        <time>2024-07-02T07:28:39.141Z</time>
      </trkpt>
      <trkpt lat="51.53273" lon="4.28072">
        <ele>50.97004</ele>
        <time>2024-07-02T07:28:42.147Z</time>
      </trkpt>
      <trkpt lat="51.53281" lon="4.28078">
        <ele>50.995459</ele>
        <time>2024-07-02T07:28:44.146Z</time>
      </trkpt>
      <trkpt lat="51.53293" lon="4.28087">
        <ele>51.033412</ele>
        <time>2024-07-02T07:28:47.166Z</time>
      </trkpt>
      <trkpt lat="51.53302" lon="4.28094">
        <ele>51.01296</ele>
        <time>2024-07-02T07:28:49.157Z</time>
      </trkpt>
      <trkpt lat="51.5331" lon="4.281">
        <ele>50.968984</ele>
        <time>2024-07-02T07:28:51.145Z</time>
      </trkpt>
      <trkpt lat="51.53318" lon="4.28107">
        <ele>50.925603</ele>
        <time>2024-07-02T07:28:53.143Z</time>
      </trkpt>
      <trkpt lat="51.5333" lon="4.28117">
        <ele>50.862716</ele>
        <time>2024-07-02T07:28:56.146Z</time>
      </trkpt>
      <trkpt lat="51.53338" lon="4.28124">
        <ele>50.819334</ele>
        <time>2024-07-02T07:28:58.143Z</time>
      </trkpt>
      <trkpt lat="51.53346" lon="4.28131">
        <ele>50.775526</ele>
        <time>2024-07-02T07:29:00.145Z</time>
      </trkpt>
      <trkpt lat="51.53355" lon="4.28136">
        <ele>50.73153</ele>
        <time>2024-07-02T07:29:02.147Z</time>
      </trkpt>
      <trkpt lat="51.53363" lon="4.28143">
        <ele>50.6883</ele>
        <time>2024-07-02T07:29:04.150Z</time>
      </trkpt>
      <trkpt lat="51.53373" lon="4.28153">
        <ele>50.629693</ele>
        <time>2024-07-02T07:29:07.137Z</time>
      </trkpt>
      <trkpt lat="51.53385" lon="4.28163">
        <ele>50.567928</ele>
        <time>2024-07-02T07:29:10.140Z</time>
      </trkpt>
      <trkpt lat="51.53396" lon="4.28171">
        <ele>50.506078</ele>
        <time>2024-07-02T07:29:13.141Z</time>
      </trkpt>
      <trkpt lat="51.53407" lon="4.2818">
        <ele>50.447829</ele>
        <time>2024-07-02T07:29:16.139Z</time>
      </trkpt>
      <trkpt lat="51.53415" lon="4.28187">
        <ele>50.404313</ele>
        <time>2024-07-02T07:29:18.144Z</time>
      </trkpt>
      <trkpt lat="51.53426" lon="4.28198">
        <ele>50.34274</ele>
        <time>2024-07-02T07:29:21.157Z</time>
      </trkpt>
      <trkpt lat="51.53438" lon="4.28207">
        <ele>50.281509</ele>
        <time>2024-07-02T07:29:24.162Z</time>
      </trkpt>
      <trkpt lat="51.5345" lon="4.28216">
        <ele>50.216268</ele>
        <time>2024-07-02T07:29:27.155Z</time>
      </trkpt>
      <trkpt lat="51.53459" lon="4.28222">
        <ele>50.261284</ele>
        <time>2024-07-02T07:29:29.137Z</time>
      </trkpt>
      <trkpt lat="51.53467" lon="4.28227">
        <ele>50.544282</ele>
        <time>2024-07-02T07:29:31.143Z</time>
      </trkpt>
      <trkpt lat="51.53476" lon="4.28233">
        <ele>50.83536</ele>
        <time>2024-07-02T07:29:33.140Z</time>
      </trkpt>
      <trkpt lat="51.53484" lon="4.28239">
        <ele>51.127775</ele>
        <time>2024-07-02T07:29:35.128Z</time>
      </trkpt>
      <trkpt lat="51.53496" lon="4.28248">
        <ele>51.549998</ele>
        <time>2024-07-02T07:29:38.142Z</time>
      </trkpt>
      <trkpt lat="51.53507" lon="4.28256">
        <ele>51.921757</ele>
        <time>2024-07-02T07:29:41.154Z</time>
      </trkpt>
      <trkpt lat="51.53518" lon="4.28264">
        <ele>52.303173</ele>
        <time>2024-07-02T07:29:44.145Z</time>
      </trkpt>
      <trkpt lat="51.5353" lon="4.28273">
        <ele>52.694908</ele>
        <time>2024-07-02T07:29:47.139Z</time>
      </trkpt>
      <trkpt lat="51.5354" lon="4.28282">
        <ele>53.068007</ele>
        <time>2024-07-02T07:29:50.119Z</time>
      </trkpt>
      <trkpt lat="51.53549" lon="4.28291">
        <ele>53.409286</ele>
        <time>2024-07-02T07:29:53.154Z</time>
      </trkpt>
      <trkpt lat="51.53554" lon="4.28307">
        <ele>53.753988</ele>
        <time>2024-07-02T07:29:56.144Z</time>
      </trkpt>
      <trkpt lat="51.5356" lon="4.2832">
        <ele>54.06975</ele>
        <time>2024-07-02T07:29:59.118Z</time>
      </trkpt>
      <trkpt lat="51.5357" lon="4.28325">
        <ele>54.383401</ele>
        <time>2024-07-02T07:30:02.154Z</time>
      </trkpt>
      <trkpt lat="51.5358" lon="4.28323">
        <ele>54.708945</ele>
        <time>2024-07-02T07:30:05.139Z</time>
      </trkpt>
      <trkpt lat="51.53591" lon="4.28319">
        <ele>55.073047</ele>
        <time>2024-07-02T07:30:08.145Z</time>
      </trkpt>
      <trkpt lat="51.53601" lon="4.28326">
        <ele>55.418219</ele>
        <time>2024-07-02T07:30:11.134Z</time>
      </trkpt>
      <trkpt lat="51.53612" lon="4.28332">
        <ele>55.786032</ele>
        <time>2024-07-02T07:30:14.152Z</time>
      </trkpt>
      <trkpt lat="51.53623" lon="4.2834">
        <ele>55.763502</ele>
        <time>2024-07-02T07:30:17.140Z</time>
      </trkpt>
      <trkpt lat="51.53633" lon="4.28349">
        <ele>55.696732</ele>
        <time>2024-07-02T07:30:20.156Z</time>
      </trkpt>
      <trkpt lat="51.53642" lon="4.28357">
        <ele>55.632107</ele>
        <time>2024-07-02T07:30:23.141Z</time>
      </trkpt>
      <trkpt lat="51.53654" lon="4.28365">
        <ele>55.561808</ele>
        <time>2024-07-02T07:30:26.151Z</time>
      </trkpt>
      <trkpt lat="51.53666" lon="4.2837">
        <ele>55.488199</ele>
        <time>2024-07-02T07:30:29.159Z</time>
      </trkpt>
      <trkpt lat="51.53678" lon="4.28373">
        <ele>55.415479</ele>
        <time>2024-07-02T07:30:32.126Z</time>
      </trkpt>
      <trkpt lat="51.53691" lon="4.28373">
        <ele>55.339277</ele>
        <time>2024-07-02T07:30:35.126Z</time>
      </trkpt>
      <trkpt lat="51.53704" lon="4.28373">
        <ele>55.261308</ele>
        <time>2024-07-02T07:30:38.155Z</time>
      </trkpt>
      <trkpt lat="51.53716" lon="4.28376">
        <ele>55.188963</ele>
        <time>2024-07-02T07:30:41.144Z</time>
      </trkpt>
      <trkpt lat="51.53725" lon="4.28381">
        <ele>55.134373</ele>
        <time>2024-07-02T07:30:43.130Z</time>
      </trkpt>
      <trkpt lat="51.53734" lon="4.28385">
        <ele>55.080132</ele>
        <time>2024-07-02T07:30:45.123Z</time>
      </trkpt>
      <trkpt lat="51.53743" lon="4.28389">
        <ele>55.026527</ele>
        <time>2024-07-02T07:30:47.167Z</time>
      </trkpt>
      <trkpt lat="51.53755" lon="4.28396">
        <ele>54.952416</ele>
        <time>2024-07-02T07:30:50.140Z</time>
      </trkpt>
      <trkpt lat="51.53768" lon="4.28401">
        <ele>54.873322</ele>
        <time>2024-07-02T07:30:53.144Z</time>
      </trkpt>
      <trkpt lat="51.53777" lon="4.28406">
        <ele>54.817964</ele>
        <time>2024-07-02T07:30:55.122Z</time>
      </trkpt>
      <trkpt lat="51.53786" lon="4.2841">
        <ele>54.745589</ele>
        <time>2024-07-02T07:30:57.150Z</time>
      </trkpt>
      <trkpt lat="51.53799" lon="4.28416">
        <ele>54.489362</ele>
        <time>2024-07-02T07:31:00.161Z</time>
      </trkpt>
      <trkpt lat="51.53808" lon="4.2842">
        <ele>54.295996</ele>
        <time>2024-07-02T07:31:02.144Z</time>
      </trkpt>
      <trkpt lat="51.53818" lon="4.28423">
        <ele>54.095508</ele>
        <time>2024-07-02T07:31:04.143Z</time>
      </trkpt>
      <trkpt lat="51.53828" lon="4.28427">
        <ele>53.895698</ele>
        <time>2024-07-02T07:31:06.158Z</time>
      </trkpt>
      <trkpt lat="51.53838" lon="4.28429">
        <ele>53.709924</ele>
        <time>2024-07-02T07:31:08.135Z</time>
      </trkpt>
      <trkpt lat="51.53847" lon="4.28432">
        <ele>53.530951</ele>
        <time>2024-07-02T07:31:10.143Z</time>
      </trkpt>
      <trkpt lat="51.53856" lon="4.28434">
        <ele>53.342356</ele>
        <time>2024-07-02T07:31:12.141Z</time>
      </trkpt>
      <trkpt lat="51.53866" lon="4.28435">
        <ele>53.149229</ele>
        <time>2024-07-02T07:31:14.129Z</time>
      </trkpt>
      <trkpt lat="51.53876" lon="4.28435">
        <ele>52.956193</ele>
        <time>2024-07-02T07:31:16.140Z</time>
      </trkpt>
      <trkpt lat="51.53886" lon="4.28434">
        <ele>52.757278</ele>
        <time>2024-07-02T07:31:18.157Z</time>
      </trkpt>
      <trkpt lat="51.53897" lon="4.28434">
        <ele>52.548592</ele>
        <time>2024-07-02T07:31:20.144Z</time>
      </trkpt>
      <trkpt lat="51.53908" lon="4.28432">
        <ele>52.327513</ele>
        <time>2024-07-02T07:31:22.144Z</time>
      </trkpt>
      <trkpt lat="51.53919" lon="4.2843">
        <ele>52.111666</ele>
        <time>2024-07-02T07:31:24.155Z</time>
      </trkpt>
      <trkpt lat="51.53931" lon="4.28429">
        <ele>51.890933</ele>
        <time>2024-07-02T07:31:26.138Z</time>
      </trkpt>
      <trkpt lat="51.53943" lon="4.28429">
        <ele>51.654955</ele>
        <time>2024-07-02T07:31:28.143Z</time>
      </trkpt>
      <trkpt lat="51.53954" lon="4.28429">
        <ele>51.436573</ele>
        <time>2024-07-02T07:31:30.144Z</time>
      </trkpt>
      <trkpt lat="51.53966" lon="4.28429">
        <ele>51.238383</ele>
        <time>2024-07-02T07:31:32.147Z</time>
      </trkpt>
      <trkpt lat="51.53977" lon="4.28432">
        <ele>51.139846</ele>
        <time>2024-07-02T07:31:34.143Z</time>
      </trkpt>
      <trkpt lat="51.53989" lon="4.28432">
        <ele>51.039472</ele>
        <time>2024-07-02T07:31:36.143Z</time>
      </trkpt>
      <trkpt lat="51.54001" lon="4.28435">
        <ele>50.934008</ele>
        <time>2024-07-02T07:31:38.161Z</time>
      </trkpt>
      <trkpt lat="51.54012" lon="4.28439">
        <ele>50.833496</ele>
        <time>2024-07-02T07:31:40.118Z</time>
      </trkpt>
      <trkpt lat="51.54023" lon="4.28444">
        <ele>50.734265</ele>
        <time>2024-07-02T07:31:42.171Z</time>
      </trkpt>
      <trkpt lat="51.54034" lon="4.2845">
        <ele>50.636568</ele>
        <time>2024-07-02T07:31:44.137Z</time>
      </trkpt>
      <trkpt lat="51.54044" lon="4.28457">
        <ele>50.543321</ele>
        <time>2024-07-02T07:31:46.146Z</time>
      </trkpt>
      <trkpt lat="51.54054" lon="4.28462">
        <ele>50.451291</ele>
        <time>2024-07-02T07:31:48.145Z</time>
      </trkpt>
      <trkpt lat="51.54063" lon="4.28466">
        <ele>50.366803</ele>
        <time>2024-07-02T07:31:50.136Z</time>
      </trkpt>
      <trkpt lat="51.54073" lon="4.28471">
        <ele>50.279376</ele>
        <time>2024-07-02T07:31:52.145Z</time>
      </trkpt>
      <trkpt lat="51.54082" lon="4.28476">
        <ele>50.194602</ele>
        <time>2024-07-02T07:31:54.150Z</time>
      </trkpt>
      <trkpt lat="51.54095" lon="4.28482">
        <ele>50.077377</ele>
        <time>2024-07-02T07:31:57.160Z</time>
      </trkpt>
      <trkpt lat="51.54108" lon="4.28487">
        <ele>49.965052</ele>
        <time>2024-07-02T07:32:00.135Z</time>
      </trkpt>
      <trkpt lat="51.54121" lon="4.2849">
        <ele>49.850161</ele>
        <time>2024-07-02T07:32:03.140Z</time>
      </trkpt>
      <trkpt lat="51.54131" lon="4.28496">
        <ele>49.755454</ele>
        <time>2024-07-02T07:32:06.141Z</time>
      </trkpt>
      <trkpt lat="51.54141" lon="4.28502">
        <ele>49.731449</ele>
        <time>2024-07-02T07:32:09.144Z</time>
      </trkpt>
      <trkpt lat="51.5415" lon="4.28506">
        <ele>49.774425</ele>
        <time>2024-07-02T07:32:12.156Z</time>
      </trkpt>
      <trkpt lat="51.5416" lon="4.2851">
        <ele>49.82252</ele>
        <time>2024-07-02T07:32:16.154Z</time>
      </trkpt>
      <trkpt lat="51.5417" lon="4.28515">
        <ele>49.8709</ele>
        <time>2024-07-02T07:32:20.137Z</time>
      </trkpt>
      <trkpt lat="51.54179" lon="4.2852">
        <ele>49.919557</ele>
        <time>2024-07-02T07:32:24.140Z</time>
      </trkpt>
      <trkpt lat="51.54188" lon="4.28524">
        <ele>49.962245</ele>
        <time>2024-07-02T07:32:27.139Z</time>
      </trkpt>
      <trkpt lat="51.54197" lon="4.28529">
        <ele>50.007463</ele>
        <time>2024-07-02T07:32:32.152Z</time>
      </trkpt>
      <trkpt lat="51.54208" lon="4.28534">
        <ele>50.062826</ele>
        <time>2024-07-02T07:34:43.145Z</time>
      </trkpt>
      <trkpt lat="51.54219" lon="4.28539">
        <ele>50.1179</ele>
        <time>2024-07-02T07:34:47.136Z</time>
      </trkpt>
      <trkpt lat="51.54229" lon="4.28545">
        <ele>50.165919</ele>
        <time>2024-07-02T07:34:50.149Z</time>
      </trkpt>
      <trkpt lat="51.54238" lon="4.28549">
        <ele>50.213756</ele>
        <time>2024-07-02T07:34:53.147Z</time>
      </trkpt>
      <trkpt lat="51.54248" lon="4.28555">
        <ele>50.2638</ele>
        <time>2024-07-02T07:34:56.138Z</time>
      </trkpt>
      <trkpt lat="51.54258" lon="4.28558">
        <ele>50.312335</ele>
        <time>2024-07-02T07:34:59.128Z</time>
      </trkpt>
      <trkpt lat="51.54269" lon="4.28559">
        <ele>50.364188</ele>
        <time>2024-07-02T07:35:02.141Z</time>
      </trkpt>
      <trkpt lat="51.5428" lon="4.28564">
        <ele>50.415191</ele>
        <time>2024-07-02T07:35:05.134Z</time>
      </trkpt>
      <trkpt lat="51.54289" lon="4.28569">
        <ele>50.463304</ele>
        <time>2024-07-02T07:35:08.147Z</time>
      </trkpt>
      <trkpt lat="51.543" lon="4.28576">
        <ele>50.516407</ele>
        <time>2024-07-02T07:35:11.165Z</time>
      </trkpt>
      <trkpt lat="51.54308" lon="4.28584">
        <ele>50.571903</ele>
        <time>2024-07-02T07:35:14.157Z</time>
      </trkpt>
      <trkpt lat="51.54324" lon="4.28589">
        <ele>50.839212</ele>
        <time>2024-07-02T07:35:41.139Z</time>
      </trkpt>
      <trkpt lat="51.54335" lon="4.28591">
        <ele>51.015143</ele>
        <time>2024-07-02T07:35:44.133Z</time>
      </trkpt>
      <trkpt lat="51.54347" lon="4.28594">
        <ele>51.226859</ele>
        <time>2024-07-02T07:35:47.138Z</time>
      </trkpt>
      <trkpt lat="51.54359" lon="4.2859">
        <ele>51.421451</ele>
        <time>2024-07-02T07:35:50.135Z</time>
      </trkpt>
      <trkpt lat="51.54371" lon="4.28591">
        <ele>51.620798</ele>
        <time>2024-07-02T07:35:53.130Z</time>
      </trkpt>
      <trkpt lat="51.54383" lon="4.28598">
        <ele>51.834478</ele>
        <time>2024-07-02T07:35:56.127Z</time>
      </trkpt>
      <trkpt lat="51.54391" lon="4.28605">
        <ele>51.984946</ele>
        <time>2024-07-02T07:35:58.129Z</time>
      </trkpt>
      <trkpt lat="51.54401" lon="4.28618">
        <ele>52.196797</ele>
        <time>2024-07-02T07:36:01.157Z</time>
      </trkpt>
      <trkpt lat="51.54407" lon="4.28629">
        <ele>52.34653</ele>
        <time>2024-07-02T07:36:03.135Z</time>
      </trkpt>
      <trkpt lat="51.54416" lon="4.28644">
        <ele>52.557587</ele>
        <time>2024-07-02T07:36:06.145Z</time>
      </trkpt>
      <trkpt lat="51.54425" lon="4.28656">
        <ele>52.752032</ele>
        <time>2024-07-02T07:36:09.138Z</time>
      </trkpt>
      <trkpt lat="51.54434" lon="4.28665">
        <ele>52.929108</ele>
        <time>2024-07-02T07:36:12.158Z</time>
      </trkpt>
      <trkpt lat="51.54443" lon="4.28673">
        <ele>53.107354</ele>
        <time>2024-07-02T07:36:15.137Z</time>
      </trkpt>
      <trkpt lat="51.54453" lon="4.28681">
        <ele>53.285305</ele>
        <time>2024-07-02T07:36:18.143Z</time>
      </trkpt>
      <trkpt lat="51.54463" lon="4.28686">
        <ele>53.464626</ele>
        <time>2024-07-02T07:36:21.146Z</time>
      </trkpt>
      <trkpt lat="51.54474" lon="4.28691">
        <ele>53.585707</ele>
        <time>2024-07-02T07:36:24.188Z</time>
      </trkpt>
      <trkpt lat="51.54485" lon="4.28694">
        <ele>53.663192</ele>
        <time>2024-07-02T07:36:27.172Z</time>
      </trkpt>
      <trkpt lat="51.54497" lon="4.287">
        <ele>53.744655</ele>
        <time>2024-07-02T07:36:30.164Z</time>
      </trkpt>
      <trkpt lat="51.54509" lon="4.28704">
        <ele>53.829335</ele>
        <time>2024-07-02T07:36:33.137Z</time>
      </trkpt>
      <trkpt lat="51.54521" lon="4.28709">
        <ele>53.907699</ele>
        <time>2024-07-02T07:36:36.134Z</time>
      </trkpt>
      <trkpt lat="51.54532" lon="4.28713">
        <ele>53.987899</ele>
        <time>2024-07-02T07:36:39.137Z</time>
      </trkpt>
      <trkpt lat="51.54543" lon="4.28718">
        <ele>54.062059</ele>
        <time>2024-07-02T07:36:42.124Z</time>
      </trkpt>
      <trkpt lat="51.54555" lon="4.28717">
        <ele>54.142476</ele>
        <time>2024-07-02T07:36:45.162Z</time>
      </trkpt>
      <trkpt lat="51.54565" lon="4.28719">
        <ele>54.213689</ele>
        <time>2024-07-02T07:36:48.131Z</time>
      </trkpt>
      <trkpt lat="51.54574" lon="4.28723">
        <ele>54.275776</ele>
        <time>2024-07-02T07:36:50.148Z</time>
      </trkpt>
      <trkpt lat="51.54583" lon="4.28727">
        <ele>54.336839</ele>
        <time>2024-07-02T07:36:52.128Z</time>
      </trkpt>
      <trkpt lat="51.54595" lon="4.28731">
        <ele>54.417143</ele>
        <time>2024-07-02T07:36:55.121Z</time>
      </trkpt>
      <trkpt lat="51.54606" lon="4.28735">
        <ele>54.492802</ele>
        <time>2024-07-02T07:36:58.137Z</time>
      </trkpt>
      <trkpt lat="51.54618" lon="4.2874">
        <ele>54.575706</ele>
        <time>2024-07-02T07:37:01.128Z</time>
      </trkpt>
      <trkpt lat="51.5463" lon="4.28745">
        <ele>54.662406</ele>
        <time>2024-07-02T07:37:04.151Z</time>
      </trkpt>
      <trkpt lat="51.54643" lon="4.28751">
        <ele>54.745489</ele>
        <time>2024-07-02T07:37:07.137Z</time>
      </trkpt>
      <trkpt lat="51.54656" lon="4.28755">
        <ele>54.706235</ele>
        <time>2024-07-02T07:37:10.150Z</time>
      </trkpt>
      <trkpt lat="51.54669" lon="4.2876">
        <ele>54.664734</ele>
        <time>2024-07-02T07:37:13.156Z</time>
      </trkpt>
      <trkpt lat="51.54682" lon="4.28766">
        <ele>54.623283</ele>
        <time>2024-07-02T07:37:16.141Z</time>
      </trkpt>
      <trkpt lat="51.5469" lon="4.2877">
        <ele>54.595011</ele>
        <time>2024-07-02T07:37:18.137Z</time>
      </trkpt>
      <trkpt lat="51.54699" lon="4.28774">
        <ele>54.567091</ele>
        <time>2024-07-02T07:37:20.144Z</time>
      </trkpt>
      <trkpt lat="51.54712" lon="4.28779">
        <ele>54.525279</ele>
        <time>2024-07-02T07:37:23.148Z</time>
      </trkpt>
      <trkpt lat="51.54721" lon="4.28782">
        <ele>54.497449</ele>
        <time>2024-07-02T07:37:25.129Z</time>
      </trkpt>
      <trkpt lat="51.54734" lon="4.28787">
        <ele>54.457384</ele>
        <time>2024-07-02T07:37:28.149Z</time>
      </trkpt>
      <trkpt lat="51.54746" lon="4.28792">
        <ele>54.417203</ele>
        <time>2024-07-02T07:37:31.149Z</time>
      </trkpt>
      <trkpt lat="51.54755" lon="4.28797">
        <ele>54.389055</ele>
        <time>2024-07-02T07:37:33.150Z</time>
      </trkpt>
      <trkpt lat="51.54764" lon="4.28801">
        <ele>54.359949</ele>
        <time>2024-07-02T07:37:35.133Z</time>
      </trkpt>
      <trkpt lat="51.54773" lon="4.28805">
        <ele>54.331859</ele>
        <time>2024-07-02T07:37:37.158Z</time>
      </trkpt>
      <trkpt lat="51.54782" lon="4.2881">
        <ele>54.303652</ele>
        <time>2024-07-02T07:37:39.140Z</time>
      </trkpt>
      <trkpt lat="51.54791" lon="4.28815">
        <ele>54.274325</ele>
        <time>2024-07-02T07:37:41.154Z</time>
      </trkpt>
      <trkpt lat="51.54799" lon="4.2882">
        <ele>54.246316</ele>
        <time>2024-07-02T07:37:43.160Z</time>
      </trkpt>
      <trkpt lat="51.54808" lon="4.28826">
        <ele>54.216453</ele>
        <time>2024-07-02T07:37:45.134Z</time>
      </trkpt>
      <trkpt lat="51.54817" lon="4.28832">
        <ele>54.175887</ele>
        <time>2024-07-02T07:37:47.163Z</time>
      </trkpt>
      <trkpt lat="51.54826" lon="4.28838">
        <ele>54.090357</ele>
        <time>2024-07-02T07:37:49.147Z</time>
      </trkpt>
      <trkpt lat="51.54834" lon="4.28845">
        <ele>54.004141</ele>
        <time>2024-07-02T07:37:51.123Z</time>
      </trkpt>
      <trkpt lat="51.54844" lon="4.28852">
        <ele>53.914333</ele>
        <time>2024-07-02T07:37:53.148Z</time>
      </trkpt>
      <trkpt lat="51.54852" lon="4.28859">
        <ele>53.830282</ele>
        <time>2024-07-02T07:37:55.143Z</time>
      </trkpt>
      <trkpt lat="51.5486" lon="4.28866">
        <ele>53.744156</ele>
        <time>2024-07-02T07:37:57.147Z</time>
      </trkpt>
      <trkpt lat="51.54868" lon="4.28874">
        <ele>53.661934</ele>
        <time>2024-07-02T07:37:59.131Z</time>
      </trkpt>
      <trkpt lat="51.54877" lon="4.28881">
        <ele>53.579757</ele>
        <time>2024-07-02T07:38:01.162Z</time>
      </trkpt>
      <trkpt lat="51.54884" lon="4.2889">
        <ele>53.494428</ele>
        <time>2024-07-02T07:38:03.158Z</time>
      </trkpt>
      <trkpt lat="51.54892" lon="4.28899">
        <ele>53.410142</ele>
        <time>2024-07-02T07:38:05.126Z</time>
      </trkpt>
      <trkpt lat="51.549" lon="4.28908">
        <ele>53.322884</ele>
        <time>2024-07-02T07:38:07.144Z</time>
      </trkpt>
      <trkpt lat="51.54908" lon="4.28917">
        <ele>53.238087</ele>
        <time>2024-07-02T07:38:09.153Z</time>
      </trkpt>
      <trkpt lat="51.54915" lon="4.28927">
        <ele>53.152278</ele>
        <time>2024-07-02T07:38:11.143Z</time>
      </trkpt>
      <trkpt lat="51.54926" lon="4.28941">
        <ele>53.032558</ele>
        <time>2024-07-02T07:38:14.159Z</time>
      </trkpt>
      <trkpt lat="51.54934" lon="4.2895">
        <ele>52.947318</ele>
        <time>2024-07-02T07:38:16.150Z</time>
      </trkpt>
      <trkpt lat="51.5494" lon="4.2896">
        <ele>52.866528</ele>
        <time>2024-07-02T07:38:18.170Z</time>
      </trkpt>
      <trkpt lat="51.54947" lon="4.28971">
        <ele>52.78026</ele>
        <time>2024-07-02T07:38:20.155Z</time>
      </trkpt>
      <trkpt lat="51.54954" lon="4.28982">
        <ele>52.69438</ele>
        <time>2024-07-02T07:38:22.167Z</time>
      </trkpt>
      <trkpt lat="51.54961" lon="4.28993">
        <ele>52.610596</ele>
        <time>2024-07-02T07:38:24.141Z</time>
      </trkpt>
      <trkpt lat="51.54967" lon="4.29004">
        <ele>52.573505</ele>
        <time>2024-07-02T07:38:26.160Z</time>
      </trkpt>
      <trkpt lat="51.54973" lon="4.29017">
        <ele>52.547251</ele>
        <time>2024-07-02T07:38:28.139Z</time>
      </trkpt>
      <trkpt lat="51.54979" lon="4.29028">
        <ele>52.523009</ele>
        <time>2024-07-02T07:38:30.144Z</time>
      </trkpt>
      <trkpt lat="51.54987" lon="4.29044">
        <ele>52.489246</ele>
        <time>2024-07-02T07:38:33.157Z</time>
      </trkpt>
      <trkpt lat="51.54995" lon="4.29059">
        <ele>52.456229</ele>
        <time>2024-07-02T07:38:36.164Z</time>
      </trkpt>
      <trkpt lat="51.55" lon="4.29078">
        <ele>52.422366</ele>
        <time>2024-07-02T07:38:39.137Z</time>
      </trkpt>
      <trkpt lat="51.55007" lon="4.29096">
        <ele>52.387503</ele>
        <time>2024-07-02T07:38:42.130Z</time>
      </trkpt>
      <trkpt lat="51.55014" lon="4.29111">
        <ele>52.355881</ele>
        <time>2024-07-02T07:38:45.159Z</time>
      </trkpt>
      <trkpt lat="51.55021" lon="4.29125">
        <ele>52.324319</ele>
        <time>2024-07-02T07:38:48.127Z</time>
      </trkpt>
      <trkpt lat="51.55028" lon="4.29137">
        <ele>52.296979</ele>
        <time>2024-07-02T07:38:51.154Z</time>
      </trkpt>
      <trkpt lat="51.55033" lon="4.29152">
        <ele>52.268631</ele>
        <time>2024-07-02T07:38:54.147Z</time>
      </trkpt>
      <trkpt lat="51.55027" lon="4.29167">
        <ele>52.23819</ele>
        <time>2024-07-02T07:38:57.132Z</time>
      </trkpt>
      <trkpt lat="51.55023" lon="4.29185">
        <ele>52.206797</ele>
        <time>2024-07-02T07:39:00.150Z</time>
      </trkpt>
      <trkpt lat="51.55029" lon="4.29203">
        <ele>52.17216</ele>
        <time>2024-07-02T07:39:03.141Z</time>
      </trkpt>
      <trkpt lat="51.55036" lon="4.2922">
        <ele>52.138659</ele>
        <time>2024-07-02T07:39:06.132Z</time>
      </trkpt>
      <trkpt lat="51.55044" lon="4.29236">
        <ele>52.13896</ele>
        <time>2024-07-02T07:39:09.143Z</time>
      </trkpt>
      <trkpt lat="51.55051" lon="4.29253">
        <ele>52.234974</ele>
        <time>2024-07-02T07:39:12.144Z</time>
      </trkpt>
      <trkpt lat="51.55059" lon="4.2927">
        <ele>52.33527</ele>
        <time>2024-07-02T07:39:15.141Z</time>
      </trkpt>
      <trkpt lat="51.55067" lon="4.29287">
        <ele>52.43371</ele>
        <time>2024-07-02T07:39:18.143Z</time>
      </trkpt>
      <trkpt lat="51.55075" lon="4.29304">
        <ele>52.533812</ele>
        <time>2024-07-02T07:39:21.149Z</time>
      </trkpt>
      <trkpt lat="51.55082" lon="4.2932">
        <ele>52.630899</ele>
        <time>2024-07-02T07:39:24.140Z</time>
      </trkpt>
      <trkpt lat="51.5509" lon="4.29338">
        <ele>52.728594</ele>
        <time>2024-07-02T07:39:27.162Z</time>
      </trkpt>
      <trkpt lat="51.55097" lon="4.29353">
        <ele>52.821299</ele>
        <time>2024-07-02T07:39:30.152Z</time>
      </trkpt>
      <trkpt lat="51.55105" lon="4.29367">
        <ele>52.906781</ele>
        <time>2024-07-02T07:39:33.151Z</time>
      </trkpt>
      <trkpt lat="51.55111" lon="4.29381">
        <ele>52.988401</ele>
        <time>2024-07-02T07:39:36.143Z</time>
      </trkpt>
      <trkpt lat="51.55117" lon="4.29394">
        <ele>53.06663</ele>
        <time>2024-07-02T07:39:39.126Z</time>
      </trkpt>
      <trkpt lat="51.55123" lon="4.29408">
        <ele>53.146726</ele>
        <time>2024-07-02T07:39:42.146Z</time>
      </trkpt>
      <trkpt lat="51.5513" lon="4.29422">
        <ele>53.22907</ele>
        <time>2024-07-02T07:39:45.132Z</time>
      </trkpt>
      <trkpt lat="51.55137" lon="4.29436">
        <ele>53.312781</ele>
        <time>2024-07-02T07:39:48.142Z</time>
      </trkpt>
      <trkpt lat="51.55144" lon="4.29451">
        <ele>53.401677</ele>
        <time>2024-07-02T07:39:51.140Z</time>
      </trkpt>
      <trkpt lat="51.5515" lon="4.29465">
        <ele>53.510368</ele>
        <time>2024-07-02T07:39:54.137Z</time>
      </trkpt>
      <trkpt lat="51.55156" lon="4.29478">
        <ele>53.761118</ele>
        <time>2024-07-02T07:39:57.139Z</time>
      </trkpt>
      <trkpt lat="51.55158" lon="4.29494">
        <ele>54.021791</ele>
        <time>2024-07-02T07:40:00.125Z</time>
      </trkpt>
      <trkpt lat="51.55157" lon="4.29511">
        <ele>54.28305</ele>
        <time>2024-07-02T07:40:03.139Z</time>
      </trkpt>
      <trkpt lat="51.55155" lon="4.29527">
        <ele>54.550612</ele>
        <time>2024-07-02T07:40:06.143Z</time>
      </trkpt>
      <trkpt lat="51.55152" lon="4.29543">
        <ele>54.811103</ele>
        <time>2024-07-02T07:40:09.157Z</time>
      </trkpt>
      <trkpt lat="51.55151" lon="4.29559">
        <ele>55.062231</ele>
        <time>2024-07-02T07:40:12.166Z</time>
      </trkpt>
      <trkpt lat="51.55148" lon="4.29574">
        <ele>55.309112</ele>
        <time>2024-07-02T07:40:15.133Z</time>
      </trkpt>
      <trkpt lat="51.55147" lon="4.2959">
        <ele>55.57538</ele>
        <time>2024-07-02T07:40:18.144Z</time>
      </trkpt>
      <trkpt lat="51.55146" lon="4.29607">
        <ele>55.842233</ele>
        <time>2024-07-02T07:40:21.145Z</time>
      </trkpt>
      <trkpt lat="51.55144" lon="4.29624">
        <ele>56.120657</ele>
        <time>2024-07-02T07:40:24.156Z</time>
      </trkpt>
      <trkpt lat="51.55141" lon="4.29643">
        <ele>56.430854</ele>
        <time>2024-07-02T07:40:27.141Z</time>
      </trkpt>
      <trkpt lat="51.55139" lon="4.29662">
        <ele>56.726878</ele>
        <time>2024-07-02T07:40:30.129Z</time>
      </trkpt>
      <trkpt lat="51.55141" lon="4.29679">
        <ele>57.010479</ele>
        <time>2024-07-02T07:40:33.127Z</time>
      </trkpt>
      <trkpt lat="51.55153" lon="4.29688">
        <ele>57.340822</ele>
        <time>2024-07-02T07:40:36.136Z</time>
      </trkpt>
      <trkpt lat="51.55163" lon="4.29689">
        <ele>57.594532</ele>
        <time>2024-07-02T07:40:38.142Z</time>
      </trkpt>
      <trkpt lat="51.55173" lon="4.29692">
        <ele>57.85969</ele>
        <time>2024-07-02T07:40:40.148Z</time>
      </trkpt>
      <trkpt lat="51.55184" lon="4.29693">
        <ele>57.97064</ele>
        <time>2024-07-02T07:40:42.150Z</time>
      </trkpt>
      <trkpt lat="51.55194" lon="4.29696">
        <ele>57.6738</ele>
        <time>2024-07-02T07:40:44.123Z</time>
      </trkpt>
      <trkpt lat="51.55205" lon="4.29698">
        <ele>57.37701</ele>
        <time>2024-07-02T07:40:46.162Z</time>
      </trkpt>
      <trkpt lat="51.55217" lon="4.297">
        <ele>57.058665</ele>
        <time>2024-07-02T07:40:48.138Z</time>
      </trkpt>
      <trkpt lat="51.55228" lon="4.29702">
        <ele>56.735285</ele>
        <time>2024-07-02T07:40:50.147Z</time>
      </trkpt>
      <trkpt lat="51.5524" lon="4.29702">
        <ele>56.420964</ele>
        <time>2024-07-02T07:40:52.154Z</time>
      </trkpt>
      <trkpt lat="51.55251" lon="4.29705">
        <ele>56.095544</ele>
        <time>2024-07-02T07:40:54.160Z</time>
      </trkpt>
      <trkpt lat="51.55262" lon="4.29707">
        <ele>55.792426</ele>
        <time>2024-07-02T07:40:56.160Z</time>
      </trkpt>
      <trkpt lat="51.55275" lon="4.29709">
        <ele>55.452137</ele>
        <time>2024-07-02T07:40:58.144Z</time>
      </trkpt>
      <trkpt lat="51.55288" lon="4.29711">
        <ele>55.076551</ele>
        <time>2024-07-02T07:41:00.170Z</time>
      </trkpt>
      <trkpt lat="51.55302" lon="4.29712">
        <ele>54.698619</ele>
        <time>2024-07-02T07:41:02.157Z</time>
      </trkpt>
      <trkpt lat="51.55316" lon="4.29712">
        <ele>54.304626</ele>
        <time>2024-07-02T07:41:04.145Z</time>
      </trkpt>
      <trkpt lat="51.5533" lon="4.29711">
        <ele>53.913295</ele>
        <time>2024-07-02T07:41:06.162Z</time>
      </trkpt>
      <trkpt lat="51.55343" lon="4.2971">
        <ele>53.551569</ele>
        <time>2024-07-02T07:41:08.143Z</time>
      </trkpt>
      <trkpt lat="51.55356" lon="4.29709">
        <ele>53.200951</ele>
        <time>2024-07-02T07:41:10.149Z</time>
      </trkpt>
      <trkpt lat="51.55368" lon="4.29706">
        <ele>52.973391</ele>
        <time>2024-07-02T07:41:12.163Z</time>
      </trkpt>
      <trkpt lat="51.55379" lon="4.29703">
        <ele>52.802456</ele>
        <time>2024-07-02T07:41:14.154Z</time>
      </trkpt>
      <trkpt lat="51.5539" lon="4.297">
        <ele>52.630532</ele>
        <time>2024-07-02T07:41:16.157Z</time>
      </trkpt>
      <trkpt lat="51.55401" lon="4.29696">
        <ele>52.462773</ele>
        <time>2024-07-02T07:41:18.149Z</time>
      </trkpt>
      <trkpt lat="51.55412" lon="4.29694">
        <ele>52.299419</ele>
        <time>2024-07-02T07:41:20.161Z</time>
      </trkpt>
      <trkpt lat="51.55422" lon="4.29693">
        <ele>52.144797</ele>
        <time>2024-07-02T07:41:22.138Z</time>
      </trkpt>
      <trkpt lat="51.55432" lon="4.29692">
        <ele>51.988957</ele>
        <time>2024-07-02T07:41:24.145Z</time>
      </trkpt>
      <trkpt lat="51.55441" lon="4.29692">
        <ele>51.843956</ele>
        <time>2024-07-02T07:41:26.149Z</time>
      </trkpt>
      <trkpt lat="51.55451" lon="4.2969">
        <ele>51.698537</ele>
        <time>2024-07-02T07:41:28.159Z</time>
      </trkpt>
      <trkpt lat="51.5546" lon="4.29689">
        <ele>51.555904</ele>
        <time>2024-07-02T07:41:30.149Z</time>
      </trkpt>
      <trkpt lat="51.55469" lon="4.29689">
        <ele>51.415509</ele>
        <time>2024-07-02T07:41:32.164Z</time>
      </trkpt>
      <trkpt lat="51.55479" lon="4.29688">
        <ele>51.273475</ele>
        <time>2024-07-02T07:41:34.125Z</time>
      </trkpt>
      <trkpt lat="51.55488" lon="4.29688">
        <ele>51.123921</ele>
        <time>2024-07-02T07:41:36.161Z</time>
      </trkpt>
      <trkpt lat="51.55499" lon="4.29687">
        <ele>50.96493</ele>
        <time>2024-07-02T07:41:38.144Z</time>
      </trkpt>
      <trkpt lat="51.5551" lon="4.29687">
        <ele>50.800021</ele>
        <time>2024-07-02T07:41:40.166Z</time>
      </trkpt>
      <trkpt lat="51.5552" lon="4.29694">
        <ele>50.6287</ele>
        <time>2024-07-02T07:41:42.141Z</time>
      </trkpt>
      <trkpt lat="51.55526" lon="4.29707">
        <ele>50.475337</ele>
        <time>2024-07-02T07:41:44.129Z</time>
      </trkpt>
      <trkpt lat="51.55526" lon="4.29722">
        <ele>50.357158</ele>
        <time>2024-07-02T07:41:46.144Z</time>
      </trkpt>
      <trkpt lat="51.55521" lon="4.29735">
        <ele>50.361845</ele>
        <time>2024-07-02T07:41:48.128Z</time>
      </trkpt>
      <trkpt lat="51.55524" lon="4.29752">
        <ele>50.367415</ele>
        <time>2024-07-02T07:41:51.139Z</time>
      </trkpt>
      <trkpt lat="51.55534" lon="4.29761">
        <ele>50.37347</ele>
        <time>2024-07-02T07:41:54.129Z</time>
      </trkpt>
      <trkpt lat="51.55545" lon="4.29768">
        <ele>50.379266</ele>
        <time>2024-07-02T07:41:57.133Z</time>
      </trkpt>
      <trkpt lat="51.55556" lon="4.29774">
        <ele>50.384854</ele>
        <time>2024-07-02T07:42:00.146Z</time>
      </trkpt>
      <trkpt lat="51.55568" lon="4.29779">
        <ele>50.391286</ele>
        <time>2024-07-02T07:42:03.126Z</time>
      </trkpt>
      <trkpt lat="51.5558" lon="4.29784">
        <ele>50.397565</ele>
        <time>2024-07-02T07:42:06.152Z</time>
      </trkpt>
      <trkpt lat="51.55593" lon="4.29792">
        <ele>50.404057</ele>
        <time>2024-07-02T07:42:09.142Z</time>
      </trkpt>
      <trkpt lat="51.55605" lon="4.29798">
        <ele>50.410546</ele>
        <time>2024-07-02T07:42:12.158Z</time>
      </trkpt>
      <trkpt lat="51.55617" lon="4.29802">
        <ele>50.416879</ele>
        <time>2024-07-02T07:42:15.123Z</time>
      </trkpt>
      <trkpt lat="51.55629" lon="4.29806">
        <ele>50.42287</ele>
        <time>2024-07-02T07:42:18.147Z</time>
      </trkpt>
      <trkpt lat="51.55641" lon="4.29809">
        <ele>50.428768</ele>
        <time>2024-07-02T07:42:21.137Z</time>
      </trkpt>
      <trkpt lat="51.55654" lon="4.29813">
        <ele>50.435228</ele>
        <time>2024-07-02T07:42:24.154Z</time>
      </trkpt>
      <trkpt lat="51.55666" lon="4.29816">
        <ele>50.441527</ele>
        <time>2024-07-02T07:42:27.156Z</time>
      </trkpt>
      <trkpt lat="51.55679" lon="4.29821">
        <ele>50.405908</ele>
        <time>2024-07-02T07:42:30.142Z</time>
      </trkpt>
      <trkpt lat="51.55691" lon="4.29824">
        <ele>50.267872</ele>
        <time>2024-07-02T07:42:33.137Z</time>
      </trkpt>
      <trkpt lat="51.557" lon="4.29827">
        <ele>50.171277</ele>
        <time>2024-07-02T07:42:35.131Z</time>
      </trkpt>
      <trkpt lat="51.55712" lon="4.29831">
        <ele>50.042057</ele>
        <time>2024-07-02T07:42:38.144Z</time>
      </trkpt>
      <trkpt lat="51.55725" lon="4.29836">
        <ele>49.901944</ele>
        <time>2024-07-02T07:42:41.142Z</time>
      </trkpt>
      <trkpt lat="51.55734" lon="4.29837">
        <ele>49.802962</ele>
        <time>2024-07-02T07:42:43.142Z</time>
      </trkpt>
      <trkpt lat="51.55747" lon="4.29841">
        <ele>49.662463</ele>
        <time>2024-07-02T07:42:46.163Z</time>
      </trkpt>
      <trkpt lat="51.55756" lon="4.29843">
        <ele>49.563413</ele>
        <time>2024-07-02T07:42:48.141Z</time>
      </trkpt>
      <trkpt lat="51.55768" lon="4.29846">
        <ele>49.434582</ele>
        <time>2024-07-02T07:42:51.157Z</time>
      </trkpt>
      <trkpt lat="51.55781" lon="4.29849">
        <ele>49.296983</ele>
        <time>2024-07-02T07:42:54.143Z</time>
      </trkpt>
      <trkpt lat="51.55793" lon="4.29852">
        <ele>49.166993</ele>
        <time>2024-07-02T07:42:57.150Z</time>
      </trkpt>
      <trkpt lat="51.55805" lon="4.29857">
        <ele>49.032403</ele>
        <time>2024-07-02T07:43:00.144Z</time>
      </trkpt>
      <trkpt lat="51.55816" lon="4.29863">
        <ele>48.906252</ele>
        <time>2024-07-02T07:43:03.139Z</time>
      </trkpt>
      <trkpt lat="51.55827" lon="4.29869">
        <ele>48.777174</ele>
        <time>2024-07-02T07:43:06.143Z</time>
      </trkpt>
      <trkpt lat="51.55838" lon="4.29874">
        <ele>48.655665</ele>
        <time>2024-07-02T07:43:09.135Z</time>
      </trkpt>
      <trkpt lat="51.55848" lon="4.29878">
        <ele>48.544692</ele>
        <time>2024-07-02T07:43:12.144Z</time>
      </trkpt>
      <trkpt lat="51.55858" lon="4.29882">
        <ele>48.469151</ele>
        <time>2024-07-02T07:43:15.148Z</time>
      </trkpt>
      <trkpt lat="51.5587" lon="4.29884">
        <ele>48.39035</ele>
        <time>2024-07-02T07:43:19.143Z</time>
      </trkpt>
      <trkpt lat="51.55879" lon="4.29891">
        <ele>48.322558</ele>
        <time>2024-07-02T07:43:23.147Z</time>
      </trkpt>
      <trkpt lat="51.55892" lon="4.29895">
        <ele>48.233763</ele>
        <time>2024-07-02T07:43:52.162Z</time>
      </trkpt>
      <trkpt lat="51.559" lon="4.299">
        <ele>48.170543</ele>
        <time>2024-07-02T07:43:55.153Z</time>
      </trkpt>
      <trkpt lat="51.55909" lon="4.29908">
        <ele>48.105134</ele>
        <time>2024-07-02T07:43:58.163Z</time>
      </trkpt>
      <trkpt lat="51.55917" lon="4.29918">
        <ele>48.033362</ele>
        <time>2024-07-02T07:44:02.149Z</time>
      </trkpt>
      <trkpt lat="51.55927" lon="4.29925">
        <ele>47.964337</ele>
        <time>2024-07-02T07:44:05.135Z</time>
      </trkpt>
      <trkpt lat="51.55937" lon="4.29933">
        <ele>47.88587</ele>
        <time>2024-07-02T07:44:08.160Z</time>
      </trkpt>
      <trkpt lat="51.55947" lon="4.29944">
        <ele>47.805487</ele>
        <time>2024-07-02T07:44:11.149Z</time>
      </trkpt>
      <trkpt lat="51.55958" lon="4.29953">
        <ele>47.724184</ele>
        <time>2024-07-02T07:44:14.155Z</time>
      </trkpt>
      <trkpt lat="51.5597" lon="4.29961">
        <ele>47.634487</ele>
        <time>2024-07-02T07:44:17.140Z</time>
      </trkpt>
      <trkpt lat="51.55978" lon="4.29967">
        <ele>47.57257</ele>
        <time>2024-07-02T07:44:19.141Z</time>
      </trkpt>
      <trkpt lat="51.5599" lon="4.29977">
        <ele>47.482986</ele>
        <time>2024-07-02T07:44:22.150Z</time>
      </trkpt>
      <trkpt lat="51.56001" lon="4.29985">
        <ele>47.400926</ele>
        <time>2024-07-02T07:44:25.137Z</time>
      </trkpt>
      <trkpt lat="51.56012" lon="4.29994">
        <ele>47.318955</ele>
        <time>2024-07-02T07:44:28.147Z</time>
      </trkpt>
      <trkpt lat="51.56023" lon="4.30002">
        <ele>47.422229</ele>
        <time>2024-07-02T07:44:31.160Z</time>
      </trkpt>
      <trkpt lat="51.56032" lon="4.3001">
        <ele>47.542951</ele>
        <time>2024-07-02T07:44:34.150Z</time>
      </trkpt>
      <trkpt lat="51.56042" lon="4.30017">
        <ele>47.66722</ele>
        <time>2024-07-02T07:44:37.147Z</time>
      </trkpt>
      <trkpt lat="51.5605" lon="4.30023">
        <ele>47.771966</ele>
        <time>2024-07-02T07:44:39.138Z</time>
      </trkpt>
      <trkpt lat="51.56058" lon="4.30029">
        <ele>47.876068</ele>
        <time>2024-07-02T07:44:41.150Z</time>
      </trkpt>
      <trkpt lat="51.56067" lon="4.30034">
        <ele>47.98071</ele>
        <time>2024-07-02T07:44:43.150Z</time>
      </trkpt>
      <trkpt lat="51.56075" lon="4.30039">
        <ele>48.084597</ele>
        <time>2024-07-02T07:44:45.130Z</time>
      </trkpt>
      <trkpt lat="51.56084" lon="4.30046">
        <ele>48.191841</ele>
        <time>2024-07-02T07:44:47.153Z</time>
      </trkpt>
      <trkpt lat="51.56096" lon="4.30055">
        <ele>48.347413</ele>
        <time>2024-07-02T07:44:50.146Z</time>
      </trkpt>
      <trkpt lat="51.56105" lon="4.30061">
        <ele>48.453962</ele>
        <time>2024-07-02T07:44:52.147Z</time>
      </trkpt>
      <trkpt lat="51.56116" lon="4.30069">
        <ele>48.595391</ele>
        <time>2024-07-02T07:44:55.133Z</time>
      </trkpt>
      <trkpt lat="51.56125" lon="4.30075">
        <ele>48.70642</ele>
        <time>2024-07-02T07:44:57.155Z</time>
      </trkpt>
      <trkpt lat="51.56134" lon="4.30081">
        <ele>48.815356</ele>
        <time>2024-07-02T07:44:59.161Z</time>
      </trkpt>
      <trkpt lat="51.56142" lon="4.30087">
        <ele>48.922486</ele>
        <time>2024-07-02T07:45:01.144Z</time>
      </trkpt>
      <trkpt lat="51.56154" lon="4.30096">
        <ele>49.072288</ele>
        <time>2024-07-02T07:45:04.155Z</time>
      </trkpt>
      <trkpt lat="51.56162" lon="4.30102">
        <ele>49.180943</ele>
        <time>2024-07-02T07:45:06.157Z</time>
      </trkpt>
      <trkpt lat="51.56173" lon="4.30111">
        <ele>49.318525</ele>
        <time>2024-07-02T07:45:09.145Z</time>
      </trkpt>
      <trkpt lat="51.56183" lon="4.3012">
        <ele>49.355126</ele>
        <time>2024-07-02T07:45:12.148Z</time>
      </trkpt>
      <trkpt lat="51.56194" lon="4.30128">
        <ele>49.326716</ele>
        <time>2024-07-02T07:45:15.130Z</time>
      </trkpt>
      <trkpt lat="51.56206" lon="4.30135">
        <ele>49.296222</ele>
        <time>2024-07-02T07:45:18.162Z</time>
      </trkpt>
      <trkpt lat="51.56218" lon="4.30145">
        <ele>49.264483</ele>
        <time>2024-07-02T07:45:21.144Z</time>
      </trkpt>
      <trkpt lat="51.56231" lon="4.30154">
        <ele>49.232039</ele>
        <time>2024-07-02T07:45:24.135Z</time>
      </trkpt>
      <trkpt lat="51.56239" lon="4.30161">
        <ele>49.209181</ele>
        <time>2024-07-02T07:45:26.157Z</time>
      </trkpt>
      <trkpt lat="51.56249" lon="4.30169">
        <ele>49.182341</ele>
        <time>2024-07-02T07:45:29.147Z</time>
      </trkpt>
      <trkpt lat="51.56261" lon="4.30179">
        <ele>49.15088</ele>
        <time>2024-07-02T07:45:32.158Z</time>
      </trkpt>
      <trkpt lat="51.56272" lon="4.30187">
        <ele>49.122362</ele>
        <time>2024-07-02T07:45:35.140Z</time>
      </trkpt>
      <trkpt lat="51.56282" lon="4.30194">
        <ele>49.098033</ele>
        <time>2024-07-02T07:45:37.120Z</time>
      </trkpt>
      <trkpt lat="51.5629" lon="4.302">
        <ele>49.074714</ele>
        <time>2024-07-02T07:45:39.141Z</time>
      </trkpt>
      <trkpt lat="51.56299" lon="4.30206">
        <ele>49.052697</ele>
        <time>2024-07-02T07:45:41.143Z</time>
      </trkpt>
      <trkpt lat="51.56308" lon="4.30213">
        <ele>49.029743</ele>
        <time>2024-07-02T07:45:43.143Z</time>
      </trkpt>
      <trkpt lat="51.56317" lon="4.3022">
        <ele>49.004822</ele>
        <time>2024-07-02T07:45:45.127Z</time>
      </trkpt>
      <trkpt lat="51.56326" lon="4.30227">
        <ele>48.980733</ele>
        <time>2024-07-02T07:45:47.136Z</time>
      </trkpt>
      <trkpt lat="51.56335" lon="4.30234">
        <ele>48.957168</ele>
        <time>2024-07-02T07:45:49.144Z</time>
      </trkpt>
      <trkpt lat="51.56344" lon="4.30242">
        <ele>48.887312</ele>
        <time>2024-07-02T07:45:51.146Z</time>
      </trkpt>
      <trkpt lat="51.56352" lon="4.30248">
        <ele>48.760664</ele>
        <time>2024-07-02T07:45:53.163Z</time>
      </trkpt>
      <trkpt lat="51.56361" lon="4.30254">
        <ele>48.640467</ele>
        <time>2024-07-02T07:45:55.119Z</time>
      </trkpt>
      <trkpt lat="51.56372" lon="4.30264">
        <ele>48.463937</ele>
        <time>2024-07-02T07:45:58.139Z</time>
      </trkpt>
      <trkpt lat="51.56384" lon="4.30275">
        <ele>48.292518</ele>
        <time>2024-07-02T07:46:01.148Z</time>
      </trkpt>
      <trkpt lat="51.56395" lon="4.30286">
        <ele>48.11793</ele>
        <time>2024-07-02T07:46:04.139Z</time>
      </trkpt>
      <trkpt lat="51.56403" lon="4.30293">
        <ele>47.996182</ele>
        <time>2024-07-02T07:46:06.151Z</time>
      </trkpt>
      <trkpt lat="51.56413" lon="4.30301">
        <ele>47.849336</ele>
        <time>2024-07-02T07:46:09.143Z</time>
      </trkpt>
      <trkpt lat="51.56418" lon="4.30316">
        <ele>47.712288</ele>
        <time>2024-07-02T07:46:22.134Z</time>
      </trkpt>
      <trkpt lat="51.56425" lon="4.30329">
        <ele>47.571946</ele>
        <time>2024-07-02T07:46:27.122Z</time>
      </trkpt>
      <trkpt lat="51.56434" lon="4.3034">
        <ele>47.414824</ele>
        <time>2024-07-02T07:46:31.157Z</time>
      </trkpt>
      <trkpt lat="51.56443" lon="4.3035">
        <ele>47.277796</ele>
        <time>2024-07-02T07:46:34.149Z</time>
      </trkpt>
      <trkpt lat="51.56453" lon="4.30359">
        <ele>47.128279</ele>
        <time>2024-07-02T07:46:37.146Z</time>
      </trkpt>
      <trkpt lat="51.56463" lon="4.30368">
        <ele>46.975316</ele>
        <time>2024-07-02T07:46:40.136Z</time>
      </trkpt>
      <trkpt lat="51.56471" lon="4.30375">
        <ele>46.85209</ele>
        <time>2024-07-02T07:46:42.122Z</time>
      </trkpt>
      <trkpt lat="51.56484" lon="4.30385">
        <ele>46.662974</ele>
        <time>2024-07-02T07:46:45.127Z</time>
      </trkpt>
      <trkpt lat="51.56495" lon="4.30392">
        <ele>46.558876</ele>
        <time>2024-07-02T07:46:47.146Z</time>
      </trkpt>
      <trkpt lat="51.56503" lon="4.30398">
        <ele>46.522068</ele>
        <time>2024-07-02T07:46:49.145Z</time>
      </trkpt>
      <trkpt lat="51.56514" lon="4.30408">
        <ele>46.472054</ele>
        <time>2024-07-02T07:46:52.149Z</time>
      </trkpt>
      <trkpt lat="51.56525" lon="4.30418">
        <ele>46.424093</ele>
        <time>2024-07-02T07:46:55.145Z</time>
      </trkpt>
      <trkpt lat="51.56535" lon="4.3043">
        <ele>46.374055</ele>
        <time>2024-07-02T07:46:58.145Z</time>
      </trkpt>
      <trkpt lat="51.56546" lon="4.3044">
        <ele>46.325286</ele>
        <time>2024-07-02T07:47:01.152Z</time>
      </trkpt>
      <trkpt lat="51.56555" lon="4.30451">
        <ele>46.278383</ele>
        <time>2024-07-02T07:47:04.151Z</time>
      </trkpt>
      <trkpt lat="51.56565" lon="4.30462">
        <ele>46.229364</ele>
        <time>2024-07-02T07:47:07.153Z</time>
      </trkpt>
      <trkpt lat="51.56576" lon="4.30475">
        <ele>46.178041</ele>
        <time>2024-07-02T07:47:10.176Z</time>
      </trkpt>
      <trkpt lat="51.56585" lon="4.30489">
        <ele>46.126094</ele>
        <time>2024-07-02T07:47:13.157Z</time>
      </trkpt>
      <trkpt lat="51.56595" lon="4.30501">
        <ele>46.077756</ele>
        <time>2024-07-02T07:47:16.147Z</time>
      </trkpt>
      <trkpt lat="51.56602" lon="4.3051">
        <ele>46.040888</ele>
        <time>2024-07-02T07:47:18.141Z</time>
      </trkpt>
      <trkpt lat="51.56609" lon="4.3052">
        <ele>46.005174</ele>
        <time>2024-07-02T07:47:20.147Z</time>
      </trkpt>
      <trkpt lat="51.56615" lon="4.30531">
        <ele>45.969381</ele>
        <time>2024-07-02T07:47:22.169Z</time>
      </trkpt>
      <trkpt lat="51.56624" lon="4.30544">
        <ele>45.920367</ele>
        <time>2024-07-02T07:47:25.121Z</time>
      </trkpt>
      <trkpt lat="51.56633" lon="4.30557">
        <ele>45.872818</ele>
        <time>2024-07-02T07:47:28.146Z</time>
      </trkpt>
      <trkpt lat="51.56642" lon="4.30571">
        <ele>45.897433</ele>
        <time>2024-07-02T07:47:31.147Z</time>
      </trkpt>
      <trkpt lat="51.56652" lon="4.30584">
        <ele>45.937504</ele>
        <time>2024-07-02T07:47:34.139Z</time>
      </trkpt>
      <trkpt lat="51.56661" lon="4.30598">
        <ele>45.977248</ele>
        <time>2024-07-02T07:47:37.142Z</time>
      </trkpt>
      <trkpt lat="51.56671" lon="4.30613">
        <ele>46.018648</ele>
        <time>2024-07-02T07:47:40.152Z</time>
      </trkpt>
      <trkpt lat="51.56678" lon="4.30623">
        <ele>46.047861</ele>
        <time>2024-07-02T07:47:42.128Z</time>
      </trkpt>
      <trkpt lat="51.56687" lon="4.30637">
        <ele>46.087474</ele>
        <time>2024-07-02T07:47:45.126Z</time>
      </trkpt>
      <trkpt lat="51.56696" lon="4.30651">
        <ele>46.126725</ele>
        <time>2024-07-02T07:47:48.161Z</time>
      </trkpt>
      <trkpt lat="51.56706" lon="4.30666">
        <ele>46.167834</ele>
        <time>2024-07-02T07:47:51.151Z</time>
      </trkpt>
      <trkpt lat="51.56715" lon="4.30681">
        <ele>46.208118</ele>
        <time>2024-07-02T07:47:54.147Z</time>
      </trkpt>
      <trkpt lat="51.56724" lon="4.30695">
        <ele>46.248537</ele>
        <time>2024-07-02T07:47:57.139Z</time>
      </trkpt>
      <trkpt lat="51.56734" lon="4.30709">
        <ele>46.288597</ele>
        <time>2024-07-02T07:48:00.155Z</time>
      </trkpt>
      <trkpt lat="51.5674" lon="4.3072">
        <ele>46.316424</ele>
        <time>2024-07-02T07:48:02.145Z</time>
      </trkpt>
      <trkpt lat="51.5675" lon="4.30734">
        <ele>46.357299</ele>
        <time>2024-07-02T07:48:05.133Z</time>
      </trkpt>
      <trkpt lat="51.56759" lon="4.30748">
        <ele>46.396775</ele>
        <time>2024-07-02T07:48:08.141Z</time>
      </trkpt>
      <trkpt lat="51.56769" lon="4.30763">
        <ele>46.427132</ele>
        <time>2024-07-02T07:48:11.145Z</time>
      </trkpt>
      <trkpt lat="51.56778" lon="4.30777">
        <ele>46.435717</ele>
        <time>2024-07-02T07:48:14.142Z</time>
      </trkpt>
      <trkpt lat="51.56788" lon="4.30791">
        <ele>46.4447</ele>
        <time>2024-07-02T07:48:17.130Z</time>
      </trkpt>
      <trkpt lat="51.56795" lon="4.30802">
        <ele>46.451307</ele>
        <time>2024-07-02T07:48:19.151Z</time>
      </trkpt>
      <trkpt lat="51.56805" lon="4.30817">
        <ele>46.46026</ele>
        <time>2024-07-02T07:48:22.151Z</time>
      </trkpt>
      <trkpt lat="51.56814" lon="4.30831">
        <ele>46.46903</ele>
        <time>2024-07-02T07:48:25.136Z</time>
      </trkpt>
      <trkpt lat="51.56823" lon="4.30845">
        <ele>46.477488</ele>
        <time>2024-07-02T07:48:28.139Z</time>
      </trkpt>
      <trkpt lat="51.56833" lon="4.3086">
        <ele>46.486199</ele>
        <time>2024-07-02T07:48:31.142Z</time>
      </trkpt>
      <trkpt lat="51.56841" lon="4.30874">
        <ele>46.49475</ele>
        <time>2024-07-02T07:48:34.156Z</time>
      </trkpt>
      <trkpt lat="51.5685" lon="4.30889">
        <ele>46.503223</ele>
        <time>2024-07-02T07:48:37.145Z</time>
      </trkpt>
      <trkpt lat="51.56859" lon="4.30904">
        <ele>46.512207</ele>
        <time>2024-07-02T07:48:40.146Z</time>
      </trkpt>
      <trkpt lat="51.56869" lon="4.30919">
        <ele>46.521132</ele>
        <time>2024-07-02T07:48:43.159Z</time>
      </trkpt>
      <trkpt lat="51.56878" lon="4.30934">
        <ele>46.529914</ele>
        <time>2024-07-02T07:48:46.142Z</time>
      </trkpt>
      <trkpt lat="51.56887" lon="4.30948">
        <ele>46.538566</ele>
        <time>2024-07-02T07:48:49.129Z</time>
      </trkpt>
      <trkpt lat="51.56896" lon="4.30964">
        <ele>46.474592</ele>
        <time>2024-07-02T07:48:52.167Z</time>
      </trkpt>
      <trkpt lat="51.56903" lon="4.3098">
        <ele>46.226677</ele>
        <time>2024-07-02T07:48:55.146Z</time>
      </trkpt>
      <trkpt lat="51.5691" lon="4.30994">
        <ele>45.988677</ele>
        <time>2024-07-02T07:48:58.146Z</time>
      </trkpt>
      <trkpt lat="51.56918" lon="4.3101">
        <ele>45.736002</ele>
        <time>2024-07-02T07:49:01.152Z</time>
      </trkpt>
      <trkpt lat="51.56923" lon="4.31024">
        <ele>45.515554</ele>
        <time>2024-07-02T07:49:04.153Z</time>
      </trkpt>
      <trkpt lat="51.5693" lon="4.31037">
        <ele>45.298337</ele>
        <time>2024-07-02T07:49:07.144Z</time>
      </trkpt>
      <trkpt lat="51.56935" lon="4.31049">
        <ele>45.113643</ele>
        <time>2024-07-02T07:49:10.146Z</time>
      </trkpt>
      <trkpt lat="51.56938" lon="4.31064">
        <ele>44.922557</ele>
        <time>2024-07-02T07:49:15.149Z</time>
      </trkpt>
      <trkpt lat="51.56935" lon="4.31079">
        <ele>44.714121</ele>
        <time>2024-07-02T07:50:53.134Z</time>
      </trkpt>
      <trkpt lat="51.56942" lon="4.31093">
        <ele>44.497237</ele>
        <time>2024-07-02T07:50:57.122Z</time>
      </trkpt>
      <trkpt lat="51.56948" lon="4.31104">
        <ele>44.301263</ele>
        <time>2024-07-02T07:51:00.148Z</time>
      </trkpt>
      <trkpt lat="51.56955" lon="4.31117">
        <ele>44.088922</ele>
        <time>2024-07-02T07:51:03.149Z</time>
      </trkpt>
      <trkpt lat="51.56961" lon="4.31131">
        <ele>43.870345</ele>
        <time>2024-07-02T07:51:06.163Z</time>
      </trkpt>
      <trkpt lat="51.56967" lon="4.31148">
        <ele>43.624958</ele>
        <time>2024-07-02T07:51:09.147Z</time>
      </trkpt>
      <trkpt lat="51.56972" lon="4.31164">
        <ele>43.394302</ele>
        <time>2024-07-02T07:51:12.145Z</time>
      </trkpt>
      <trkpt lat="51.56979" lon="4.31178">
        <ele>43.159824</ele>
        <time>2024-07-02T07:51:15.137Z</time>
      </trkpt>
      <trkpt lat="51.56985" lon="4.31194">
        <ele>42.924131</ele>
        <time>2024-07-02T07:51:18.157Z</time>
      </trkpt>
      <trkpt lat="51.56991" lon="4.31208">
        <ele>42.936218</ele>
        <time>2024-07-02T07:51:21.144Z</time>
      </trkpt>
      <trkpt lat="51.56998" lon="4.31222">
        <ele>43.086015</ele>
        <time>2024-07-02T07:51:24.158Z</time>
      </trkpt>
      <trkpt lat="51.57005" lon="4.31236">
        <ele>43.241317</ele>
        <time>2024-07-02T07:51:28.140Z</time>
      </trkpt>
      <trkpt lat="51.57015" lon="4.3124">
        <ele>43.38421</ele>
        <time>2024-07-02T07:51:32.149Z</time>
      </trkpt>
      <trkpt lat="51.57024" lon="4.31234">
        <ele>43.514398</ele>
        <time>2024-07-02T07:51:35.134Z</time>
      </trkpt>
      <trkpt lat="51.57033" lon="4.31228">
        <ele>43.639864</ele>
        <time>2024-07-02T07:51:38.162Z</time>
      </trkpt>
      <trkpt lat="51.57043" lon="4.31222">
        <ele>43.786753</ele>
        <time>2024-07-02T07:51:42.153Z</time>
      </trkpt>
      <trkpt lat="51.57053" lon="4.31223">
        <ele>43.930883</ele>
        <time>2024-07-02T07:51:45.150Z</time>
      </trkpt>
      <trkpt lat="51.57064" lon="4.31228">
        <ele>44.074212</ele>
        <time>2024-07-02T07:51:48.141Z</time>
      </trkpt>
      <trkpt lat="51.57072" lon="4.31221">
        <ele>44.200527</ele>
        <time>2024-07-02T07:51:51.139Z</time>
      </trkpt>
      <trkpt lat="51.57082" lon="4.31229">
        <ele>44.349911</ele>
        <time>2024-07-02T07:51:54.125Z</time>
      </trkpt>
      <trkpt lat="51.57085" lon="4.31247">
        <ele>44.512405</ele>
        <time>2024-07-02T07:51:57.137Z</time>
      </trkpt>
      <trkpt lat="51.57091" lon="4.31264">
        <ele>44.67556</ele>
        <time>2024-07-02T07:52:00.139Z</time>
      </trkpt>
      <trkpt lat="51.57097" lon="4.31281">
        <ele>44.83799</ele>
        <time>2024-07-02T07:52:03.155Z</time>
      </trkpt>
      <trkpt lat="51.57105" lon="4.31297">
        <ele>45.008432</ele>
        <time>2024-07-02T07:52:06.142Z</time>
      </trkpt>
      <trkpt lat="51.57112" lon="4.31314">
        <ele>45.187313</ele>
        <time>2024-07-02T07:52:09.154Z</time>
      </trkpt>
      <trkpt lat="51.57119" lon="4.31331">
        <ele>45.313109</ele>
        <time>2024-07-02T07:52:12.125Z</time>
      </trkpt>
      <trkpt lat="51.57127" lon="4.31347">
        <ele>45.384907</ele>
        <time>2024-07-02T07:52:15.146Z</time>
      </trkpt>
      <trkpt lat="51.57135" lon="4.31364">
        <ele>45.458906</ele>
        <time>2024-07-02T07:52:18.141Z</time>
      </trkpt>
      <trkpt lat="51.57143" lon="4.3138">
        <ele>45.530562</ele>
        <time>2024-07-02T07:52:21.153Z</time>
      </trkpt>
      <trkpt lat="51.57151" lon="4.31396">
        <ele>45.602422</ele>
        <time>2024-07-02T07:52:24.159Z</time>
      </trkpt>
      <trkpt lat="51.57159" lon="4.31413">
        <ele>45.677042</ele>
        <time>2024-07-02T07:52:27.143Z</time>
      </trkpt>
      <trkpt lat="51.57167" lon="4.3143">
        <ele>45.749869</ele>
        <time>2024-07-02T07:52:30.160Z</time>
      </trkpt>
      <trkpt lat="51.57172" lon="4.31442">
        <ele>45.801621</ele>
        <time>2024-07-02T07:52:32.137Z</time>
      </trkpt>
      <trkpt lat="51.57181" lon="4.31458">
        <ele>45.874333</ele>
        <time>2024-07-02T07:52:35.143Z</time>
      </trkpt>
      <trkpt lat="51.57188" lon="4.31475">
        <ele>45.947585</ele>
        <time>2024-07-02T07:52:38.156Z</time>
      </trkpt>
      <trkpt lat="51.57196" lon="4.31491">
        <ele>46.01959</ele>
        <time>2024-07-02T07:52:41.148Z</time>
      </trkpt>
      <trkpt lat="51.57202" lon="4.31502">
        <ele>46.070783</ele>
        <time>2024-07-02T07:52:43.148Z</time>
      </trkpt>
      <trkpt lat="51.57208" lon="4.31514">
        <ele>46.122989</ele>
        <time>2024-07-02T07:52:45.143Z</time>
      </trkpt>
      <trkpt lat="51.57216" lon="4.3153">
        <ele>46.197764</ele>
        <time>2024-07-02T07:52:48.143Z</time>
      </trkpt>
      <trkpt lat="51.57225" lon="4.31547">
        <ele>46.273005</ele>
        <time>2024-07-02T07:52:51.153Z</time>
      </trkpt>
      <trkpt lat="51.57233" lon="4.31565">
        <ele>46.310465</ele>
        <time>2024-07-02T07:52:54.152Z</time>
      </trkpt>
      <trkpt lat="51.57242" lon="4.3158">
        <ele>46.332126</ele>
        <time>2024-07-02T07:52:57.141Z</time>
      </trkpt>
      <trkpt lat="51.57251" lon="4.31597">
        <ele>46.354726</ele>
        <time>2024-07-02T07:53:00.159Z</time>
      </trkpt>
      <trkpt lat="51.57257" lon="4.31607">
        <ele>46.369742</ele>
        <time>2024-07-02T07:53:02.152Z</time>
      </trkpt>
      <trkpt lat="51.57263" lon="4.31618">
        <ele>46.38483</ele>
        <time>2024-07-02T07:53:04.159Z</time>
      </trkpt>
      <trkpt lat="51.57272" lon="4.31634">
        <ele>46.407692</ele>
        <time>2024-07-02T07:53:07.144Z</time>
      </trkpt>
      <trkpt lat="51.57278" lon="4.31645">
        <ele>46.42278</ele>
        <time>2024-07-02T07:53:09.156Z</time>
      </trkpt>
      <trkpt lat="51.57288" lon="4.3166">
        <ele>46.444508</ele>
        <time>2024-07-02T07:53:12.152Z</time>
      </trkpt>
      <trkpt lat="51.57294" lon="4.3167">
        <ele>46.459601</ele>
        <time>2024-07-02T07:53:14.142Z</time>
      </trkpt>
      <trkpt lat="51.573" lon="4.31681">
        <ele>46.474962</ele>
        <time>2024-07-02T07:53:16.150Z</time>
      </trkpt>
      <trkpt lat="51.57307" lon="4.31691">
        <ele>46.490064</ele>
        <time>2024-07-02T07:53:18.150Z</time>
      </trkpt>
      <trkpt lat="51.57314" lon="4.31701">
        <ele>46.505927</ele>
        <time>2024-07-02T07:53:20.154Z</time>
      </trkpt>
      <trkpt lat="51.5732" lon="4.31712">
        <ele>46.521775</ele>
        <time>2024-07-02T07:53:22.149Z</time>
      </trkpt>
      <trkpt lat="51.5733" lon="4.31728">
        <ele>46.544669</ele>
        <time>2024-07-02T07:53:25.129Z</time>
      </trkpt>
      <trkpt lat="51.57339" lon="4.31743">
        <ele>46.566662</ele>
        <time>2024-07-02T07:53:28.145Z</time>
      </trkpt>
      <trkpt lat="51.57349" lon="4.31758">
        <ele>46.588885</ele>
        <time>2024-07-02T07:53:31.144Z</time>
      </trkpt>
      <trkpt lat="51.57359" lon="4.31772">
        <ele>46.581908</ele>
        <time>2024-07-02T07:53:34.150Z</time>
      </trkpt>
      <trkpt lat="51.57369" lon="4.31786">
        <ele>46.566069</ele>
        <time>2024-07-02T07:53:37.146Z</time>
      </trkpt>
      <trkpt lat="51.57376" lon="4.31796">
        <ele>46.555175</ele>
        <time>2024-07-02T07:53:39.142Z</time>
      </trkpt>
      <trkpt lat="51.57386" lon="4.3181">
        <ele>46.539436</ele>
        <time>2024-07-02T07:53:42.157Z</time>
      </trkpt>
      <trkpt lat="51.57396" lon="4.31824">
        <ele>46.523952</ele>
        <time>2024-07-02T07:53:45.131Z</time>
      </trkpt>
      <trkpt lat="51.57405" lon="4.31838">
        <ele>46.50866</ele>
        <time>2024-07-02T07:53:48.143Z</time>
      </trkpt>
      <trkpt lat="51.57413" lon="4.31847">
        <ele>46.497596</ele>
        <time>2024-07-02T07:53:50.144Z</time>
      </trkpt>
      <trkpt lat="51.57423" lon="4.31862">
        <ele>46.481956</ele>
        <time>2024-07-02T07:53:53.158Z</time>
      </trkpt>
      <trkpt lat="51.5743" lon="4.31871">
        <ele>46.471305</ele>
        <time>2024-07-02T07:53:55.142Z</time>
      </trkpt>
      <trkpt lat="51.57436" lon="4.3188">
        <ele>46.460555</ele>
        <time>2024-07-02T07:53:57.151Z</time>
      </trkpt>
      <trkpt lat="51.57444" lon="4.3189">
        <ele>46.449583</ele>
        <time>2024-07-02T07:53:59.135Z</time>
      </trkpt>
      <trkpt lat="51.57451" lon="4.31899">
        <ele>46.43861</ele>
        <time>2024-07-02T07:54:01.154Z</time>
      </trkpt>
      <trkpt lat="51.57458" lon="4.31908">
        <ele>46.427817</ele>
        <time>2024-07-02T07:54:03.139Z</time>
      </trkpt>
      <trkpt lat="51.57465" lon="4.31918">
        <ele>46.416519</ele>
        <time>2024-07-02T07:54:05.125Z</time>
      </trkpt>
      <trkpt lat="51.57473" lon="4.31928">
        <ele>46.405453</ele>
        <time>2024-07-02T07:54:07.155Z</time>
      </trkpt>
      <trkpt lat="51.57484" lon="4.31941">
        <ele>46.389499</ele>
        <time>2024-07-02T07:54:10.144Z</time>
      </trkpt>
      <trkpt lat="51.57495" lon="4.31953">
        <ele>46.395301</ele>
        <time>2024-07-02T07:54:13.155Z</time>
      </trkpt>
      <trkpt lat="51.57502" lon="4.31962">
        <ele>46.413014</ele>
        <time>2024-07-02T07:54:15.118Z</time>
      </trkpt>
      <trkpt lat="51.5751" lon="4.31971">
        <ele>46.430506</ele>
        <time>2024-07-02T07:54:17.137Z</time>
      </trkpt>
      <trkpt lat="51.57518" lon="4.31979">
        <ele>46.448109</ele>
        <time>2024-07-02T07:54:19.155Z</time>
      </trkpt>
      <trkpt lat="51.57526" lon="4.31988">
        <ele>46.46589</ele>
        <time>2024-07-02T07:54:21.157Z</time>
      </trkpt>
      <trkpt lat="51.57533" lon="4.31996">
        <ele>46.483016</ele>
        <time>2024-07-02T07:54:23.157Z</time>
      </trkpt>
      <trkpt lat="51.57541" lon="4.32004">
        <ele>46.500221</ele>
        <time>2024-07-02T07:54:25.128Z</time>
      </trkpt>
      <trkpt lat="51.57548" lon="4.32013">
        <ele>46.517258</ele>
        <time>2024-07-02T07:54:27.152Z</time>
      </trkpt>
      <trkpt lat="51.57556" lon="4.32022">
        <ele>46.534861</ele>
        <time>2024-07-02T07:54:29.136Z</time>
      </trkpt>
      <trkpt lat="51.57563" lon="4.32031">
        <ele>46.552258</ele>
        <time>2024-07-02T07:54:31.153Z</time>
      </trkpt>
      <trkpt lat="51.57571" lon="4.3204">
        <ele>46.570165</ele>
        <time>2024-07-02T07:54:33.144Z</time>
      </trkpt>
      <trkpt lat="51.57578" lon="4.32049">
        <ele>46.587505</ele>
        <time>2024-07-02T07:54:35.127Z</time>
      </trkpt>
      <trkpt lat="51.57587" lon="4.32057">
        <ele>46.605957</ele>
        <time>2024-07-02T07:54:37.153Z</time>
      </trkpt>
      <trkpt lat="51.57594" lon="4.32065">
        <ele>46.623495</ele>
        <time>2024-07-02T07:54:39.118Z</time>
      </trkpt>
      <trkpt lat="51.57602" lon="4.32074">
        <ele>46.641073</ele>
        <time>2024-07-02T07:54:41.149Z</time>
      </trkpt>
      <trkpt lat="51.57613" lon="4.32086">
        <ele>46.665889</ele>
        <time>2024-07-02T07:54:44.151Z</time>
      </trkpt>
      <trkpt lat="51.5762" lon="4.32095">
        <ele>46.683207</ele>
        <time>2024-07-02T07:54:46.152Z</time>
      </trkpt>
      <trkpt lat="51.57631" lon="4.32107">
        <ele>46.707822</ele>
        <time>2024-07-02T07:54:49.148Z</time>
      </trkpt>
      <trkpt lat="51.57642" lon="4.3212">
        <ele>46.632186</ele>
        <time>2024-07-02T07:54:52.150Z</time>
      </trkpt>
      <trkpt lat="51.57649" lon="4.32129">
        <ele>46.519196</ele>
        <time>2024-07-02T07:54:54.162Z</time>
      </trkpt>
      <trkpt lat="51.57657" lon="4.32137">
        <ele>46.406517</ele>
        <time>2024-07-02T07:54:56.139Z</time>
      </trkpt>
      <trkpt lat="51.57669" lon="4.32148">
        <ele>46.244226</ele>
        <time>2024-07-02T07:54:59.137Z</time>
      </trkpt>
      <trkpt lat="51.57676" lon="4.32155">
        <ele>46.134</ele>
        <time>2024-07-02T07:55:01.157Z</time>
      </trkpt>
      <trkpt lat="51.57687" lon="4.32166">
        <ele>45.980748</ele>
        <time>2024-07-02T07:55:04.157Z</time>
      </trkpt>
      <trkpt lat="51.57695" lon="4.32173">
        <ele>45.87079</ele>
        <time>2024-07-02T07:55:06.145Z</time>
      </trkpt>
      <trkpt lat="51.57706" lon="4.32185">
        <ele>45.713453</ele>
        <time>2024-07-02T07:55:09.124Z</time>
      </trkpt>
      <trkpt lat="51.57716" lon="4.32198">
        <ele>45.552988</ele>
        <time>2024-07-02T07:55:12.136Z</time>
      </trkpt>
      <trkpt lat="51.57727" lon="4.32212">
        <ele>45.388283</ele>
        <time>2024-07-02T07:55:15.129Z</time>
      </trkpt>
      <trkpt lat="51.57734" lon="4.32222">
        <ele>45.271699</ele>
        <time>2024-07-02T07:55:17.145Z</time>
      </trkpt>
      <trkpt lat="51.57742" lon="4.32231">
        <ele>45.158413</ele>
        <time>2024-07-02T07:55:19.147Z</time>
      </trkpt>
      <trkpt lat="51.57749" lon="4.32239">
        <ele>45.046847</ele>
        <time>2024-07-02T07:55:21.155Z</time>
      </trkpt>
      <trkpt lat="51.57757" lon="4.32248">
        <ele>44.934476</ele>
        <time>2024-07-02T07:55:23.156Z</time>
      </trkpt>
      <trkpt lat="51.57764" lon="4.32258">
        <ele>44.823094</ele>
        <time>2024-07-02T07:55:25.129Z</time>
      </trkpt>
      <trkpt lat="51.57774" lon="4.32271">
        <ele>44.660259</ele>
        <time>2024-07-02T07:55:28.143Z</time>
      </trkpt>
      <trkpt lat="51.57785" lon="4.32283">
        <ele>44.612803</ele>
        <time>2024-07-02T07:55:31.154Z</time>
      </trkpt>
      <trkpt lat="51.57795" lon="4.32297">
        <ele>44.894161</ele>
        <time>2024-07-02T07:55:34.152Z</time>
      </trkpt>
      <trkpt lat="51.57805" lon="4.3231">
        <ele>45.172123</ele>
        <time>2024-07-02T07:55:37.150Z</time>
      </trkpt>
      <trkpt lat="51.57816" lon="4.32321">
        <ele>45.453278</ele>
        <time>2024-07-02T07:55:40.159Z</time>
      </trkpt>
      <trkpt lat="51.57827" lon="4.32333">
        <ele>45.739727</ele>
        <time>2024-07-02T07:55:43.155Z</time>
      </trkpt>
      <trkpt lat="51.57835" lon="4.3234">
        <ele>45.940373</ele>
        <time>2024-07-02T07:55:45.141Z</time>
      </trkpt>
      <trkpt lat="51.57846" lon="4.32349">
        <ele>46.209428</ele>
        <time>2024-07-02T07:55:48.150Z</time>
      </trkpt>
      <trkpt lat="51.57857" lon="4.32358">
        <ele>46.483889</ele>
        <time>2024-07-02T07:55:51.159Z</time>
      </trkpt>
      <trkpt lat="51.57865" lon="4.32365">
        <ele>46.684536</ele>
        <time>2024-07-02T07:55:53.145Z</time>
      </trkpt>
      <trkpt lat="51.57877" lon="4.32375">
        <ele>46.975276</ele>
        <time>2024-07-02T07:55:56.141Z</time>
      </trkpt>
      <trkpt lat="51.57886" lon="4.32381">
        <ele>47.179418</ele>
        <time>2024-07-02T07:55:58.142Z</time>
      </trkpt>
      <trkpt lat="51.57894" lon="4.32388">
        <ele>47.38591</ele>
        <time>2024-07-02T07:56:00.143Z</time>
      </trkpt>
      <trkpt lat="51.57902" lon="4.32395">
        <ele>47.586555</ele>
        <time>2024-07-02T07:56:02.135Z</time>
      </trkpt>
      <trkpt lat="51.57911" lon="4.32401">
        <ele>47.793418</ele>
        <time>2024-07-02T07:56:04.159Z</time>
      </trkpt>
      <trkpt lat="51.57921" lon="4.32408">
        <ele>48.024391</ele>
        <time>2024-07-02T07:56:06.140Z</time>
      </trkpt>
      <trkpt lat="51.5793" lon="4.32415">
        <ele>48.243507</ele>
        <time>2024-07-02T07:56:08.149Z</time>
      </trkpt>
      <trkpt lat="51.57939" lon="4.32422">
        <ele>48.451654</ele>
        <time>2024-07-02T07:56:10.141Z</time>
      </trkpt>
      <trkpt lat="51.57949" lon="4.32431">
        <ele>48.436309</ele>
        <time>2024-07-02T07:56:12.136Z</time>
      </trkpt>
      <trkpt lat="51.57959" lon="4.32442">
        <ele>48.420096</ele>
        <time>2024-07-02T07:56:14.154Z</time>
      </trkpt>
      <trkpt lat="51.57969" lon="4.32451">
        <ele>48.404895</ele>
        <time>2024-07-02T07:56:16.150Z</time>
      </trkpt>
      <trkpt lat="51.57979" lon="4.32461">
        <ele>48.389044</ele>
        <time>2024-07-02T07:56:18.139Z</time>
      </trkpt>
      <trkpt lat="51.57988" lon="4.32472">
        <ele>48.373782</ele>
        <time>2024-07-02T07:56:20.145Z</time>
      </trkpt>
      <trkpt lat="51.57997" lon="4.32483">
        <ele>48.358913</ele>
        <time>2024-07-02T07:56:22.141Z</time>
      </trkpt>
      <trkpt lat="51.58006" lon="4.32493">
        <ele>48.343777</ele>
        <time>2024-07-02T07:56:24.145Z</time>
      </trkpt>
      <trkpt lat="51.58016" lon="4.32497">
        <ele>48.330468</ele>
        <time>2024-07-02T07:56:26.141Z</time>
      </trkpt>
      <trkpt lat="51.58024" lon="4.3249">
        <ele>48.317892</ele>
        <time>2024-07-02T07:56:28.139Z</time>
      </trkpt>
      <trkpt lat="51.58034" lon="4.32493">
        <ele>48.304255</ele>
        <time>2024-07-02T07:56:31.134Z</time>
      </trkpt>
      <trkpt lat="51.5804" lon="4.32506">
        <ele>48.29108</ele>
        <time>2024-07-02T07:56:34.157Z</time>
      </trkpt>
      <trkpt lat="51.58042" lon="4.32522">
        <ele>48.277359</ele>
        <time>2024-07-02T07:56:37.128Z</time>
      </trkpt>
      <trkpt lat="51.58047" lon="4.32539">
        <ele>48.261847</ele>
        <time>2024-07-02T07:56:40.146Z</time>
      </trkpt>
      <trkpt lat="51.58055" lon="4.32551">
        <ele>48.246019</ele>
        <time>2024-07-02T07:56:43.139Z</time>
      </trkpt>
      <trkpt lat="51.58063" lon="4.32567">
        <ele>48.229592</ele>
        <time>2024-07-02T07:56:46.150Z</time>
      </trkpt>
      <trkpt lat="51.58071" lon="4.32581">
        <ele>48.21385</ele>
        <time>2024-07-02T07:56:49.137Z</time>
      </trkpt>
      <trkpt lat="51.58079" lon="4.32596">
        <ele>48.348226</ele>
        <time>2024-07-02T07:56:52.136Z</time>
      </trkpt>
      <trkpt lat="51.58086" lon="4.32612">
        <ele>48.512388</ele>
        <time>2024-07-02T07:56:55.123Z</time>
      </trkpt>
      <trkpt lat="51.58094" lon="4.32627">
        <ele>48.680928</ele>
        <time>2024-07-02T07:56:58.151Z</time>
      </trkpt>
      <trkpt lat="51.58101" lon="4.32643">
        <ele>48.841095</ele>
        <time>2024-07-02T07:57:01.156Z</time>
      </trkpt>
      <trkpt lat="51.58108" lon="4.32659">
        <ele>49.003828</ele>
        <time>2024-07-02T07:57:04.135Z</time>
      </trkpt>
      <trkpt lat="51.58115" lon="4.32675">
        <ele>49.163553</ele>
        <time>2024-07-02T07:57:07.139Z</time>
      </trkpt>
      <trkpt lat="51.58121" lon="4.32691">
        <ele>49.32415</ele>
        <time>2024-07-02T07:57:10.157Z</time>
      </trkpt>
      <trkpt lat="51.58127" lon="4.32707">
        <ele>49.485505</ele>
        <time>2024-07-02T07:57:13.143Z</time>
      </trkpt>
      <trkpt lat="51.58134" lon="4.32724">
        <ele>49.651048</ele>
        <time>2024-07-02T07:57:16.158Z</time>
      </trkpt>
      <trkpt lat="51.5814" lon="4.32741">
        <ele>49.815184</ele>
        <time>2024-07-02T07:57:19.141Z</time>
      </trkpt>
      <trkpt lat="51.58147" lon="4.32757">
        <ele>49.978589</ele>
        <time>2024-07-02T07:57:22.144Z</time>
      </trkpt>
      <trkpt lat="51.58153" lon="4.32774">
        <ele>50.141343</ele>
        <time>2024-07-02T07:57:25.119Z</time>
      </trkpt>
      <trkpt lat="51.5816" lon="4.32791">
        <ele>50.310871</ele>
        <time>2024-07-02T07:57:28.142Z</time>
      </trkpt>
      <trkpt lat="51.58167" lon="4.32807">
        <ele>50.474462</ele>
        <time>2024-07-02T07:57:31.142Z</time>
      </trkpt>
      <trkpt lat="51.58174" lon="4.32822">
        <ele>50.630341</ele>
        <time>2024-07-02T07:57:34.163Z</time>
      </trkpt>
      <trkpt lat="51.5818" lon="4.32838">
        <ele>50.473016</ele>
        <time>2024-07-02T07:57:37.142Z</time>
      </trkpt>
      <trkpt lat="51.58187" lon="4.32853">
        <ele>50.30505</ele>
        <time>2024-07-02T07:57:40.137Z</time>
      </trkpt>
      <trkpt lat="51.58195" lon="4.32868">
        <ele>50.139166</ele>
        <time>2024-07-02T07:57:43.139Z</time>
      </trkpt>
      <trkpt lat="51.58201" lon="4.32878">
        <ele>50.013299</ele>
        <time>2024-07-02T07:57:45.140Z</time>
      </trkpt>
      <trkpt lat="51.58211" lon="4.32891">
        <ele>49.839671</ele>
        <time>2024-07-02T07:57:48.161Z</time>
      </trkpt>
      <trkpt lat="51.58221" lon="4.32905">
        <ele>49.652403</ele>
        <time>2024-07-02T07:57:51.142Z</time>
      </trkpt>
      <trkpt lat="51.58228" lon="4.32916">
        <ele>49.520731</ele>
        <time>2024-07-02T07:57:53.133Z</time>
      </trkpt>
      <trkpt lat="51.58236" lon="4.32925">
        <ele>49.385331</ele>
        <time>2024-07-02T07:57:55.141Z</time>
      </trkpt>
      <trkpt lat="51.58244" lon="4.32935">
        <ele>49.240764</ele>
        <time>2024-07-02T07:57:57.137Z</time>
      </trkpt>
      <trkpt lat="51.58252" lon="4.32944">
        <ele>49.105975</ele>
        <time>2024-07-02T07:57:59.169Z</time>
      </trkpt>
      <trkpt lat="51.5826" lon="4.32954">
        <ele>48.965268</ele>
        <time>2024-07-02T07:58:01.151Z</time>
      </trkpt>
      <trkpt lat="51.58268" lon="4.32964">
        <ele>48.830541</ele>
        <time>2024-07-02T07:58:03.140Z</time>
      </trkpt>
      <trkpt lat="51.58275" lon="4.32974">
        <ele>48.690962</ele>
        <time>2024-07-02T07:58:05.144Z</time>
      </trkpt>
      <trkpt lat="51.58284" lon="4.32983">
        <ele>48.55201</ele>
        <time>2024-07-02T07:58:07.157Z</time>
      </trkpt>
      <trkpt lat="51.58292" lon="4.32992">
        <ele>48.41498</ele>
        <time>2024-07-02T07:58:09.144Z</time>
      </trkpt>
      <trkpt lat="51.583" lon="4.33">
        <ele>48.279751</ele>
        <time>2024-07-02T07:58:11.138Z</time>
      </trkpt>
      <trkpt lat="51.58309" lon="4.3301">
        <ele>48.136197</ele>
        <time>2024-07-02T07:58:13.161Z</time>
      </trkpt>
      <trkpt lat="51.58317" lon="4.3302">
        <ele>48.176356</ele>
        <time>2024-07-02T07:58:15.129Z</time>
      </trkpt>
      <trkpt lat="51.58326" lon="4.33027">
        <ele>48.217672</ele>
        <time>2024-07-02T07:58:17.144Z</time>
      </trkpt>
      <trkpt lat="51.58335" lon="4.33035">
        <ele>48.258343</ele>
        <time>2024-07-02T07:58:19.126Z</time>
      </trkpt>
      <trkpt lat="51.58344" lon="4.33043">
        <ele>48.299737</ele>
        <time>2024-07-02T07:58:21.134Z</time>
      </trkpt>
      <trkpt lat="51.58353" lon="4.33051">
        <ele>48.341824</ele>
        <time>2024-07-02T07:58:23.147Z</time>
      </trkpt>
      <trkpt lat="51.58362" lon="4.33058">
        <ele>48.380477</ele>
        <time>2024-07-02T07:58:25.133Z</time>
      </trkpt>
      <trkpt lat="51.58371" lon="4.33066">
        <ele>48.421262</ele>
        <time>2024-07-02T07:58:27.151Z</time>
      </trkpt>
      <trkpt lat="51.5838" lon="4.33073">
        <ele>48.460764</ele>
        <time>2024-07-02T07:58:29.143Z</time>
      </trkpt>
      <trkpt lat="51.58389" lon="4.3308">
        <ele>48.50088</ele>
        <time>2024-07-02T07:58:31.152Z</time>
      </trkpt>
      <trkpt lat="51.58397" lon="4.33086">
        <ele>48.539009</ele>
        <time>2024-07-02T07:58:33.147Z</time>
      </trkpt>
      <trkpt lat="51.58406" lon="4.33093">
        <ele>48.579679</ele>
        <time>2024-07-02T07:58:35.128Z</time>
      </trkpt>
      <trkpt lat="51.58415" lon="4.331">
        <ele>48.618237</ele>
        <time>2024-07-02T07:58:37.129Z</time>
      </trkpt>
      <trkpt lat="51.58424" lon="4.33107">
        <ele>48.65857</ele>
        <time>2024-07-02T07:58:39.156Z</time>
      </trkpt>
      <trkpt lat="51.58433" lon="4.33113">
        <ele>48.697227</ele>
        <time>2024-07-02T07:58:41.145Z</time>
      </trkpt>
      <trkpt lat="51.58442" lon="4.33119">
        <ele>48.735415</ele>
        <time>2024-07-02T07:58:43.139Z</time>
      </trkpt>
      <trkpt lat="51.5845" lon="4.33125">
        <ele>48.774275</ele>
        <time>2024-07-02T07:58:45.121Z</time>
      </trkpt>
      <trkpt lat="51.58459" lon="4.33131">
        <ele>48.812735</ele>
        <time>2024-07-02T07:58:47.143Z</time>
      </trkpt>
      <trkpt lat="51.58468" lon="4.33137">
        <ele>48.850162</ele>
        <time>2024-07-02T07:58:49.140Z</time>
      </trkpt>
      <trkpt lat="51.58477" lon="4.33143">
        <ele>48.848341</ele>
        <time>2024-07-02T07:58:51.146Z</time>
      </trkpt>
      <trkpt lat="51.58486" lon="4.33147">
        <ele>48.836244</ele>
        <time>2024-07-02T07:58:53.153Z</time>
      </trkpt>
      <trkpt lat="51.58495" lon="4.33153">
        <ele>48.824218</ele>
        <time>2024-07-02T07:58:55.129Z</time>
      </trkpt>
      <trkpt lat="51.58504" lon="4.33158">
        <ele>48.812567</ele>
        <time>2024-07-02T07:58:57.153Z</time>
      </trkpt>
      <trkpt lat="51.58513" lon="4.33162">
        <ele>48.800883</ele>
        <time>2024-07-02T07:58:59.150Z</time>
      </trkpt>
      <trkpt lat="51.58522" lon="4.33167">
        <ele>48.788665</ele>
        <time>2024-07-02T07:59:01.143Z</time>
      </trkpt>
      <trkpt lat="51.58532" lon="4.33171">
        <ele>48.776205</ele>
        <time>2024-07-02T07:59:03.147Z</time>
      </trkpt>
      <trkpt lat="51.58541" lon="4.33175">
        <ele>48.764042</ele>
        <time>2024-07-02T07:59:05.138Z</time>
      </trkpt>
      <trkpt lat="51.5855" lon="4.33179">
        <ele>48.752126</ele>
        <time>2024-07-02T07:59:07.150Z</time>
      </trkpt>
      <trkpt lat="51.5856" lon="4.33183">
        <ele>48.739808</ele>
        <time>2024-07-02T07:59:09.162Z</time>
      </trkpt>
      <trkpt lat="51.58569" lon="4.33187">
        <ele>48.727741</ele>
        <time>2024-07-02T07:59:11.162Z</time>
      </trkpt>
      <trkpt lat="51.58579" lon="4.3319">
        <ele>48.715723</ele>
        <time>2024-07-02T07:59:13.150Z</time>
      </trkpt>
      <trkpt lat="51.58588" lon="4.33193">
        <ele>48.704212</ele>
        <time>2024-07-02T07:59:15.131Z</time>
      </trkpt>
      <trkpt lat="51.58597" lon="4.33194">
        <ele>48.692249</ele>
        <time>2024-07-02T07:59:17.145Z</time>
      </trkpt>
      <trkpt lat="51.58606" lon="4.33196">
        <ele>48.680497</ele>
        <time>2024-07-02T07:59:19.158Z</time>
      </trkpt>
      <trkpt lat="51.5862" lon="4.332">
        <ele>48.663914</ele>
        <time>2024-07-02T07:59:22.153Z</time>
      </trkpt>
      <trkpt lat="51.58629" lon="4.33201">
        <ele>48.652315</ele>
        <time>2024-07-02T07:59:24.143Z</time>
      </trkpt>
      <trkpt lat="51.58638" lon="4.33202">
        <ele>48.640892</ele>
        <time>2024-07-02T07:59:26.137Z</time>
      </trkpt>
      <trkpt lat="51.58651" lon="4.33203">
        <ele>48.597399</ele>
        <time>2024-07-02T07:59:29.154Z</time>
      </trkpt>
      <trkpt lat="51.58665" lon="4.33204">
        <ele>48.529366</ele>
        <time>2024-07-02T07:59:32.150Z</time>
      </trkpt>
      <trkpt lat="51.58678" lon="4.33205">
        <ele>48.462369</ele>
        <time>2024-07-02T07:59:35.149Z</time>
      </trkpt>
      <trkpt lat="51.58687" lon="4.33206">
        <ele>48.41631</ele>
        <time>2024-07-02T07:59:37.170Z</time>
      </trkpt>
      <trkpt lat="51.58697" lon="4.33206">
        <ele>48.370326</ele>
        <time>2024-07-02T07:59:39.145Z</time>
      </trkpt>
      <trkpt lat="51.5871" lon="4.33204">
        <ele>48.302633</ele>
        <time>2024-07-02T07:59:42.152Z</time>
      </trkpt>
      <trkpt lat="51.58723" lon="4.33202">
        <ele>48.236483</ele>
        <time>2024-07-02T07:59:45.142Z</time>
      </trkpt>
      <trkpt lat="51.58732" lon="4.33201">
        <ele>48.191354</ele>
        <time>2024-07-02T07:59:47.155Z</time>
      </trkpt>
      <trkpt lat="51.58745" lon="4.33199">
        <ele>48.126883</ele>
        <time>2024-07-02T07:59:50.148Z</time>
      </trkpt>
      <trkpt lat="51.58758" lon="4.33196">
        <ele>48.063403</ele>
        <time>2024-07-02T07:59:53.154Z</time>
      </trkpt>
      <trkpt lat="51.58771" lon="4.33194">
        <ele>47.997517</ele>
        <time>2024-07-02T07:59:56.146Z</time>
      </trkpt>
      <trkpt lat="51.58783" lon="4.33191">
        <ele>47.934492</ele>
        <time>2024-07-02T07:59:59.161Z</time>
      </trkpt>
      <trkpt lat="51.58795" lon="4.33189">
        <ele>47.875131</ele>
        <time>2024-07-02T08:00:02.158Z</time>
      </trkpt>
      <trkpt lat="51.58806" lon="4.33187">
        <ele>47.818994</ele>
        <time>2024-07-02T08:00:05.155Z</time>
      </trkpt>
      <trkpt lat="51.58817" lon="4.33186">
        <ele>47.767429</ele>
        <time>2024-07-02T08:00:08.146Z</time>
      </trkpt>
      <trkpt lat="51.58827" lon="4.33186">
        <ele>47.708706</ele>
        <time>2024-07-02T08:00:11.149Z</time>
      </trkpt>
      <trkpt lat="51.58831" lon="4.332">
        <ele>47.644156</ele>
        <time>2024-07-02T08:00:14.154Z</time>
      </trkpt>
      <trkpt lat="51.5883" lon="4.33216">
        <ele>47.576889</ele>
        <time>2024-07-02T08:00:17.139Z</time>
      </trkpt>
      <trkpt lat="51.58831" lon="4.33234">
        <ele>47.497472</ele>
        <time>2024-07-02T08:00:21.170Z</time>
      </trkpt>
      <trkpt lat="51.58832" lon="4.33249">
        <ele>47.429502</ele>
        <time>2024-07-02T08:00:24.146Z</time>
      </trkpt>
      <trkpt lat="51.58838" lon="4.33263">
        <ele>47.355653</ele>
        <time>2024-07-02T08:00:27.135Z</time>
      </trkpt>
      <trkpt lat="51.58844" lon="4.33277">
        <ele>47.285212</ele>
        <time>2024-07-02T08:00:30.148Z</time>
      </trkpt>
      <trkpt lat="51.58856" lon="4.33278">
        <ele>47.201842</ele>
        <time>2024-07-02T08:00:34.150Z</time>
      </trkpt>
      <trkpt lat="51.58865" lon="4.33276">
        <ele>47.137503</ele>
        <time>2024-07-02T08:00:37.131Z</time>
      </trkpt>
      <trkpt lat="51.58875" lon="4.33271">
        <ele>47.064901</ele>
        <time>2024-07-02T08:00:40.164Z</time>
      </trkpt>
      <trkpt lat="51.58884" lon="4.33262">
        <ele>46.987239</ele>
        <time>2024-07-02T08:00:43.127Z</time>
      </trkpt>
      <trkpt lat="51.58895" lon="4.33261">
        <ele>46.908294</ele>
        <time>2024-07-02T08:00:46.142Z</time>
      </trkpt>
      <trkpt lat="51.58908" lon="4.33261">
        <ele>46.82097</ele>
        <time>2024-07-02T08:00:49.151Z</time>
      </trkpt>
      <trkpt lat="51.58921" lon="4.33261">
        <ele>46.72877</ele>
        <time>2024-07-02T08:00:52.142Z</time>
      </trkpt>
      <trkpt lat="51.58934" lon="4.33261">
        <ele>46.636574</ele>
        <time>2024-07-02T08:00:55.132Z</time>
      </trkpt>
      <trkpt lat="51.58947" lon="4.3326">
        <ele>46.547168</ele>
        <time>2024-07-02T08:00:58.136Z</time>
      </trkpt>
      <trkpt lat="51.58956" lon="4.33262">
        <ele>46.483971</ele>
        <time>2024-07-02T08:01:00.142Z</time>
      </trkpt>
      <trkpt lat="51.58969" lon="4.33262">
        <ele>46.570075</ele>
        <time>2024-07-02T08:01:03.150Z</time>
      </trkpt>
      <trkpt lat="51.58982" lon="4.33263">
        <ele>46.673796</ele>
        <time>2024-07-02T08:01:06.133Z</time>
      </trkpt>
      <trkpt lat="51.58995" lon="4.33266">
        <ele>46.777898</ele>
        <time>2024-07-02T08:01:09.118Z</time>
      </trkpt>
      <trkpt lat="51.59008" lon="4.33268">
        <ele>46.879959</ele>
        <time>2024-07-02T08:01:12.156Z</time>
      </trkpt>
      <trkpt lat="51.59022" lon="4.33271">
        <ele>46.985368</ele>
        <time>2024-07-02T08:01:15.130Z</time>
      </trkpt>
      <trkpt lat="51.59035" lon="4.33275">
        <ele>47.090992</ele>
        <time>2024-07-02T08:01:18.162Z</time>
      </trkpt>
      <trkpt lat="51.59045" lon="4.33277">
        <ele>47.164885</ele>
        <time>2024-07-02T08:01:20.139Z</time>
      </trkpt>
      <trkpt lat="51.59054" lon="4.3328">
        <ele>47.237211</ele>
        <time>2024-07-02T08:01:22.159Z</time>
      </trkpt>
      <trkpt lat="51.59063" lon="4.33285">
        <ele>47.313108</ele>
        <time>2024-07-02T08:01:24.143Z</time>
      </trkpt>
      <trkpt lat="51.59076" lon="4.33291">
        <ele>47.416303</ele>
        <time>2024-07-02T08:01:27.150Z</time>
      </trkpt>
      <trkpt lat="51.59088" lon="4.33297">
        <ele>47.514886</ele>
        <time>2024-07-02T08:01:30.157Z</time>
      </trkpt>
      <trkpt lat="51.591" lon="4.33302">
        <ele>47.615931</ele>
        <time>2024-07-02T08:01:33.151Z</time>
      </trkpt>
      <trkpt lat="51.59113" lon="4.33309">
        <ele>47.721775</ele>
        <time>2024-07-02T08:01:36.147Z</time>
      </trkpt>
      <trkpt lat="51.59122" lon="4.33313">
        <ele>47.793384</ele>
        <time>2024-07-02T08:01:38.154Z</time>
      </trkpt>
      <trkpt lat="51.59131" lon="4.33319">
        <ele>47.866888</ele>
        <time>2024-07-02T08:01:40.146Z</time>
      </trkpt>
      <trkpt lat="51.5914" lon="4.33324">
        <ele>47.869542</ele>
        <time>2024-07-02T08:01:42.163Z</time>
      </trkpt>
      <trkpt lat="51.59149" lon="4.3333">
        <ele>47.859535</ele>
        <time>2024-07-02T08:01:44.148Z</time>
      </trkpt>
      <trkpt lat="51.59157" lon="4.33336">
        <ele>47.84973</ele>
        <time>2024-07-02T08:01:46.155Z</time>
      </trkpt>
      <trkpt lat="51.59166" lon="4.33343">
        <ele>47.839412</ele>
        <time>2024-07-02T08:01:48.140Z</time>
      </trkpt>
      <trkpt lat="51.59174" lon="4.33349">
        <ele>47.829683</ele>
        <time>2024-07-02T08:01:50.144Z</time>
      </trkpt>
      <trkpt lat="51.59182" lon="4.33355">
        <ele>47.819915</ele>
        <time>2024-07-02T08:01:52.160Z</time>
      </trkpt>
      <trkpt lat="51.5919" lon="4.33362">
        <ele>47.810252</ele>
        <time>2024-07-02T08:01:54.161Z</time>
      </trkpt>
      <trkpt lat="51.59198" lon="4.33369">
        <ele>47.800374</ele>
        <time>2024-07-02T08:01:56.144Z</time>
      </trkpt>
      <trkpt lat="51.5921" lon="4.33379">
        <ele>47.78598</ele>
        <time>2024-07-02T08:01:59.139Z</time>
      </trkpt>
      <trkpt lat="51.59222" lon="4.3339">
        <ele>47.771674</ele>
        <time>2024-07-02T08:02:02.157Z</time>
      </trkpt>
      <trkpt lat="51.5923" lon="4.33398">
        <ele>47.761358</ele>
        <time>2024-07-02T08:02:04.164Z</time>
      </trkpt>
      <trkpt lat="51.59239" lon="4.33406">
        <ele>47.75087</ele>
        <time>2024-07-02T08:02:06.153Z</time>
      </trkpt>
      <trkpt lat="51.59247" lon="4.33414">
        <ele>47.740793</ele>
        <time>2024-07-02T08:02:08.162Z</time>
      </trkpt>
      <trkpt lat="51.59255" lon="4.33421">
        <ele>47.730659</ele>
        <time>2024-07-02T08:02:10.163Z</time>
      </trkpt>
      <trkpt lat="51.59263" lon="4.3343">
        <ele>47.720817</ele>
        <time>2024-07-02T08:02:12.142Z</time>
      </trkpt>
      <trkpt lat="51.5927" lon="4.33438">
        <ele>47.710997</ele>
        <time>2024-07-02T08:02:14.159Z</time>
      </trkpt>
      <trkpt lat="51.59279" lon="4.33445">
        <ele>47.700428</ele>
        <time>2024-07-02T08:02:16.163Z</time>
      </trkpt>
      <trkpt lat="51.59291" lon="4.33456">
        <ele>47.68377</ele>
        <time>2024-07-02T08:02:19.152Z</time>
      </trkpt>
      <trkpt lat="51.59299" lon="4.33463">
        <ele>47.625295</ele>
        <time>2024-07-02T08:02:21.149Z</time>
      </trkpt>
      <trkpt lat="51.59307" lon="4.3347">
        <ele>47.566773</ele>
        <time>2024-07-02T08:02:23.139Z</time>
      </trkpt>
      <trkpt lat="51.59316" lon="4.33478">
        <ele>47.503294</ele>
        <time>2024-07-02T08:02:25.149Z</time>
      </trkpt>
      <trkpt lat="51.59324" lon="4.33485">
        <ele>47.442963</ele>
        <time>2024-07-02T08:02:27.142Z</time>
      </trkpt>
      <trkpt lat="51.59332" lon="4.33494">
        <ele>47.383099</ele>
        <time>2024-07-02T08:02:29.138Z</time>
      </trkpt>
      <trkpt lat="51.5934" lon="4.33503">
        <ele>47.322866</ele>
        <time>2024-07-02T08:02:31.138Z</time>
      </trkpt>
      <trkpt lat="51.59349" lon="4.3351">
        <ele>47.262329</ele>
        <time>2024-07-02T08:02:33.131Z</time>
      </trkpt>
      <trkpt lat="51.59357" lon="4.33517">
        <ele>47.201449</ele>
        <time>2024-07-02T08:02:35.133Z</time>
      </trkpt>
      <trkpt lat="51.59365" lon="4.33525">
        <ele>47.141985</ele>
        <time>2024-07-02T08:02:37.140Z</time>
      </trkpt>
      <trkpt lat="51.59373" lon="4.33533">
        <ele>47.082115</ele>
        <time>2024-07-02T08:02:39.149Z</time>
      </trkpt>
      <trkpt lat="51.59382" lon="4.3354">
        <ele>47.022343</ele>
        <time>2024-07-02T08:02:41.157Z</time>
      </trkpt>
      <trkpt lat="51.5939" lon="4.33547">
        <ele>46.964215</ele>
        <time>2024-07-02T08:02:43.147Z</time>
      </trkpt>
      <trkpt lat="51.59398" lon="4.33556">
        <ele>46.902981</ele>
        <time>2024-07-02T08:02:45.132Z</time>
      </trkpt>
      <trkpt lat="51.59407" lon="4.33564">
        <ele>46.839732</ele>
        <time>2024-07-02T08:02:47.149Z</time>
      </trkpt>
      <trkpt lat="51.59415" lon="4.33572">
        <ele>46.780146</ele>
        <time>2024-07-02T08:02:49.142Z</time>
      </trkpt>
      <trkpt lat="51.59423" lon="4.33579">
        <ele>46.721822</ele>
        <time>2024-07-02T08:02:51.145Z</time>
      </trkpt>
      <trkpt lat="51.59431" lon="4.33588">
        <ele>46.65919</ele>
        <time>2024-07-02T08:02:53.144Z</time>
      </trkpt>
      <trkpt lat="51.5944" lon="4.33595">
        <ele>46.599225</ele>
        <time>2024-07-02T08:02:55.129Z</time>
      </trkpt>
      <trkpt lat="51.59448" lon="4.33602">
        <ele>46.58652</ele>
        <time>2024-07-02T08:02:57.148Z</time>
      </trkpt>
      <trkpt lat="51.59456" lon="4.33609">
        <ele>46.714313</ele>
        <time>2024-07-02T08:02:59.143Z</time>
      </trkpt>
      <trkpt lat="51.59464" lon="4.33617">
        <ele>46.85008</ele>
        <time>2024-07-02T08:03:01.135Z</time>
      </trkpt>
      <trkpt lat="51.59473" lon="4.33625">
        <ele>46.982444</ele>
        <time>2024-07-02T08:03:03.140Z</time>
      </trkpt>
      <trkpt lat="51.5948" lon="4.33633">
        <ele>47.1122</ele>
        <time>2024-07-02T08:03:05.142Z</time>
      </trkpt>
      <trkpt lat="51.59489" lon="4.33641">
        <ele>47.246929</ele>
        <time>2024-07-02T08:03:07.141Z</time>
      </trkpt>
      <trkpt lat="51.59497" lon="4.33649">
        <ele>47.381485</ele>
        <time>2024-07-02T08:03:09.140Z</time>
      </trkpt>
      <trkpt lat="51.59508" lon="4.33659">
        <ele>47.563899</ele>
        <time>2024-07-02T08:03:12.147Z</time>
      </trkpt>
      <trkpt lat="51.59516" lon="4.33667">
        <ele>47.691757</ele>
        <time>2024-07-02T08:03:14.144Z</time>
      </trkpt>
      <trkpt lat="51.59524" lon="4.33675">
        <ele>47.826724</ele>
        <time>2024-07-02T08:03:16.149Z</time>
      </trkpt>
      <trkpt lat="51.59532" lon="4.33683">
        <ele>47.960074</ele>
        <time>2024-07-02T08:03:18.146Z</time>
      </trkpt>
      <trkpt lat="51.5954" lon="4.33692">
        <ele>48.096011</ele>
        <time>2024-07-02T08:03:20.147Z</time>
      </trkpt>
      <trkpt lat="51.59548" lon="4.337">
        <ele>48.226806</ele>
        <time>2024-07-02T08:03:22.146Z</time>
      </trkpt>
      <trkpt lat="51.59556" lon="4.33708">
        <ele>48.360919</ele>
        <time>2024-07-02T08:03:24.147Z</time>
      </trkpt>
      <trkpt lat="51.59566" lon="4.3372">
        <ele>48.541392</ele>
        <time>2024-07-02T08:03:27.162Z</time>
      </trkpt>
      <trkpt lat="51.59576" lon="4.33732">
        <ele>48.717109</ele>
        <time>2024-07-02T08:03:30.149Z</time>
      </trkpt>
      <trkpt lat="51.59586" lon="4.33743">
        <ele>48.884472</ele>
        <time>2024-07-02T08:03:33.156Z</time>
      </trkpt>
      <trkpt lat="51.59596" lon="4.33755">
        <ele>49.057656</ele>
        <time>2024-07-02T08:03:36.159Z</time>
      </trkpt>
      <trkpt lat="51.59605" lon="4.33766">
        <ele>49.244506</ele>
        <time>2024-07-02T08:03:39.159Z</time>
      </trkpt>
      <trkpt lat="51.59614" lon="4.33777">
        <ele>49.435218</ele>
        <time>2024-07-02T08:03:42.141Z</time>
      </trkpt>
      <trkpt lat="51.59623" lon="4.3379">
        <ele>49.626621</ele>
        <time>2024-07-02T08:03:45.149Z</time>
      </trkpt>
      <trkpt lat="51.59632" lon="4.33801">
        <ele>49.819252</ele>
        <time>2024-07-02T08:03:48.142Z</time>
      </trkpt>
      <trkpt lat="51.59641" lon="4.33813">
        <ele>50.000376</ele>
        <time>2024-07-02T08:03:51.151Z</time>
      </trkpt>
      <trkpt lat="51.59649" lon="4.33824">
        <ele>50.186636</ele>
        <time>2024-07-02T08:03:54.159Z</time>
      </trkpt>
      <trkpt lat="51.59658" lon="4.33836">
        <ele>50.369031</ele>
        <time>2024-07-02T08:03:57.169Z</time>
      </trkpt>
      <trkpt lat="51.59667" lon="4.33847">
        <ele>50.55014</ele>
        <time>2024-07-02T08:04:00.153Z</time>
      </trkpt>
      <trkpt lat="51.59677" lon="4.33858">
        <ele>50.755183</ele>
        <time>2024-07-02T08:04:03.148Z</time>
      </trkpt>
      <trkpt lat="51.59686" lon="4.3387">
        <ele>50.947939</ele>
        <time>2024-07-02T08:04:06.159Z</time>
      </trkpt>
      <trkpt lat="51.59696" lon="4.33881">
        <ele>51.144548</ele>
        <time>2024-07-02T08:04:09.158Z</time>
      </trkpt>
      <trkpt lat="51.59705" lon="4.33891">
        <ele>51.327451</ele>
        <time>2024-07-02T08:04:12.153Z</time>
      </trkpt>
      <trkpt lat="51.59715" lon="4.33901">
        <ele>51.512346</ele>
        <time>2024-07-02T08:04:15.130Z</time>
      </trkpt>
      <trkpt lat="51.59723" lon="4.33911">
        <ele>51.688157</ele>
        <time>2024-07-02T08:04:18.158Z</time>
      </trkpt>
      <trkpt lat="51.59733" lon="4.3392">
        <ele>51.868905</ele>
        <time>2024-07-02T08:04:21.143Z</time>
      </trkpt>
      <trkpt lat="51.59742" lon="4.33929">
        <ele>52.045236</ele>
        <time>2024-07-02T08:04:24.171Z</time>
      </trkpt>
      <trkpt lat="51.59752" lon="4.33937">
        <ele>52.111892</ele>
        <time>2024-07-02T08:04:27.162Z</time>
      </trkpt>
      <trkpt lat="51.59761" lon="4.33943">
        <ele>52.173094</ele>
        <time>2024-07-02T08:04:30.150Z</time>
      </trkpt>
      <trkpt lat="51.5977" lon="4.33949">
        <ele>52.232643</ele>
        <time>2024-07-02T08:04:33.140Z</time>
      </trkpt>
      <trkpt lat="51.59778" lon="4.33957">
        <ele>52.293962</ele>
        <time>2024-07-02T08:04:36.148Z</time>
      </trkpt>
      <trkpt lat="51.59786" lon="4.33965">
        <ele>52.351596</ele>
        <time>2024-07-02T08:04:39.161Z</time>
      </trkpt>
      <trkpt lat="51.59794" lon="4.33973">
        <ele>52.410369</ele>
        <time>2024-07-02T08:04:42.145Z</time>
      </trkpt>
      <trkpt lat="51.59802" lon="4.33981">
        <ele>52.469234</ele>
        <time>2024-07-02T08:04:45.139Z</time>
      </trkpt>
      <trkpt lat="51.5981" lon="4.33989">
        <ele>52.531828</ele>
        <time>2024-07-02T08:04:48.141Z</time>
      </trkpt>
      <trkpt lat="51.59819" lon="4.33998">
        <ele>52.595643</ele>
        <time>2024-07-02T08:04:51.146Z</time>
      </trkpt>
      <trkpt lat="51.59829" lon="4.34008">
        <ele>52.667484</ele>
        <time>2024-07-02T08:04:54.150Z</time>
      </trkpt>
      <trkpt lat="51.59839" lon="4.34018">
        <ele>52.744462</ele>
        <time>2024-07-02T08:04:57.134Z</time>
      </trkpt>
      <trkpt lat="51.59846" lon="4.34027">
        <ele>52.801573</ele>
        <time>2024-07-02T08:04:59.159Z</time>
      </trkpt>
      <trkpt lat="51.59855" lon="4.34036">
        <ele>52.865304</ele>
        <time>2024-07-02T08:05:01.145Z</time>
      </trkpt>
      <trkpt lat="51.59864" lon="4.34043">
        <ele>52.926189</ele>
        <time>2024-07-02T08:05:03.128Z</time>
      </trkpt>
      <trkpt lat="51.59873" lon="4.34051">
        <ele>52.991124</ele>
        <time>2024-07-02T08:05:05.138Z</time>
      </trkpt>
      <trkpt lat="51.59882" lon="4.34058">
        <ele>53.058118</ele>
        <time>2024-07-02T08:05:07.136Z</time>
      </trkpt>
      <trkpt lat="51.59892" lon="4.34066">
        <ele>53.125506</ele>
        <time>2024-07-02T08:05:09.147Z</time>
      </trkpt>
      <trkpt lat="51.59902" lon="4.34074">
        <ele>53.088575</ele>
        <time>2024-07-02T08:05:11.138Z</time>
      </trkpt>
      <trkpt lat="51.59912" lon="4.34082">
        <ele>52.887836</ele>
        <time>2024-07-02T08:05:13.151Z</time>
      </trkpt>
      <trkpt lat="51.59922" lon="4.3409">
        <ele>52.678455</ele>
        <time>2024-07-02T08:05:15.122Z</time>
      </trkpt>
      <trkpt lat="51.59932" lon="4.34097">
        <ele>52.466588</ele>
        <time>2024-07-02T08:05:17.150Z</time>
      </trkpt>
      <trkpt lat="51.59944" lon="4.34104">
        <ele>52.238883</ele>
        <time>2024-07-02T08:05:19.141Z</time>
      </trkpt>
      <trkpt lat="51.59954" lon="4.34112">
        <ele>52.028586</ele>
        <time>2024-07-02T08:05:21.151Z</time>
      </trkpt>
      <trkpt lat="51.59965" lon="4.34118">
        <ele>51.811006</ele>
        <time>2024-07-02T08:05:23.142Z</time>
      </trkpt>
      <trkpt lat="51.59977" lon="4.34125">
        <ele>51.590112</ele>
        <time>2024-07-02T08:05:25.128Z</time>
      </trkpt>
      <trkpt lat="51.59988" lon="4.34131">
        <ele>51.360329</ele>
        <time>2024-07-02T08:05:27.160Z</time>
      </trkpt>
      <trkpt lat="51.6" lon="4.34138">
        <ele>51.131314</ele>
        <time>2024-07-02T08:05:29.143Z</time>
      </trkpt>
      <trkpt lat="51.60011" lon="4.34145">
        <ele>50.912146</ele>
        <time>2024-07-02T08:05:31.147Z</time>
      </trkpt>
      <trkpt lat="51.60022" lon="4.34153">
        <ele>50.684344</ele>
        <time>2024-07-02T08:05:33.146Z</time>
      </trkpt>
      <trkpt lat="51.60034" lon="4.34162">
        <ele>50.455845</ele>
        <time>2024-07-02T08:05:35.138Z</time>
      </trkpt>
      <trkpt lat="51.60045" lon="4.3417">
        <ele>50.229015</ele>
        <time>2024-07-02T08:05:37.155Z</time>
      </trkpt>
      <trkpt lat="51.60055" lon="4.34178">
        <ele>50.017495</ele>
        <time>2024-07-02T08:05:39.142Z</time>
      </trkpt>
      <trkpt lat="51.60065" lon="4.34187">
        <ele>49.860316</ele>
        <time>2024-07-02T08:05:41.146Z</time>
      </trkpt>
      <trkpt lat="51.60075" lon="4.34196">
        <ele>49.925464</ele>
        <time>2024-07-02T08:05:43.154Z</time>
      </trkpt>
      <trkpt lat="51.60083" lon="4.34206">
        <ele>49.985325</ele>
        <time>2024-07-02T08:05:45.133Z</time>
      </trkpt>
      <trkpt lat="51.60091" lon="4.34214">
        <ele>50.042673</ele>
        <time>2024-07-02T08:05:48.158Z</time>
      </trkpt>
      <trkpt lat="51.60096" lon="4.34212">
        <ele>50.072403</ele>
        <time>2024-07-02T08:06:02.237Z</time>
      </trkpt>
      <trkpt lat="51.60102" lon="4.34224">
        <ele>50.126265</ele>
        <time>2024-07-02T08:16:33.150Z</time>
      </trkpt>
      <trkpt lat="51.60111" lon="4.34231">
        <ele>50.182135</ele>
        <time>2024-07-02T08:16:37.139Z</time>
      </trkpt>
      <trkpt lat="51.60122" lon="4.34239">
        <ele>50.250829</ele>
        <time>2024-07-02T08:16:41.156Z</time>
      </trkpt>
      <trkpt lat="51.6013" lon="4.34247">
        <ele>50.307098</ele>
        <time>2024-07-02T08:16:44.157Z</time>
      </trkpt>
      <trkpt lat="51.60139" lon="4.34255">
        <ele>50.367989</ele>
        <time>2024-07-02T08:16:47.144Z</time>
      </trkpt>
      <trkpt lat="51.60149" lon="4.34263">
        <ele>50.429855</ele>
        <time>2024-07-02T08:16:50.166Z</time>
      </trkpt>
      <trkpt lat="51.60158" lon="4.34272">
        <ele>50.489706</ele>
        <time>2024-07-02T08:16:53.154Z</time>
      </trkpt>
      <trkpt lat="51.60167" lon="4.34281">
        <ele>50.554814</ele>
        <time>2024-07-02T08:16:56.171Z</time>
      </trkpt>
      <trkpt lat="51.60176" lon="4.34291">
        <ele>50.615821</ele>
        <time>2024-07-02T08:16:59.145Z</time>
      </trkpt>
      <trkpt lat="51.60185" lon="4.34301">
        <ele>50.680544</ele>
        <time>2024-07-02T08:17:02.148Z</time>
      </trkpt>
      <trkpt lat="51.60195" lon="4.34311">
        <ele>50.746041</ele>
        <time>2024-07-02T08:17:05.128Z</time>
      </trkpt>
      <trkpt lat="51.60205" lon="4.34323">
        <ele>50.817374</ele>
        <time>2024-07-02T08:17:08.152Z</time>
      </trkpt>
      <trkpt lat="51.60214" lon="4.34334">
        <ele>50.886873</ele>
        <time>2024-07-02T08:17:11.144Z</time>
      </trkpt>
      <trkpt lat="51.60224" lon="4.34345">
        <ele>50.957587</ele>
        <time>2024-07-02T08:17:14.153Z</time>
      </trkpt>
      <trkpt lat="51.60234" lon="4.34357">
        <ele>51.030393</ele>
        <time>2024-07-02T08:17:17.154Z</time>
      </trkpt>
      <trkpt lat="51.60243" lon="4.34367">
        <ele>51.096032</ele>
        <time>2024-07-02T08:17:20.134Z</time>
      </trkpt>
      <trkpt lat="51.60252" lon="4.34379">
        <ele>51.1633</ele>
        <time>2024-07-02T08:17:23.148Z</time>
      </trkpt>
      <trkpt lat="51.6026" lon="4.34389">
        <ele>51.224821</ele>
        <time>2024-07-02T08:17:26.155Z</time>
      </trkpt>
      <trkpt lat="51.60268" lon="4.34399">
        <ele>51.285398</ele>
        <time>2024-07-02T08:17:29.153Z</time>
      </trkpt>
      <trkpt lat="51.60278" lon="4.3441">
        <ele>51.35465</ele>
        <time>2024-07-02T08:17:32.153Z</time>
      </trkpt>
      <trkpt lat="51.60289" lon="4.34422">
        <ele>51.43142</ele>
        <time>2024-07-02T08:17:35.142Z</time>
      </trkpt>
      <trkpt lat="51.603" lon="4.34432">
        <ele>51.507691</ele>
        <time>2024-07-02T08:17:38.155Z</time>
      </trkpt>
      <trkpt lat="51.60311" lon="4.34444">
        <ele>51.583562</ele>
        <time>2024-07-02T08:17:41.148Z</time>
      </trkpt>
      <trkpt lat="51.60322" lon="4.34452">
        <ele>51.656359</ele>
        <time>2024-07-02T08:17:44.149Z</time>
      </trkpt>
      <trkpt lat="51.60331" lon="4.34463">
        <ele>51.726664</ele>
        <time>2024-07-02T08:17:47.168Z</time>
      </trkpt>
      <trkpt lat="51.60342" lon="4.34475">
        <ele>51.803232</ele>
        <time>2024-07-02T08:17:50.166Z</time>
      </trkpt>
      <trkpt lat="51.60353" lon="4.34486">
        <ele>51.879228</ele>
        <time>2024-07-02T08:17:53.159Z</time>
      </trkpt>
      <trkpt lat="51.60364" lon="4.34497">
        <ele>51.948694</ele>
        <time>2024-07-02T08:17:56.162Z</time>
      </trkpt>
      <trkpt lat="51.60375" lon="4.34508">
        <ele>51.936042</ele>
        <time>2024-07-02T08:17:59.160Z</time>
      </trkpt>
      <trkpt lat="51.60386" lon="4.34517">
        <ele>51.923459</ele>
        <time>2024-07-02T08:18:02.173Z</time>
      </trkpt>
      <trkpt lat="51.60397" lon="4.34527">
        <ele>51.910818</ele>
        <time>2024-07-02T08:18:05.142Z</time>
      </trkpt>
      <trkpt lat="51.60408" lon="4.34537">
        <ele>51.898235</ele>
        <time>2024-07-02T08:18:08.159Z</time>
      </trkpt>
      <trkpt lat="51.6042" lon="4.34546">
        <ele>51.885148</ele>
        <time>2024-07-02T08:18:11.151Z</time>
      </trkpt>
      <trkpt lat="51.60432" lon="4.34556">
        <ele>51.872012</ele>
        <time>2024-07-02T08:18:14.160Z</time>
      </trkpt>
      <trkpt lat="51.60444" lon="4.34565">
        <ele>51.858915</ele>
        <time>2024-07-02T08:18:17.161Z</time>
      </trkpt>
      <trkpt lat="51.60456" lon="4.34574">
        <ele>51.845818</ele>
        <time>2024-07-02T08:18:20.163Z</time>
      </trkpt>
      <trkpt lat="51.60468" lon="4.34582">
        <ele>51.833152</ele>
        <time>2024-07-02T08:18:23.147Z</time>
      </trkpt>
      <trkpt lat="51.6048" lon="4.34591">
        <ele>51.819833</ele>
        <time>2024-07-02T08:18:26.150Z</time>
      </trkpt>
      <trkpt lat="51.60492" lon="4.34601">
        <ele>51.806657</ele>
        <time>2024-07-02T08:18:29.159Z</time>
      </trkpt>
      <trkpt lat="51.605" lon="4.34606">
        <ele>51.797778</ele>
        <time>2024-07-02T08:18:31.152Z</time>
      </trkpt>
      <trkpt lat="51.60509" lon="4.34612">
        <ele>51.788644</ele>
        <time>2024-07-02T08:18:33.160Z</time>
      </trkpt>
      <trkpt lat="51.60517" lon="4.34617">
        <ele>51.779659</ele>
        <time>2024-07-02T08:18:35.154Z</time>
      </trkpt>
      <trkpt lat="51.60525" lon="4.34625">
        <ele>51.76843</ele>
        <time>2024-07-02T08:18:38.140Z</time>
      </trkpt>
      <trkpt lat="51.60517" lon="4.34632">
        <ele>51.736192</ele>
        <time>2024-07-02T08:18:49.134Z</time>
      </trkpt>
      <trkpt lat="51.60528" lon="4.34633">
        <ele>51.698971</ele>
        <time>2024-07-02T08:18:57.145Z</time>
      </trkpt>
      <trkpt lat="51.60538" lon="4.34636">
        <ele>51.661218</ele>
        <time>2024-07-02T08:19:01.146Z</time>
      </trkpt>
      <trkpt lat="51.60547" lon="4.34644">
        <ele>51.625203</ele>
        <time>2024-07-02T08:19:04.165Z</time>
      </trkpt>
      <trkpt lat="51.60556" lon="4.34652">
        <ele>51.590392</ele>
        <time>2024-07-02T08:19:07.149Z</time>
      </trkpt>
      <trkpt lat="51.60564" lon="4.3466">
        <ele>51.555611</ele>
        <time>2024-07-02T08:19:10.157Z</time>
      </trkpt>
      <trkpt lat="51.60574" lon="4.3467">
        <ele>51.512291</ele>
        <time>2024-07-02T08:19:13.175Z</time>
      </trkpt>
      <trkpt lat="51.60585" lon="4.34681">
        <ele>51.467004</ele>
        <time>2024-07-02T08:19:16.175Z</time>
      </trkpt>
      <trkpt lat="51.60596" lon="4.34691">
        <ele>51.42287</ele>
        <time>2024-07-02T08:19:19.143Z</time>
      </trkpt>
      <trkpt lat="51.60606" lon="4.34702">
        <ele>51.378894</ele>
        <time>2024-07-02T08:19:22.166Z</time>
      </trkpt>
      <trkpt lat="51.60618" lon="4.34713">
        <ele>51.331379</ele>
        <time>2024-07-02T08:19:25.124Z</time>
      </trkpt>
      <trkpt lat="51.60629" lon="4.34724">
        <ele>51.28375</ele>
        <time>2024-07-02T08:19:28.174Z</time>
      </trkpt>
      <trkpt lat="51.60637" lon="4.34732">
        <ele>51.25091</ele>
        <time>2024-07-02T08:19:30.165Z</time>
      </trkpt>
      <trkpt lat="51.60645" lon="4.34739">
        <ele>51.218715</ele>
        <time>2024-07-02T08:19:32.158Z</time>
      </trkpt>
      <trkpt lat="51.60657" lon="4.3475">
        <ele>51.171756</ele>
        <time>2024-07-02T08:19:35.133Z</time>
      </trkpt>
      <trkpt lat="51.60668" lon="4.3476">
        <ele>51.130445</ele>
        <time>2024-07-02T08:19:38.152Z</time>
      </trkpt>
      <trkpt lat="51.60679" lon="4.34772">
        <ele>51.108745</ele>
        <time>2024-07-02T08:19:41.152Z</time>
      </trkpt>
      <trkpt lat="51.6069" lon="4.34782">
        <ele>51.087535</ele>
        <time>2024-07-02T08:19:44.152Z</time>
      </trkpt>
      <trkpt lat="51.60698" lon="4.3479">
        <ele>51.072547</ele>
        <time>2024-07-02T08:19:46.159Z</time>
      </trkpt>
      <trkpt lat="51.60706" lon="4.34797">
        <ele>51.057124</ele>
        <time>2024-07-02T08:19:48.146Z</time>
      </trkpt>
      <trkpt lat="51.60715" lon="4.34804">
        <ele>51.041801</ele>
        <time>2024-07-02T08:19:50.161Z</time>
      </trkpt>
      <trkpt lat="51.60723" lon="4.34812">
        <ele>51.025999</ele>
        <time>2024-07-02T08:19:52.153Z</time>
      </trkpt>
      <trkpt lat="51.60735" lon="4.34821">
        <ele>51.003657</ele>
        <time>2024-07-02T08:19:55.133Z</time>
      </trkpt>
      <trkpt lat="51.60744" lon="4.34829">
        <ele>50.987902</ele>
        <time>2024-07-02T08:19:57.154Z</time>
      </trkpt>
      <trkpt lat="51.60752" lon="4.34836">
        <ele>50.972434</ele>
        <time>2024-07-02T08:19:59.159Z</time>
      </trkpt>
      <trkpt lat="51.60761" lon="4.34843">
        <ele>50.955911</ele>
        <time>2024-07-02T08:20:01.147Z</time>
      </trkpt>
      <trkpt lat="51.60769" lon="4.34851">
        <ele>50.940489</ele>
        <time>2024-07-02T08:20:03.138Z</time>
      </trkpt>
      <trkpt lat="51.60777" lon="4.34859">
        <ele>50.92487</ele>
        <time>2024-07-02T08:20:05.143Z</time>
      </trkpt>
      <trkpt lat="51.60786" lon="4.34868">
        <ele>50.907908</ele>
        <time>2024-07-02T08:20:07.150Z</time>
      </trkpt>
      <trkpt lat="51.60795" lon="4.34877">
        <ele>50.890721</ele>
        <time>2024-07-02T08:20:09.151Z</time>
      </trkpt>
      <trkpt lat="51.60805" lon="4.34885">
        <ele>50.872898</ele>
        <time>2024-07-02T08:20:11.150Z</time>
      </trkpt>
      <trkpt lat="51.60814" lon="4.34894">
        <ele>50.855459</ele>
        <time>2024-07-02T08:20:13.161Z</time>
      </trkpt>
      <trkpt lat="51.60823" lon="4.34901">
        <ele>50.834684</ele>
        <time>2024-07-02T08:20:15.152Z</time>
      </trkpt>
      <trkpt lat="51.60833" lon="4.34911">
        <ele>50.779101</ele>
        <time>2024-07-02T08:20:17.153Z</time>
      </trkpt>
      <trkpt lat="51.60843" lon="4.3492">
        <ele>50.723417</ele>
        <time>2024-07-02T08:20:19.149Z</time>
      </trkpt>
      <trkpt lat="51.60852" lon="4.34929">
        <ele>50.668048</ele>
        <time>2024-07-02T08:20:21.156Z</time>
      </trkpt>
      <trkpt lat="51.60862" lon="4.34938">
        <ele>50.610523</ele>
        <time>2024-07-02T08:20:23.158Z</time>
      </trkpt>
      <trkpt lat="51.60871" lon="4.34947">
        <ele>50.558693</ele>
        <time>2024-07-02T08:20:25.144Z</time>
      </trkpt>
      <trkpt lat="51.6088" lon="4.34955">
        <ele>50.505774</ele>
        <time>2024-07-02T08:20:27.155Z</time>
      </trkpt>
      <trkpt lat="51.6089" lon="4.34965">
        <ele>50.452109</ele>
        <time>2024-07-02T08:20:29.167Z</time>
      </trkpt>
      <trkpt lat="51.60899" lon="4.34973">
        <ele>50.399236</ele>
        <time>2024-07-02T08:20:31.169Z</time>
      </trkpt>
      <trkpt lat="51.60908" lon="4.34981">
        <ele>50.348271</ele>
        <time>2024-07-02T08:20:33.150Z</time>
      </trkpt>
      <trkpt lat="51.60916" lon="4.3499">
        <ele>50.299286</ele>
        <time>2024-07-02T08:20:35.134Z</time>
      </trkpt>
      <trkpt lat="51.60925" lon="4.34998">
        <ele>50.250195</ele>
        <time>2024-07-02T08:20:37.166Z</time>
      </trkpt>
      <trkpt lat="51.60933" lon="4.35005">
        <ele>50.202305</ele>
        <time>2024-07-02T08:20:39.151Z</time>
      </trkpt>
      <trkpt lat="51.60941" lon="4.35013">
        <ele>50.154811</ele>
        <time>2024-07-02T08:20:41.167Z</time>
      </trkpt>
      <trkpt lat="51.60949" lon="4.35021">
        <ele>50.108801</ele>
        <time>2024-07-02T08:20:43.149Z</time>
      </trkpt>
      <trkpt lat="51.60958" lon="4.35029">
        <ele>50.060562</ele>
        <time>2024-07-02T08:20:45.154Z</time>
      </trkpt>
      <trkpt lat="51.60966" lon="4.35036">
        <ele>50.013704</ele>
        <time>2024-07-02T08:20:47.171Z</time>
      </trkpt>
      <trkpt lat="51.60974" lon="4.35044">
        <ele>49.96589</ele>
        <time>2024-07-02T08:20:49.158Z</time>
      </trkpt>
      <trkpt lat="51.60983" lon="4.35053">
        <ele>49.904905</ele>
        <time>2024-07-02T08:20:51.153Z</time>
      </trkpt>
      <trkpt lat="51.60991" lon="4.35061">
        <ele>49.844735</ele>
        <time>2024-07-02T08:20:53.159Z</time>
      </trkpt>
      <trkpt lat="51.60999" lon="4.35069">
        <ele>49.781933</ele>
        <time>2024-07-02T08:20:55.145Z</time>
      </trkpt>
      <trkpt lat="51.61008" lon="4.35076">
        <ele>49.719741</ele>
        <time>2024-07-02T08:20:57.162Z</time>
      </trkpt>
      <trkpt lat="51.61016" lon="4.35083">
        <ele>49.658862</ele>
        <time>2024-07-02T08:20:59.150Z</time>
      </trkpt>
      <trkpt lat="51.61025" lon="4.3509">
        <ele>49.596481</ele>
        <time>2024-07-02T08:21:01.158Z</time>
      </trkpt>
      <trkpt lat="51.61033" lon="4.35098">
        <ele>49.533404</ele>
        <time>2024-07-02T08:21:03.151Z</time>
      </trkpt>
      <trkpt lat="51.61041" lon="4.35106">
        <ele>49.473842</ele>
        <time>2024-07-02T08:21:05.141Z</time>
      </trkpt>
      <trkpt lat="51.6105" lon="4.35113">
        <ele>49.407979</ele>
        <time>2024-07-02T08:21:08.162Z</time>
      </trkpt>
      <trkpt lat="51.61059" lon="4.35121">
        <ele>49.341379</ele>
        <time>2024-07-02T08:21:12.151Z</time>
      </trkpt>
      <trkpt lat="51.61069" lon="4.3513">
        <ele>49.270652</ele>
        <time>2024-07-02T08:21:16.173Z</time>
      </trkpt>
      <trkpt lat="51.61078" lon="4.35136">
        <ele>49.203262</ele>
        <time>2024-07-02T08:21:20.154Z</time>
      </trkpt>
      <trkpt lat="51.61092" lon="4.35147">
        <ele>49.106647</ele>
        <time>2024-07-02T08:24:22.161Z</time>
      </trkpt>
      <trkpt lat="51.611" lon="4.35154">
        <ele>49.047919</ele>
        <time>2024-07-02T08:24:26.168Z</time>
      </trkpt>
      <trkpt lat="51.6111" lon="4.35163">
        <ele>48.969379</ele>
        <time>2024-07-02T08:24:30.153Z</time>
      </trkpt>
      <trkpt lat="51.61122" lon="4.35172">
        <ele>48.88484</ele>
        <time>2024-07-02T08:24:33.147Z</time>
      </trkpt>
      <trkpt lat="51.61131" lon="4.35178">
        <ele>48.821749</ele>
        <time>2024-07-02T08:24:35.171Z</time>
      </trkpt>
      <trkpt lat="51.61143" lon="4.35186">
        <ele>48.785466</ele>
        <time>2024-07-02T08:24:38.165Z</time>
      </trkpt>
      <trkpt lat="51.61155" lon="4.35194">
        <ele>48.786378</ele>
        <time>2024-07-02T08:24:41.148Z</time>
      </trkpt>
      <trkpt lat="51.61167" lon="4.35202">
        <ele>48.787309</ele>
        <time>2024-07-02T08:24:44.150Z</time>
      </trkpt>
      <trkpt lat="51.61179" lon="4.3521">
        <ele>48.788187</ele>
        <time>2024-07-02T08:24:47.165Z</time>
      </trkpt>
      <trkpt lat="51.61187" lon="4.35216">
        <ele>48.788841</ele>
        <time>2024-07-02T08:24:49.160Z</time>
      </trkpt>
      <trkpt lat="51.612" lon="4.35224">
        <ele>48.789777</ele>
        <time>2024-07-02T08:24:52.163Z</time>
      </trkpt>
      <trkpt lat="51.61212" lon="4.35233">
        <ele>48.790704</ele>
        <time>2024-07-02T08:24:55.137Z</time>
      </trkpt>
      <trkpt lat="51.61221" lon="4.35239">
        <ele>48.791365</ele>
        <time>2024-07-02T08:24:57.150Z</time>
      </trkpt>
      <trkpt lat="51.61229" lon="4.35244">
        <ele>48.792015</ele>
        <time>2024-07-02T08:24:59.161Z</time>
      </trkpt>
      <trkpt lat="51.61238" lon="4.35249">
        <ele>48.792646</ele>
        <time>2024-07-02T08:25:01.173Z</time>
      </trkpt>
      <trkpt lat="51.6125" lon="4.35257">
        <ele>48.793597</ele>
        <time>2024-07-02T08:25:04.149Z</time>
      </trkpt>
      <trkpt lat="51.61259" lon="4.35264">
        <ele>48.794246</ele>
        <time>2024-07-02T08:25:06.149Z</time>
      </trkpt>
      <trkpt lat="51.61267" lon="4.3527">
        <ele>48.794886</ele>
        <time>2024-07-02T08:25:08.157Z</time>
      </trkpt>
      <trkpt lat="51.61275" lon="4.35276">
        <ele>48.795528</ele>
        <time>2024-07-02T08:25:10.148Z</time>
      </trkpt>
      <trkpt lat="51.61284" lon="4.35282">
        <ele>48.796165</ele>
        <time>2024-07-02T08:25:12.148Z</time>
      </trkpt>
      <trkpt lat="51.61292" lon="4.35288">
        <ele>48.796799</ele>
        <time>2024-07-02T08:25:14.151Z</time>
      </trkpt>
      <trkpt lat="51.613" lon="4.35293">
        <ele>48.797426</ele>
        <time>2024-07-02T08:25:16.162Z</time>
      </trkpt>
      <trkpt lat="51.61309" lon="4.35298">
        <ele>48.830307</ele>
        <time>2024-07-02T08:25:18.150Z</time>
      </trkpt>
      <trkpt lat="51.61322" lon="4.35307">
        <ele>48.889215</ele>
        <time>2024-07-02T08:25:21.155Z</time>
      </trkpt>
      <trkpt lat="51.6133" lon="4.35312">
        <ele>48.929708</ele>
        <time>2024-07-02T08:25:23.149Z</time>
      </trkpt>
      <trkpt lat="51.61342" lon="4.3532">
        <ele>48.986579</ele>
        <time>2024-07-02T08:25:26.151Z</time>
      </trkpt>
      <trkpt lat="51.61354" lon="4.35329">
        <ele>49.043398</ele>
        <time>2024-07-02T08:25:29.158Z</time>
      </trkpt>
      <trkpt lat="51.61366" lon="4.35335">
        <ele>49.098882</ele>
        <time>2024-07-02T08:25:32.147Z</time>
      </trkpt>
      <trkpt lat="51.61378" lon="4.35344">
        <ele>49.155814</ele>
        <time>2024-07-02T08:25:35.136Z</time>
      </trkpt>
      <trkpt lat="51.6139" lon="4.35353">
        <ele>49.213724</ele>
        <time>2024-07-02T08:25:38.148Z</time>
      </trkpt>
      <trkpt lat="51.61402" lon="4.35361">
        <ele>49.270909</ele>
        <time>2024-07-02T08:25:41.151Z</time>
      </trkpt>
      <trkpt lat="51.61413" lon="4.35368">
        <ele>49.32463</ele>
        <time>2024-07-02T08:25:44.153Z</time>
      </trkpt>
      <trkpt lat="51.61425" lon="4.35375">
        <ele>49.378562</ele>
        <time>2024-07-02T08:25:47.154Z</time>
      </trkpt>
      <trkpt lat="51.61436" lon="4.35384">
        <ele>49.433045</ele>
        <time>2024-07-02T08:25:50.169Z</time>
      </trkpt>
      <trkpt lat="51.61448" lon="4.35391">
        <ele>49.489318</ele>
        <time>2024-07-02T08:25:53.146Z</time>
      </trkpt>
      <trkpt lat="51.6146" lon="4.35399">
        <ele>49.547104</ele>
        <time>2024-07-02T08:25:56.174Z</time>
      </trkpt>
      <trkpt lat="51.61472" lon="4.35408">
        <ele>49.562395</ele>
        <time>2024-07-02T08:25:59.149Z</time>
      </trkpt>
      <trkpt lat="51.61483" lon="4.35415">
        <ele>49.490523</ele>
        <time>2024-07-02T08:26:02.167Z</time>
      </trkpt>
      <trkpt lat="51.61494" lon="4.35423">
        <ele>49.415831</ele>
        <time>2024-07-02T08:26:05.139Z</time>
      </trkpt>
      <trkpt lat="51.61506" lon="4.35431">
        <ele>49.34047</ele>
        <time>2024-07-02T08:26:08.150Z</time>
      </trkpt>
      <trkpt lat="51.61517" lon="4.35439">
        <ele>49.265225</ele>
        <time>2024-07-02T08:26:11.146Z</time>
      </trkpt>
      <trkpt lat="51.61528" lon="4.35447">
        <ele>49.192241</ele>
        <time>2024-07-02T08:26:14.156Z</time>
      </trkpt>
      <trkpt lat="51.6154" lon="4.35455">
        <ele>49.115518</ele>
        <time>2024-07-02T08:26:17.158Z</time>
      </trkpt>
      <trkpt lat="51.61551" lon="4.35463">
        <ele>49.038751</ele>
        <time>2024-07-02T08:26:20.151Z</time>
      </trkpt>
      <trkpt lat="51.61563" lon="4.35471">
        <ele>48.963815</ele>
        <time>2024-07-02T08:26:23.153Z</time>
      </trkpt>
      <trkpt lat="51.61574" lon="4.35478">
        <ele>48.889157</ele>
        <time>2024-07-02T08:26:26.149Z</time>
      </trkpt>
      <trkpt lat="51.61586" lon="4.35485">
        <ele>48.813763</ele>
        <time>2024-07-02T08:26:29.153Z</time>
      </trkpt>
      <trkpt lat="51.61598" lon="4.35494">
        <ele>48.735235</ele>
        <time>2024-07-02T08:26:32.164Z</time>
      </trkpt>
      <trkpt lat="51.6161" lon="4.35502">
        <ele>48.655653</ele>
        <time>2024-07-02T08:26:35.137Z</time>
      </trkpt>
      <trkpt lat="51.61622" lon="4.35511">
        <ele>48.577588</ele>
        <time>2024-07-02T08:26:38.161Z</time>
      </trkpt>
      <trkpt lat="51.61634" lon="4.35518">
        <ele>48.499835</ele>
        <time>2024-07-02T08:26:41.132Z</time>
      </trkpt>
      <trkpt lat="51.61645" lon="4.35526">
        <ele>48.514779</ele>
        <time>2024-07-02T08:26:44.150Z</time>
      </trkpt>
      <trkpt lat="51.61657" lon="4.35535">
        <ele>48.531991</ele>
        <time>2024-07-02T08:26:47.145Z</time>
      </trkpt>
      <trkpt lat="51.61669" lon="4.35543">
        <ele>48.548899</ele>
        <time>2024-07-02T08:26:50.152Z</time>
      </trkpt>
      <trkpt lat="51.6168" lon="4.35551">
        <ele>48.565898</ele>
        <time>2024-07-02T08:26:53.152Z</time>
      </trkpt>
      <trkpt lat="51.61689" lon="4.35556">
        <ele>48.577935</ele>
        <time>2024-07-02T08:26:55.150Z</time>
      </trkpt>
      <trkpt lat="51.61701" lon="4.35563">
        <ele>48.594721</ele>
        <time>2024-07-02T08:26:58.152Z</time>
      </trkpt>
      <trkpt lat="51.61713" lon="4.35571">
        <ele>48.612058</ele>
        <time>2024-07-02T08:27:01.151Z</time>
      </trkpt>
      <trkpt lat="51.61722" lon="4.35577">
        <ele>48.624521</ele>
        <time>2024-07-02T08:27:03.164Z</time>
      </trkpt>
      <trkpt lat="51.6173" lon="4.35582">
        <ele>48.636801</ele>
        <time>2024-07-02T08:27:05.144Z</time>
      </trkpt>
      <trkpt lat="51.61742" lon="4.35591">
        <ele>48.65453</ele>
        <time>2024-07-02T08:27:08.170Z</time>
      </trkpt>
      <trkpt lat="51.61754" lon="4.35599">
        <ele>48.67199</ele>
        <time>2024-07-02T08:27:11.165Z</time>
      </trkpt>
      <trkpt lat="51.61766" lon="4.35608">
        <ele>48.689462</ele>
        <time>2024-07-02T08:27:14.176Z</time>
      </trkpt>
      <trkpt lat="51.61778" lon="4.35615">
        <ele>48.706461</ele>
        <time>2024-07-02T08:27:17.148Z</time>
      </trkpt>
      <trkpt lat="51.6179" lon="4.35624">
        <ele>48.723777</ele>
        <time>2024-07-02T08:27:20.143Z</time>
      </trkpt>
      <trkpt lat="51.61802" lon="4.35632">
        <ele>48.751914</ele>
        <time>2024-07-02T08:27:23.150Z</time>
      </trkpt>
      <trkpt lat="51.61814" lon="4.3564">
        <ele>48.820939</ele>
        <time>2024-07-02T08:27:26.156Z</time>
      </trkpt>
      <trkpt lat="51.61826" lon="4.35647">
        <ele>48.89034</ele>
        <time>2024-07-02T08:27:29.155Z</time>
      </trkpt>
      <trkpt lat="51.61838" lon="4.35656">
        <ele>48.958351</ele>
        <time>2024-07-02T08:27:32.165Z</time>
      </trkpt>
      <trkpt lat="51.61849" lon="4.35665">
        <ele>49.025538</ele>
        <time>2024-07-02T08:27:35.142Z</time>
      </trkpt>
      <trkpt lat="51.6186" lon="4.35673">
        <ele>49.092643</ele>
        <time>2024-07-02T08:27:38.152Z</time>
      </trkpt>
      <trkpt lat="51.61869" lon="4.35678">
        <ele>49.141181</ele>
        <time>2024-07-02T08:27:40.162Z</time>
      </trkpt>
      <trkpt lat="51.61877" lon="4.35683">
        <ele>49.190011</ele>
        <time>2024-07-02T08:27:42.158Z</time>
      </trkpt>
      <trkpt lat="51.61889" lon="4.35691">
        <ele>49.259659</ele>
        <time>2024-07-02T08:27:45.139Z</time>
      </trkpt>
      <trkpt lat="51.61902" lon="4.35699">
        <ele>49.329179</ele>
        <time>2024-07-02T08:27:48.150Z</time>
      </trkpt>
      <trkpt lat="51.61914" lon="4.35707">
        <ele>49.400198</ele>
        <time>2024-07-02T08:27:51.169Z</time>
      </trkpt>
      <trkpt lat="51.61926" lon="4.35715">
        <ele>49.469224</ele>
        <time>2024-07-02T08:27:54.156Z</time>
      </trkpt>
      <trkpt lat="51.61938" lon="4.35722">
        <ele>49.537506</ele>
        <time>2024-07-02T08:27:57.146Z</time>
      </trkpt>
      <trkpt lat="51.6195" lon="4.3573">
        <ele>49.607282</ele>
        <time>2024-07-02T08:28:00.141Z</time>
      </trkpt>
      <trkpt lat="51.61962" lon="4.35738">
        <ele>49.678413</ele>
        <time>2024-07-02T08:28:03.136Z</time>
      </trkpt>
      <trkpt lat="51.61975" lon="4.35747">
        <ele>49.67211</ele>
        <time>2024-07-02T08:28:06.149Z</time>
      </trkpt>
      <trkpt lat="51.61987" lon="4.35755">
        <ele>49.634012</ele>
        <time>2024-07-02T08:28:09.154Z</time>
      </trkpt>
      <trkpt lat="51.61995" lon="4.35761">
        <ele>49.607563</ele>
        <time>2024-07-02T08:28:11.172Z</time>
      </trkpt>
      <trkpt lat="51.62007" lon="4.3577">
        <ele>49.569266</ele>
        <time>2024-07-02T08:28:14.151Z</time>
      </trkpt>
      <trkpt lat="51.62019" lon="4.35778">
        <ele>49.529736</ele>
        <time>2024-07-02T08:28:17.162Z</time>
      </trkpt>
      <trkpt lat="51.62028" lon="4.35784">
        <ele>49.502953</ele>
        <time>2024-07-02T08:28:19.164Z</time>
      </trkpt>
      <trkpt lat="51.6204" lon="4.35792">
        <ele>49.463977</ele>
        <time>2024-07-02T08:28:22.166Z</time>
      </trkpt>
      <trkpt lat="51.62049" lon="4.35798">
        <ele>49.437338</ele>
        <time>2024-07-02T08:28:24.158Z</time>
      </trkpt>
      <trkpt lat="51.6206" lon="4.35807">
        <ele>49.399908</ele>
        <time>2024-07-02T08:28:27.143Z</time>
      </trkpt>
      <trkpt lat="51.62071" lon="4.35815">
        <ele>49.364406</ele>
        <time>2024-07-02T08:28:30.164Z</time>
      </trkpt>
      <trkpt lat="51.62083" lon="4.35824">
        <ele>49.326917</ele>
        <time>2024-07-02T08:28:33.173Z</time>
      </trkpt>
      <trkpt lat="51.62095" lon="4.35831">
        <ele>49.288479</ele>
        <time>2024-07-02T08:28:36.157Z</time>
      </trkpt>
      <trkpt lat="51.62107" lon="4.3584">
        <ele>49.251081</ele>
        <time>2024-07-02T08:28:39.165Z</time>
      </trkpt>
      <trkpt lat="51.62118" lon="4.35847">
        <ele>49.214616</ele>
        <time>2024-07-02T08:28:42.132Z</time>
      </trkpt>
      <trkpt lat="51.6213" lon="4.35855">
        <ele>49.178613</ele>
        <time>2024-07-02T08:28:45.126Z</time>
      </trkpt>
      <trkpt lat="51.62138" lon="4.35861">
        <ele>49.135074</ele>
        <time>2024-07-02T08:28:47.161Z</time>
      </trkpt>
      <trkpt lat="51.62146" lon="4.35866">
        <ele>49.089162</ele>
        <time>2024-07-02T08:28:49.152Z</time>
      </trkpt>
      <trkpt lat="51.62155" lon="4.35873">
        <ele>49.042733</ele>
        <time>2024-07-02T08:28:51.156Z</time>
      </trkpt>
      <trkpt lat="51.62167" lon="4.3588">
        <ele>48.976939</ele>
        <time>2024-07-02T08:28:54.152Z</time>
      </trkpt>
      <trkpt lat="51.62179" lon="4.35889">
        <ele>48.90995</ele>
        <time>2024-07-02T08:28:57.147Z</time>
      </trkpt>
      <trkpt lat="51.62187" lon="4.35894">
        <ele>48.863936</ele>
        <time>2024-07-02T08:28:59.151Z</time>
      </trkpt>
      <trkpt lat="51.62196" lon="4.35899">
        <ele>48.818039</ele>
        <time>2024-07-02T08:29:01.150Z</time>
      </trkpt>
      <trkpt lat="51.62208" lon="4.35907">
        <ele>48.751772</ele>
        <time>2024-07-02T08:29:04.158Z</time>
      </trkpt>
      <trkpt lat="51.6222" lon="4.35916">
        <ele>48.68512</ele>
        <time>2024-07-02T08:29:07.151Z</time>
      </trkpt>
      <trkpt lat="51.62232" lon="4.35924">
        <ele>48.616863</ele>
        <time>2024-07-02T08:29:10.166Z</time>
      </trkpt>
      <trkpt lat="51.62245" lon="4.35932">
        <ele>48.547972</ele>
        <time>2024-07-02T08:29:13.157Z</time>
      </trkpt>
      <trkpt lat="51.62253" lon="4.35938">
        <ele>48.501249</ele>
        <time>2024-07-02T08:29:15.133Z</time>
      </trkpt>
      <trkpt lat="51.62265" lon="4.35947">
        <ele>48.434075</ele>
        <time>2024-07-02T08:29:18.159Z</time>
      </trkpt>
      <trkpt lat="51.62277" lon="4.35956">
        <ele>48.36868</ele>
        <time>2024-07-02T08:29:21.168Z</time>
      </trkpt>
      <trkpt lat="51.62289" lon="4.35964">
        <ele>48.301598</ele>
        <time>2024-07-02T08:29:24.156Z</time>
      </trkpt>
      <trkpt lat="51.62301" lon="4.35972">
        <ele>48.218788</ele>
        <time>2024-07-02T08:29:27.161Z</time>
      </trkpt>
      <trkpt lat="51.62313" lon="4.35979">
        <ele>48.111597</ele>
        <time>2024-07-02T08:29:30.158Z</time>
      </trkpt>
      <trkpt lat="51.62324" lon="4.35988">
        <ele>48.004708</ele>
        <time>2024-07-02T08:29:33.146Z</time>
      </trkpt>
      <trkpt lat="51.62337" lon="4.35996">
        <ele>47.893988</ele>
        <time>2024-07-02T08:29:36.151Z</time>
      </trkpt>
      <trkpt lat="51.62349" lon="4.36004">
        <ele>47.777185</ele>
        <time>2024-07-02T08:29:39.163Z</time>
      </trkpt>
      <trkpt lat="51.62362" lon="4.36012">
        <ele>47.66313</ele>
        <time>2024-07-02T08:29:42.157Z</time>
      </trkpt>
      <trkpt lat="51.62374" lon="4.36021">
        <ele>47.548988</ele>
        <time>2024-07-02T08:29:45.144Z</time>
      </trkpt>
      <trkpt lat="51.62383" lon="4.36026">
        <ele>47.470063</ele>
        <time>2024-07-02T08:29:47.154Z</time>
      </trkpt>
      <trkpt lat="51.62395" lon="4.36034">
        <ele>47.36229</ele>
        <time>2024-07-02T08:29:50.158Z</time>
      </trkpt>
      <trkpt lat="51.62406" lon="4.36042">
        <ele>47.254518</ele>
        <time>2024-07-02T08:29:53.139Z</time>
      </trkpt>
      <trkpt lat="51.62418" lon="4.36049">
        <ele>47.149295</ele>
        <time>2024-07-02T08:29:56.155Z</time>
      </trkpt>
      <trkpt lat="51.62429" lon="4.36057">
        <ele>47.047197</ele>
        <time>2024-07-02T08:29:59.148Z</time>
      </trkpt>
      <trkpt lat="51.62441" lon="4.36064">
        <ele>46.942563</ele>
        <time>2024-07-02T08:30:02.157Z</time>
      </trkpt>
      <trkpt lat="51.62452" lon="4.36073">
        <ele>46.835324</ele>
        <time>2024-07-02T08:30:05.151Z</time>
      </trkpt>
      <trkpt lat="51.62464" lon="4.36081">
        <ele>46.733541</ele>
        <time>2024-07-02T08:30:08.170Z</time>
      </trkpt>
      <trkpt lat="51.62473" lon="4.36087">
        <ele>46.707379</ele>
        <time>2024-07-02T08:30:10.152Z</time>
      </trkpt>
      <trkpt lat="51.62485" lon="4.36096">
        <ele>46.668942</ele>
        <time>2024-07-02T08:30:13.152Z</time>
      </trkpt>
      <trkpt lat="51.62496" lon="4.36103">
        <ele>46.633066</ele>
        <time>2024-07-02T08:30:16.177Z</time>
      </trkpt>
      <trkpt lat="51.62508" lon="4.36111">
        <ele>46.595911</ele>
        <time>2024-07-02T08:30:19.162Z</time>
      </trkpt>
      <trkpt lat="51.6252" lon="4.36118">
        <ele>46.560638</ele>
        <time>2024-07-02T08:30:22.147Z</time>
      </trkpt>
      <trkpt lat="51.62532" lon="4.36126">
        <ele>46.523015</ele>
        <time>2024-07-02T08:30:25.162Z</time>
      </trkpt>
      <trkpt lat="51.62543" lon="4.36135">
        <ele>46.485374</ele>
        <time>2024-07-02T08:30:28.126Z</time>
      </trkpt>
      <trkpt lat="51.62555" lon="4.36142">
        <ele>46.448357</ele>
        <time>2024-07-02T08:30:31.116Z</time>
      </trkpt>
      <trkpt lat="51.62567" lon="4.3615">
        <ele>46.413145</ele>
        <time>2024-07-02T08:30:34.116Z</time>
      </trkpt>
      <trkpt lat="51.62577" lon="4.36158">
        <ele>46.378804</ele>
        <time>2024-07-02T08:30:37.116Z</time>
      </trkpt>
      <trkpt lat="51.62589" lon="4.36166">
        <ele>46.342386</ele>
        <time>2024-07-02T08:30:40.113Z</time>
      </trkpt>
      <trkpt lat="51.62601" lon="4.36174">
        <ele>46.305166</ele>
        <time>2024-07-02T08:30:43.112Z</time>
      </trkpt>
      <trkpt lat="51.62612" lon="4.36182">
        <ele>46.268316</ele>
        <time>2024-07-02T08:30:46.116Z</time>
      </trkpt>
      <trkpt lat="51.62624" lon="4.36191">
        <ele>46.231391</ele>
        <time>2024-07-02T08:30:49.136Z</time>
      </trkpt>
      <trkpt lat="51.62636" lon="4.36198">
        <ele>46.276738</ele>
        <time>2024-07-02T08:30:52.133Z</time>
      </trkpt>
      <trkpt lat="51.62649" lon="4.36205">
        <ele>46.362839</ele>
        <time>2024-07-02T08:30:55.142Z</time>
      </trkpt>
      <trkpt lat="51.62661" lon="4.36213">
        <ele>46.447892</ele>
        <time>2024-07-02T08:30:58.161Z</time>
      </trkpt>
      <trkpt lat="51.62673" lon="4.36221">
        <ele>46.532043</ele>
        <time>2024-07-02T08:31:01.133Z</time>
      </trkpt>
      <trkpt lat="51.62684" lon="4.36228">
        <ele>46.613214</ele>
        <time>2024-07-02T08:31:04.246Z</time>
      </trkpt>
      <trkpt lat="51.62696" lon="4.36235">
        <ele>46.693773</ele>
        <time>2024-07-02T08:31:07.140Z</time>
      </trkpt>
      <trkpt lat="51.62707" lon="4.36242">
        <ele>46.773225</ele>
        <time>2024-07-02T08:31:10.147Z</time>
      </trkpt>
      <trkpt lat="51.62719" lon="4.36251">
        <ele>46.857784</ele>
        <time>2024-07-02T08:31:13.209Z</time>
      </trkpt>
      <trkpt lat="51.6273" lon="4.3626">
        <ele>46.937533</ele>
        <time>2024-07-02T08:31:16.227Z</time>
      </trkpt>
      <trkpt lat="51.6274" lon="4.36271">
        <ele>47.018616</ele>
        <time>2024-07-02T08:31:19.198Z</time>
      </trkpt>
      <trkpt lat="51.6275" lon="4.36282">
        <ele>47.096499</ele>
        <time>2024-07-02T08:31:22.161Z</time>
      </trkpt>
      <trkpt lat="51.6276" lon="4.36293">
        <ele>47.175386</ele>
        <time>2024-07-02T08:31:25.146Z</time>
      </trkpt>
      <trkpt lat="51.62768" lon="4.36306">
        <ele>47.249536</ele>
        <time>2024-07-02T08:31:28.132Z</time>
      </trkpt>
      <trkpt lat="51.62775" lon="4.36319">
        <ele>47.320251</ele>
        <time>2024-07-02T08:31:31.137Z</time>
      </trkpt>
      <trkpt lat="51.62781" lon="4.36333">
        <ele>47.389839</ele>
        <time>2024-07-02T08:31:34.158Z</time>
      </trkpt>
      <trkpt lat="51.62784" lon="4.36349">
        <ele>47.436429</ele>
        <time>2024-07-02T08:31:37.162Z</time>
      </trkpt>
      <trkpt lat="51.62782" lon="4.36365">
        <ele>47.484031</ele>
        <time>2024-07-02T08:31:40.148Z</time>
      </trkpt>
      <trkpt lat="51.62783" lon="4.36384">
        <ele>47.536909</ele>
        <time>2024-07-02T08:31:43.160Z</time>
      </trkpt>
      <trkpt lat="51.62789" lon="4.36398">
        <ele>47.585402</ele>
        <time>2024-07-02T08:31:46.151Z</time>
      </trkpt>
      <trkpt lat="51.62799" lon="4.36404">
        <ele>47.631574</ele>
        <time>2024-07-02T08:31:49.159Z</time>
      </trkpt>
      <trkpt lat="51.62808" lon="4.36404">
        <ele>47.67421</ele>
        <time>2024-07-02T08:31:52.149Z</time>
      </trkpt>
      <trkpt lat="51.62818" lon="4.36401">
        <ele>47.717277</ele>
        <time>2024-07-02T08:31:56.156Z</time>
      </trkpt>
      <trkpt lat="51.62826" lon="4.36392">
        <ele>47.76127</ele>
        <time>2024-07-02T08:31:59.135Z</time>
      </trkpt>
      <trkpt lat="51.6283" lon="4.36377">
        <ele>47.807973</ele>
        <time>2024-07-02T08:32:02.141Z</time>
      </trkpt>
      <trkpt lat="51.62838" lon="4.36366">
        <ele>47.856223</ele>
        <time>2024-07-02T08:32:05.148Z</time>
      </trkpt>
      <trkpt lat="51.62848" lon="4.36363">
        <ele>47.904404</ele>
        <time>2024-07-02T08:32:08.157Z</time>
      </trkpt>
      <trkpt lat="51.62859" lon="4.36361">
        <ele>47.953931</ele>
        <time>2024-07-02T08:32:11.157Z</time>
      </trkpt>
      <trkpt lat="51.62871" lon="4.36363">
        <ele>48.005876</ele>
        <time>2024-07-02T08:32:14.171Z</time>
      </trkpt>
      <trkpt lat="51.62882" lon="4.36367">
        <ele>48.058785</ele>
        <time>2024-07-02T08:32:17.142Z</time>
      </trkpt>
      <trkpt lat="51.62894" lon="4.36372">
        <ele>48.112658</ele>
        <time>2024-07-02T08:32:20.164Z</time>
      </trkpt>
      <trkpt lat="51.62903" lon="4.36377">
        <ele>48.159109</ele>
        <time>2024-07-02T08:32:23.178Z</time>
      </trkpt>
      <trkpt lat="51.62913" lon="4.36384">
        <ele>48.208332</ele>
        <time>2024-07-02T08:32:26.155Z</time>
      </trkpt>
      <trkpt lat="51.62924" lon="4.36392">
        <ele>48.271036</ele>
        <time>2024-07-02T08:32:29.156Z</time>
      </trkpt>
      <trkpt lat="51.62935" lon="4.364">
        <ele>48.334266</ele>
        <time>2024-07-02T08:32:32.169Z</time>
      </trkpt>
      <trkpt lat="51.62947" lon="4.36407">
        <ele>48.400428</ele>
        <time>2024-07-02T08:32:35.151Z</time>
      </trkpt>
      <trkpt lat="51.62958" lon="4.36415">
        <ele>48.465847</ele>
        <time>2024-07-02T08:32:38.162Z</time>
      </trkpt>
      <trkpt lat="51.62967" lon="4.3642">
        <ele>48.515146</ele>
        <time>2024-07-02T08:32:40.163Z</time>
      </trkpt>
      <trkpt lat="51.62975" lon="4.36425">
        <ele>48.562997</ele>
        <time>2024-07-02T08:32:42.151Z</time>
      </trkpt>
      <trkpt lat="51.62987" lon="4.36431">
        <ele>48.630077</ele>
        <time>2024-07-02T08:32:45.134Z</time>
      </trkpt>
      <trkpt lat="51.62998" lon="4.36439">
        <ele>48.693228</ele>
        <time>2024-07-02T08:32:48.152Z</time>
      </trkpt>
      <trkpt lat="51.6301" lon="4.36448">
        <ele>48.762967</ele>
        <time>2024-07-02T08:32:51.165Z</time>
      </trkpt>
      <trkpt lat="51.63021" lon="4.36455">
        <ele>48.826197</ele>
        <time>2024-07-02T08:32:54.171Z</time>
      </trkpt>
      <trkpt lat="51.63031" lon="4.36462">
        <ele>48.883503</ele>
        <time>2024-07-02T08:32:57.146Z</time>
      </trkpt>
      <trkpt lat="51.63042" lon="4.36469">
        <ele>48.945483</ele>
        <time>2024-07-02T08:33:00.175Z</time>
      </trkpt>
      <trkpt lat="51.63052" lon="4.36476">
        <ele>49.007329</ele>
        <time>2024-07-02T08:33:03.165Z</time>
      </trkpt>
      <trkpt lat="51.63063" lon="4.36483">
        <ele>49.068703</ele>
        <time>2024-07-02T08:33:06.159Z</time>
      </trkpt>
      <trkpt lat="51.63073" lon="4.3649">
        <ele>49.12871</ele>
        <time>2024-07-02T08:33:09.140Z</time>
      </trkpt>
      <trkpt lat="51.63084" lon="4.36498">
        <ele>49.17905</ele>
        <time>2024-07-02T08:33:12.158Z</time>
      </trkpt>
      <trkpt lat="51.63095" lon="4.36506">
        <ele>49.211357</ele>
        <time>2024-07-02T08:33:15.138Z</time>
      </trkpt>
      <trkpt lat="51.63106" lon="4.36513">
        <ele>49.244494</ele>
        <time>2024-07-02T08:33:18.148Z</time>
      </trkpt>
      <trkpt lat="51.63117" lon="4.3652">
        <ele>49.277688</ele>
        <time>2024-07-02T08:33:21.146Z</time>
      </trkpt>
      <trkpt lat="51.63128" lon="4.36528">
        <ele>49.309669</ele>
        <time>2024-07-02T08:33:24.151Z</time>
      </trkpt>
      <trkpt lat="51.63138" lon="4.36535">
        <ele>49.34011</ele>
        <time>2024-07-02T08:33:27.149Z</time>
      </trkpt>
      <trkpt lat="51.63148" lon="4.36541">
        <ele>49.369714</ele>
        <time>2024-07-02T08:33:30.157Z</time>
      </trkpt>
      <trkpt lat="51.63158" lon="4.36548">
        <ele>49.400433</ele>
        <time>2024-07-02T08:33:33.133Z</time>
      </trkpt>
      <trkpt lat="51.63168" lon="4.36555">
        <ele>49.42933</ele>
        <time>2024-07-02T08:33:36.138Z</time>
      </trkpt>
      <trkpt lat="51.63177" lon="4.36562">
        <ele>49.458397</ele>
        <time>2024-07-02T08:33:39.134Z</time>
      </trkpt>
      <trkpt lat="51.63187" lon="4.3657">
        <ele>49.488111</ele>
        <time>2024-07-02T08:33:42.135Z</time>
      </trkpt>
      <trkpt lat="51.63196" lon="4.36576">
        <ele>49.514772</ele>
        <time>2024-07-02T08:33:45.158Z</time>
      </trkpt>
      <trkpt lat="51.63206" lon="4.36583">
        <ele>49.544823</ele>
        <time>2024-07-02T08:33:50.148Z</time>
      </trkpt>
      <trkpt lat="51.63217" lon="4.36586">
        <ele>49.578106</ele>
        <time>2024-07-02T08:33:54.136Z</time>
      </trkpt>
      <trkpt lat="51.63226" lon="4.36593">
        <ele>49.603808</ele>
        <time>2024-07-02T08:33:57.143Z</time>
      </trkpt>
      <trkpt lat="51.63234" lon="4.366">
        <ele>49.630887</ele>
        <time>2024-07-02T08:34:00.145Z</time>
      </trkpt>
      <trkpt lat="51.63244" lon="4.36607">
        <ele>49.658517</ele>
        <time>2024-07-02T08:34:03.148Z</time>
      </trkpt>
      <trkpt lat="51.63253" lon="4.36613">
        <ele>49.534196</ele>
        <time>2024-07-02T08:34:06.155Z</time>
      </trkpt>
      <trkpt lat="51.63262" lon="4.3662">
        <ele>49.384979</ele>
        <time>2024-07-02T08:34:09.149Z</time>
      </trkpt>
      <trkpt lat="51.63272" lon="4.36626">
        <ele>49.235865</ele>
        <time>2024-07-02T08:34:12.160Z</time>
      </trkpt>
      <trkpt lat="51.63282" lon="4.36632">
        <ele>49.084361</ele>
        <time>2024-07-02T08:34:15.148Z</time>
      </trkpt>
      <trkpt lat="51.63291" lon="4.36638">
        <ele>48.935247</ele>
        <time>2024-07-02T08:34:18.148Z</time>
      </trkpt>
      <trkpt lat="51.633" lon="4.36643">
        <ele>48.801272</ele>
        <time>2024-07-02T08:34:21.134Z</time>
      </trkpt>
      <trkpt lat="51.63308" lon="4.36649">
        <ele>48.671586</ele>
        <time>2024-07-02T08:34:24.146Z</time>
      </trkpt>
      <trkpt lat="51.63319" lon="4.36656">
        <ele>48.495597</ele>
        <time>2024-07-02T08:34:28.151Z</time>
      </trkpt>
      <trkpt lat="51.63329" lon="4.36663">
        <ele>48.348795</ele>
        <time>2024-07-02T08:34:31.151Z</time>
      </trkpt>
      <trkpt lat="51.63338" lon="4.3667">
        <ele>48.203151</ele>
        <time>2024-07-02T08:34:34.151Z</time>
      </trkpt>
      <trkpt lat="51.63347" lon="4.36676">
        <ele>48.054662</ele>
        <time>2024-07-02T08:34:37.154Z</time>
      </trkpt>
      <trkpt lat="51.63357" lon="4.36682">
        <ele>47.909253</ele>
        <time>2024-07-02T08:34:40.157Z</time>
      </trkpt>
      <trkpt lat="51.63365" lon="4.36687">
        <ele>47.777904</ele>
        <time>2024-07-02T08:34:43.165Z</time>
      </trkpt>
      <trkpt lat="51.63374" lon="4.36693">
        <ele>47.636716</ele>
        <time>2024-07-02T08:34:46.168Z</time>
      </trkpt>
      <trkpt lat="51.63383" lon="4.36698">
        <ele>47.496345</ele>
        <time>2024-07-02T08:34:49.148Z</time>
      </trkpt>
      <trkpt lat="51.63391" lon="4.36705">
        <ele>47.363238</ele>
        <time>2024-07-02T08:34:52.152Z</time>
      </trkpt>
      <trkpt lat="51.63401" lon="4.36715">
        <ele>47.202526</ele>
        <time>2024-07-02T08:34:55.159Z</time>
      </trkpt>
      <trkpt lat="51.63409" lon="4.36725">
        <ele>47.056418</ele>
        <time>2024-07-02T08:34:58.151Z</time>
      </trkpt>
      <trkpt lat="51.63416" lon="4.36736">
        <ele>47.022324</ele>
        <time>2024-07-02T08:35:01.152Z</time>
      </trkpt>
      <trkpt lat="51.63423" lon="4.36749">
        <ele>46.9842</ele>
        <time>2024-07-02T08:35:04.167Z</time>
      </trkpt>
      <trkpt lat="51.63429" lon="4.36762">
        <ele>46.949321</ele>
        <time>2024-07-02T08:35:07.166Z</time>
      </trkpt>
      <trkpt lat="51.63434" lon="4.36775">
        <ele>46.916401</ele>
        <time>2024-07-02T08:35:10.158Z</time>
      </trkpt>
      <trkpt lat="51.63439" lon="4.36787">
        <ele>46.884342</ele>
        <time>2024-07-02T08:35:13.148Z</time>
      </trkpt>
      <trkpt lat="51.63445" lon="4.36804">
        <ele>46.841611</ele>
        <time>2024-07-02T08:35:17.167Z</time>
      </trkpt>
      <trkpt lat="51.6345" lon="4.36818">
        <ele>46.806829</ele>
        <time>2024-07-02T08:35:20.149Z</time>
      </trkpt>
      <trkpt lat="51.63455" lon="4.36832">
        <ele>46.771771</ele>
        <time>2024-07-02T08:35:23.166Z</time>
      </trkpt>
      <trkpt lat="51.6346" lon="4.36846">
        <ele>46.737364</ele>
        <time>2024-07-02T08:35:26.169Z</time>
      </trkpt>
      <trkpt lat="51.63466" lon="4.36859">
        <ele>46.702276</ele>
        <time>2024-07-02T08:35:29.174Z</time>
      </trkpt>
      <trkpt lat="51.63472" lon="4.36871">
        <ele>46.667665</ele>
        <time>2024-07-02T08:35:32.150Z</time>
      </trkpt>
      <trkpt lat="51.63478" lon="4.36882">
        <ele>46.635557</ele>
        <time>2024-07-02T08:35:35.135Z</time>
      </trkpt>
      <trkpt lat="51.63486" lon="4.36893">
        <ele>46.60005</ele>
        <time>2024-07-02T08:35:38.147Z</time>
      </trkpt>
      <trkpt lat="51.63494" lon="4.36903">
        <ele>46.563852</ele>
        <time>2024-07-02T08:35:41.138Z</time>
      </trkpt>
      <trkpt lat="51.63501" lon="4.36913">
        <ele>46.531823</ele>
        <time>2024-07-02T08:35:44.173Z</time>
      </trkpt>
      <trkpt lat="51.63508" lon="4.36922">
        <ele>46.500141</ele>
        <time>2024-07-02T08:35:47.149Z</time>
      </trkpt>
      <trkpt lat="51.6351" lon="4.36937">
        <ele>46.466124</ele>
        <time>2024-07-02T08:35:50.153Z</time>
      </trkpt>
      <trkpt lat="51.63511" lon="4.36953">
        <ele>46.431646</ele>
        <time>2024-07-02T08:35:53.148Z</time>
      </trkpt>
      <trkpt lat="51.63517" lon="4.36964">
        <ele>46.341368</ele>
        <time>2024-07-02T08:35:56.152Z</time>
      </trkpt>
      <trkpt lat="51.63523" lon="4.36975">
        <ele>46.242288</ele>
        <time>2024-07-02T08:35:59.178Z</time>
      </trkpt>
      <trkpt lat="51.63531" lon="4.36989">
        <ele>46.115125</ele>
        <time>2024-07-02T08:36:03.153Z</time>
      </trkpt>
      <trkpt lat="51.63538" lon="4.37003">
        <ele>45.998364</ele>
        <time>2024-07-02T08:36:07.170Z</time>
      </trkpt>
      <trkpt lat="51.63547" lon="4.37004">
        <ele>45.896177</ele>
        <time>2024-07-02T08:36:39.163Z</time>
      </trkpt>
      <trkpt lat="51.63555" lon="4.36993">
        <ele>45.784548</ele>
        <time>2024-07-02T08:36:44.148Z</time>
      </trkpt>
      <trkpt lat="51.63561" lon="4.36981">
        <ele>45.680459</ele>
        <time>2024-07-02T08:36:49.149Z</time>
      </trkpt>
      <trkpt lat="51.63571" lon="4.36984">
        <ele>45.571653</ele>
        <time>2024-07-02T08:36:54.146Z</time>
      </trkpt>
      <trkpt lat="51.6358" lon="4.36989">
        <ele>45.461452</ele>
        <time>2024-07-02T08:36:59.156Z</time>
      </trkpt>
      <trkpt lat="51.63589" lon="4.36991">
        <ele>45.369441</ele>
        <time>2024-07-02T08:37:21.774Z</time>
      </trkpt>
      <trkpt lat="51.63578" lon="4.37004">
        <ele>45.226658</ele>
        <time>2024-07-02T09:05:37.146Z</time>
      </trkpt>
      <trkpt lat="51.63585" lon="4.37016">
        <ele>45.123666</ele>
        <time>2024-07-02T09:05:49.138Z</time>
      </trkpt>
      <trkpt lat="51.63591" lon="4.37027">
        <ele>45.021486</ele>
        <time>2024-07-02T09:05:54.147Z</time>
      </trkpt>
      <trkpt lat="51.63599" lon="4.37039">
        <ele>44.902673</ele>
        <time>2024-07-02T09:05:59.122Z</time>
      </trkpt>
      <trkpt lat="51.63606" lon="4.37052">
        <ele>44.787697</ele>
        <time>2024-07-02T09:06:04.159Z</time>
      </trkpt>
      <trkpt lat="51.63613" lon="4.37066">
        <ele>44.666137</ele>
        <time>2024-07-02T09:06:08.163Z</time>
      </trkpt>
      <trkpt lat="51.63621" lon="4.3708">
        <ele>44.538484</ele>
        <time>2024-07-02T09:06:12.162Z</time>
      </trkpt>
      <trkpt lat="51.63628" lon="4.37091">
        <ele>44.564265</ele>
        <time>2024-07-02T09:06:16.151Z</time>
      </trkpt>
      <trkpt lat="51.63636" lon="4.37102">
        <ele>44.798676</ele>
        <time>2024-07-02T09:06:20.148Z</time>
      </trkpt>
      <trkpt lat="51.63643" lon="4.37114">
        <ele>45.03279</ele>
        <time>2024-07-02T09:06:24.161Z</time>
      </trkpt>
      <trkpt lat="51.63652" lon="4.37126">
        <ele>45.288288</ele>
        <time>2024-07-02T09:06:28.159Z</time>
      </trkpt>
      <trkpt lat="51.6366" lon="4.3714">
        <ele>45.548864</ele>
        <time>2024-07-02T09:06:32.146Z</time>
      </trkpt>
      <trkpt lat="51.63666" lon="4.37149">
        <ele>45.752892</ele>
        <time>2024-07-02T09:06:35.120Z</time>
      </trkpt>
      <trkpt lat="51.63675" lon="4.37161">
        <ele>45.996169</ele>
        <time>2024-07-02T09:06:39.135Z</time>
      </trkpt>
      <trkpt lat="51.63682" lon="4.37171">
        <ele>46.21734</ele>
        <time>2024-07-02T09:06:43.150Z</time>
      </trkpt>
      <trkpt lat="51.6369" lon="4.3718">
        <ele>46.429012</ele>
        <time>2024-07-02T09:06:46.160Z</time>
      </trkpt>
      <trkpt lat="51.63698" lon="4.37188">
        <ele>46.646742</ele>
        <time>2024-07-02T09:06:49.156Z</time>
      </trkpt>
      <trkpt lat="51.63706" lon="4.37197">
        <ele>46.868864</ele>
        <time>2024-07-02T09:06:52.150Z</time>
      </trkpt>
      <trkpt lat="51.63714" lon="4.37206">
        <ele>47.082406</ele>
        <time>2024-07-02T09:06:55.138Z</time>
      </trkpt>
      <trkpt lat="51.63722" lon="4.37213">
        <ele>47.288171</ele>
        <time>2024-07-02T09:06:58.216Z</time>
      </trkpt>
      <trkpt lat="51.63732" lon="4.37225">
        <ele>47.550447</ele>
        <time>2024-07-02T09:07:02.136Z</time>
      </trkpt>
      <trkpt lat="51.63739" lon="4.37233">
        <ele>47.761811</ele>
        <time>2024-07-02T09:07:05.124Z</time>
      </trkpt>
      <trkpt lat="51.63749" lon="4.37244">
        <ele>48.02129</ele>
        <time>2024-07-02T09:07:09.157Z</time>
      </trkpt>
      <trkpt lat="51.63757" lon="4.37255">
        <ele>48.26512</ele>
        <time>2024-07-02T09:07:13.142Z</time>
      </trkpt>
      <trkpt lat="51.63766" lon="4.37265">
        <ele>48.496429</ele>
        <time>2024-07-02T09:07:17.153Z</time>
      </trkpt>
      <trkpt lat="51.63773" lon="4.37276">
        <ele>48.431571</ele>
        <time>2024-07-02T09:07:21.155Z</time>
      </trkpt>
      <trkpt lat="51.6378" lon="4.37288">
        <ele>48.364165</ele>
        <time>2024-07-02T09:07:27.152Z</time>
      </trkpt>
      <trkpt lat="51.63788" lon="4.373">
        <ele>48.294668</ele>
        <time>2024-07-02T09:07:32.129Z</time>
      </trkpt>
      <trkpt lat="51.63793" lon="4.37312">
        <ele>48.235903</ele>
        <time>2024-07-02T09:07:35.152Z</time>
      </trkpt>
      <trkpt lat="51.63799" lon="4.37326">
        <ele>48.164468</ele>
        <time>2024-07-02T09:07:38.158Z</time>
      </trkpt>
      <trkpt lat="51.63805" lon="4.37342">
        <ele>48.090676</ele>
        <time>2024-07-02T09:07:41.143Z</time>
      </trkpt>
      <trkpt lat="51.63811" lon="4.37359">
        <ele>48.009982</ele>
        <time>2024-07-02T09:07:44.168Z</time>
      </trkpt>
      <trkpt lat="51.63816" lon="4.37377">
        <ele>47.931247</ele>
        <time>2024-07-02T09:07:47.158Z</time>
      </trkpt>
      <trkpt lat="51.63821" lon="4.37394">
        <ele>47.85594</ele>
        <time>2024-07-02T09:07:50.154Z</time>
      </trkpt>
      <trkpt lat="51.63826" lon="4.37412">
        <ele>47.77272</ele>
        <time>2024-07-02T09:07:53.147Z</time>
      </trkpt>
      <trkpt lat="51.63833" lon="4.37431">
        <ele>47.685993</ele>
        <time>2024-07-02T09:07:56.156Z</time>
      </trkpt>
      <trkpt lat="51.63839" lon="4.37449">
        <ele>47.602157</ele>
        <time>2024-07-02T09:07:59.139Z</time>
      </trkpt>
      <trkpt lat="51.63843" lon="4.37462">
        <ele>47.542928</ele>
        <time>2024-07-02T09:08:01.157Z</time>
      </trkpt>
      <trkpt lat="51.63848" lon="4.37474">
        <ele>47.48345</ele>
        <time>2024-07-02T09:08:03.152Z</time>
      </trkpt>
      <trkpt lat="51.63857" lon="4.3749">
        <ele>47.399781</ele>
        <time>2024-07-02T09:08:06.148Z</time>
      </trkpt>
      <trkpt lat="51.63864" lon="4.37506">
        <ele>47.323888</ele>
        <time>2024-07-02T09:08:09.138Z</time>
      </trkpt>
      <trkpt lat="51.63872" lon="4.37522">
        <ele>47.383623</ele>
        <time>2024-07-02T09:08:12.144Z</time>
      </trkpt>
      <trkpt lat="51.63879" lon="4.37539">
        <ele>47.445026</ele>
        <time>2024-07-02T09:08:15.136Z</time>
      </trkpt>
      <trkpt lat="51.63886" lon="4.37555">
        <ele>47.502452</ele>
        <time>2024-07-02T09:08:18.124Z</time>
      </trkpt>
      <trkpt lat="51.63894" lon="4.3757">
        <ele>47.560605</ele>
        <time>2024-07-02T09:08:21.146Z</time>
      </trkpt>
      <trkpt lat="51.63901" lon="4.37586">
        <ele>47.617038</ele>
        <time>2024-07-02T09:08:24.146Z</time>
      </trkpt>
      <trkpt lat="51.63908" lon="4.37601">
        <ele>47.674034</ele>
        <time>2024-07-02T09:08:27.145Z</time>
      </trkpt>
      <trkpt lat="51.63915" lon="4.37617">
        <ele>47.731122</ele>
        <time>2024-07-02T09:08:30.148Z</time>
      </trkpt>
      <trkpt lat="51.63922" lon="4.37633">
        <ele>47.789266</ele>
        <time>2024-07-02T09:08:33.152Z</time>
      </trkpt>
      <trkpt lat="51.63929" lon="4.37649">
        <ele>47.848529</ele>
        <time>2024-07-02T09:08:36.157Z</time>
      </trkpt>
      <trkpt lat="51.63936" lon="4.37666">
        <ele>47.907153</ele>
        <time>2024-07-02T09:08:39.166Z</time>
      </trkpt>
      <trkpt lat="51.63943" lon="4.37682">
        <ele>47.964972</ele>
        <time>2024-07-02T09:08:42.157Z</time>
      </trkpt>
      <trkpt lat="51.63951" lon="4.37698">
        <ele>48.022488</ele>
        <time>2024-07-02T09:08:45.140Z</time>
      </trkpt>
      <trkpt lat="51.63958" lon="4.37713">
        <ele>48.08058</ele>
        <time>2024-07-02T09:08:48.153Z</time>
      </trkpt>
      <trkpt lat="51.63966" lon="4.37729">
        <ele>48.140417</ele>
        <time>2024-07-02T09:08:51.175Z</time>
      </trkpt>
      <trkpt lat="51.63973" lon="4.37745">
        <ele>48.207477</ele>
        <time>2024-07-02T09:08:54.153Z</time>
      </trkpt>
      <trkpt lat="51.6398" lon="4.3776">
        <ele>48.291218</ele>
        <time>2024-07-02T09:08:57.166Z</time>
      </trkpt>
      <trkpt lat="51.63986" lon="4.37776">
        <ele>48.376287</ele>
        <time>2024-07-02T09:09:00.143Z</time>
      </trkpt>
      <trkpt lat="51.63993" lon="4.37792">
        <ele>48.463063</ele>
        <time>2024-07-02T09:09:03.144Z</time>
      </trkpt>
      <trkpt lat="51.64" lon="4.37808">
        <ele>48.54639</ele>
        <time>2024-07-02T09:09:06.135Z</time>
      </trkpt>
      <trkpt lat="51.64007" lon="4.37824">
        <ele>48.634046</ele>
        <time>2024-07-02T09:09:09.151Z</time>
      </trkpt>
      <trkpt lat="51.64013" lon="4.37841">
        <ele>48.722088</ele>
        <time>2024-07-02T09:09:12.168Z</time>
      </trkpt>
      <trkpt lat="51.6402" lon="4.37858">
        <ele>48.810495</ele>
        <time>2024-07-02T09:09:15.148Z</time>
      </trkpt>
      <trkpt lat="51.64027" lon="4.37876">
        <ele>48.901548</ele>
        <time>2024-07-02T09:09:18.149Z</time>
      </trkpt>
      <trkpt lat="51.64033" lon="4.37893">
        <ele>48.989998</ele>
        <time>2024-07-02T09:09:21.158Z</time>
      </trkpt>
      <trkpt lat="51.6404" lon="4.3791">
        <ele>49.081418</ele>
        <time>2024-07-02T09:09:24.161Z</time>
      </trkpt>
      <trkpt lat="51.64046" lon="4.37922">
        <ele>49.145539</ele>
        <time>2024-07-02T09:09:26.157Z</time>
      </trkpt>
      <trkpt lat="51.64053" lon="4.37939">
        <ele>49.235879</ele>
        <time>2024-07-02T09:09:29.168Z</time>
      </trkpt>
      <trkpt lat="51.6406" lon="4.37956">
        <ele>49.325216</ele>
        <time>2024-07-02T09:09:32.162Z</time>
      </trkpt>
      <trkpt lat="51.64065" lon="4.37968">
        <ele>49.389337</ele>
        <time>2024-07-02T09:09:34.158Z</time>
      </trkpt>
      <trkpt lat="51.64072" lon="4.37985">
        <ele>49.441749</ele>
        <time>2024-07-02T09:09:37.147Z</time>
      </trkpt>
      <trkpt lat="51.6408" lon="4.38002">
        <ele>49.403362</ele>
        <time>2024-07-02T09:09:40.162Z</time>
      </trkpt>
      <trkpt lat="51.64087" lon="4.38019">
        <ele>49.365967</ele>
        <time>2024-07-02T09:09:43.139Z</time>
      </trkpt>
      <trkpt lat="51.64094" lon="4.38036">
        <ele>49.329486</ele>
        <time>2024-07-02T09:09:46.171Z</time>
      </trkpt>
      <trkpt lat="51.64102" lon="4.38052">
        <ele>49.29235</ele>
        <time>2024-07-02T09:09:49.164Z</time>
      </trkpt>
      <trkpt lat="51.64109" lon="4.38069">
        <ele>49.25487</ele>
        <time>2024-07-02T09:09:52.151Z</time>
      </trkpt>
      <trkpt lat="51.64117" lon="4.38085">
        <ele>49.21771</ele>
        <time>2024-07-02T09:09:55.131Z</time>
      </trkpt>
      <trkpt lat="51.64125" lon="4.38101">
        <ele>49.180236</ele>
        <time>2024-07-02T09:09:58.154Z</time>
      </trkpt>
      <trkpt lat="51.64133" lon="4.38117">
        <ele>49.142393</ele>
        <time>2024-07-02T09:10:01.158Z</time>
      </trkpt>
      <trkpt lat="51.64141" lon="4.38134">
        <ele>49.104127</ele>
        <time>2024-07-02T09:10:04.163Z</time>
      </trkpt>
      <trkpt lat="51.64149" lon="4.3815">
        <ele>49.066377</ele>
        <time>2024-07-02T09:10:07.143Z</time>
      </trkpt>
      <trkpt lat="51.64157" lon="4.38166">
        <ele>49.029266</ele>
        <time>2024-07-02T09:10:10.173Z</time>
      </trkpt>
      <trkpt lat="51.64165" lon="4.38182">
        <ele>48.992207</ele>
        <time>2024-07-02T09:10:13.159Z</time>
      </trkpt>
      <trkpt lat="51.64173" lon="4.38197">
        <ele>48.955477</ele>
        <time>2024-07-02T09:10:16.128Z</time>
      </trkpt>
      <trkpt lat="51.64181" lon="4.38212">
        <ele>48.946964</ele>
        <time>2024-07-02T09:10:19.146Z</time>
      </trkpt>
      <trkpt lat="51.64189" lon="4.38227">
        <ele>49.046626</ele>
        <time>2024-07-02T09:10:22.162Z</time>
      </trkpt>
      <trkpt lat="51.64196" lon="4.38241">
        <ele>49.142925</ele>
        <time>2024-07-02T09:10:25.135Z</time>
      </trkpt>
      <trkpt lat="51.64203" lon="4.38256">
        <ele>49.239941</ele>
        <time>2024-07-02T09:10:28.127Z</time>
      </trkpt>
      <trkpt lat="51.64211" lon="4.38271">
        <ele>49.346897</ele>
        <time>2024-07-02T09:10:31.154Z</time>
      </trkpt>
      <trkpt lat="51.64219" lon="4.38285">
        <ele>49.45048</ele>
        <time>2024-07-02T09:10:34.172Z</time>
      </trkpt>
      <trkpt lat="51.64228" lon="4.38298">
        <ele>49.552264</ele>
        <time>2024-07-02T09:10:37.140Z</time>
      </trkpt>
      <trkpt lat="51.64237" lon="4.38309">
        <ele>49.648297</ele>
        <time>2024-07-02T09:10:40.159Z</time>
      </trkpt>
      <trkpt lat="51.64246" lon="4.3832">
        <ele>49.738729</ele>
        <time>2024-07-02T09:10:43.149Z</time>
      </trkpt>
      <trkpt lat="51.64254" lon="4.38331">
        <ele>49.828872</ele>
        <time>2024-07-02T09:10:46.167Z</time>
      </trkpt>
      <trkpt lat="51.6426" lon="4.38345">
        <ele>49.918304</ele>
        <time>2024-07-02T09:10:49.132Z</time>
      </trkpt>
      <trkpt lat="51.64266" lon="4.38359">
        <ele>50.007676</ele>
        <time>2024-07-02T09:10:52.165Z</time>
      </trkpt>
      <trkpt lat="51.64271" lon="4.38375">
        <ele>50.101025</ele>
        <time>2024-07-02T09:10:55.170Z</time>
      </trkpt>
      <trkpt lat="51.64276" lon="4.38391">
        <ele>50.196929</ele>
        <time>2024-07-02T09:10:58.150Z</time>
      </trkpt>
      <trkpt lat="51.6428" lon="4.38409">
        <ele>50.296379</ele>
        <time>2024-07-02T09:11:01.178Z</time>
      </trkpt>
      <trkpt lat="51.64286" lon="4.38425">
        <ele>50.392751</ele>
        <time>2024-07-02T09:11:04.158Z</time>
      </trkpt>
      <trkpt lat="51.64291" lon="4.38442">
        <ele>50.434985</ele>
        <time>2024-07-02T09:11:07.168Z</time>
      </trkpt>
      <trkpt lat="51.64296" lon="4.38459">
        <ele>50.395651</ele>
        <time>2024-07-02T09:11:10.158Z</time>
      </trkpt>
      <trkpt lat="51.64302" lon="4.38478">
        <ele>50.353657</ele>
        <time>2024-07-02T09:11:13.151Z</time>
      </trkpt>
      <trkpt lat="51.64308" lon="4.38496">
        <ele>50.311859</ele>
        <time>2024-07-02T09:11:16.161Z</time>
      </trkpt>
      <trkpt lat="51.64313" lon="4.38515">
        <ele>50.269666</ele>
        <time>2024-07-02T09:11:19.150Z</time>
      </trkpt>
      <trkpt lat="51.64316" lon="4.38528">
        <ele>50.240137</ele>
        <time>2024-07-02T09:11:21.156Z</time>
      </trkpt>
      <trkpt lat="51.6432" lon="4.38542">
        <ele>50.209637</ele>
        <time>2024-07-02T09:11:23.150Z</time>
      </trkpt>
      <trkpt lat="51.64324" lon="4.38555">
        <ele>50.18006</ele>
        <time>2024-07-02T09:11:25.141Z</time>
      </trkpt>
      <trkpt lat="51.64329" lon="4.38569">
        <ele>50.148825</ele>
        <time>2024-07-02T09:11:27.152Z</time>
      </trkpt>
      <trkpt lat="51.64335" lon="4.38588">
        <ele>50.104393</ele>
        <time>2024-07-02T09:11:30.145Z</time>
      </trkpt>
      <trkpt lat="51.64339" lon="4.38601">
        <ele>50.074982</ele>
        <time>2024-07-02T09:11:32.168Z</time>
      </trkpt>
      <trkpt lat="51.64345" lon="4.38619">
        <ele>50.034277</ele>
        <time>2024-07-02T09:11:35.140Z</time>
      </trkpt>
      <trkpt lat="51.64349" lon="4.38632">
        <ele>50.003632</ele>
        <time>2024-07-02T09:11:37.147Z</time>
      </trkpt>
      <trkpt lat="51.64354" lon="4.38645">
        <ele>49.973226</ele>
        <time>2024-07-02T09:11:39.143Z</time>
      </trkpt>
      <trkpt lat="51.6436" lon="4.38665">
        <ele>49.928288</ele>
        <time>2024-07-02T09:11:42.169Z</time>
      </trkpt>
      <trkpt lat="51.64364" lon="4.38679">
        <ele>49.897314</ele>
        <time>2024-07-02T09:11:44.163Z</time>
      </trkpt>
      <trkpt lat="51.64368" lon="4.38693">
        <ele>49.866038</ele>
        <time>2024-07-02T09:11:46.172Z</time>
      </trkpt>
      <trkpt lat="51.64375" lon="4.38711">
        <ele>49.906096</ele>
        <time>2024-07-02T09:11:49.144Z</time>
      </trkpt>
      <trkpt lat="51.64379" lon="4.38724">
        <ele>49.938144</ele>
        <time>2024-07-02T09:11:51.153Z</time>
      </trkpt>
      <trkpt lat="51.64384" lon="4.38737">
        <ele>49.971615</ele>
        <time>2024-07-02T09:11:53.153Z</time>
      </trkpt>
      <trkpt lat="51.64387" lon="4.38751">
        <ele>50.005377</ele>
        <time>2024-07-02T09:11:55.134Z</time>
      </trkpt>
      <trkpt lat="51.6439" lon="4.38766">
        <ele>50.039194</ele>
        <time>2024-07-02T09:11:57.124Z</time>
      </trkpt>
      <trkpt lat="51.6439" lon="4.38781">
        <ele>50.073392</ele>
        <time>2024-07-02T09:11:59.145Z</time>
      </trkpt>
      <trkpt lat="51.64388" lon="4.38795">
        <ele>50.106045</ele>
        <time>2024-07-02T09:12:01.141Z</time>
      </trkpt>
      <trkpt lat="51.64384" lon="4.3881">
        <ele>50.142208</ele>
        <time>2024-07-02T09:12:03.141Z</time>
      </trkpt>
      <trkpt lat="51.64379" lon="4.38824">
        <ele>50.177748</ele>
        <time>2024-07-02T09:12:05.168Z</time>
      </trkpt>
      <trkpt lat="51.64376" lon="4.38838">
        <ele>50.210146</ele>
        <time>2024-07-02T09:12:07.164Z</time>
      </trkpt>
      <trkpt lat="51.6437" lon="4.38858">
        <ele>50.259088</ele>
        <time>2024-07-02T09:12:10.152Z</time>
      </trkpt>
      <trkpt lat="51.64366" lon="4.38872">
        <ele>50.293194</ele>
        <time>2024-07-02T09:12:12.144Z</time>
      </trkpt>
      <trkpt lat="51.64364" lon="4.38887">
        <ele>50.326895</ele>
        <time>2024-07-02T09:12:14.156Z</time>
      </trkpt>
      <trkpt lat="51.64363" lon="4.38903">
        <ele>50.363093</ele>
        <time>2024-07-02T09:12:16.136Z</time>
      </trkpt>
      <trkpt lat="51.64362" lon="4.38919">
        <ele>50.399926</ele>
        <time>2024-07-02T09:12:18.159Z</time>
      </trkpt>
      <trkpt lat="51.64365" lon="4.38935">
        <ele>50.43595</ele>
        <time>2024-07-02T09:12:20.150Z</time>
      </trkpt>
      <trkpt lat="51.6437" lon="4.38949">
        <ele>50.471612</ele>
        <time>2024-07-02T09:12:22.153Z</time>
      </trkpt>
      <trkpt lat="51.64377" lon="4.38961">
        <ele>50.505641</ele>
        <time>2024-07-02T09:12:24.138Z</time>
      </trkpt>
      <trkpt lat="51.64384" lon="4.38972">
        <ele>50.506169</ele>
        <time>2024-07-02T09:12:26.132Z</time>
      </trkpt>
      <trkpt lat="51.64392" lon="4.38982">
        <ele>50.506695</ele>
        <time>2024-07-02T09:12:28.147Z</time>
      </trkpt>
      <trkpt lat="51.644" lon="4.38991">
        <ele>50.507204</ele>
        <time>2024-07-02T09:12:30.160Z</time>
      </trkpt>
      <trkpt lat="51.64407" lon="4.39001">
        <ele>50.5077</ele>
        <time>2024-07-02T09:12:32.162Z</time>
      </trkpt>
      <trkpt lat="51.64415" lon="4.3901">
        <ele>50.508191</ele>
        <time>2024-07-02T09:12:34.152Z</time>
      </trkpt>
      <trkpt lat="51.64422" lon="4.3902">
        <ele>50.508693</ele>
        <time>2024-07-02T09:12:36.161Z</time>
      </trkpt>
      <trkpt lat="51.6443" lon="4.39028">
        <ele>50.50918</ele>
        <time>2024-07-02T09:12:38.167Z</time>
      </trkpt>
      <trkpt lat="51.64437" lon="4.39039">
        <ele>50.509658</ele>
        <time>2024-07-02T09:12:40.183Z</time>
      </trkpt>
      <trkpt lat="51.64443" lon="4.39051">
        <ele>50.51017</ele>
        <time>2024-07-02T09:12:42.153Z</time>
      </trkpt>
      <trkpt lat="51.64448" lon="4.39064">
        <ele>50.510665</ele>
        <time>2024-07-02T09:12:44.146Z</time>
      </trkpt>
      <trkpt lat="51.64453" lon="4.39076">
        <ele>50.511136</ele>
        <time>2024-07-02T09:12:46.157Z</time>
      </trkpt>
      <trkpt lat="51.64463" lon="4.39092">
        <ele>50.511857</ele>
        <time>2024-07-02T09:12:49.165Z</time>
      </trkpt>
      <trkpt lat="51.6447" lon="4.39101">
        <ele>50.512359</ele>
        <time>2024-07-02T09:12:51.150Z</time>
      </trkpt>
      <trkpt lat="51.6448" lon="4.39114">
        <ele>50.513025</ele>
        <time>2024-07-02T09:12:54.167Z</time>
      </trkpt>
      <trkpt lat="51.6449" lon="4.39126">
        <ele>50.513656</ele>
        <time>2024-07-02T09:12:57.153Z</time>
      </trkpt>
      <trkpt lat="51.645" lon="4.39137">
        <ele>50.514276</ele>
        <time>2024-07-02T09:13:00.139Z</time>
      </trkpt>
      <trkpt lat="51.64509" lon="4.39147">
        <ele>50.514852</ele>
        <time>2024-07-02T09:13:03.149Z</time>
      </trkpt>
      <trkpt lat="51.64518" lon="4.39158">
        <ele>50.578429</ele>
        <time>2024-07-02T09:13:06.148Z</time>
      </trkpt>
      <trkpt lat="51.64529" lon="4.39171">
        <ele>50.677441</ele>
        <time>2024-07-02T09:13:09.149Z</time>
      </trkpt>
      <trkpt lat="51.64538" lon="4.39179">
        <ele>50.75187</ele>
        <time>2024-07-02T09:13:11.161Z</time>
      </trkpt>
      <trkpt lat="51.64546" lon="4.39188">
        <ele>50.824075</ele>
        <time>2024-07-02T09:13:13.137Z</time>
      </trkpt>
      <trkpt lat="51.64555" lon="4.39196">
        <ele>50.899249</ele>
        <time>2024-07-02T09:13:15.144Z</time>
      </trkpt>
      <trkpt lat="51.64564" lon="4.39203">
        <ele>50.973537</ele>
        <time>2024-07-02T09:13:17.141Z</time>
      </trkpt>
      <trkpt lat="51.64574" lon="4.39208">
        <ele>51.0441</ele>
        <time>2024-07-02T09:13:19.160Z</time>
      </trkpt>
      <trkpt lat="51.64586" lon="4.39215">
        <ele>51.140306</ele>
        <time>2024-07-02T09:13:22.154Z</time>
      </trkpt>
      <trkpt lat="51.64597" lon="4.39224">
        <ele>51.232226</ele>
        <time>2024-07-02T09:13:25.134Z</time>
      </trkpt>
      <trkpt lat="51.64605" lon="4.39237">
        <ele>51.313061</ele>
        <time>2024-07-02T09:13:28.128Z</time>
      </trkpt>
      <trkpt lat="51.64615" lon="4.39243">
        <ele>51.389158</ele>
        <time>2024-07-02T09:13:31.140Z</time>
      </trkpt>
      <trkpt lat="51.64626" lon="4.39239">
        <ele>51.47181</ele>
        <time>2024-07-02T09:13:35.135Z</time>
      </trkpt>
      <trkpt lat="51.64631" lon="4.39226">
        <ele>51.540636</ele>
        <time>2024-07-02T09:13:38.147Z</time>
      </trkpt>
      <trkpt lat="51.64633" lon="4.3921">
        <ele>51.614935</ele>
        <time>2024-07-02T09:13:41.141Z</time>
      </trkpt>
      <trkpt lat="51.64626" lon="4.39196">
        <ele>51.689849</ele>
        <time>2024-07-02T09:13:44.162Z</time>
      </trkpt>
      <trkpt lat="51.64625" lon="4.39181">
        <ele>51.760295</ele>
        <time>2024-07-02T09:13:47.141Z</time>
      </trkpt>
      <trkpt lat="51.64633" lon="4.39168">
        <ele>51.810364</ele>
        <time>2024-07-02T09:13:50.154Z</time>
      </trkpt>
      <trkpt lat="51.64643" lon="4.39157">
        <ele>51.729857</ele>
        <time>2024-07-02T09:13:53.136Z</time>
      </trkpt>
      <trkpt lat="51.64654" lon="4.39151">
        <ele>51.64965</ele>
        <time>2024-07-02T09:13:56.143Z</time>
      </trkpt>
      <trkpt lat="51.64666" lon="4.39144">
        <ele>51.559045</ele>
        <time>2024-07-02T09:13:59.168Z</time>
      </trkpt>
      <trkpt lat="51.64676" lon="4.39142">
        <ele>51.492671</ele>
        <time>2024-07-02T09:14:01.147Z</time>
      </trkpt>
      <trkpt lat="51.64689" lon="4.39138">
        <ele>51.400531</ele>
        <time>2024-07-02T09:14:04.169Z</time>
      </trkpt>
      <trkpt lat="51.64701" lon="4.39136">
        <ele>51.311987</ele>
        <time>2024-07-02T09:14:07.146Z</time>
      </trkpt>
      <trkpt lat="51.64714" lon="4.39134">
        <ele>51.223355</ele>
        <time>2024-07-02T09:14:10.168Z</time>
      </trkpt>
      <trkpt lat="51.64727" lon="4.39131">
        <ele>51.134409</ele>
        <time>2024-07-02T09:14:13.165Z</time>
      </trkpt>
      <trkpt lat="51.64738" lon="4.39125">
        <ele>51.049874</ele>
        <time>2024-07-02T09:14:16.173Z</time>
      </trkpt>
      <trkpt lat="51.64751" lon="4.39118">
        <ele>50.960667</ele>
        <time>2024-07-02T09:14:19.161Z</time>
      </trkpt>
      <trkpt lat="51.64762" lon="4.3911">
        <ele>50.871198</ele>
        <time>2024-07-02T09:14:22.142Z</time>
      </trkpt>
      <trkpt lat="51.64774" lon="4.391">
        <ele>50.781289</ele>
        <time>2024-07-02T09:14:25.145Z</time>
      </trkpt>
      <trkpt lat="51.64784" lon="4.39089">
        <ele>50.69427</ele>
        <time>2024-07-02T09:14:28.147Z</time>
      </trkpt>
      <trkpt lat="51.64794" lon="4.39078">
        <ele>50.608627</ele>
        <time>2024-07-02T09:14:31.165Z</time>
      </trkpt>
      <trkpt lat="51.64805" lon="4.39068">
        <ele>50.567078</ele>
        <time>2024-07-02T09:14:34.155Z</time>
      </trkpt>
      <trkpt lat="51.64816" lon="4.39057">
        <ele>50.549454</ele>
        <time>2024-07-02T09:14:37.145Z</time>
      </trkpt>
      <trkpt lat="51.64826" lon="4.39045">
        <ele>50.531209</ele>
        <time>2024-07-02T09:14:40.169Z</time>
      </trkpt>
      <trkpt lat="51.64837" lon="4.39034">
        <ele>50.512893</ele>
        <time>2024-07-02T09:14:43.155Z</time>
      </trkpt>
      <trkpt lat="51.64848" lon="4.39022">
        <ele>50.494194</ele>
        <time>2024-07-02T09:14:46.164Z</time>
      </trkpt>
      <trkpt lat="51.64859" lon="4.39011">
        <ele>50.475779</ele>
        <time>2024-07-02T09:14:49.151Z</time>
      </trkpt>
      <trkpt lat="51.6487" lon="4.39">
        <ele>50.45782</ele>
        <time>2024-07-02T09:14:52.148Z</time>
      </trkpt>
      <trkpt lat="51.6488" lon="4.38989">
        <ele>50.439561</ele>
        <time>2024-07-02T09:14:55.133Z</time>
      </trkpt>
      <trkpt lat="51.64891" lon="4.38977">
        <ele>50.420952</ele>
        <time>2024-07-02T09:14:58.165Z</time>
      </trkpt>
      <trkpt lat="51.64898" lon="4.38969">
        <ele>50.408227</ele>
        <time>2024-07-02T09:15:00.166Z</time>
      </trkpt>
      <trkpt lat="51.64909" lon="4.38957">
        <ele>50.38948</ele>
        <time>2024-07-02T09:15:03.153Z</time>
      </trkpt>
      <trkpt lat="51.6492" lon="4.38947">
        <ele>50.371348</ele>
        <time>2024-07-02T09:15:06.152Z</time>
      </trkpt>
      <trkpt lat="51.64931" lon="4.38935">
        <ele>50.352984</ele>
        <time>2024-07-02T09:15:09.160Z</time>
      </trkpt>
      <trkpt lat="51.64942" lon="4.38925">
        <ele>50.33562</ele>
        <time>2024-07-02T09:15:12.143Z</time>
      </trkpt>
      <trkpt lat="51.64952" lon="4.38914">
        <ele>50.312957</ele>
        <time>2024-07-02T09:15:15.149Z</time>
      </trkpt>
      <trkpt lat="51.64962" lon="4.38903">
        <ele>50.2775</ele>
        <time>2024-07-02T09:15:18.152Z</time>
      </trkpt>
      <trkpt lat="51.64972" lon="4.38892">
        <ele>50.241767</ele>
        <time>2024-07-02T09:15:21.147Z</time>
      </trkpt>
      <trkpt lat="51.64983" lon="4.38881">
        <ele>50.205154</ele>
        <time>2024-07-02T09:15:24.146Z</time>
      </trkpt>
      <trkpt lat="51.64993" lon="4.38871">
        <ele>50.169773</ele>
        <time>2024-07-02T09:15:27.138Z</time>
      </trkpt>
      <trkpt lat="51.65003" lon="4.3886">
        <ele>50.134786</ele>
        <time>2024-07-02T09:15:30.152Z</time>
      </trkpt>
      <trkpt lat="51.65013" lon="4.3885">
        <ele>50.099501</ele>
        <time>2024-07-02T09:15:33.153Z</time>
      </trkpt>
      <trkpt lat="51.65024" lon="4.38839">
        <ele>50.062544</ele>
        <time>2024-07-02T09:15:36.139Z</time>
      </trkpt>
      <trkpt lat="51.65034" lon="4.38829">
        <ele>50.027558</ele>
        <time>2024-07-02T09:15:39.149Z</time>
      </trkpt>
      <trkpt lat="51.65044" lon="4.38817">
        <ele>49.991619</ele>
        <time>2024-07-02T09:15:42.152Z</time>
      </trkpt>
      <trkpt lat="51.65054" lon="4.38807">
        <ele>49.956086</ele>
        <time>2024-07-02T09:15:45.167Z</time>
      </trkpt>
      <trkpt lat="51.65065" lon="4.38796">
        <ele>49.919129</ele>
        <time>2024-07-02T09:15:48.163Z</time>
      </trkpt>
      <trkpt lat="51.65075" lon="4.38785">
        <ele>49.882604</ele>
        <time>2024-07-02T09:15:51.148Z</time>
      </trkpt>
      <trkpt lat="51.65086" lon="4.38774">
        <ele>49.845302</ele>
        <time>2024-07-02T09:15:54.154Z</time>
      </trkpt>
      <trkpt lat="51.65096" lon="4.38763">
        <ele>49.809673</ele>
        <time>2024-07-02T09:15:57.149Z</time>
      </trkpt>
      <trkpt lat="51.65106" lon="4.38752">
        <ele>49.814326</ele>
        <time>2024-07-02T09:16:00.162Z</time>
      </trkpt>
      <trkpt lat="51.65116" lon="4.38742">
        <ele>49.845157</ele>
        <time>2024-07-02T09:16:03.164Z</time>
      </trkpt>
      <trkpt lat="51.65126" lon="4.38731">
        <ele>49.875687</ele>
        <time>2024-07-02T09:16:06.142Z</time>
      </trkpt>
      <trkpt lat="51.65136" lon="4.38721">
        <ele>49.906259</ele>
        <time>2024-07-02T09:16:09.149Z</time>
      </trkpt>
      <trkpt lat="51.65146" lon="4.38709">
        <ele>49.937742</ele>
        <time>2024-07-02T09:16:12.144Z</time>
      </trkpt>
      <trkpt lat="51.65156" lon="4.38698">
        <ele>49.968778</ele>
        <time>2024-07-02T09:16:15.134Z</time>
      </trkpt>
      <trkpt lat="51.65166" lon="4.38687">
        <ele>49.999395</ele>
        <time>2024-07-02T09:16:18.145Z</time>
      </trkpt>
      <trkpt lat="51.65176" lon="4.38676">
        <ele>50.030757</ele>
        <time>2024-07-02T09:16:21.169Z</time>
      </trkpt>
      <trkpt lat="51.65186" lon="4.38666">
        <ele>50.061029</ele>
        <time>2024-07-02T09:16:24.150Z</time>
      </trkpt>
      <trkpt lat="51.65196" lon="4.38656">
        <ele>50.090364</ele>
        <time>2024-07-02T09:16:27.159Z</time>
      </trkpt>
      <trkpt lat="51.65206" lon="4.38646">
        <ele>50.120467</ele>
        <time>2024-07-02T09:16:30.166Z</time>
      </trkpt>
      <trkpt lat="51.65216" lon="4.38634">
        <ele>50.15231</ele>
        <time>2024-07-02T09:16:33.149Z</time>
      </trkpt>
      <trkpt lat="51.65227" lon="4.38624">
        <ele>50.182929</ele>
        <time>2024-07-02T09:16:36.144Z</time>
      </trkpt>
      <trkpt lat="51.65236" lon="4.38614">
        <ele>50.212523</ele>
        <time>2024-07-02T09:16:39.150Z</time>
      </trkpt>
      <trkpt lat="51.65245" lon="4.38603">
        <ele>50.240357</ele>
        <time>2024-07-02T09:16:42.164Z</time>
      </trkpt>
      <trkpt lat="51.65255" lon="4.38593">
        <ele>50.249884</ele>
        <time>2024-07-02T09:16:45.146Z</time>
      </trkpt>
      <trkpt lat="51.65264" lon="4.38583">
        <ele>50.24236</ele>
        <time>2024-07-02T09:16:48.147Z</time>
      </trkpt>
      <trkpt lat="51.65274" lon="4.38573">
        <ele>50.23449</ele>
        <time>2024-07-02T09:16:51.173Z</time>
      </trkpt>
      <trkpt lat="51.65284" lon="4.38563">
        <ele>50.226509</ele>
        <time>2024-07-02T09:16:54.147Z</time>
      </trkpt>
      <trkpt lat="51.65293" lon="4.38553">
        <ele>50.218654</ele>
        <time>2024-07-02T09:16:57.156Z</time>
      </trkpt>
      <trkpt lat="51.65303" lon="4.38542">
        <ele>50.210792</ele>
        <time>2024-07-02T09:17:00.147Z</time>
      </trkpt>
      <trkpt lat="51.65312" lon="4.38531">
        <ele>50.202762</ele>
        <time>2024-07-02T09:17:03.165Z</time>
      </trkpt>
      <trkpt lat="51.65323" lon="4.3852">
        <ele>50.194321</ele>
        <time>2024-07-02T09:17:06.154Z</time>
      </trkpt>
      <trkpt lat="51.65333" lon="4.3851">
        <ele>50.186202</ele>
        <time>2024-07-02T09:17:09.160Z</time>
      </trkpt>
      <trkpt lat="51.65342" lon="4.385">
        <ele>50.178345</ele>
        <time>2024-07-02T09:17:12.147Z</time>
      </trkpt>
      <trkpt lat="51.65352" lon="4.38489">
        <ele>50.170106</ele>
        <time>2024-07-02T09:17:15.134Z</time>
      </trkpt>
      <trkpt lat="51.65362" lon="4.38478">
        <ele>50.162091</ele>
        <time>2024-07-02T09:17:18.150Z</time>
      </trkpt>
      <trkpt lat="51.65372" lon="4.38468">
        <ele>50.154149</ele>
        <time>2024-07-02T09:17:21.158Z</time>
      </trkpt>
      <trkpt lat="51.65382" lon="4.38458">
        <ele>50.146154</ele>
        <time>2024-07-02T09:17:24.153Z</time>
      </trkpt>
      <trkpt lat="51.65391" lon="4.38447">
        <ele>50.137947</ele>
        <time>2024-07-02T09:17:27.161Z</time>
      </trkpt>
      <trkpt lat="51.65401" lon="4.38436">
        <ele>50.122711</ele>
        <time>2024-07-02T09:17:30.162Z</time>
      </trkpt>
      <trkpt lat="51.65411" lon="4.38425">
        <ele>50.078979</ele>
        <time>2024-07-02T09:17:33.122Z</time>
      </trkpt>
      <trkpt lat="51.65422" lon="4.38415">
        <ele>50.034579</ele>
        <time>2024-07-02T09:17:36.148Z</time>
      </trkpt>
      <trkpt lat="51.65431" lon="4.38404">
        <ele>49.990886</ele>
        <time>2024-07-02T09:17:39.164Z</time>
      </trkpt>
      <trkpt lat="51.65441" lon="4.38393">
        <ele>49.948919</ele>
        <time>2024-07-02T09:17:42.153Z</time>
      </trkpt>
      <trkpt lat="51.6545" lon="4.38383">
        <ele>49.905391</ele>
        <time>2024-07-02T09:17:45.139Z</time>
      </trkpt>
      <trkpt lat="51.65461" lon="4.38373">
        <ele>49.860913</ele>
        <time>2024-07-02T09:17:48.149Z</time>
      </trkpt>
      <trkpt lat="51.6547" lon="4.38363">
        <ele>49.81942</ele>
        <time>2024-07-02T09:17:51.139Z</time>
      </trkpt>
      <trkpt lat="51.6548" lon="4.38352">
        <ele>49.775558</ele>
        <time>2024-07-02T09:17:54.159Z</time>
      </trkpt>
      <trkpt lat="51.6549" lon="4.38341">
        <ele>49.731219</ele>
        <time>2024-07-02T09:17:57.144Z</time>
      </trkpt>
      <trkpt lat="51.655" lon="4.38331">
        <ele>49.686741</ele>
        <time>2024-07-02T09:18:00.160Z</time>
      </trkpt>
      <trkpt lat="51.65511" lon="4.3832">
        <ele>49.640371</ele>
        <time>2024-07-02T09:18:03.146Z</time>
      </trkpt>
      <trkpt lat="51.65521" lon="4.38308">
        <ele>49.594953</ele>
        <time>2024-07-02T09:18:06.153Z</time>
      </trkpt>
      <trkpt lat="51.65531" lon="4.38297">
        <ele>49.549967</ele>
        <time>2024-07-02T09:18:09.152Z</time>
      </trkpt>
      <trkpt lat="51.65541" lon="4.38286">
        <ele>49.505628</ele>
        <time>2024-07-02T09:18:12.146Z</time>
      </trkpt>
      <trkpt lat="51.65552" lon="4.38276">
        <ele>49.509811</ele>
        <time>2024-07-02T09:18:15.118Z</time>
      </trkpt>
      <trkpt lat="51.65562" lon="4.38265">
        <ele>49.683586</ele>
        <time>2024-07-02T09:18:18.149Z</time>
      </trkpt>
      <trkpt lat="51.65572" lon="4.38253">
        <ele>49.855162</ele>
        <time>2024-07-02T09:18:21.158Z</time>
      </trkpt>
      <trkpt lat="51.65582" lon="4.38242">
        <ele>50.028539</ele>
        <time>2024-07-02T09:18:24.158Z</time>
      </trkpt>
      <trkpt lat="51.65592" lon="4.38231">
        <ele>50.190642</ele>
        <time>2024-07-02T09:18:27.162Z</time>
      </trkpt>
      <trkpt lat="51.656" lon="4.38221">
        <ele>50.337181</ele>
        <time>2024-07-02T09:18:30.158Z</time>
      </trkpt>
      <trkpt lat="51.65608" lon="4.38211">
        <ele>50.47789</ele>
        <time>2024-07-02T09:18:33.143Z</time>
      </trkpt>
      <trkpt lat="51.65616" lon="4.382">
        <ele>50.621931</ele>
        <time>2024-07-02T09:18:36.166Z</time>
      </trkpt>
      <trkpt lat="51.65624" lon="4.3819">
        <ele>50.764287</ele>
        <time>2024-07-02T09:18:39.153Z</time>
      </trkpt>
      <trkpt lat="51.65631" lon="4.38179">
        <ele>50.902964</ele>
        <time>2024-07-02T09:18:42.144Z</time>
      </trkpt>
      <trkpt lat="51.65639" lon="4.38169">
        <ele>51.047002</ele>
        <time>2024-07-02T09:18:45.149Z</time>
      </trkpt>
      <trkpt lat="51.65647" lon="4.38159">
        <ele>51.188791</ele>
        <time>2024-07-02T09:18:48.141Z</time>
      </trkpt>
      <trkpt lat="51.65655" lon="4.38149">
        <ele>51.330074</ele>
        <time>2024-07-02T09:18:51.151Z</time>
      </trkpt>
      <trkpt lat="51.65662" lon="4.3814">
        <ele>51.457145</ele>
        <time>2024-07-02T09:18:54.173Z</time>
      </trkpt>
      <trkpt lat="51.6567" lon="4.38129">
        <ele>51.598991</ele>
        <time>2024-07-02T09:18:57.149Z</time>
      </trkpt>
      <trkpt lat="51.65678" lon="4.38118">
        <ele>51.75077</ele>
        <time>2024-07-02T09:19:00.147Z</time>
      </trkpt>
      <trkpt lat="51.65686" lon="4.38108">
        <ele>51.89809</ele>
        <time>2024-07-02T09:19:03.151Z</time>
      </trkpt>
      <trkpt lat="51.65694" lon="4.38097">
        <ele>51.940317</ele>
        <time>2024-07-02T09:19:06.162Z</time>
      </trkpt>
      <trkpt lat="51.65703" lon="4.38086">
        <ele>51.797641</ele>
        <time>2024-07-02T09:19:09.154Z</time>
      </trkpt>
      <trkpt lat="51.65712" lon="4.38074">
        <ele>51.649878</ele>
        <time>2024-07-02T09:19:12.145Z</time>
      </trkpt>
      <trkpt lat="51.6572" lon="4.38063">
        <ele>51.509603</ele>
        <time>2024-07-02T09:19:15.127Z</time>
      </trkpt>
      <trkpt lat="51.65729" lon="4.38052">
        <ele>51.366403</ele>
        <time>2024-07-02T09:19:18.151Z</time>
      </trkpt>
      <trkpt lat="51.65739" lon="4.38045">
        <ele>51.220501</ele>
        <time>2024-07-02T09:19:21.131Z</time>
      </trkpt>
      <trkpt lat="51.65751" lon="4.3805">
        <ele>51.060642</ele>
        <time>2024-07-02T09:19:24.142Z</time>
      </trkpt>
      <trkpt lat="51.65759" lon="4.38064">
        <ele>50.908063</ele>
        <time>2024-07-02T09:19:27.166Z</time>
      </trkpt>
      <trkpt lat="51.65765" lon="4.38076">
        <ele>50.778218</ele>
        <time>2024-07-02T09:19:30.150Z</time>
      </trkpt>
      <trkpt lat="51.65773" lon="4.38085">
        <ele>50.657186</ele>
        <time>2024-07-02T09:19:33.139Z</time>
      </trkpt>
      <trkpt lat="51.65782" lon="4.38093">
        <ele>50.521305</ele>
        <time>2024-07-02T09:19:36.156Z</time>
      </trkpt>
      <trkpt lat="51.65793" lon="4.38102">
        <ele>50.366376</ele>
        <time>2024-07-02T09:19:39.156Z</time>
      </trkpt>
      <trkpt lat="51.65804" lon="4.38112">
        <ele>50.197325</ele>
        <time>2024-07-02T09:19:42.160Z</time>
      </trkpt>
      <trkpt lat="51.65813" lon="4.38119">
        <ele>50.063754</ele>
        <time>2024-07-02T09:19:44.164Z</time>
      </trkpt>
      <trkpt lat="51.65823" lon="4.38127">
        <ele>49.930189</ele>
        <time>2024-07-02T09:19:46.153Z</time>
      </trkpt>
      <trkpt lat="51.65833" lon="4.38135">
        <ele>49.784382</ele>
        <time>2024-07-02T09:19:48.153Z</time>
      </trkpt>
      <trkpt lat="51.65843" lon="4.38144">
        <ele>49.642312</ele>
        <time>2024-07-02T09:19:50.145Z</time>
      </trkpt>
      <trkpt lat="51.65854" lon="4.38152">
        <ele>49.546129</ele>
        <time>2024-07-02T09:19:52.148Z</time>
      </trkpt>
      <trkpt lat="51.65865" lon="4.38162">
        <ele>49.446374</ele>
        <time>2024-07-02T09:19:54.144Z</time>
      </trkpt>
      <trkpt lat="51.65876" lon="4.38171">
        <ele>49.348415</ele>
        <time>2024-07-02T09:19:56.147Z</time>
      </trkpt>
      <trkpt lat="51.65887" lon="4.38179">
        <ele>49.24853</ele>
        <time>2024-07-02T09:19:58.150Z</time>
      </trkpt>
      <trkpt lat="51.65899" lon="4.38186">
        <ele>49.152268</ele>
        <time>2024-07-02T09:20:00.144Z</time>
      </trkpt>
      <trkpt lat="51.65909" lon="4.38194">
        <ele>49.058947</ele>
        <time>2024-07-02T09:20:02.156Z</time>
      </trkpt>
      <trkpt lat="51.65919" lon="4.38201">
        <ele>48.971603</ele>
        <time>2024-07-02T09:20:04.159Z</time>
      </trkpt>
      <trkpt lat="51.65929" lon="4.38207">
        <ele>48.888786</ele>
        <time>2024-07-02T09:20:06.162Z</time>
      </trkpt>
      <trkpt lat="51.65938" lon="4.38214">
        <ele>48.810007</ele>
        <time>2024-07-02T09:20:08.142Z</time>
      </trkpt>
      <trkpt lat="51.65947" lon="4.38219">
        <ele>48.734531</ele>
        <time>2024-07-02T09:20:10.159Z</time>
      </trkpt>
      <trkpt lat="51.65959" lon="4.38228">
        <ele>48.629279</ele>
        <time>2024-07-02T09:20:13.145Z</time>
      </trkpt>
      <trkpt lat="51.65971" lon="4.38236">
        <ele>48.52587</ele>
        <time>2024-07-02T09:20:16.155Z</time>
      </trkpt>
      <trkpt lat="51.65983" lon="4.38244">
        <ele>48.427935</ele>
        <time>2024-07-02T09:20:19.156Z</time>
      </trkpt>
      <trkpt lat="51.6599" lon="4.38253">
        <ele>48.35254</ele>
        <time>2024-07-02T09:20:26.153Z</time>
      </trkpt>
      <trkpt lat="51.66" lon="4.38253">
        <ele>48.277301</ele>
        <time>2024-07-02T09:24:20.157Z</time>
      </trkpt>
      <trkpt lat="51.6601" lon="4.38261">
        <ele>48.237264</ele>
        <time>2024-07-02T09:24:25.144Z</time>
      </trkpt>
      <trkpt lat="51.66021" lon="4.38268">
        <ele>48.257862</ele>
        <time>2024-07-02T09:24:29.127Z</time>
      </trkpt>
      <trkpt lat="51.66031" lon="4.38275">
        <ele>48.276857</ele>
        <time>2024-07-02T09:24:32.166Z</time>
      </trkpt>
      <trkpt lat="51.6604" lon="4.38283">
        <ele>48.295132</ele>
        <time>2024-07-02T09:24:35.122Z</time>
      </trkpt>
      <trkpt lat="51.66051" lon="4.3829">
        <ele>48.31444</ele>
        <time>2024-07-02T09:24:38.147Z</time>
      </trkpt>
      <trkpt lat="51.66061" lon="4.38296">
        <ele>48.334154</ele>
        <time>2024-07-02T09:24:41.148Z</time>
      </trkpt>
      <trkpt lat="51.66072" lon="4.38305">
        <ele>48.355454</ele>
        <time>2024-07-02T09:24:44.147Z</time>
      </trkpt>
      <trkpt lat="51.66081" lon="4.38311">
        <ele>48.371376</ele>
        <time>2024-07-02T09:24:46.144Z</time>
      </trkpt>
      <trkpt lat="51.66089" lon="4.38316">
        <ele>48.387178</ele>
        <time>2024-07-02T09:24:48.140Z</time>
      </trkpt>
      <trkpt lat="51.66098" lon="4.38321">
        <ele>48.402929</ele>
        <time>2024-07-02T09:24:50.156Z</time>
      </trkpt>
      <trkpt lat="51.6611" lon="4.38329">
        <ele>48.425917</ele>
        <time>2024-07-02T09:24:53.135Z</time>
      </trkpt>
      <trkpt lat="51.66122" lon="4.38338">
        <ele>48.448895</ele>
        <time>2024-07-02T09:24:56.144Z</time>
      </trkpt>
      <trkpt lat="51.66134" lon="4.38346">
        <ele>48.47163</ele>
        <time>2024-07-02T09:24:59.149Z</time>
      </trkpt>
      <trkpt lat="51.66142" lon="4.38352">
        <ele>48.487374</ele>
        <time>2024-07-02T09:25:01.143Z</time>
      </trkpt>
      <trkpt lat="51.66151" lon="4.38358">
        <ele>48.503378</ele>
        <time>2024-07-02T09:25:03.147Z</time>
      </trkpt>
      <trkpt lat="51.66159" lon="4.38363">
        <ele>48.5193</ele>
        <time>2024-07-02T09:25:05.135Z</time>
      </trkpt>
      <trkpt lat="51.66172" lon="4.38372">
        <ele>48.544523</ele>
        <time>2024-07-02T09:25:08.155Z</time>
      </trkpt>
      <trkpt lat="51.66184" lon="4.38382">
        <ele>48.594215</ele>
        <time>2024-07-02T09:25:11.151Z</time>
      </trkpt>
      <trkpt lat="51.66192" lon="4.38387">
        <ele>48.628453</ele>
        <time>2024-07-02T09:25:13.146Z</time>
      </trkpt>
      <trkpt lat="51.66204" lon="4.38396">
        <ele>48.677981</ele>
        <time>2024-07-02T09:25:16.154Z</time>
      </trkpt>
      <trkpt lat="51.66213" lon="4.38403">
        <ele>48.712588</ele>
        <time>2024-07-02T09:25:18.145Z</time>
      </trkpt>
      <trkpt lat="51.66221" lon="4.38408">
        <ele>48.746219</ele>
        <time>2024-07-02T09:25:20.145Z</time>
      </trkpt>
      <trkpt lat="51.66233" lon="4.38418">
        <ele>48.796105</ele>
        <time>2024-07-02T09:25:23.144Z</time>
      </trkpt>
      <trkpt lat="51.66242" lon="4.38424">
        <ele>48.830957</ele>
        <time>2024-07-02T09:25:25.136Z</time>
      </trkpt>
      <trkpt lat="51.6625" lon="4.38431">
        <ele>48.866673</ele>
        <time>2024-07-02T09:25:27.130Z</time>
      </trkpt>
      <trkpt lat="51.66259" lon="4.38437">
        <ele>48.900321</ele>
        <time>2024-07-02T09:25:29.143Z</time>
      </trkpt>
      <trkpt lat="51.66267" lon="4.38442">
        <ele>48.934296</ele>
        <time>2024-07-02T09:25:31.150Z</time>
      </trkpt>
      <trkpt lat="51.66276" lon="4.38448">
        <ele>48.968103</ele>
        <time>2024-07-02T09:25:33.145Z</time>
      </trkpt>
      <trkpt lat="51.66287" lon="4.38456">
        <ele>49.015859</ele>
        <time>2024-07-02T09:25:36.155Z</time>
      </trkpt>
      <trkpt lat="51.663" lon="4.38464">
        <ele>49.065414</ele>
        <time>2024-07-02T09:25:39.148Z</time>
      </trkpt>
      <trkpt lat="51.66312" lon="4.38472">
        <ele>49.115217</ele>
        <time>2024-07-02T09:25:42.171Z</time>
      </trkpt>
      <trkpt lat="51.66325" lon="4.38479">
        <ele>49.164675</ele>
        <time>2024-07-02T09:25:45.123Z</time>
      </trkpt>
      <trkpt lat="51.66337" lon="4.38487">
        <ele>49.217877</ele>
        <time>2024-07-02T09:25:48.159Z</time>
      </trkpt>
      <trkpt lat="51.66349" lon="4.38495">
        <ele>49.324521</ele>
        <time>2024-07-02T09:25:51.153Z</time>
      </trkpt>
      <trkpt lat="51.6636" lon="4.38503">
        <ele>49.427357</ele>
        <time>2024-07-02T09:25:54.149Z</time>
      </trkpt>
      <trkpt lat="51.66369" lon="4.38509">
        <ele>49.504197</ele>
        <time>2024-07-02T09:25:56.152Z</time>
      </trkpt>
      <trkpt lat="51.66377" lon="4.38516">
        <ele>49.579212</ele>
        <time>2024-07-02T09:25:58.157Z</time>
      </trkpt>
      <trkpt lat="51.66385" lon="4.38533">
        <ele>49.68891</ele>
        <time>2024-07-02T09:26:01.156Z</time>
      </trkpt>
      <trkpt lat="51.66387" lon="4.38548">
        <ele>49.764019</ele>
        <time>2024-07-02T09:26:03.154Z</time>
      </trkpt>
      <trkpt lat="51.66386" lon="4.38563">
        <ele>49.841739</ele>
        <time>2024-07-02T09:26:05.149Z</time>
      </trkpt>
      <trkpt lat="51.66386" lon="4.38584">
        <ele>49.949954</ele>
        <time>2024-07-02T09:26:08.164Z</time>
      </trkpt>
      <trkpt lat="51.66385" lon="4.38605">
        <ele>50.056914</ele>
        <time>2024-07-02T09:26:11.163Z</time>
      </trkpt>
      <trkpt lat="51.66383" lon="4.38627">
        <ele>50.165807</ele>
        <time>2024-07-02T09:26:14.148Z</time>
      </trkpt>
      <trkpt lat="51.66382" lon="4.38641">
        <ele>50.240356</ele>
        <time>2024-07-02T09:26:16.165Z</time>
      </trkpt>
      <trkpt lat="51.66381" lon="4.38656">
        <ele>50.316007</ele>
        <time>2024-07-02T09:26:18.149Z</time>
      </trkpt>
      <trkpt lat="51.6638" lon="4.38671">
        <ele>50.392294</ele>
        <time>2024-07-02T09:26:20.149Z</time>
      </trkpt>
      <trkpt lat="51.66379" lon="4.38686">
        <ele>50.468047</ele>
        <time>2024-07-02T09:26:22.146Z</time>
      </trkpt>
      <trkpt lat="51.66378" lon="4.38701">
        <ele>50.54411</ele>
        <time>2024-07-02T09:26:24.123Z</time>
      </trkpt>
      <trkpt lat="51.66377" lon="4.38716">
        <ele>50.6211</ele>
        <time>2024-07-02T09:26:26.150Z</time>
      </trkpt>
      <trkpt lat="51.66376" lon="4.3873">
        <ele>50.683466</ele>
        <time>2024-07-02T09:26:28.161Z</time>
      </trkpt>
      <trkpt lat="51.66375" lon="4.38745">
        <ele>50.699843</ele>
        <time>2024-07-02T09:26:30.148Z</time>
      </trkpt>
      <trkpt lat="51.66375" lon="4.38767">
        <ele>50.723802</ele>
        <time>2024-07-02T09:26:33.145Z</time>
      </trkpt>
      <trkpt lat="51.66374" lon="4.38781">
        <ele>50.739836</ele>
        <time>2024-07-02T09:26:35.135Z</time>
      </trkpt>
      <trkpt lat="51.66373" lon="4.38803">
        <ele>50.763639</ele>
        <time>2024-07-02T09:26:38.154Z</time>
      </trkpt>
      <trkpt lat="51.66372" lon="4.38817">
        <ele>50.779757</ele>
        <time>2024-07-02T09:26:40.157Z</time>
      </trkpt>
      <trkpt lat="51.66371" lon="4.38832">
        <ele>50.796165</ele>
        <time>2024-07-02T09:26:42.148Z</time>
      </trkpt>
      <trkpt lat="51.6637" lon="4.38847">
        <ele>50.81283</ele>
        <time>2024-07-02T09:26:44.156Z</time>
      </trkpt>
      <trkpt lat="51.66369" lon="4.38863">
        <ele>50.829867</ele>
        <time>2024-07-02T09:26:46.151Z</time>
      </trkpt>
      <trkpt lat="51.66369" lon="4.38877">
        <ele>50.846149</ele>
        <time>2024-07-02T09:26:48.146Z</time>
      </trkpt>
      <trkpt lat="51.66368" lon="4.38893">
        <ele>50.8632</ele>
        <time>2024-07-02T09:26:50.148Z</time>
      </trkpt>
      <trkpt lat="51.66367" lon="4.38908">
        <ele>50.880085</ele>
        <time>2024-07-02T09:26:52.160Z</time>
      </trkpt>
      <trkpt lat="51.66366" lon="4.38923">
        <ele>50.896769</ele>
        <time>2024-07-02T09:26:54.149Z</time>
      </trkpt>
      <trkpt lat="51.66365" lon="4.38938">
        <ele>50.913068</ele>
        <time>2024-07-02T09:26:56.151Z</time>
      </trkpt>
      <trkpt lat="51.66364" lon="4.38953">
        <ele>50.930354</ele>
        <time>2024-07-02T09:26:58.149Z</time>
      </trkpt>
      <trkpt lat="51.66363" lon="4.38968">
        <ele>50.947151</ele>
        <time>2024-07-02T09:27:00.148Z</time>
      </trkpt>
      <trkpt lat="51.66362" lon="4.38984">
        <ele>50.964057</ele>
        <time>2024-07-02T09:27:02.127Z</time>
      </trkpt>
      <trkpt lat="51.66361" lon="4.38999">
        <ele>50.980862</ele>
        <time>2024-07-02T09:27:04.146Z</time>
      </trkpt>
      <trkpt lat="51.6636" lon="4.39014">
        <ele>50.997857</ele>
        <time>2024-07-02T09:27:06.157Z</time>
      </trkpt>
      <trkpt lat="51.6636" lon="4.39029">
        <ele>51.0308</ele>
        <time>2024-07-02T09:27:08.147Z</time>
      </trkpt>
      <trkpt lat="51.66359" lon="4.39045">
        <ele>51.067747</ele>
        <time>2024-07-02T09:27:10.144Z</time>
      </trkpt>
      <trkpt lat="51.66358" lon="4.39061">
        <ele>51.104181</ele>
        <time>2024-07-02T09:27:12.148Z</time>
      </trkpt>
      <trkpt lat="51.66357" lon="4.39077">
        <ele>51.141866</ele>
        <time>2024-07-02T09:27:14.148Z</time>
      </trkpt>
      <trkpt lat="51.66356" lon="4.39092">
        <ele>51.177228</ele>
        <time>2024-07-02T09:27:16.151Z</time>
      </trkpt>
      <trkpt lat="51.66355" lon="4.39107">
        <ele>51.21343</ele>
        <time>2024-07-02T09:27:18.156Z</time>
      </trkpt>
      <trkpt lat="51.66354" lon="4.39122">
        <ele>51.249465</ele>
        <time>2024-07-02T09:27:20.149Z</time>
      </trkpt>
      <trkpt lat="51.66353" lon="4.39138">
        <ele>51.285859</ele>
        <time>2024-07-02T09:27:22.145Z</time>
      </trkpt>
      <trkpt lat="51.66353" lon="4.39154">
        <ele>51.322386</ele>
        <time>2024-07-02T09:27:24.164Z</time>
      </trkpt>
      <trkpt lat="51.66352" lon="4.39169">
        <ele>51.357748</ele>
        <time>2024-07-02T09:27:26.162Z</time>
      </trkpt>
      <trkpt lat="51.66351" lon="4.39184">
        <ele>51.394537</ele>
        <time>2024-07-02T09:27:28.162Z</time>
      </trkpt>
      <trkpt lat="51.66351" lon="4.392">
        <ele>51.431686</ele>
        <time>2024-07-02T09:27:30.146Z</time>
      </trkpt>
      <trkpt lat="51.6635" lon="4.39215">
        <ele>51.467382</ele>
        <time>2024-07-02T09:27:32.132Z</time>
      </trkpt>
      <trkpt lat="51.66349" lon="4.39231">
        <ele>51.503776</ele>
        <time>2024-07-02T09:27:34.157Z</time>
      </trkpt>
      <trkpt lat="51.66348" lon="4.39246">
        <ele>51.538672</ele>
        <time>2024-07-02T09:27:36.153Z</time>
      </trkpt>
      <trkpt lat="51.66348" lon="4.39261">
        <ele>51.573969</ele>
        <time>2024-07-02T09:27:38.148Z</time>
      </trkpt>
      <trkpt lat="51.66346" lon="4.39276">
        <ele>51.609393</ele>
        <time>2024-07-02T09:27:40.142Z</time>
      </trkpt>
      <trkpt lat="51.66346" lon="4.39291">
        <ele>51.643989</ele>
        <time>2024-07-02T09:27:42.146Z</time>
      </trkpt>
      <trkpt lat="51.66345" lon="4.39306">
        <ele>51.673251</ele>
        <time>2024-07-02T09:27:44.144Z</time>
      </trkpt>
      <trkpt lat="51.66344" lon="4.39321">
        <ele>51.610003</ele>
        <time>2024-07-02T09:27:46.149Z</time>
      </trkpt>
      <trkpt lat="51.66343" lon="4.39336">
        <ele>51.548266</ele>
        <time>2024-07-02T09:27:48.164Z</time>
      </trkpt>
      <trkpt lat="51.66342" lon="4.39351">
        <ele>51.487198</ele>
        <time>2024-07-02T09:27:50.160Z</time>
      </trkpt>
      <trkpt lat="51.66342" lon="4.39367">
        <ele>51.424469</ele>
        <time>2024-07-02T09:27:52.159Z</time>
      </trkpt>
      <trkpt lat="51.66341" lon="4.39381">
        <ele>51.364873</ele>
        <time>2024-07-02T09:27:54.145Z</time>
      </trkpt>
      <trkpt lat="51.6634" lon="4.39396">
        <ele>51.30388</ele>
        <time>2024-07-02T09:27:56.152Z</time>
      </trkpt>
      <trkpt lat="51.66339" lon="4.39412">
        <ele>51.241391</ele>
        <time>2024-07-02T09:27:58.145Z</time>
      </trkpt>
      <trkpt lat="51.66339" lon="4.39426">
        <ele>51.18249</ele>
        <time>2024-07-02T09:28:00.161Z</time>
      </trkpt>
      <trkpt lat="51.66338" lon="4.39441">
        <ele>51.122373</ele>
        <time>2024-07-02T09:28:02.156Z</time>
      </trkpt>
      <trkpt lat="51.66337" lon="4.39456">
        <ele>51.060975</ele>
        <time>2024-07-02T09:28:04.145Z</time>
      </trkpt>
      <trkpt lat="51.66336" lon="4.3947">
        <ele>51.001195</ele>
        <time>2024-07-02T09:28:06.142Z</time>
      </trkpt>
      <trkpt lat="51.66335" lon="4.39485">
        <ele>50.942148</ele>
        <time>2024-07-02T09:28:08.144Z</time>
      </trkpt>
      <trkpt lat="51.66334" lon="4.395">
        <ele>50.881494</ele>
        <time>2024-07-02T09:28:10.147Z</time>
      </trkpt>
      <trkpt lat="51.6634" lon="4.39519">
        <ele>50.795484</ele>
        <time>2024-07-02T09:28:13.142Z</time>
      </trkpt>
      <trkpt lat="51.66347" lon="4.39527">
        <ele>50.735482</ele>
        <time>2024-07-02T09:28:15.131Z</time>
      </trkpt>
      <trkpt lat="51.66356" lon="4.39529">
        <ele>50.674769</ele>
        <time>2024-07-02T09:28:17.125Z</time>
      </trkpt>
      <trkpt lat="51.66365" lon="4.3953">
        <ele>50.61495</ele>
        <time>2024-07-02T09:28:19.155Z</time>
      </trkpt>
      <trkpt lat="51.66375" lon="4.39532">
        <ele>50.551919</ele>
        <time>2024-07-02T09:28:21.143Z</time>
      </trkpt>
      <trkpt lat="51.66387" lon="4.39539">
        <ele>50.500361</ele>
        <time>2024-07-02T09:28:24.127Z</time>
      </trkpt>
      <trkpt lat="51.66399" lon="4.39547">
        <ele>50.509191</ele>
        <time>2024-07-02T09:28:27.148Z</time>
      </trkpt>
      <trkpt lat="51.66412" lon="4.39556">
        <ele>50.518389</ele>
        <time>2024-07-02T09:28:30.163Z</time>
      </trkpt>
      <trkpt lat="51.66424" lon="4.39564">
        <ele>50.527648</ele>
        <time>2024-07-02T09:28:33.155Z</time>
      </trkpt>
      <trkpt lat="51.66433" lon="4.39569">
        <ele>50.533886</ele>
        <time>2024-07-02T09:28:35.112Z</time>
      </trkpt>
      <trkpt lat="51.66445" lon="4.39577">
        <ele>50.543144</ele>
        <time>2024-07-02T09:28:38.147Z</time>
      </trkpt>
      <trkpt lat="51.66454" lon="4.39583">
        <ele>50.549635</ele>
        <time>2024-07-02T09:28:40.157Z</time>
      </trkpt>
      <trkpt lat="51.66462" lon="4.39589">
        <ele>50.555929</ele>
        <time>2024-07-02T09:28:42.159Z</time>
      </trkpt>
      <trkpt lat="51.66471" lon="4.39595">
        <ele>50.562277</ele>
        <time>2024-07-02T09:28:44.148Z</time>
      </trkpt>
      <trkpt lat="51.66479" lon="4.39601">
        <ele>50.56874</ele>
        <time>2024-07-02T09:28:46.154Z</time>
      </trkpt>
      <trkpt lat="51.66488" lon="4.39607">
        <ele>50.575136</ele>
        <time>2024-07-02T09:28:48.143Z</time>
      </trkpt>
      <trkpt lat="51.66497" lon="4.39612">
        <ele>50.581612</ele>
        <time>2024-07-02T09:28:50.141Z</time>
      </trkpt>
      <trkpt lat="51.66505" lon="4.39618">
        <ele>50.587864</ele>
        <time>2024-07-02T09:28:52.143Z</time>
      </trkpt>
      <trkpt lat="51.66517" lon="4.39626">
        <ele>50.59676</ele>
        <time>2024-07-02T09:28:55.128Z</time>
      </trkpt>
      <trkpt lat="51.66529" lon="4.39634">
        <ele>50.605526</ele>
        <time>2024-07-02T09:28:58.145Z</time>
      </trkpt>
      <trkpt lat="51.6654" lon="4.39642">
        <ele>50.614199</ele>
        <time>2024-07-02T09:29:01.155Z</time>
      </trkpt>
      <trkpt lat="51.66552" lon="4.3965">
        <ele>50.609605</ele>
        <time>2024-07-02T09:29:04.138Z</time>
      </trkpt>
      <trkpt lat="51.66564" lon="4.39658">
        <ele>50.565529</ele>
        <time>2024-07-02T09:29:07.140Z</time>
      </trkpt>
      <trkpt lat="51.66575" lon="4.39665">
        <ele>50.522495</ele>
        <time>2024-07-02T09:29:10.161Z</time>
      </trkpt>
      <trkpt lat="51.66586" lon="4.39673">
        <ele>50.481696</ele>
        <time>2024-07-02T09:29:13.165Z</time>
      </trkpt>
      <trkpt lat="51.66597" lon="4.39681">
        <ele>50.43886</ele>
        <time>2024-07-02T09:29:16.147Z</time>
      </trkpt>
      <trkpt lat="51.66608" lon="4.39688">
        <ele>50.397893</ele>
        <time>2024-07-02T09:29:19.149Z</time>
      </trkpt>
      <trkpt lat="51.66619" lon="4.39696">
        <ele>50.357094</ele>
        <time>2024-07-02T09:29:22.154Z</time>
      </trkpt>
      <trkpt lat="51.6663" lon="4.39702">
        <ele>50.316031</ele>
        <time>2024-07-02T09:29:25.125Z</time>
      </trkpt>
      <trkpt lat="51.66641" lon="4.3971">
        <ele>50.275294</ele>
        <time>2024-07-02T09:29:28.161Z</time>
      </trkpt>
      <trkpt lat="51.66652" lon="4.39717">
        <ele>50.235615</ele>
        <time>2024-07-02T09:29:31.138Z</time>
      </trkpt>
      <trkpt lat="51.66663" lon="4.39725">
        <ele>50.194498</ele>
        <time>2024-07-02T09:29:34.148Z</time>
      </trkpt>
      <trkpt lat="51.66673" lon="4.39732">
        <ele>50.154651</ele>
        <time>2024-07-02T09:29:37.157Z</time>
      </trkpt>
      <trkpt lat="51.66684" lon="4.3974">
        <ele>50.114947</ele>
        <time>2024-07-02T09:29:40.142Z</time>
      </trkpt>
      <trkpt lat="51.66694" lon="4.39747">
        <ele>50.076789</ele>
        <time>2024-07-02T09:29:43.145Z</time>
      </trkpt>
      <trkpt lat="51.66705" lon="4.39754">
        <ele>50.036594</ele>
        <time>2024-07-02T09:29:46.145Z</time>
      </trkpt>
      <trkpt lat="51.66716" lon="4.39762">
        <ele>50.00285</ele>
        <time>2024-07-02T09:29:49.147Z</time>
      </trkpt>
      <trkpt lat="51.66727" lon="4.3977">
        <ele>50.025108</ele>
        <time>2024-07-02T09:29:52.152Z</time>
      </trkpt>
      <trkpt lat="51.66739" lon="4.39778">
        <ele>50.047941</ele>
        <time>2024-07-02T09:29:55.126Z</time>
      </trkpt>
      <trkpt lat="51.6675" lon="4.39785">
        <ele>50.069439</ele>
        <time>2024-07-02T09:29:58.144Z</time>
      </trkpt>
      <trkpt lat="51.66761" lon="4.39792">
        <ele>50.091737</ele>
        <time>2024-07-02T09:30:01.156Z</time>
      </trkpt>
      <trkpt lat="51.66772" lon="4.398">
        <ele>50.113114</ele>
        <time>2024-07-02T09:30:04.148Z</time>
      </trkpt>
      <trkpt lat="51.66782" lon="4.39809">
        <ele>50.134789</ele>
        <time>2024-07-02T09:30:07.136Z</time>
      </trkpt>
      <trkpt lat="51.66793" lon="4.39816">
        <ele>50.156589</ele>
        <time>2024-07-02T09:30:10.159Z</time>
      </trkpt>
      <trkpt lat="51.66804" lon="4.39823">
        <ele>50.178005</ele>
        <time>2024-07-02T09:30:13.138Z</time>
      </trkpt>
      <trkpt lat="51.66815" lon="4.39831">
        <ele>50.199472</ele>
        <time>2024-07-02T09:30:16.161Z</time>
      </trkpt>
      <trkpt lat="51.66826" lon="4.39838">
        <ele>50.220349</ele>
        <time>2024-07-02T09:30:19.142Z</time>
      </trkpt>
      <trkpt lat="51.66836" lon="4.39845">
        <ele>50.240751</ele>
        <time>2024-07-02T09:30:22.147Z</time>
      </trkpt>
      <trkpt lat="51.66847" lon="4.39853">
        <ele>50.262712</ele>
        <time>2024-07-02T09:30:25.130Z</time>
      </trkpt>
      <trkpt lat="51.66858" lon="4.3986">
        <ele>50.283746</ele>
        <time>2024-07-02T09:30:28.153Z</time>
      </trkpt>
      <trkpt lat="51.66869" lon="4.39867">
        <ele>50.305371</ele>
        <time>2024-07-02T09:30:31.155Z</time>
      </trkpt>
      <trkpt lat="51.6688" lon="4.39875">
        <ele>50.328666</ele>
        <time>2024-07-02T09:30:34.153Z</time>
      </trkpt>
      <trkpt lat="51.66891" lon="4.39882">
        <ele>50.373435</ele>
        <time>2024-07-02T09:30:37.143Z</time>
      </trkpt>
      <trkpt lat="51.66903" lon="4.39889">
        <ele>50.420896</ele>
        <time>2024-07-02T09:30:40.128Z</time>
      </trkpt>
      <trkpt lat="51.66914" lon="4.39897">
        <ele>50.465955</ele>
        <time>2024-07-02T09:30:43.149Z</time>
      </trkpt>
      <trkpt lat="51.66925" lon="4.39905">
        <ele>50.510554</ele>
        <time>2024-07-02T09:30:46.125Z</time>
      </trkpt>
      <trkpt lat="51.66936" lon="4.39912">
        <ele>50.554976</ele>
        <time>2024-07-02T09:30:49.129Z</time>
      </trkpt>
      <trkpt lat="51.66947" lon="4.39919">
        <ele>50.598138</ele>
        <time>2024-07-02T09:30:52.140Z</time>
      </trkpt>
      <trkpt lat="51.66958" lon="4.39926">
        <ele>50.642304</ele>
        <time>2024-07-02T09:30:55.129Z</time>
      </trkpt>
      <trkpt lat="51.66968" lon="4.39933">
        <ele>50.685425</ele>
        <time>2024-07-02T09:30:58.152Z</time>
      </trkpt>
      <trkpt lat="51.66979" lon="4.3994">
        <ele>50.72794</ele>
        <time>2024-07-02T09:31:01.144Z</time>
      </trkpt>
      <trkpt lat="51.6699" lon="4.39948">
        <ele>50.772126</ele>
        <time>2024-07-02T09:31:04.170Z</time>
      </trkpt>
      <trkpt lat="51.67001" lon="4.39955">
        <ele>50.816291</ele>
        <time>2024-07-02T09:31:07.161Z</time>
      </trkpt>
      <trkpt lat="51.67011" lon="4.39963">
        <ele>50.859421</ele>
        <time>2024-07-02T09:31:10.147Z</time>
      </trkpt>
      <trkpt lat="51.67022" lon="4.3997">
        <ele>50.901936</ele>
        <time>2024-07-02T09:31:13.158Z</time>
      </trkpt>
      <trkpt lat="51.67033" lon="4.39977">
        <ele>50.945755</ele>
        <time>2024-07-02T09:31:16.147Z</time>
      </trkpt>
      <trkpt lat="51.67044" lon="4.39984">
        <ele>50.992001</ele>
        <time>2024-07-02T09:31:19.156Z</time>
      </trkpt>
      <trkpt lat="51.67055" lon="4.39992">
        <ele>50.965018</ele>
        <time>2024-07-02T09:31:22.146Z</time>
      </trkpt>
      <trkpt lat="51.67066" lon="4.4">
        <ele>50.922617</ele>
        <time>2024-07-02T09:31:25.130Z</time>
      </trkpt>
      <trkpt lat="51.67077" lon="4.40007">
        <ele>50.882173</ele>
        <time>2024-07-02T09:31:28.142Z</time>
      </trkpt>
      <trkpt lat="51.67087" lon="4.40014">
        <ele>50.841574</ele>
        <time>2024-07-02T09:31:31.148Z</time>
      </trkpt>
      <trkpt lat="51.67098" lon="4.40021">
        <ele>50.801632</ele>
        <time>2024-07-02T09:31:34.149Z</time>
      </trkpt>
      <trkpt lat="51.67109" lon="4.40028">
        <ele>50.759885</ele>
        <time>2024-07-02T09:31:37.147Z</time>
      </trkpt>
      <trkpt lat="51.67119" lon="4.40035">
        <ele>50.71982</ele>
        <time>2024-07-02T09:31:40.157Z</time>
      </trkpt>
      <trkpt lat="51.67129" lon="4.40044">
        <ele>50.680039</ele>
        <time>2024-07-02T09:31:43.159Z</time>
      </trkpt>
      <trkpt lat="51.6714" lon="4.40051">
        <ele>50.639355</ele>
        <time>2024-07-02T09:31:46.161Z</time>
      </trkpt>
      <trkpt lat="51.6715" lon="4.40058">
        <ele>50.599059</ele>
        <time>2024-07-02T09:31:49.146Z</time>
      </trkpt>
      <trkpt lat="51.67161" lon="4.40066">
        <ele>50.555673</ele>
        <time>2024-07-02T09:31:52.153Z</time>
      </trkpt>
      <trkpt lat="51.67172" lon="4.40073">
        <ele>50.513816</ele>
        <time>2024-07-02T09:31:55.120Z</time>
      </trkpt>
      <trkpt lat="51.67183" lon="4.40081">
        <ele>50.471162</ele>
        <time>2024-07-02T09:31:58.156Z</time>
      </trkpt>
      <trkpt lat="51.67194" lon="4.40088">
        <ele>50.429744</ele>
        <time>2024-07-02T09:32:01.153Z</time>
      </trkpt>
      <trkpt lat="51.67205" lon="4.40096">
        <ele>50.387653</ele>
        <time>2024-07-02T09:32:04.146Z</time>
      </trkpt>
      <trkpt lat="51.67216" lon="4.40103">
        <ele>50.349323</ele>
        <time>2024-07-02T09:32:07.134Z</time>
      </trkpt>
      <trkpt lat="51.67227" lon="4.40111">
        <ele>50.316747</ele>
        <time>2024-07-02T09:32:10.159Z</time>
      </trkpt>
      <trkpt lat="51.67238" lon="4.40118">
        <ele>50.28417</ele>
        <time>2024-07-02T09:32:13.146Z</time>
      </trkpt>
      <trkpt lat="51.67249" lon="4.40126">
        <ele>50.251908</ele>
        <time>2024-07-02T09:32:16.149Z</time>
      </trkpt>
      <trkpt lat="51.6726" lon="4.40133">
        <ele>50.220008</ele>
        <time>2024-07-02T09:32:19.143Z</time>
      </trkpt>
      <trkpt lat="51.67271" lon="4.40141">
        <ele>50.18781</ele>
        <time>2024-07-02T09:32:22.154Z</time>
      </trkpt>
      <trkpt lat="51.67282" lon="4.40148">
        <ele>50.155796</ele>
        <time>2024-07-02T09:32:25.136Z</time>
      </trkpt>
      <trkpt lat="51.67293" lon="4.40156">
        <ele>50.124411</ele>
        <time>2024-07-02T09:32:28.142Z</time>
      </trkpt>
      <trkpt lat="51.67303" lon="4.40163">
        <ele>50.093388</ele>
        <time>2024-07-02T09:32:31.165Z</time>
      </trkpt>
      <trkpt lat="51.67314" lon="4.40169">
        <ele>50.062051</ele>
        <time>2024-07-02T09:32:34.142Z</time>
      </trkpt>
      <trkpt lat="51.67324" lon="4.40177">
        <ele>50.032287</ele>
        <time>2024-07-02T09:32:37.146Z</time>
      </trkpt>
      <trkpt lat="51.67334" lon="4.40183">
        <ele>50.002848</ele>
        <time>2024-07-02T09:32:40.145Z</time>
      </trkpt>
      <trkpt lat="51.67345" lon="4.4019">
        <ele>49.972404</ele>
        <time>2024-07-02T09:32:43.155Z</time>
      </trkpt>
      <trkpt lat="51.67355" lon="4.40197">
        <ele>49.943517</ele>
        <time>2024-07-02T09:32:46.159Z</time>
      </trkpt>
      <trkpt lat="51.67365" lon="4.40204">
        <ele>49.913638</ele>
        <time>2024-07-02T09:32:49.146Z</time>
      </trkpt>
      <trkpt lat="51.67376" lon="4.40211">
        <ele>49.882003</ele>
        <time>2024-07-02T09:32:52.151Z</time>
      </trkpt>
      <trkpt lat="51.67386" lon="4.40218">
        <ele>49.88125</ele>
        <time>2024-07-02T09:32:55.130Z</time>
      </trkpt>
      <trkpt lat="51.67397" lon="4.40225">
        <ele>49.885212</ele>
        <time>2024-07-02T09:32:58.139Z</time>
      </trkpt>
      <trkpt lat="51.67408" lon="4.40233">
        <ele>49.889239</ele>
        <time>2024-07-02T09:33:01.140Z</time>
      </trkpt>
      <trkpt lat="51.67419" lon="4.40241">
        <ele>49.893412</ele>
        <time>2024-07-02T09:33:04.151Z</time>
      </trkpt>
      <trkpt lat="51.6743" lon="4.40248">
        <ele>49.897327</ele>
        <time>2024-07-02T09:33:07.150Z</time>
      </trkpt>
      <trkpt lat="51.67441" lon="4.40255">
        <ele>49.90115</ele>
        <time>2024-07-02T09:33:10.161Z</time>
      </trkpt>
      <trkpt lat="51.67451" lon="4.40262">
        <ele>49.904791</ele>
        <time>2024-07-02T09:33:13.157Z</time>
      </trkpt>
      <trkpt lat="51.67461" lon="4.40269">
        <ele>49.908504</ele>
        <time>2024-07-02T09:33:16.145Z</time>
      </trkpt>
      <trkpt lat="51.67471" lon="4.40276">
        <ele>49.912318</ele>
        <time>2024-07-02T09:33:19.141Z</time>
      </trkpt>
      <trkpt lat="51.67482" lon="4.40283">
        <ele>49.916319</ele>
        <time>2024-07-02T09:33:22.164Z</time>
      </trkpt>
      <trkpt lat="51.67493" lon="4.4029">
        <ele>49.920171</ele>
        <time>2024-07-02T09:33:25.137Z</time>
      </trkpt>
      <trkpt lat="51.67503" lon="4.40298">
        <ele>49.924107</ele>
        <time>2024-07-02T09:33:28.143Z</time>
      </trkpt>
      <trkpt lat="51.67514" lon="4.40305">
        <ele>49.927904</ele>
        <time>2024-07-02T09:33:31.151Z</time>
      </trkpt>
      <trkpt lat="51.67524" lon="4.40312">
        <ele>49.931648</ele>
        <time>2024-07-02T09:33:34.161Z</time>
      </trkpt>
      <trkpt lat="51.67535" lon="4.40319">
        <ele>49.935642</ele>
        <time>2024-07-02T09:33:37.173Z</time>
      </trkpt>
      <trkpt lat="51.67546" lon="4.40326">
        <ele>49.938523</ele>
        <time>2024-07-02T09:33:40.149Z</time>
      </trkpt>
      <trkpt lat="51.67556" lon="4.40333">
        <ele>49.938447</ele>
        <time>2024-07-02T09:33:43.141Z</time>
      </trkpt>
      <trkpt lat="51.67565" lon="4.40341">
        <ele>49.938375</ele>
        <time>2024-07-02T09:33:46.152Z</time>
      </trkpt>
      <trkpt lat="51.67576" lon="4.40348">
        <ele>49.938299</ele>
        <time>2024-07-02T09:33:49.159Z</time>
      </trkpt>
      <trkpt lat="51.67586" lon="4.40355">
        <ele>49.938224</ele>
        <time>2024-07-02T09:33:52.166Z</time>
      </trkpt>
      <trkpt lat="51.67596" lon="4.40361">
        <ele>49.938149</ele>
        <time>2024-07-02T09:33:55.134Z</time>
      </trkpt>
      <trkpt lat="51.67607" lon="4.40369">
        <ele>49.93807</ele>
        <time>2024-07-02T09:33:58.151Z</time>
      </trkpt>
      <trkpt lat="51.67618" lon="4.40376">
        <ele>49.937991</ele>
        <time>2024-07-02T09:34:01.141Z</time>
      </trkpt>
      <trkpt lat="51.67629" lon="4.40383">
        <ele>49.937913</ele>
        <time>2024-07-02T09:34:04.152Z</time>
      </trkpt>
      <trkpt lat="51.67639" lon="4.40391">
        <ele>49.937835</ele>
        <time>2024-07-02T09:34:07.161Z</time>
      </trkpt>
      <trkpt lat="51.6765" lon="4.40398">
        <ele>49.93776</ele>
        <time>2024-07-02T09:34:10.146Z</time>
      </trkpt>
      <trkpt lat="51.6766" lon="4.40405">
        <ele>49.937685</ele>
        <time>2024-07-02T09:34:13.139Z</time>
      </trkpt>
      <trkpt lat="51.6767" lon="4.40411">
        <ele>49.937612</ele>
        <time>2024-07-02T09:34:16.157Z</time>
      </trkpt>
      <trkpt lat="51.6768" lon="4.40418">
        <ele>49.937536</ele>
        <time>2024-07-02T09:34:19.155Z</time>
      </trkpt>
      <trkpt lat="51.67691" lon="4.40425">
        <ele>49.937459</ele>
        <time>2024-07-02T09:34:22.149Z</time>
      </trkpt>
      <trkpt lat="51.67701" lon="4.40433">
        <ele>49.937384</ele>
        <time>2024-07-02T09:34:25.143Z</time>
      </trkpt>
      <trkpt lat="51.67711" lon="4.4044">
        <ele>49.973218</ele>
        <time>2024-07-02T09:34:28.141Z</time>
      </trkpt>
      <trkpt lat="51.67722" lon="4.40447">
        <ele>50.098536</ele>
        <time>2024-07-02T09:34:31.155Z</time>
      </trkpt>
      <trkpt lat="51.67732" lon="4.40453">
        <ele>50.226697</ele>
        <time>2024-07-02T09:34:34.151Z</time>
      </trkpt>
      <trkpt lat="51.67743" lon="4.40461">
        <ele>50.359805</ele>
        <time>2024-07-02T09:34:37.132Z</time>
      </trkpt>
      <trkpt lat="51.67754" lon="4.4047">
        <ele>50.495798</ele>
        <time>2024-07-02T09:34:40.142Z</time>
      </trkpt>
      <trkpt lat="51.67764" lon="4.40481">
        <ele>50.63341</ele>
        <time>2024-07-02T09:34:43.145Z</time>
      </trkpt>
      <trkpt lat="51.67771" lon="4.40498">
        <ele>50.769634</ele>
        <time>2024-07-02T09:34:46.140Z</time>
      </trkpt>
      <trkpt lat="51.67776" lon="4.40517">
        <ele>50.909466</ele>
        <time>2024-07-02T09:34:49.142Z</time>
      </trkpt>
      <trkpt lat="51.67777" lon="4.40537">
        <ele>51.052859</ele>
        <time>2024-07-02T09:34:52.134Z</time>
      </trkpt>
      <trkpt lat="51.67777" lon="4.40558">
        <ele>51.19792</ele>
        <time>2024-07-02T09:34:55.156Z</time>
      </trkpt>
      <trkpt lat="51.67777" lon="4.40578">
        <ele>51.333408</ele>
        <time>2024-07-02T09:34:58.150Z</time>
      </trkpt>
      <trkpt lat="51.67776" lon="4.40598">
        <ele>51.472397</ele>
        <time>2024-07-02T09:35:01.151Z</time>
      </trkpt>
      <trkpt lat="51.67776" lon="4.40618">
        <ele>51.607775</ele>
        <time>2024-07-02T09:35:04.149Z</time>
      </trkpt>
      <trkpt lat="51.67776" lon="4.40637">
        <ele>51.745262</ele>
        <time>2024-07-02T09:35:07.140Z</time>
      </trkpt>
      <trkpt lat="51.67776" lon="4.40658">
        <ele>51.888303</ele>
        <time>2024-07-02T09:35:10.154Z</time>
      </trkpt>
      <trkpt lat="51.67775" lon="4.40678">
        <ele>52.04818</ele>
        <time>2024-07-02T09:35:13.156Z</time>
      </trkpt>
      <trkpt lat="51.67775" lon="4.40699">
        <ele>52.226605</ele>
        <time>2024-07-02T09:35:16.151Z</time>
      </trkpt>
      <trkpt lat="51.67775" lon="4.40719">
        <ele>52.396494</ele>
        <time>2024-07-02T09:35:19.153Z</time>
      </trkpt>
      <trkpt lat="51.67775" lon="4.40739">
        <ele>52.56307</ele>
        <time>2024-07-02T09:35:22.166Z</time>
      </trkpt>
      <trkpt lat="51.67774" lon="4.40757">
        <ele>52.718568</ele>
        <time>2024-07-02T09:35:25.150Z</time>
      </trkpt>
      <trkpt lat="51.67774" lon="4.40774">
        <ele>52.862119</ele>
        <time>2024-07-02T09:35:28.151Z</time>
      </trkpt>
      <trkpt lat="51.67774" lon="4.4079">
        <ele>52.994636</ele>
        <time>2024-07-02T09:35:31.151Z</time>
      </trkpt>
      <trkpt lat="51.67774" lon="4.40806">
        <ele>53.128851</ele>
        <time>2024-07-02T09:35:34.153Z</time>
      </trkpt>
      <trkpt lat="51.67774" lon="4.40822">
        <ele>53.26482</ele>
        <time>2024-07-02T09:35:37.144Z</time>
      </trkpt>
      <trkpt lat="51.67774" lon="4.40839">
        <ele>53.416041</ele>
        <time>2024-07-02T09:35:40.151Z</time>
      </trkpt>
      <trkpt lat="51.67773" lon="4.40857">
        <ele>53.56415</ele>
        <time>2024-07-02T09:35:43.156Z</time>
      </trkpt>
      <trkpt lat="51.67773" lon="4.40873">
        <ele>53.70601</ele>
        <time>2024-07-02T09:35:46.141Z</time>
      </trkpt>
      <trkpt lat="51.67773" lon="4.4089">
        <ele>53.846171</ele>
        <time>2024-07-02T09:35:49.149Z</time>
      </trkpt>
      <trkpt lat="51.67773" lon="4.40906">
        <ele>53.985502</ele>
        <time>2024-07-02T09:35:52.150Z</time>
      </trkpt>
      <trkpt lat="51.67774" lon="4.40921">
        <ele>54.111283</ele>
        <time>2024-07-02T09:35:55.120Z</time>
      </trkpt>
      <trkpt lat="51.67773" lon="4.40937">
        <ele>54.248478</ele>
        <time>2024-07-02T09:35:58.132Z</time>
      </trkpt>
      <trkpt lat="51.67773" lon="4.40957">
        <ele>54.391638</ele>
        <time>2024-07-02T09:36:01.144Z</time>
      </trkpt>
      <trkpt lat="51.67773" lon="4.40977">
        <ele>54.162112</ele>
        <time>2024-07-02T09:36:04.136Z</time>
      </trkpt>
      <trkpt lat="51.67774" lon="4.40997">
        <ele>53.921703</ele>
        <time>2024-07-02T09:36:07.152Z</time>
      </trkpt>
      <trkpt lat="51.67776" lon="4.41012">
        <ele>53.747885</ele>
        <time>2024-07-02T09:36:09.144Z</time>
      </trkpt>
      <trkpt lat="51.67778" lon="4.41027">
        <ele>53.568517</ele>
        <time>2024-07-02T09:36:11.158Z</time>
      </trkpt>
      <trkpt lat="51.6778" lon="4.41043">
        <ele>53.376936</ele>
        <time>2024-07-02T09:36:13.143Z</time>
      </trkpt>
      <trkpt lat="51.67782" lon="4.4106">
        <ele>53.177111</ele>
        <time>2024-07-02T09:36:15.132Z</time>
      </trkpt>
      <trkpt lat="51.67784" lon="4.41078">
        <ele>52.969769</ele>
        <time>2024-07-02T09:36:17.146Z</time>
      </trkpt>
      <trkpt lat="51.67787" lon="4.41095">
        <ele>52.760158</ele>
        <time>2024-07-02T09:36:19.146Z</time>
      </trkpt>
      <trkpt lat="51.67789" lon="4.41114">
        <ele>52.541354</ele>
        <time>2024-07-02T09:36:21.144Z</time>
      </trkpt>
      <trkpt lat="51.67791" lon="4.41133">
        <ele>52.311284</ele>
        <time>2024-07-02T09:36:23.142Z</time>
      </trkpt>
      <trkpt lat="51.67793" lon="4.41153">
        <ele>52.076171</ele>
        <time>2024-07-02T09:36:25.143Z</time>
      </trkpt>
      <trkpt lat="51.67796" lon="4.41174">
        <ele>51.829461</ele>
        <time>2024-07-02T09:36:27.145Z</time>
      </trkpt>
      <trkpt lat="51.67798" lon="4.41196">
        <ele>51.577842</ele>
        <time>2024-07-02T09:36:29.129Z</time>
      </trkpt>
      <trkpt lat="51.678" lon="4.41216">
        <ele>51.339601</ele>
        <time>2024-07-02T09:36:31.152Z</time>
      </trkpt>
      <trkpt lat="51.67804" lon="4.41235">
        <ele>51.108219</ele>
        <time>2024-07-02T09:36:33.147Z</time>
      </trkpt>
      <trkpt lat="51.67811" lon="4.41251">
        <ele>51.009682</ele>
        <time>2024-07-02T09:36:35.136Z</time>
      </trkpt>
      <trkpt lat="51.6782" lon="4.41265">
        <ele>50.962034</ele>
        <time>2024-07-02T09:36:37.145Z</time>
      </trkpt>
      <trkpt lat="51.6783" lon="4.41273">
        <ele>50.919224</ele>
        <time>2024-07-02T09:36:39.151Z</time>
      </trkpt>
      <trkpt lat="51.67839" lon="4.4128">
        <ele>50.878802</ele>
        <time>2024-07-02T09:36:41.151Z</time>
      </trkpt>
      <trkpt lat="51.67849" lon="4.41286">
        <ele>50.838469</ele>
        <time>2024-07-02T09:36:43.165Z</time>
      </trkpt>
      <trkpt lat="51.67859" lon="4.41292">
        <ele>50.799594</ele>
        <time>2024-07-02T09:36:45.145Z</time>
      </trkpt>
      <trkpt lat="51.67867" lon="4.41298">
        <ele>50.762939</ele>
        <time>2024-07-02T09:36:47.157Z</time>
      </trkpt>
      <trkpt lat="51.67879" lon="4.41306">
        <ele>50.713828</ele>
        <time>2024-07-02T09:36:50.164Z</time>
      </trkpt>
      <trkpt lat="51.67889" lon="4.41312">
        <ele>50.672531</ele>
        <time>2024-07-02T09:36:53.142Z</time>
      </trkpt>
      <trkpt lat="51.67899" lon="4.4132">
        <ele>50.62893</ele>
        <time>2024-07-02T09:36:57.141Z</time>
      </trkpt>
      <trkpt lat="51.67907" lon="4.41309">
        <ele>50.590088</ele>
        <time>2024-07-02T09:37:02.152Z</time>
      </trkpt>
      <trkpt lat="51.67917" lon="4.41305">
        <ele>50.549638</ele>
        <time>2024-07-02T09:37:05.147Z</time>
      </trkpt>
      <trkpt lat="51.67926" lon="4.41311">
        <ele>50.51254</ele>
        <time>2024-07-02T09:37:08.148Z</time>
      </trkpt>
      <trkpt lat="51.67935" lon="4.41316">
        <ele>50.476301</ele>
        <time>2024-07-02T09:37:11.143Z</time>
      </trkpt>
      <trkpt lat="51.67946" lon="4.41323">
        <ele>50.432263</ele>
        <time>2024-07-02T09:37:14.151Z</time>
      </trkpt>
      <trkpt lat="51.67956" lon="4.41329">
        <ele>50.389555</ele>
        <time>2024-07-02T09:37:17.144Z</time>
      </trkpt>
      <trkpt lat="51.67967" lon="4.41337">
        <ele>50.335212</ele>
        <time>2024-07-02T09:37:20.148Z</time>
      </trkpt>
      <trkpt lat="51.67978" lon="4.41343">
        <ele>50.245624</ele>
        <time>2024-07-02T09:37:23.144Z</time>
      </trkpt>
      <trkpt lat="51.67989" lon="4.4135">
        <ele>50.152036</ele>
        <time>2024-07-02T09:37:26.160Z</time>
      </trkpt>
      <trkpt lat="51.68" lon="4.41357">
        <ele>50.057747</ele>
        <time>2024-07-02T09:37:29.161Z</time>
      </trkpt>
      <trkpt lat="51.6801" lon="4.41363">
        <ele>49.97611</ele>
        <time>2024-07-02T09:37:32.139Z</time>
      </trkpt>
      <trkpt lat="51.68021" lon="4.41369">
        <ele>49.890366</ele>
        <time>2024-07-02T09:37:35.133Z</time>
      </trkpt>
      <trkpt lat="51.6803" lon="4.41375">
        <ele>49.808034</ele>
        <time>2024-07-02T09:37:38.153Z</time>
      </trkpt>
      <trkpt lat="51.68041" lon="4.41382">
        <ele>49.716828</ele>
        <time>2024-07-02T09:37:41.145Z</time>
      </trkpt>
      <trkpt lat="51.68052" lon="4.41391">
        <ele>49.618906</ele>
        <time>2024-07-02T09:37:44.158Z</time>
      </trkpt>
      <trkpt lat="51.68063" lon="4.414">
        <ele>49.525457</ele>
        <time>2024-07-02T09:37:47.157Z</time>
      </trkpt>
      <trkpt lat="51.68074" lon="4.4141">
        <ele>49.424424</ele>
        <time>2024-07-02T09:37:50.144Z</time>
      </trkpt>
      <trkpt lat="51.68084" lon="4.41421">
        <ele>49.329392</ele>
        <time>2024-07-02T09:37:53.159Z</time>
      </trkpt>
      <trkpt lat="51.68095" lon="4.41433">
        <ele>49.228822</ele>
        <time>2024-07-02T09:37:56.152Z</time>
      </trkpt>
      <trkpt lat="51.68105" lon="4.41445">
        <ele>49.129261</ele>
        <time>2024-07-02T09:37:59.149Z</time>
      </trkpt>
      <trkpt lat="51.68114" lon="4.41458">
        <ele>49.035205</ele>
        <time>2024-07-02T09:38:02.163Z</time>
      </trkpt>
      <trkpt lat="51.68123" lon="4.41471">
        <ele>48.947542</ele>
        <time>2024-07-02T09:38:05.132Z</time>
      </trkpt>
      <trkpt lat="51.68132" lon="4.41484">
        <ele>48.985163</ele>
        <time>2024-07-02T09:38:08.155Z</time>
      </trkpt>
      <trkpt lat="51.6814" lon="4.41501">
        <ele>49.025769</ele>
        <time>2024-07-02T09:38:11.142Z</time>
      </trkpt>
      <trkpt lat="51.68148" lon="4.41516">
        <ele>49.06374</ele>
        <time>2024-07-02T09:38:14.161Z</time>
      </trkpt>
      <trkpt lat="51.68156" lon="4.41532">
        <ele>49.102477</ele>
        <time>2024-07-02T09:38:17.155Z</time>
      </trkpt>
      <trkpt lat="51.68164" lon="4.41548">
        <ele>49.142961</ele>
        <time>2024-07-02T09:38:20.149Z</time>
      </trkpt>
      <trkpt lat="51.68171" lon="4.41559">
        <ele>49.171509</ele>
        <time>2024-07-02T09:38:22.145Z</time>
      </trkpt>
      <trkpt lat="51.68179" lon="4.41575">
        <ele>49.212859</ele>
        <time>2024-07-02T09:38:25.144Z</time>
      </trkpt>
      <trkpt lat="51.68185" lon="4.41586">
        <ele>49.240816</ele>
        <time>2024-07-02T09:38:27.149Z</time>
      </trkpt>
      <trkpt lat="51.68191" lon="4.41598">
        <ele>49.269611</ele>
        <time>2024-07-02T09:38:29.144Z</time>
      </trkpt>
      <trkpt lat="51.68197" lon="4.41609">
        <ele>49.297679</ele>
        <time>2024-07-02T09:38:31.137Z</time>
      </trkpt>
      <trkpt lat="51.68203" lon="4.4162">
        <ele>49.325885</ele>
        <time>2024-07-02T09:38:33.139Z</time>
      </trkpt>
      <trkpt lat="51.68208" lon="4.41633">
        <ele>49.354447</ele>
        <time>2024-07-02T09:38:35.118Z</time>
      </trkpt>
      <trkpt lat="51.68214" lon="4.41644">
        <ele>49.382803</ele>
        <time>2024-07-02T09:38:37.143Z</time>
      </trkpt>
      <trkpt lat="51.68223" lon="4.4166">
        <ele>49.423922</ele>
        <time>2024-07-02T09:38:40.158Z</time>
      </trkpt>
      <trkpt lat="51.68231" lon="4.41674">
        <ele>49.460467</ele>
        <time>2024-07-02T09:38:43.138Z</time>
      </trkpt>
      <trkpt lat="51.68239" lon="4.41686">
        <ele>49.494322</ele>
        <time>2024-07-02T09:38:46.150Z</time>
      </trkpt>
      <trkpt lat="51.68249" lon="4.41698">
        <ele>49.691652</ele>
        <time>2024-07-02T09:38:49.146Z</time>
      </trkpt>
      <trkpt lat="51.6826" lon="4.41705">
        <ele>49.911389</ele>
        <time>2024-07-02T09:38:52.130Z</time>
      </trkpt>
      <trkpt lat="51.68271" lon="4.41697">
        <ele>50.136741</ele>
        <time>2024-07-02T09:38:55.133Z</time>
      </trkpt>
      <trkpt lat="51.6828" lon="4.41683">
        <ele>50.385307</ele>
        <time>2024-07-02T09:38:58.143Z</time>
      </trkpt>
      <trkpt lat="51.6829" lon="4.41668">
        <ele>50.636064</ele>
        <time>2024-07-02T09:39:01.148Z</time>
      </trkpt>
      <trkpt lat="51.683" lon="4.41654">
        <ele>50.888367</ele>
        <time>2024-07-02T09:39:04.146Z</time>
      </trkpt>
      <trkpt lat="51.6831" lon="4.4164">
        <ele>51.139434</ele>
        <time>2024-07-02T09:39:07.141Z</time>
      </trkpt>
      <trkpt lat="51.6832" lon="4.41626">
        <ele>51.378007</ele>
        <time>2024-07-02T09:39:10.145Z</time>
      </trkpt>
      <trkpt lat="51.68329" lon="4.41613">
        <ele>51.609577</ele>
        <time>2024-07-02T09:39:13.146Z</time>
      </trkpt>
      <trkpt lat="51.68338" lon="4.416">
        <ele>51.833799</ele>
        <time>2024-07-02T09:39:16.157Z</time>
      </trkpt>
      <trkpt lat="51.68346" lon="4.41587">
        <ele>52.061997</ele>
        <time>2024-07-02T09:39:19.159Z</time>
      </trkpt>
      <trkpt lat="51.68355" lon="4.41574">
        <ele>52.286493</ele>
        <time>2024-07-02T09:39:22.143Z</time>
      </trkpt>
      <trkpt lat="51.68364" lon="4.41561">
        <ele>52.511988</ele>
        <time>2024-07-02T09:39:25.136Z</time>
      </trkpt>
      <trkpt lat="51.68373" lon="4.41547">
        <ele>52.744248</ele>
        <time>2024-07-02T09:39:28.151Z</time>
      </trkpt>
      <trkpt lat="51.68382" lon="4.41534">
        <ele>52.980298</ele>
        <time>2024-07-02T09:39:31.134Z</time>
      </trkpt>
      <trkpt lat="51.6839" lon="4.41521">
        <ele>53.229274</ele>
        <time>2024-07-02T09:39:34.129Z</time>
      </trkpt>
      <trkpt lat="51.68399" lon="4.41508">
        <ele>53.479774</ele>
        <time>2024-07-02T09:39:37.145Z</time>
      </trkpt>
      <trkpt lat="51.68408" lon="4.41494">
        <ele>53.746226</ele>
        <time>2024-07-02T09:39:40.148Z</time>
      </trkpt>
      <trkpt lat="51.68417" lon="4.41481">
        <ele>53.994929</ele>
        <time>2024-07-02T09:39:43.140Z</time>
      </trkpt>
      <trkpt lat="51.68425" lon="4.41468">
        <ele>54.238765</ele>
        <time>2024-07-02T09:39:46.152Z</time>
      </trkpt>
      <trkpt lat="51.68434" lon="4.41456">
        <ele>54.48706</ele>
        <time>2024-07-02T09:39:49.145Z</time>
      </trkpt>
      <trkpt lat="51.68442" lon="4.41444">
        <ele>54.722255</ele>
        <time>2024-07-02T09:39:52.167Z</time>
      </trkpt>
      <trkpt lat="51.6845" lon="4.41431">
        <ele>54.954267</ele>
        <time>2024-07-02T09:39:55.152Z</time>
      </trkpt>
      <trkpt lat="51.68458" lon="4.4142">
        <ele>55.181963</ele>
        <time>2024-07-02T09:39:58.149Z</time>
      </trkpt>
      <trkpt lat="51.68467" lon="4.41407">
        <ele>55.424902</ele>
        <time>2024-07-02T09:40:01.162Z</time>
      </trkpt>
      <trkpt lat="51.68475" lon="4.41395">
        <ele>55.656972</ele>
        <time>2024-07-02T09:40:04.149Z</time>
      </trkpt>
      <trkpt lat="51.68483" lon="4.41383">
        <ele>55.892759</ele>
        <time>2024-07-02T09:40:07.143Z</time>
      </trkpt>
      <trkpt lat="51.68491" lon="4.41372">
        <ele>56.115975</ele>
        <time>2024-07-02T09:40:10.164Z</time>
      </trkpt>
      <trkpt lat="51.68498" lon="4.41361">
        <ele>56.322221</ele>
        <time>2024-07-02T09:40:13.143Z</time>
      </trkpt>
      <trkpt lat="51.68506" lon="4.4135">
        <ele>56.536344</ele>
        <time>2024-07-02T09:40:16.147Z</time>
      </trkpt>
      <trkpt lat="51.68513" lon="4.41338">
        <ele>56.734562</ele>
        <time>2024-07-02T09:40:19.163Z</time>
      </trkpt>
      <trkpt lat="51.6852" lon="4.41327">
        <ele>56.879598</ele>
        <time>2024-07-02T09:40:22.153Z</time>
      </trkpt>
      <trkpt lat="51.68527" lon="4.41316">
        <ele>57.025691</ele>
        <time>2024-07-02T09:40:25.145Z</time>
      </trkpt>
      <trkpt lat="51.68535" lon="4.41306">
        <ele>57.173026</ele>
        <time>2024-07-02T09:40:28.151Z</time>
      </trkpt>
      <trkpt lat="51.68542" lon="4.41295">
        <ele>57.319758</ele>
        <time>2024-07-02T09:40:31.150Z</time>
      </trkpt>
      <trkpt lat="51.6855" lon="4.41284">
        <ele>57.468443</ele>
        <time>2024-07-02T09:40:34.148Z</time>
      </trkpt>
      <trkpt lat="51.68557" lon="4.41273">
        <ele>57.618218</ele>
        <time>2024-07-02T09:40:37.140Z</time>
      </trkpt>
      <trkpt lat="51.68564" lon="4.41262">
        <ele>57.76349</ele>
        <time>2024-07-02T09:40:40.147Z</time>
      </trkpt>
      <trkpt lat="51.68572" lon="4.41252">
        <ele>57.907396</ele>
        <time>2024-07-02T09:40:43.149Z</time>
      </trkpt>
      <trkpt lat="51.68579" lon="4.41241">
        <ele>58.052521</ele>
        <time>2024-07-02T09:40:46.155Z</time>
      </trkpt>
      <trkpt lat="51.68586" lon="4.41231">
        <ele>58.193309</ele>
        <time>2024-07-02T09:40:49.146Z</time>
      </trkpt>
      <trkpt lat="51.68593" lon="4.41221">
        <ele>58.337128</ele>
        <time>2024-07-02T09:40:52.142Z</time>
      </trkpt>
      <trkpt lat="51.68601" lon="4.4121">
        <ele>58.484105</ele>
        <time>2024-07-02T09:40:55.145Z</time>
      </trkpt>
      <trkpt lat="51.68608" lon="4.41199">
        <ele>58.630771</ele>
        <time>2024-07-02T09:40:58.139Z</time>
      </trkpt>
      <trkpt lat="51.68615" lon="4.4119">
        <ele>58.769377</ele>
        <time>2024-07-02T09:41:01.126Z</time>
      </trkpt>
      <trkpt lat="51.68622" lon="4.41179">
        <ele>58.912319</ele>
        <time>2024-07-02T09:41:04.146Z</time>
      </trkpt>
      <trkpt lat="51.68629" lon="4.41167">
        <ele>59.0606</ele>
        <time>2024-07-02T09:41:07.140Z</time>
      </trkpt>
      <trkpt lat="51.68637" lon="4.41158">
        <ele>59.20321</ele>
        <time>2024-07-02T09:41:10.131Z</time>
      </trkpt>
      <trkpt lat="51.68644" lon="4.41147">
        <ele>59.351539</ele>
        <time>2024-07-02T09:41:13.146Z</time>
      </trkpt>
      <trkpt lat="51.68652" lon="4.41136">
        <ele>59.547949</ele>
        <time>2024-07-02T09:41:16.141Z</time>
      </trkpt>
      <trkpt lat="51.68659" lon="4.41125">
        <ele>59.744218</ele>
        <time>2024-07-02T09:41:19.129Z</time>
      </trkpt>
      <trkpt lat="51.68665" lon="4.41114">
        <ele>59.927273</ele>
        <time>2024-07-02T09:41:22.151Z</time>
      </trkpt>
      <trkpt lat="51.68672" lon="4.41103">
        <ele>60.120415</ele>
        <time>2024-07-02T09:41:25.127Z</time>
      </trkpt>
      <trkpt lat="51.6868" lon="4.41093">
        <ele>60.317491</ele>
        <time>2024-07-02T09:41:28.139Z</time>
      </trkpt>
      <trkpt lat="51.68687" lon="4.41082">
        <ele>60.505577</ele>
        <time>2024-07-02T09:41:31.141Z</time>
      </trkpt>
      <trkpt lat="51.68694" lon="4.41072">
        <ele>60.691192</ele>
        <time>2024-07-02T09:41:34.141Z</time>
      </trkpt>
      <trkpt lat="51.68701" lon="4.41063">
        <ele>60.87581</ele>
        <time>2024-07-02T09:41:37.144Z</time>
      </trkpt>
      <trkpt lat="51.68708" lon="4.41052">
        <ele>61.063067</ele>
        <time>2024-07-02T09:41:40.145Z</time>
      </trkpt>
      <trkpt lat="51.68715" lon="4.41042">
        <ele>61.244764</ele>
        <time>2024-07-02T09:41:43.141Z</time>
      </trkpt>
      <trkpt lat="51.68722" lon="4.41032">
        <ele>61.43496</ele>
        <time>2024-07-02T09:41:46.144Z</time>
      </trkpt>
      <trkpt lat="51.68729" lon="4.41021">
        <ele>61.62216</ele>
        <time>2024-07-02T09:41:49.141Z</time>
      </trkpt>
      <trkpt lat="51.68736" lon="4.41011">
        <ele>61.803399</ele>
        <time>2024-07-02T09:41:52.149Z</time>
      </trkpt>
      <trkpt lat="51.68742" lon="4.41001">
        <ele>61.986319</ele>
        <time>2024-07-02T09:41:55.129Z</time>
      </trkpt>
      <trkpt lat="51.68751" lon="4.40988">
        <ele>62.214111</ele>
        <time>2024-07-02T09:41:59.141Z</time>
      </trkpt>
      <trkpt lat="51.68759" lon="4.40975">
        <ele>62.436506</ele>
        <time>2024-07-02T09:42:03.154Z</time>
      </trkpt>
      <trkpt lat="51.68765" lon="4.40965">
        <ele>62.618676</ele>
        <time>2024-07-02T09:42:06.130Z</time>
      </trkpt>
      <trkpt lat="51.68773" lon="4.40952">
        <ele>62.847895</ele>
        <time>2024-07-02T09:42:10.158Z</time>
      </trkpt>
      <trkpt lat="51.68782" lon="4.40939">
        <ele>63.022099</ele>
        <time>2024-07-02T09:42:14.147Z</time>
      </trkpt>
      <trkpt lat="51.6879" lon="4.40926">
        <ele>63.178169</ele>
        <time>2024-07-02T09:42:18.149Z</time>
      </trkpt>
      <trkpt lat="51.68799" lon="4.40913">
        <ele>63.336769</ele>
        <time>2024-07-02T09:42:22.147Z</time>
      </trkpt>
      <trkpt lat="51.68805" lon="4.40902">
        <ele>63.459873</ele>
        <time>2024-07-02T09:42:25.129Z</time>
      </trkpt>
      <trkpt lat="51.68812" lon="4.40892">
        <ele>63.583309</ele>
        <time>2024-07-02T09:42:28.125Z</time>
      </trkpt>
      <trkpt lat="51.6882" lon="4.40879">
        <ele>63.74332</ele>
        <time>2024-07-02T09:42:32.125Z</time>
      </trkpt>
      <trkpt lat="51.68829" lon="4.40865">
        <ele>63.902524</ele>
        <time>2024-07-02T09:42:36.147Z</time>
      </trkpt>
      <trkpt lat="51.68837" lon="4.40852">
        <ele>64.0532</ele>
        <time>2024-07-02T09:42:40.148Z</time>
      </trkpt>
      <trkpt lat="51.68844" lon="4.40841">
        <ele>64.189604</ele>
        <time>2024-07-02T09:42:44.149Z</time>
      </trkpt>
      <trkpt lat="51.68851" lon="4.40832">
        <ele>64.314263</ele>
        <time>2024-07-02T09:42:48.140Z</time>
      </trkpt>
      <trkpt lat="51.68859" lon="4.40822">
        <ele>64.448339</ele>
        <time>2024-07-02T09:42:52.137Z</time>
      </trkpt>
      <trkpt lat="51.68867" lon="4.40811">
        <ele>64.590265</ele>
        <time>2024-07-02T09:42:56.143Z</time>
      </trkpt>
      <trkpt lat="51.68875" lon="4.40799">
        <ele>64.735715</ele>
        <time>2024-07-02T09:43:01.149Z</time>
      </trkpt>
      <trkpt lat="51.68881" lon="4.40792">
        <ele>64.835762</ele>
        <time>2024-07-02T09:43:14.265Z</time>
      </trkpt>
      <trkpt lat="51.68895" lon="4.40777">
        <ele>65.056256</ele>
        <time>2024-07-02T09:43:59.152Z</time>
      </trkpt>
      <trkpt lat="51.68902" lon="4.40766">
        <ele>65.193787</ele>
        <time>2024-07-02T09:44:03.151Z</time>
      </trkpt>
      <trkpt lat="51.68909" lon="4.40757">
        <ele>65.315819</ele>
        <time>2024-07-02T09:44:06.149Z</time>
      </trkpt>
      <trkpt lat="51.68916" lon="4.40746">
        <ele>65.392916</ele>
        <time>2024-07-02T09:44:09.135Z</time>
      </trkpt>
      <trkpt lat="51.68923" lon="4.40736">
        <ele>65.466627</ele>
        <time>2024-07-02T09:44:12.152Z</time>
      </trkpt>
      <trkpt lat="51.6893" lon="4.40726">
        <ele>65.54026</ele>
        <time>2024-07-02T09:44:15.133Z</time>
      </trkpt>
      <trkpt lat="51.68937" lon="4.40715">
        <ele>65.615778</ele>
        <time>2024-07-02T09:44:18.143Z</time>
      </trkpt>
      <trkpt lat="51.68944" lon="4.40706">
        <ele>65.69004</ele>
        <time>2024-07-02T09:44:21.138Z</time>
      </trkpt>
      <trkpt lat="51.68952" lon="4.40695">
        <ele>65.765698</ele>
        <time>2024-07-02T09:44:24.146Z</time>
      </trkpt>
      <trkpt lat="51.68959" lon="4.40684">
        <ele>65.843154</ele>
        <time>2024-07-02T09:44:27.152Z</time>
      </trkpt>
      <trkpt lat="51.68966" lon="4.40674">
        <ele>65.919229</ele>
        <time>2024-07-02T09:44:30.138Z</time>
      </trkpt>
      <trkpt lat="51.68975" lon="4.40663">
        <ele>66.001051</ele>
        <time>2024-07-02T09:44:33.127Z</time>
      </trkpt>
      <trkpt lat="51.68983" lon="4.40652">
        <ele>66.085134</ele>
        <time>2024-07-02T09:44:36.133Z</time>
      </trkpt>
      <trkpt lat="51.6899" lon="4.40638">
        <ele>66.173353</ele>
        <time>2024-07-02T09:44:39.141Z</time>
      </trkpt>
      <trkpt lat="51.68999" lon="4.40626">
        <ele>66.26177</ele>
        <time>2024-07-02T09:44:42.150Z</time>
      </trkpt>
      <trkpt lat="51.69007" lon="4.40613">
        <ele>66.352412</ele>
        <time>2024-07-02T09:44:45.129Z</time>
      </trkpt>
      <trkpt lat="51.69016" lon="4.40601">
        <ele>66.440598</ele>
        <time>2024-07-02T09:44:48.144Z</time>
      </trkpt>
      <trkpt lat="51.69026" lon="4.40591">
        <ele>66.533658</ele>
        <time>2024-07-02T09:44:51.138Z</time>
      </trkpt>
      <trkpt lat="51.69035" lon="4.4058">
        <ele>66.625628</ele>
        <time>2024-07-02T09:44:54.147Z</time>
      </trkpt>
      <trkpt lat="51.69045" lon="4.40568">
        <ele>66.718059</ele>
        <time>2024-07-02T09:44:57.147Z</time>
      </trkpt>
      <trkpt lat="51.69055" lon="4.40557">
        <ele>66.839844</ele>
        <time>2024-07-02T09:45:00.118Z</time>
      </trkpt>
      <trkpt lat="51.69064" lon="4.40546">
        <ele>66.962933</ele>
        <time>2024-07-02T09:45:03.140Z</time>
      </trkpt>
      <trkpt lat="51.69072" lon="4.40534">
        <ele>67.080924</ele>
        <time>2024-07-02T09:45:06.146Z</time>
      </trkpt>
      <trkpt lat="51.69081" lon="4.40522">
        <ele>67.201411</ele>
        <time>2024-07-02T09:45:09.152Z</time>
      </trkpt>
      <trkpt lat="51.6909" lon="4.40511">
        <ele>67.320325</ele>
        <time>2024-07-02T09:45:12.140Z</time>
      </trkpt>
      <trkpt lat="51.69098" lon="4.405">
        <ele>67.433049</ele>
        <time>2024-07-02T09:45:15.128Z</time>
      </trkpt>
      <trkpt lat="51.69107" lon="4.4049">
        <ele>67.544932</ele>
        <time>2024-07-02T09:45:18.146Z</time>
      </trkpt>
      <trkpt lat="51.69115" lon="4.40479">
        <ele>67.656001</ele>
        <time>2024-07-02T09:45:21.154Z</time>
      </trkpt>
      <trkpt lat="51.69123" lon="4.40468">
        <ele>67.768675</ele>
        <time>2024-07-02T09:45:24.145Z</time>
      </trkpt>
      <trkpt lat="51.69131" lon="4.40457">
        <ele>67.879802</ele>
        <time>2024-07-02T09:45:27.139Z</time>
      </trkpt>
      <trkpt lat="51.69139" lon="4.40446">
        <ele>67.989218</ele>
        <time>2024-07-02T09:45:30.140Z</time>
      </trkpt>
      <trkpt lat="51.69147" lon="4.40435">
        <ele>68.098211</ele>
        <time>2024-07-02T09:45:33.137Z</time>
      </trkpt>
      <trkpt lat="51.69154" lon="4.40425">
        <ele>68.202343</ele>
        <time>2024-07-02T09:45:36.160Z</time>
      </trkpt>
      <trkpt lat="51.69161" lon="4.40415">
        <ele>68.305993</ele>
        <time>2024-07-02T09:45:39.149Z</time>
      </trkpt>
      <trkpt lat="51.69169" lon="4.40405">
        <ele>68.411676</ele>
        <time>2024-07-02T09:45:42.150Z</time>
      </trkpt>
      <trkpt lat="51.69177" lon="4.40394">
        <ele>68.517368</ele>
        <time>2024-07-02T09:45:45.129Z</time>
      </trkpt>
      <trkpt lat="51.69184" lon="4.40384">
        <ele>68.619366</ele>
        <time>2024-07-02T09:45:48.138Z</time>
      </trkpt>
      <trkpt lat="51.69192" lon="4.40374">
        <ele>68.71633</ele>
        <time>2024-07-02T09:45:51.155Z</time>
      </trkpt>
      <trkpt lat="51.69199" lon="4.40363">
        <ele>68.815631</ele>
        <time>2024-07-02T09:45:54.146Z</time>
      </trkpt>
      <trkpt lat="51.69206" lon="4.40353">
        <ele>68.91341</ele>
        <time>2024-07-02T09:45:57.153Z</time>
      </trkpt>
      <trkpt lat="51.69214" lon="4.40343">
        <ele>69.010771</ele>
        <time>2024-07-02T09:46:00.138Z</time>
      </trkpt>
      <trkpt lat="51.69221" lon="4.40334">
        <ele>69.103821</ele>
        <time>2024-07-02T09:46:03.156Z</time>
      </trkpt>
      <trkpt lat="51.69228" lon="4.40324">
        <ele>69.195685</ele>
        <time>2024-07-02T09:46:06.150Z</time>
      </trkpt>
      <trkpt lat="51.69235" lon="4.40314">
        <ele>69.295512</ele>
        <time>2024-07-02T09:46:09.139Z</time>
      </trkpt>
      <trkpt lat="51.69243" lon="4.40304">
        <ele>69.393696</ele>
        <time>2024-07-02T09:46:12.151Z</time>
      </trkpt>
      <trkpt lat="51.6925" lon="4.40293">
        <ele>69.492134</ele>
        <time>2024-07-02T09:46:15.136Z</time>
      </trkpt>
      <trkpt lat="51.69257" lon="4.40282">
        <ele>69.595417</ele>
        <time>2024-07-02T09:46:18.154Z</time>
      </trkpt>
      <trkpt lat="51.69265" lon="4.40272">
        <ele>69.697507</ele>
        <time>2024-07-02T09:46:21.147Z</time>
      </trkpt>
      <trkpt lat="51.69273" lon="4.40261">
        <ele>69.797423</ele>
        <time>2024-07-02T09:46:24.147Z</time>
      </trkpt>
      <trkpt lat="51.6928" lon="4.40251">
        <ele>69.897138</ele>
        <time>2024-07-02T09:46:27.160Z</time>
      </trkpt>
      <trkpt lat="51.69288" lon="4.40242">
        <ele>69.992536</ele>
        <time>2024-07-02T09:46:30.161Z</time>
      </trkpt>
      <trkpt lat="51.69295" lon="4.40232">
        <ele>70.087563</ele>
        <time>2024-07-02T09:46:33.152Z</time>
      </trkpt>
      <trkpt lat="51.69302" lon="4.40222">
        <ele>70.181416</ele>
        <time>2024-07-02T09:46:36.155Z</time>
      </trkpt>
      <trkpt lat="51.6931" lon="4.40213">
        <ele>70.276426</ele>
        <time>2024-07-02T09:46:39.137Z</time>
      </trkpt>
      <trkpt lat="51.69316" lon="4.40203">
        <ele>70.368339</ele>
        <time>2024-07-02T09:46:42.148Z</time>
      </trkpt>
      <trkpt lat="51.69326" lon="4.40191">
        <ele>70.4395</ele>
        <time>2024-07-02T09:46:46.148Z</time>
      </trkpt>
      <trkpt lat="51.69333" lon="4.40182">
        <ele>70.437676</ele>
        <time>2024-07-02T09:46:49.149Z</time>
      </trkpt>
      <trkpt lat="51.69341" lon="4.40172">
        <ele>70.435808</ele>
        <time>2024-07-02T09:46:52.147Z</time>
      </trkpt>
      <trkpt lat="51.69349" lon="4.40162">
        <ele>70.433869</ele>
        <time>2024-07-02T09:46:55.127Z</time>
      </trkpt>
      <trkpt lat="51.69356" lon="4.40152">
        <ele>70.431955</ele>
        <time>2024-07-02T09:46:58.157Z</time>
      </trkpt>
      <trkpt lat="51.69364" lon="4.40143">
        <ele>70.430124</ele>
        <time>2024-07-02T09:47:01.149Z</time>
      </trkpt>
      <trkpt lat="51.69372" lon="4.40134">
        <ele>70.428254</ele>
        <time>2024-07-02T09:47:04.147Z</time>
      </trkpt>
      <trkpt lat="51.69379" lon="4.40123">
        <ele>70.426302</ele>
        <time>2024-07-02T09:47:07.151Z</time>
      </trkpt>
      <trkpt lat="51.69387" lon="4.40113">
        <ele>70.424388</ele>
        <time>2024-07-02T09:47:10.146Z</time>
      </trkpt>
      <trkpt lat="51.69395" lon="4.40103">
        <ele>70.422406</ele>
        <time>2024-07-02T09:47:13.157Z</time>
      </trkpt>
      <trkpt lat="51.69403" lon="4.40094">
        <ele>70.420474</ele>
        <time>2024-07-02T09:47:16.161Z</time>
      </trkpt>
      <trkpt lat="51.69411" lon="4.40084">
        <ele>70.418568</ele>
        <time>2024-07-02T09:47:19.122Z</time>
      </trkpt>
      <trkpt lat="51.6942" lon="4.40073">
        <ele>70.416399</ele>
        <time>2024-07-02T09:47:22.150Z</time>
      </trkpt>
      <trkpt lat="51.69428" lon="4.40061">
        <ele>70.414228</ele>
        <time>2024-07-02T09:47:25.120Z</time>
      </trkpt>
      <trkpt lat="51.69437" lon="4.4005">
        <ele>70.412064</ele>
        <time>2024-07-02T09:47:28.153Z</time>
      </trkpt>
      <trkpt lat="51.69446" lon="4.4004">
        <ele>70.409937</ele>
        <time>2024-07-02T09:47:31.155Z</time>
      </trkpt>
      <trkpt lat="51.69455" lon="4.4003">
        <ele>70.407801</ele>
        <time>2024-07-02T09:47:34.157Z</time>
      </trkpt>
      <trkpt lat="51.69465" lon="4.4002">
        <ele>70.398652</ele>
        <time>2024-07-02T09:47:37.117Z</time>
      </trkpt>
      <trkpt lat="51.69475" lon="4.40009">
        <ele>70.086136</ele>
        <time>2024-07-02T09:47:40.159Z</time>
      </trkpt>
      <trkpt lat="51.69486" lon="4.39999">
        <ele>69.761027</ele>
        <time>2024-07-02T09:47:43.150Z</time>
      </trkpt>
      <trkpt lat="51.69496" lon="4.39989">
        <ele>69.447157</ele>
        <time>2024-07-02T09:47:46.142Z</time>
      </trkpt>
      <trkpt lat="51.69507" lon="4.39978">
        <ele>69.112753</ele>
        <time>2024-07-02T09:47:49.144Z</time>
      </trkpt>
      <trkpt lat="51.69518" lon="4.39969">
        <ele>68.78713</ele>
        <time>2024-07-02T09:47:52.158Z</time>
      </trkpt>
      <trkpt lat="51.69529" lon="4.39959">
        <ele>68.43754</ele>
        <time>2024-07-02T09:47:55.141Z</time>
      </trkpt>
      <trkpt lat="51.69541" lon="4.39949">
        <ele>68.084878</ele>
        <time>2024-07-02T09:47:58.147Z</time>
      </trkpt>
      <trkpt lat="51.69549" lon="4.39942">
        <ele>67.838177</ele>
        <time>2024-07-02T09:48:00.140Z</time>
      </trkpt>
      <trkpt lat="51.69558" lon="4.39936">
        <ele>67.593127</ele>
        <time>2024-07-02T09:48:02.137Z</time>
      </trkpt>
      <trkpt lat="51.69567" lon="4.39929">
        <ele>67.333957</ele>
        <time>2024-07-02T09:48:04.145Z</time>
      </trkpt>
      <trkpt lat="51.69576" lon="4.39922">
        <ele>67.066715</ele>
        <time>2024-07-02T09:48:06.156Z</time>
      </trkpt>
      <trkpt lat="51.69585" lon="4.39914">
        <ele>66.782846</ele>
        <time>2024-07-02T09:48:08.145Z</time>
      </trkpt>
      <trkpt lat="51.69595" lon="4.39906">
        <ele>66.506751</ele>
        <time>2024-07-02T09:48:10.150Z</time>
      </trkpt>
      <trkpt lat="51.69604" lon="4.399">
        <ele>66.238631</ele>
        <time>2024-07-02T09:48:12.137Z</time>
      </trkpt>
      <trkpt lat="51.69614" lon="4.39892">
        <ele>65.961674</ele>
        <time>2024-07-02T09:48:14.147Z</time>
      </trkpt>
      <trkpt lat="51.69624" lon="4.39884">
        <ele>65.660695</ele>
        <time>2024-07-02T09:48:16.158Z</time>
      </trkpt>
      <trkpt lat="51.69634" lon="4.39876">
        <ele>65.318466</ele>
        <time>2024-07-02T09:48:18.149Z</time>
      </trkpt>
      <trkpt lat="51.69645" lon="4.39869">
        <ele>64.968877</ele>
        <time>2024-07-02T09:48:20.143Z</time>
      </trkpt>
      <trkpt lat="51.69655" lon="4.39861">
        <ele>64.6193</ele>
        <time>2024-07-02T09:48:22.133Z</time>
      </trkpt>
      <trkpt lat="51.69666" lon="4.39853">
        <ele>64.262523</ele>
        <time>2024-07-02T09:48:24.142Z</time>
      </trkpt>
      <trkpt lat="51.69677" lon="4.39845">
        <ele>63.895181</ele>
        <time>2024-07-02T09:48:26.147Z</time>
      </trkpt>
      <trkpt lat="51.69689" lon="4.39837">
        <ele>63.51048</ele>
        <time>2024-07-02T09:48:28.136Z</time>
      </trkpt>
      <trkpt lat="51.697" lon="4.39829">
        <ele>63.143898</ele>
        <time>2024-07-02T09:48:30.140Z</time>
      </trkpt>
      <trkpt lat="51.69711" lon="4.39821">
        <ele>62.761225</ele>
        <time>2024-07-02T09:48:32.156Z</time>
      </trkpt>
      <trkpt lat="51.69723" lon="4.39812">
        <ele>62.371512</ele>
        <time>2024-07-02T09:48:34.154Z</time>
      </trkpt>
      <trkpt lat="51.69736" lon="4.39804">
        <ele>61.965867</ele>
        <time>2024-07-02T09:48:36.131Z</time>
      </trkpt>
      <trkpt lat="51.69747" lon="4.39796">
        <ele>61.586399</ele>
        <time>2024-07-02T09:48:38.146Z</time>
      </trkpt>
      <trkpt lat="51.69759" lon="4.39789">
        <ele>61.198888</ele>
        <time>2024-07-02T09:48:40.172Z</time>
      </trkpt>
      <trkpt lat="51.69771" lon="4.39781">
        <ele>60.819167</ele>
        <time>2024-07-02T09:48:42.159Z</time>
      </trkpt>
      <trkpt lat="51.69783" lon="4.39772">
        <ele>60.413363</ele>
        <time>2024-07-02T09:48:44.155Z</time>
      </trkpt>
      <trkpt lat="51.69796" lon="4.39764">
        <ele>60.031039</ele>
        <time>2024-07-02T09:48:46.144Z</time>
      </trkpt>
      <trkpt lat="51.69808" lon="4.39757">
        <ele>59.677088</ele>
        <time>2024-07-02T09:48:48.157Z</time>
      </trkpt>
      <trkpt lat="51.6982" lon="4.39749">
        <ele>59.334843</ele>
        <time>2024-07-02T09:48:50.155Z</time>
      </trkpt>
      <trkpt lat="51.69831" lon="4.39741">
        <ele>59.012858</ele>
        <time>2024-07-02T09:48:52.143Z</time>
      </trkpt>
      <trkpt lat="51.69842" lon="4.39734">
        <ele>58.699579</ele>
        <time>2024-07-02T09:48:54.152Z</time>
      </trkpt>
      <trkpt lat="51.69852" lon="4.39728">
        <ele>58.412188</ele>
        <time>2024-07-02T09:48:56.142Z</time>
      </trkpt>
      <trkpt lat="51.69862" lon="4.39722">
        <ele>58.14454</ele>
        <time>2024-07-02T09:48:58.129Z</time>
      </trkpt>
      <trkpt lat="51.69871" lon="4.39717">
        <ele>57.871336</ele>
        <time>2024-07-02T09:49:00.148Z</time>
      </trkpt>
      <trkpt lat="51.69881" lon="4.39711">
        <ele>57.601494</ele>
        <time>2024-07-02T09:49:02.165Z</time>
      </trkpt>
      <trkpt lat="51.69891" lon="4.39705">
        <ele>57.320244</ele>
        <time>2024-07-02T09:49:04.144Z</time>
      </trkpt>
      <trkpt lat="51.69901" lon="4.397">
        <ele>57.03568</ele>
        <time>2024-07-02T09:49:06.124Z</time>
      </trkpt>
      <trkpt lat="51.69911" lon="4.39695">
        <ele>56.749322</ele>
        <time>2024-07-02T09:49:08.142Z</time>
      </trkpt>
      <trkpt lat="51.69922" lon="4.39691">
        <ele>56.447524</ele>
        <time>2024-07-02T09:49:10.153Z</time>
      </trkpt>
      <trkpt lat="51.69933" lon="4.39685">
        <ele>56.145325</ele>
        <time>2024-07-02T09:49:12.158Z</time>
      </trkpt>
      <trkpt lat="51.69944" lon="4.3968">
        <ele>55.828143</ele>
        <time>2024-07-02T09:49:14.137Z</time>
      </trkpt>
      <trkpt lat="51.69955" lon="4.39675">
        <ele>55.529331</ele>
        <time>2024-07-02T09:49:16.147Z</time>
      </trkpt>
      <trkpt lat="51.69967" lon="4.39669">
        <ele>55.394433</ele>
        <time>2024-07-02T09:49:18.154Z</time>
      </trkpt>
      <trkpt lat="51.69979" lon="4.39664">
        <ele>55.320222</ele>
        <time>2024-07-02T09:49:20.154Z</time>
      </trkpt>
      <trkpt lat="51.69991" lon="4.39658">
        <ele>55.245078</ele>
        <time>2024-07-02T09:49:22.146Z</time>
      </trkpt>
      <trkpt lat="51.70004" lon="4.39653">
        <ele>55.164846</ele>
        <time>2024-07-02T09:49:24.129Z</time>
      </trkpt>
      <trkpt lat="51.70016" lon="4.39648">
        <ele>55.086852</ele>
        <time>2024-07-02T09:49:26.156Z</time>
      </trkpt>
      <trkpt lat="51.70029" lon="4.39641">
        <ele>55.006547</ele>
        <time>2024-07-02T09:49:28.140Z</time>
      </trkpt>
      <trkpt lat="51.70042" lon="4.39636">
        <ele>54.923651</ele>
        <time>2024-07-02T09:49:30.142Z</time>
      </trkpt>
      <trkpt lat="51.70055" lon="4.39631">
        <ele>54.847465</ele>
        <time>2024-07-02T09:49:32.136Z</time>
      </trkpt>
      <trkpt lat="51.70067" lon="4.39627">
        <ele>54.770519</ele>
        <time>2024-07-02T09:49:34.153Z</time>
      </trkpt>
      <trkpt lat="51.70078" lon="4.39622">
        <ele>54.699601</ele>
        <time>2024-07-02T09:49:36.154Z</time>
      </trkpt>
      <trkpt lat="51.70089" lon="4.3962">
        <ele>54.633345</ele>
        <time>2024-07-02T09:49:38.141Z</time>
      </trkpt>
      <trkpt lat="51.701" lon="4.39617">
        <ele>54.567734</ele>
        <time>2024-07-02T09:49:40.139Z</time>
      </trkpt>
      <trkpt lat="51.7011" lon="4.39614">
        <ele>54.504959</ele>
        <time>2024-07-02T09:49:42.159Z</time>
      </trkpt>
      <trkpt lat="51.70121" lon="4.39612">
        <ele>54.439518</ele>
        <time>2024-07-02T09:49:44.140Z</time>
      </trkpt>
      <trkpt lat="51.70131" lon="4.39609">
        <ele>54.377219</ele>
        <time>2024-07-02T09:49:46.153Z</time>
      </trkpt>
      <trkpt lat="51.70141" lon="4.39607">
        <ele>54.258701</ele>
        <time>2024-07-02T09:49:48.158Z</time>
      </trkpt>
      <trkpt lat="51.70151" lon="4.39602">
        <ele>54.124249</ele>
        <time>2024-07-02T09:49:50.162Z</time>
      </trkpt>
      <trkpt lat="51.7016" lon="4.39593">
        <ele>53.985416</ele>
        <time>2024-07-02T09:49:52.134Z</time>
      </trkpt>
      <trkpt lat="51.7017" lon="4.39592">
        <ele>53.852811</ele>
        <time>2024-07-02T09:49:54.135Z</time>
      </trkpt>
      <trkpt lat="51.7018" lon="4.39596">
        <ele>53.718051</ele>
        <time>2024-07-02T09:49:56.140Z</time>
      </trkpt>
      <trkpt lat="51.70189" lon="4.39598">
        <ele>53.59355</ele>
        <time>2024-07-02T09:49:58.150Z</time>
      </trkpt>
      <trkpt lat="51.70199" lon="4.39597">
        <ele>53.466581</ele>
        <time>2024-07-02T09:50:00.136Z</time>
      </trkpt>
      <trkpt lat="51.70208" lon="4.39594">
        <ele>53.339743</ele>
        <time>2024-07-02T09:50:02.141Z</time>
      </trkpt>
      <trkpt lat="51.70218" lon="4.39593">
        <ele>53.216677</ele>
        <time>2024-07-02T09:50:04.154Z</time>
      </trkpt>
      <trkpt lat="51.70227" lon="4.39592">
        <ele>53.092293</ele>
        <time>2024-07-02T09:50:06.145Z</time>
      </trkpt>
      <trkpt lat="51.70237" lon="4.39591">
        <ele>52.960656</ele>
        <time>2024-07-02T09:50:08.142Z</time>
      </trkpt>
      <trkpt lat="51.70252" lon="4.3959">
        <ele>52.762494</ele>
        <time>2024-07-02T09:50:13.145Z</time>
      </trkpt>
      <trkpt lat="51.70264" lon="4.39589">
        <ele>52.598475</ele>
        <time>2024-07-02T09:50:15.126Z</time>
      </trkpt>
      <trkpt lat="51.70276" lon="4.39587">
        <ele>52.446202</ele>
        <time>2024-07-02T09:50:17.152Z</time>
      </trkpt>
      <trkpt lat="51.70286" lon="4.39587">
        <ele>52.311515</ele>
        <time>2024-07-02T09:50:19.124Z</time>
      </trkpt>
      <trkpt lat="51.70297" lon="4.39586">
        <ele>52.16995</ele>
        <time>2024-07-02T09:50:21.134Z</time>
      </trkpt>
      <trkpt lat="51.70307" lon="4.39585">
        <ele>52.039027</ele>
        <time>2024-07-02T09:50:23.153Z</time>
      </trkpt>
      <trkpt lat="51.70317" lon="4.39585">
        <ele>52.056627</ele>
        <time>2024-07-02T09:50:25.110Z</time>
      </trkpt>
      <trkpt lat="51.70327" lon="4.39585">
        <ele>52.162793</ele>
        <time>2024-07-02T09:50:27.155Z</time>
      </trkpt>
      <trkpt lat="51.70337" lon="4.39585">
        <ele>52.266867</ele>
        <time>2024-07-02T09:50:29.137Z</time>
      </trkpt>
      <trkpt lat="51.70347" lon="4.39585">
        <ele>52.369926</ele>
        <time>2024-07-02T09:50:31.152Z</time>
      </trkpt>
      <trkpt lat="51.70356" lon="4.39583">
        <ele>52.468005</ele>
        <time>2024-07-02T09:50:33.131Z</time>
      </trkpt>
      <trkpt lat="51.70366" lon="4.39583">
        <ele>52.566971</ele>
        <time>2024-07-02T09:50:35.143Z</time>
      </trkpt>
      <trkpt lat="51.70375" lon="4.39583">
        <ele>52.661692</ele>
        <time>2024-07-02T09:50:37.151Z</time>
      </trkpt>
      <trkpt lat="51.70384" lon="4.39583">
        <ele>52.755372</ele>
        <time>2024-07-02T09:50:39.129Z</time>
      </trkpt>
      <trkpt lat="51.70397" lon="4.39583">
        <ele>52.893818</ele>
        <time>2024-07-02T09:50:42.139Z</time>
      </trkpt>
      <trkpt lat="51.7041" lon="4.39587">
        <ele>53.031796</ele>
        <time>2024-07-02T09:50:45.119Z</time>
      </trkpt>
      <trkpt lat="51.70422" lon="4.3959">
        <ele>53.162246</ele>
        <time>2024-07-02T09:50:48.139Z</time>
      </trkpt>
      <trkpt lat="51.70434" lon="4.39588">
        <ele>53.289365</ele>
        <time>2024-07-02T09:50:51.133Z</time>
      </trkpt>
      <trkpt lat="51.70447" lon="4.39589">
        <ele>53.420756</ele>
        <time>2024-07-02T09:50:54.121Z</time>
      </trkpt>
      <trkpt lat="51.70459" lon="4.39592">
        <ele>53.541602</ele>
        <time>2024-07-02T09:50:57.143Z</time>
      </trkpt>
      <trkpt lat="51.7047" lon="4.39595">
        <ele>53.666697</ele>
        <time>2024-07-02T09:51:00.151Z</time>
      </trkpt>
      <trkpt lat="51.70483" lon="4.39598">
        <ele>53.794598</ele>
        <time>2024-07-02T09:51:03.131Z</time>
      </trkpt>
      <trkpt lat="51.70495" lon="4.39602">
        <ele>53.937309</ele>
        <time>2024-07-02T09:51:06.138Z</time>
      </trkpt>
      <trkpt lat="51.70507" lon="4.39604">
        <ele>54.087285</ele>
        <time>2024-07-02T09:51:09.135Z</time>
      </trkpt>
      <trkpt lat="51.70519" lon="4.39606">
        <ele>54.231202</ele>
        <time>2024-07-02T09:51:12.121Z</time>
      </trkpt>
      <trkpt lat="51.70532" lon="4.39608">
        <ele>54.380234</ele>
        <time>2024-07-02T09:51:15.119Z</time>
      </trkpt>
      <trkpt lat="51.70544" lon="4.3961">
        <ele>54.532209</ele>
        <time>2024-07-02T09:51:18.141Z</time>
      </trkpt>
      <trkpt lat="51.70556" lon="4.39611">
        <ele>54.67443</ele>
        <time>2024-07-02T09:51:21.137Z</time>
      </trkpt>
      <trkpt lat="51.70569" lon="4.39611">
        <ele>54.82482</ele>
        <time>2024-07-02T09:51:24.133Z</time>
      </trkpt>
      <trkpt lat="51.7058" lon="4.39612">
        <ele>54.966997</ele>
        <time>2024-07-02T09:51:27.136Z</time>
      </trkpt>
      <trkpt lat="51.70593" lon="4.39612">
        <ele>55.116156</ele>
        <time>2024-07-02T09:51:30.135Z</time>
      </trkpt>
      <trkpt lat="51.70605" lon="4.39612">
        <ele>55.258095</ele>
        <time>2024-07-02T09:51:33.133Z</time>
      </trkpt>
      <trkpt lat="51.70617" lon="4.39612">
        <ele>55.402441</ele>
        <time>2024-07-02T09:51:36.150Z</time>
      </trkpt>
      <trkpt lat="51.70628" lon="4.39611">
        <ele>55.542136</ele>
        <time>2024-07-02T09:51:39.137Z</time>
      </trkpt>
      <trkpt lat="51.70641" lon="4.3961">
        <ele>55.695122</ele>
        <time>2024-07-02T09:51:42.153Z</time>
      </trkpt>
      <trkpt lat="51.70654" lon="4.3961">
        <ele>55.84789</ele>
        <time>2024-07-02T09:51:45.118Z</time>
      </trkpt>
      <trkpt lat="51.70666" lon="4.39611">
        <ele>55.994734</ele>
        <time>2024-07-02T09:51:48.139Z</time>
      </trkpt>
      <trkpt lat="51.70677" lon="4.39613">
        <ele>56.103066</ele>
        <time>2024-07-02T09:51:51.140Z</time>
      </trkpt>
      <trkpt lat="51.70689" lon="4.39614">
        <ele>56.2053</ele>
        <time>2024-07-02T09:51:54.155Z</time>
      </trkpt>
      <trkpt lat="51.70701" lon="4.39615">
        <ele>56.308106</ele>
        <time>2024-07-02T09:51:57.164Z</time>
      </trkpt>
      <trkpt lat="51.70712" lon="4.39618">
        <ele>56.405797</ele>
        <time>2024-07-02T09:52:00.147Z</time>
      </trkpt>
      <trkpt lat="51.70723" lon="4.3962">
        <ele>56.504916</ele>
        <time>2024-07-02T09:52:03.140Z</time>
      </trkpt>
      <trkpt lat="51.70734" lon="4.39623">
        <ele>56.60159</ele>
        <time>2024-07-02T09:52:06.130Z</time>
      </trkpt>
      <trkpt lat="51.70745" lon="4.39627">
        <ele>56.703235</ele>
        <time>2024-07-02T09:52:09.120Z</time>
      </trkpt>
      <trkpt lat="51.70757" lon="4.3963">
        <ele>56.803935</ele>
        <time>2024-07-02T09:52:12.130Z</time>
      </trkpt>
      <trkpt lat="51.70768" lon="4.39634">
        <ele>56.905881</ele>
        <time>2024-07-02T09:52:15.125Z</time>
      </trkpt>
      <trkpt lat="51.70779" lon="4.39637">
        <ele>57.002395</ele>
        <time>2024-07-02T09:52:18.138Z</time>
      </trkpt>
      <trkpt lat="51.7079" lon="4.39641">
        <ele>57.096892</ele>
        <time>2024-07-02T09:52:21.136Z</time>
      </trkpt>
      <trkpt lat="51.708" lon="4.39646">
        <ele>57.19232</ele>
        <time>2024-07-02T09:52:24.149Z</time>
      </trkpt>
      <trkpt lat="51.70812" lon="4.39651">
        <ele>57.292897</ele>
        <time>2024-07-02T09:52:27.157Z</time>
      </trkpt>
      <trkpt lat="51.70822" lon="4.39655">
        <ele>57.386601</ele>
        <time>2024-07-02T09:52:30.147Z</time>
      </trkpt>
      <trkpt lat="51.70833" lon="4.39658">
        <ele>57.481508</ele>
        <time>2024-07-02T09:52:33.126Z</time>
      </trkpt>
      <trkpt lat="51.70842" lon="4.39663">
        <ele>57.565489</ele>
        <time>2024-07-02T09:52:36.141Z</time>
      </trkpt>
      <trkpt lat="51.70851" lon="4.39669">
        <ele>57.722577</ele>
        <time>2024-07-02T09:52:39.143Z</time>
      </trkpt>
      <trkpt lat="51.70861" lon="4.39673">
        <ele>57.898367</ele>
        <time>2024-07-02T09:52:42.148Z</time>
      </trkpt>
      <trkpt lat="51.7087" lon="4.39678">
        <ele>58.068702</ele>
        <time>2024-07-02T09:52:45.121Z</time>
      </trkpt>
      <trkpt lat="51.70879" lon="4.39682">
        <ele>58.247787</ele>
        <time>2024-07-02T09:52:48.139Z</time>
      </trkpt>
      <trkpt lat="51.70888" lon="4.39686">
        <ele>58.421617</ele>
        <time>2024-07-02T09:52:51.122Z</time>
      </trkpt>
      <trkpt lat="51.70897" lon="4.39691">
        <ele>58.597131</ele>
        <time>2024-07-02T09:52:54.151Z</time>
      </trkpt>
      <trkpt lat="51.70907" lon="4.39695">
        <ele>58.766955</ele>
        <time>2024-07-02T09:52:57.146Z</time>
      </trkpt>
      <trkpt lat="51.70915" lon="4.39699">
        <ele>58.934122</ele>
        <time>2024-07-02T09:53:00.141Z</time>
      </trkpt>
      <trkpt lat="51.70925" lon="4.39703">
        <ele>59.115259</ele>
        <time>2024-07-02T09:53:03.144Z</time>
      </trkpt>
      <trkpt lat="51.70934" lon="4.39707">
        <ele>59.292294</ele>
        <time>2024-07-02T09:53:06.147Z</time>
      </trkpt>
      <trkpt lat="51.70943" lon="4.39711">
        <ele>59.462016</ele>
        <time>2024-07-02T09:53:09.141Z</time>
      </trkpt>
      <trkpt lat="51.70952" lon="4.39716">
        <ele>59.632666</ele>
        <time>2024-07-02T09:53:12.150Z</time>
      </trkpt>
      <trkpt lat="51.70962" lon="4.39719">
        <ele>59.813377</ele>
        <time>2024-07-02T09:53:15.134Z</time>
      </trkpt>
      <trkpt lat="51.70971" lon="4.39723">
        <ele>59.986035</ele>
        <time>2024-07-02T09:53:18.152Z</time>
      </trkpt>
      <trkpt lat="51.70981" lon="4.39728">
        <ele>60.164952</ele>
        <time>2024-07-02T09:53:21.135Z</time>
      </trkpt>
      <trkpt lat="51.7099" lon="4.39731">
        <ele>60.335571</ele>
        <time>2024-07-02T09:53:24.162Z</time>
      </trkpt>
      <trkpt lat="51.70998" lon="4.39736">
        <ele>60.499597</ele>
        <time>2024-07-02T09:53:27.148Z</time>
      </trkpt>
      <trkpt lat="51.71008" lon="4.3974">
        <ele>60.676118</ele>
        <time>2024-07-02T09:53:30.132Z</time>
      </trkpt>
      <trkpt lat="51.71017" lon="4.39744">
        <ele>60.847594</ele>
        <time>2024-07-02T09:53:33.141Z</time>
      </trkpt>
      <trkpt lat="51.71025" lon="4.39749">
        <ele>60.99855</ele>
        <time>2024-07-02T09:53:36.133Z</time>
      </trkpt>
      <trkpt lat="51.71034" lon="4.39755">
        <ele>61.158468</ele>
        <time>2024-07-02T09:53:39.148Z</time>
      </trkpt>
      <trkpt lat="51.71043" lon="4.39761">
        <ele>61.309226</ele>
        <time>2024-07-02T09:53:42.125Z</time>
      </trkpt>
      <trkpt lat="51.71051" lon="4.39767">
        <ele>61.462277</ele>
        <time>2024-07-02T09:53:45.123Z</time>
      </trkpt>
      <trkpt lat="51.71061" lon="4.39772">
        <ele>61.625212</ele>
        <time>2024-07-02T09:53:48.129Z</time>
      </trkpt>
      <trkpt lat="51.7107" lon="4.39778">
        <ele>61.784111</ele>
        <time>2024-07-02T09:53:51.155Z</time>
      </trkpt>
      <trkpt lat="51.71078" lon="4.39784">
        <ele>61.94301</ele>
        <time>2024-07-02T09:53:54.156Z</time>
      </trkpt>
      <trkpt lat="51.71088" lon="4.3979">
        <ele>62.111056</ele>
        <time>2024-07-02T09:53:57.138Z</time>
      </trkpt>
      <trkpt lat="51.71097" lon="4.39796">
        <ele>62.269065</ele>
        <time>2024-07-02T09:54:00.144Z</time>
      </trkpt>
      <trkpt lat="51.71106" lon="4.39801">
        <ele>62.428678</ele>
        <time>2024-07-02T09:54:03.130Z</time>
      </trkpt>
      <trkpt lat="51.71115" lon="4.39807">
        <ele>62.586687</ele>
        <time>2024-07-02T09:54:06.135Z</time>
      </trkpt>
      <trkpt lat="51.71124" lon="4.39813">
        <ele>62.74356</ele>
        <time>2024-07-02T09:54:09.137Z</time>
      </trkpt>
      <trkpt lat="51.71133" lon="4.39817">
        <ele>62.902116</ele>
        <time>2024-07-02T09:54:12.143Z</time>
      </trkpt>
      <trkpt lat="51.71141" lon="4.39822">
        <ele>63.050704</ele>
        <time>2024-07-02T09:54:15.139Z</time>
      </trkpt>
      <trkpt lat="51.71151" lon="4.39828">
        <ele>63.21376</ele>
        <time>2024-07-02T09:54:18.146Z</time>
      </trkpt>
      <trkpt lat="51.7116" lon="4.39833">
        <ele>63.375271</ele>
        <time>2024-07-02T09:54:21.150Z</time>
      </trkpt>
      <trkpt lat="51.71169" lon="4.39839">
        <ele>63.535575</ele>
        <time>2024-07-02T09:54:24.156Z</time>
      </trkpt>
      <trkpt lat="51.71178" lon="4.39845">
        <ele>63.693644</ele>
        <time>2024-07-02T09:54:27.148Z</time>
      </trkpt>
      <trkpt lat="51.71187" lon="4.3985">
        <ele>63.844062</ele>
        <time>2024-07-02T09:54:30.149Z</time>
      </trkpt>
      <trkpt lat="51.71195" lon="4.39856">
        <ele>63.984048</ele>
        <time>2024-07-02T09:54:33.140Z</time>
      </trkpt>
      <trkpt lat="51.71204" lon="4.39861">
        <ele>64.119279</ele>
        <time>2024-07-02T09:54:36.155Z</time>
      </trkpt>
      <trkpt lat="51.71213" lon="4.39866">
        <ele>64.25249</ele>
        <time>2024-07-02T09:54:39.131Z</time>
      </trkpt>
      <trkpt lat="51.71222" lon="4.39871">
        <ele>64.394462</ele>
        <time>2024-07-02T09:54:42.142Z</time>
      </trkpt>
      <trkpt lat="51.71231" lon="4.39877">
        <ele>64.532753</ele>
        <time>2024-07-02T09:54:45.120Z</time>
      </trkpt>
      <trkpt lat="51.7124" lon="4.39883">
        <ele>64.675108</ele>
        <time>2024-07-02T09:54:48.153Z</time>
      </trkpt>
      <trkpt lat="51.71249" lon="4.3989">
        <ele>64.826817</ele>
        <time>2024-07-02T09:54:51.157Z</time>
      </trkpt>
      <trkpt lat="51.71259" lon="4.39895">
        <ele>64.977482</ele>
        <time>2024-07-02T09:54:54.148Z</time>
      </trkpt>
      <trkpt lat="51.71268" lon="4.399">
        <ele>65.118191</ele>
        <time>2024-07-02T09:54:57.139Z</time>
      </trkpt>
      <trkpt lat="51.71276" lon="4.39907">
        <ele>65.260394</ele>
        <time>2024-07-02T09:55:00.154Z</time>
      </trkpt>
      <trkpt lat="51.71285" lon="4.39913">
        <ele>65.402092</ele>
        <time>2024-07-02T09:55:03.139Z</time>
      </trkpt>
      <trkpt lat="51.71294" lon="4.39918">
        <ele>65.539113</ele>
        <time>2024-07-02T09:55:06.166Z</time>
      </trkpt>
      <trkpt lat="51.71303" lon="4.39923">
        <ele>65.672005</ele>
        <time>2024-07-02T09:55:09.151Z</time>
      </trkpt>
      <trkpt lat="51.71312" lon="4.39928">
        <ele>65.81148</ele>
        <time>2024-07-02T09:55:12.161Z</time>
      </trkpt>
      <trkpt lat="51.71321" lon="4.39933">
        <ele>65.952507</ele>
        <time>2024-07-02T09:55:15.119Z</time>
      </trkpt>
      <trkpt lat="51.7133" lon="4.39939">
        <ele>66.100641</ele>
        <time>2024-07-02T09:55:18.129Z</time>
      </trkpt>
      <trkpt lat="51.71339" lon="4.39945">
        <ele>66.243361</ele>
        <time>2024-07-02T09:55:21.157Z</time>
      </trkpt>
      <trkpt lat="51.71348" lon="4.3995">
        <ele>66.383019</ele>
        <time>2024-07-02T09:55:24.151Z</time>
      </trkpt>
      <trkpt lat="51.71357" lon="4.39956">
        <ele>66.481727</ele>
        <time>2024-07-02T09:55:27.151Z</time>
      </trkpt>
      <trkpt lat="51.71366" lon="4.39962">
        <ele>66.534879</ele>
        <time>2024-07-02T09:55:30.141Z</time>
      </trkpt>
      <trkpt lat="51.71375" lon="4.39967">
        <ele>66.588232</ele>
        <time>2024-07-02T09:55:33.155Z</time>
      </trkpt>
      <trkpt lat="51.71384" lon="4.39973">
        <ele>66.640532</ele>
        <time>2024-07-02T09:55:36.150Z</time>
      </trkpt>
      <trkpt lat="51.71392" lon="4.39979">
        <ele>66.691148</ele>
        <time>2024-07-02T09:55:39.149Z</time>
      </trkpt>
      <trkpt lat="51.71401" lon="4.39985">
        <ele>66.745728</ele>
        <time>2024-07-02T09:55:42.150Z</time>
      </trkpt>
      <trkpt lat="51.71411" lon="4.39991">
        <ele>66.799516</ele>
        <time>2024-07-02T09:55:45.124Z</time>
      </trkpt>
      <trkpt lat="51.7142" lon="4.39998">
        <ele>66.854463</ele>
        <time>2024-07-02T09:55:48.143Z</time>
      </trkpt>
      <trkpt lat="51.71429" lon="4.40002">
        <ele>66.905411</ele>
        <time>2024-07-02T09:55:51.140Z</time>
      </trkpt>
      <trkpt lat="51.71437" lon="4.40007">
        <ele>66.955624</ele>
        <time>2024-07-02T09:55:54.141Z</time>
      </trkpt>
      <trkpt lat="51.71446" lon="4.40012">
        <ele>67.008169</ele>
        <time>2024-07-02T09:55:57.138Z</time>
      </trkpt>
      <trkpt lat="51.71455" lon="4.40017">
        <ele>67.060176</ele>
        <time>2024-07-02T09:56:00.149Z</time>
      </trkpt>
      <trkpt lat="51.71464" lon="4.40022">
        <ele>67.110666</ele>
        <time>2024-07-02T09:56:03.124Z</time>
      </trkpt>
      <trkpt lat="51.71472" lon="4.40028">
        <ele>67.161048</ele>
        <time>2024-07-02T09:56:06.147Z</time>
      </trkpt>
      <trkpt lat="51.71483" lon="4.40035">
        <ele>67.225929</ele>
        <time>2024-07-02T09:56:10.144Z</time>
      </trkpt>
      <trkpt lat="51.71493" lon="4.4004">
        <ele>67.27899</ele>
        <time>2024-07-02T09:56:13.157Z</time>
      </trkpt>
      <trkpt lat="51.71502" lon="4.40046">
        <ele>67.335332</ele>
        <time>2024-07-02T09:56:16.142Z</time>
      </trkpt>
      <trkpt lat="51.71511" lon="4.40052">
        <ele>67.39065</ele>
        <time>2024-07-02T09:56:19.150Z</time>
      </trkpt>
      <trkpt lat="51.71521" lon="4.40058">
        <ele>67.444988</ele>
        <time>2024-07-02T09:56:22.163Z</time>
      </trkpt>
      <trkpt lat="51.7153" lon="4.40064">
        <ele>67.460412</ele>
        <time>2024-07-02T09:56:25.121Z</time>
      </trkpt>
      <trkpt lat="51.71541" lon="4.4007">
        <ele>67.477342</ele>
        <time>2024-07-02T09:56:29.140Z</time>
      </trkpt>
      <trkpt lat="51.71549" lon="4.40075">
        <ele>67.491376</ele>
        <time>2024-07-02T09:56:32.159Z</time>
      </trkpt>
      <trkpt lat="51.71558" lon="4.40081">
        <ele>67.505276</ele>
        <time>2024-07-02T09:56:35.123Z</time>
      </trkpt>
      <trkpt lat="51.71567" lon="4.40086">
        <ele>67.519241</ele>
        <time>2024-07-02T09:56:38.142Z</time>
      </trkpt>
      <trkpt lat="51.71575" lon="4.40092">
        <ele>67.533595</ele>
        <time>2024-07-02T09:56:41.141Z</time>
      </trkpt>
      <trkpt lat="51.71584" lon="4.40097">
        <ele>67.548292</ele>
        <time>2024-07-02T09:56:44.154Z</time>
      </trkpt>
      <trkpt lat="51.71594" lon="4.40103">
        <ele>67.563352</ele>
        <time>2024-07-02T09:56:47.143Z</time>
      </trkpt>
      <trkpt lat="51.71603" lon="4.40109">
        <ele>67.57816</ele>
        <time>2024-07-02T09:56:50.164Z</time>
      </trkpt>
      <trkpt lat="51.71612" lon="4.40116">
        <ele>67.593258</ele>
        <time>2024-07-02T09:56:53.147Z</time>
      </trkpt>
      <trkpt lat="51.71621" lon="4.40122">
        <ele>67.608135</ele>
        <time>2024-07-02T09:56:56.142Z</time>
      </trkpt>
      <trkpt lat="51.7163" lon="4.40128">
        <ele>67.623365</ele>
        <time>2024-07-02T09:56:59.148Z</time>
      </trkpt>
      <trkpt lat="51.7164" lon="4.40133">
        <ele>67.638902</ele>
        <time>2024-07-02T09:57:02.148Z</time>
      </trkpt>
      <trkpt lat="51.7165" lon="4.40138">
        <ele>67.654438</ele>
        <time>2024-07-02T09:57:05.135Z</time>
      </trkpt>
      <trkpt lat="51.71659" lon="4.40144">
        <ele>67.669574</ele>
        <time>2024-07-02T09:57:08.161Z</time>
      </trkpt>
      <trkpt lat="51.71668" lon="4.40151">
        <ele>67.684949</ele>
        <time>2024-07-02T09:57:11.151Z</time>
      </trkpt>
      <trkpt lat="51.71677" lon="4.40157">
        <ele>67.70039</ele>
        <time>2024-07-02T09:57:14.147Z</time>
      </trkpt>
      <trkpt lat="51.71688" lon="4.40162">
        <ele>67.716946</ele>
        <time>2024-07-02T09:57:17.139Z</time>
      </trkpt>
      <trkpt lat="51.71698" lon="4.40169">
        <ele>67.71419</ele>
        <time>2024-07-02T09:57:20.161Z</time>
      </trkpt>
      <trkpt lat="51.71707" lon="4.40176">
        <ele>67.710853</ele>
        <time>2024-07-02T09:57:23.153Z</time>
      </trkpt>
      <trkpt lat="51.71718" lon="4.40182">
        <ele>67.707204</ele>
        <time>2024-07-02T09:57:26.143Z</time>
      </trkpt>
      <trkpt lat="51.71728" lon="4.40188">
        <ele>67.703884</ele>
        <time>2024-07-02T09:57:29.158Z</time>
      </trkpt>
      <trkpt lat="51.71738" lon="4.40194">
        <ele>67.700355</ele>
        <time>2024-07-02T09:57:32.138Z</time>
      </trkpt>
      <trkpt lat="51.71748" lon="4.402">
        <ele>67.696821</ele>
        <time>2024-07-02T09:57:35.129Z</time>
      </trkpt>
      <trkpt lat="51.71759" lon="4.40207">
        <ele>67.693142</ele>
        <time>2024-07-02T09:57:38.153Z</time>
      </trkpt>
      <trkpt lat="51.71769" lon="4.40215">
        <ele>67.689384</ele>
        <time>2024-07-02T09:57:41.149Z</time>
      </trkpt>
      <trkpt lat="51.7178" lon="4.40221">
        <ele>67.685636</ele>
        <time>2024-07-02T09:57:44.145Z</time>
      </trkpt>
      <trkpt lat="51.71791" lon="4.40227">
        <ele>67.681888</ele>
        <time>2024-07-02T09:57:47.154Z</time>
      </trkpt>
      <trkpt lat="51.71802" lon="4.40234">
        <ele>67.678155</ele>
        <time>2024-07-02T09:57:50.159Z</time>
      </trkpt>
      <trkpt lat="51.71813" lon="4.4024">
        <ele>67.674375</ele>
        <time>2024-07-02T09:57:53.137Z</time>
      </trkpt>
      <trkpt lat="51.71824" lon="4.40247">
        <ele>67.670371</ele>
        <time>2024-07-02T09:57:56.143Z</time>
      </trkpt>
      <trkpt lat="51.71835" lon="4.40254">
        <ele>67.666638</ele>
        <time>2024-07-02T09:57:59.140Z</time>
      </trkpt>
      <trkpt lat="51.71845" lon="4.40262">
        <ele>67.663</ele>
        <time>2024-07-02T09:58:02.142Z</time>
      </trkpt>
      <trkpt lat="51.71856" lon="4.40269">
        <ele>67.649027</ele>
        <time>2024-07-02T09:58:05.132Z</time>
      </trkpt>
      <trkpt lat="51.71867" lon="4.40276">
        <ele>67.410707</ele>
        <time>2024-07-02T09:58:08.140Z</time>
      </trkpt>
      <trkpt lat="51.71879" lon="4.40282">
        <ele>67.156363</ele>
        <time>2024-07-02T09:58:11.143Z</time>
      </trkpt>
      <trkpt lat="51.7189" lon="4.4029">
        <ele>66.914615</ele>
        <time>2024-07-02T09:58:14.143Z</time>
      </trkpt>
      <trkpt lat="51.71901" lon="4.40298">
        <ele>66.668279</ele>
        <time>2024-07-02T09:58:17.150Z</time>
      </trkpt>
      <trkpt lat="51.71911" lon="4.40304">
        <ele>66.440107</ele>
        <time>2024-07-02T09:58:20.139Z</time>
      </trkpt>
      <trkpt lat="51.71921" lon="4.40309">
        <ele>66.236512</ele>
        <time>2024-07-02T09:58:23.139Z</time>
      </trkpt>
      <trkpt lat="51.71931" lon="4.40315">
        <ele>66.013002</ele>
        <time>2024-07-02T09:58:27.145Z</time>
      </trkpt>
      <trkpt lat="51.71941" lon="4.40321">
        <ele>65.796475</ele>
        <time>2024-07-02T09:58:30.149Z</time>
      </trkpt>
      <trkpt lat="51.71952" lon="4.40327">
        <ele>65.572119</ele>
        <time>2024-07-02T09:58:33.142Z</time>
      </trkpt>
      <trkpt lat="51.71963" lon="4.40334">
        <ele>65.333292</ele>
        <time>2024-07-02T09:58:36.160Z</time>
      </trkpt>
      <trkpt lat="51.71972" lon="4.40339">
        <ele>65.141959</ele>
        <time>2024-07-02T09:58:38.158Z</time>
      </trkpt>
      <trkpt lat="51.7198" lon="4.40345">
        <ele>64.95705</ele>
        <time>2024-07-02T09:58:40.123Z</time>
      </trkpt>
      <trkpt lat="51.71989" lon="4.40351">
        <ele>64.768061</ele>
        <time>2024-07-02T09:58:42.140Z</time>
      </trkpt>
      <trkpt lat="51.71997" lon="4.40356">
        <ele>64.578056</ele>
        <time>2024-07-02T09:58:44.158Z</time>
      </trkpt>
      <trkpt lat="51.72007" lon="4.40361">
        <ele>64.380827</ele>
        <time>2024-07-02T09:58:46.144Z</time>
      </trkpt>
      <trkpt lat="51.72015" lon="4.40366">
        <ele>64.195208</ele>
        <time>2024-07-02T09:58:48.155Z</time>
      </trkpt>
      <trkpt lat="51.72025" lon="4.40372">
        <ele>63.977163</ele>
        <time>2024-07-02T09:58:50.150Z</time>
      </trkpt>
      <trkpt lat="51.72034" lon="4.40378">
        <ele>63.640301</ele>
        <time>2024-07-02T09:58:52.152Z</time>
      </trkpt>
      <trkpt lat="51.72043" lon="4.40384">
        <ele>63.295011</ele>
        <time>2024-07-02T09:58:54.150Z</time>
      </trkpt>
      <trkpt lat="51.72053" lon="4.40391">
        <ele>62.934107</ele>
        <time>2024-07-02T09:58:56.145Z</time>
      </trkpt>
      <trkpt lat="51.72063" lon="4.40398">
        <ele>62.570367</ele>
        <time>2024-07-02T09:58:58.139Z</time>
      </trkpt>
      <trkpt lat="51.72073" lon="4.40405">
        <ele>62.216217</ele>
        <time>2024-07-02T09:59:00.149Z</time>
      </trkpt>
      <trkpt lat="51.72083" lon="4.40413">
        <ele>61.840067</ele>
        <time>2024-07-02T09:59:02.145Z</time>
      </trkpt>
      <trkpt lat="51.72093" lon="4.40421">
        <ele>61.47272</ele>
        <time>2024-07-02T09:59:04.145Z</time>
      </trkpt>
      <trkpt lat="51.72102" lon="4.40429">
        <ele>61.115452</ele>
        <time>2024-07-02T09:59:06.136Z</time>
      </trkpt>
      <trkpt lat="51.72112" lon="4.40438">
        <ele>60.735493</ele>
        <time>2024-07-02T09:59:08.127Z</time>
      </trkpt>
      <trkpt lat="51.72122" lon="4.40446">
        <ele>60.366398</ele>
        <time>2024-07-02T09:59:10.159Z</time>
      </trkpt>
      <trkpt lat="51.72132" lon="4.40453">
        <ele>59.995201</ele>
        <time>2024-07-02T09:59:12.141Z</time>
      </trkpt>
      <trkpt lat="51.72141" lon="4.4046">
        <ele>59.641904</ele>
        <time>2024-07-02T09:59:14.135Z</time>
      </trkpt>
      <trkpt lat="51.72151" lon="4.40466">
        <ele>59.289604</ele>
        <time>2024-07-02T09:59:16.146Z</time>
      </trkpt>
      <trkpt lat="51.72161" lon="4.40472">
        <ele>58.933063</ele>
        <time>2024-07-02T09:59:18.154Z</time>
      </trkpt>
      <trkpt lat="51.72171" lon="4.40477">
        <ele>58.573446</ele>
        <time>2024-07-02T09:59:20.149Z</time>
      </trkpt>
      <trkpt lat="51.72181" lon="4.40484">
        <ele>58.225825</ele>
        <time>2024-07-02T09:59:22.142Z</time>
      </trkpt>
      <trkpt lat="51.7219" lon="4.4049">
        <ele>57.925071</ele>
        <time>2024-07-02T09:59:24.148Z</time>
      </trkpt>
      <trkpt lat="51.722" lon="4.40497">
        <ele>57.746659</ele>
        <time>2024-07-02T09:59:26.160Z</time>
      </trkpt>
      <trkpt lat="51.7221" lon="4.40503">
        <ele>57.557983</ele>
        <time>2024-07-02T09:59:28.120Z</time>
      </trkpt>
      <trkpt lat="51.7222" lon="4.4051">
        <ele>57.368859</ele>
        <time>2024-07-02T09:59:30.124Z</time>
      </trkpt>
      <trkpt lat="51.72231" lon="4.40516">
        <ele>57.183662</ele>
        <time>2024-07-02T09:59:32.192Z</time>
      </trkpt>
      <trkpt lat="51.72241" lon="4.40522">
        <ele>56.986187</ele>
        <time>2024-07-02T09:59:34.158Z</time>
      </trkpt>
      <trkpt lat="51.72251" lon="4.40528">
        <ele>56.805771</ele>
        <time>2024-07-02T09:59:36.160Z</time>
      </trkpt>
      <trkpt lat="51.72261" lon="4.40534">
        <ele>56.624858</ele>
        <time>2024-07-02T09:59:38.153Z</time>
      </trkpt>
      <trkpt lat="51.72272" lon="4.4054">
        <ele>56.43878</ele>
        <time>2024-07-02T09:59:40.187Z</time>
      </trkpt>
      <trkpt lat="51.72282" lon="4.40547">
        <ele>56.250076</ele>
        <time>2024-07-02T09:59:42.165Z</time>
      </trkpt>
      <trkpt lat="51.72292" lon="4.40553">
        <ele>56.071263</ele>
        <time>2024-07-02T09:59:44.156Z</time>
      </trkpt>
      <trkpt lat="51.72301" lon="4.4056">
        <ele>55.901928</ele>
        <time>2024-07-02T09:59:46.146Z</time>
      </trkpt>
      <trkpt lat="51.7231" lon="4.40566">
        <ele>55.729439</ele>
        <time>2024-07-02T09:59:48.130Z</time>
      </trkpt>
      <trkpt lat="51.7232" lon="4.40572">
        <ele>55.551361</ele>
        <time>2024-07-02T09:59:50.157Z</time>
      </trkpt>
      <trkpt lat="51.72329" lon="4.40577">
        <ele>55.387553</ele>
        <time>2024-07-02T09:59:52.166Z</time>
      </trkpt>
      <trkpt lat="51.72338" lon="4.40584">
        <ele>55.224498</ele>
        <time>2024-07-02T09:59:54.134Z</time>
      </trkpt>
      <trkpt lat="51.72347" lon="4.40589">
        <ele>55.061389</ele>
        <time>2024-07-02T09:59:56.149Z</time>
      </trkpt>
      <trkpt lat="51.72355" lon="4.40594">
        <ele>54.906805</ele>
        <time>2024-07-02T09:59:58.140Z</time>
      </trkpt>
      <trkpt lat="51.72368" lon="4.40601">
        <ele>54.856102</ele>
        <time>2024-07-02T10:00:01.160Z</time>
      </trkpt>
      <trkpt lat="51.72379" lon="4.40611">
        <ele>54.81054</ele>
        <time>2024-07-02T10:00:04.149Z</time>
      </trkpt>
      <trkpt lat="51.72384" lon="4.40626">
        <ele>54.773076</ele>
        <time>2024-07-02T10:00:08.159Z</time>
      </trkpt>
      <trkpt lat="51.72389" lon="4.40628">
        <ele>54.753397</ele>
        <time>2024-07-02T10:00:44.391Z</time>
      </trkpt>
      <trkpt lat="51.72398" lon="4.40623">
        <ele>54.717808</ele>
        <time>2024-07-02T10:04:20.133Z</time>
      </trkpt>
      <trkpt lat="51.72409" lon="4.40625">
        <ele>54.68113</ele>
        <time>2024-07-02T10:04:24.146Z</time>
      </trkpt>
      <trkpt lat="51.72419" lon="4.40632">
        <ele>54.640034</ele>
        <time>2024-07-02T10:04:28.139Z</time>
      </trkpt>
      <trkpt lat="51.72429" lon="4.40638">
        <ele>54.60296</ele>
        <time>2024-07-02T10:04:31.149Z</time>
      </trkpt>
      <trkpt lat="51.7244" lon="4.40645">
        <ele>54.563187</ele>
        <time>2024-07-02T10:04:34.142Z</time>
      </trkpt>
      <trkpt lat="51.7245" lon="4.40651">
        <ele>54.523164</ele>
        <time>2024-07-02T10:04:37.136Z</time>
      </trkpt>
      <trkpt lat="51.72461" lon="4.40658">
        <ele>54.482042</ele>
        <time>2024-07-02T10:04:40.128Z</time>
      </trkpt>
      <trkpt lat="51.72473" lon="4.40664">
        <ele>54.437798</ele>
        <time>2024-07-02T10:04:43.119Z</time>
      </trkpt>
      <trkpt lat="51.72485" lon="4.40673">
        <ele>54.391992</ele>
        <time>2024-07-02T10:04:46.156Z</time>
      </trkpt>
      <trkpt lat="51.72497" lon="4.40679">
        <ele>54.345544</ele>
        <time>2024-07-02T10:04:49.136Z</time>
      </trkpt>
      <trkpt lat="51.72509" lon="4.40687">
        <ele>54.299428</ele>
        <time>2024-07-02T10:04:52.162Z</time>
      </trkpt>
      <trkpt lat="51.72522" lon="4.40695">
        <ele>54.231039</ele>
        <time>2024-07-02T10:04:55.121Z</time>
      </trkpt>
      <trkpt lat="51.72534" lon="4.40703">
        <ele>54.103671</ele>
        <time>2024-07-02T10:04:58.142Z</time>
      </trkpt>
      <trkpt lat="51.72543" lon="4.40708">
        <ele>54.015257</ele>
        <time>2024-07-02T10:05:00.141Z</time>
      </trkpt>
      <trkpt lat="51.72552" lon="4.40714">
        <ele>53.92533</ele>
        <time>2024-07-02T10:05:02.151Z</time>
      </trkpt>
      <trkpt lat="51.7256" lon="4.40719">
        <ele>53.837806</ele>
        <time>2024-07-02T10:05:04.145Z</time>
      </trkpt>
      <trkpt lat="51.72573" lon="4.40727">
        <ele>53.711315</ele>
        <time>2024-07-02T10:05:07.140Z</time>
      </trkpt>
      <trkpt lat="51.72585" lon="4.40735">
        <ele>53.583284</ele>
        <time>2024-07-02T10:05:10.151Z</time>
      </trkpt>
      <trkpt lat="51.72598" lon="4.40744">
        <ele>53.454159</ele>
        <time>2024-07-02T10:05:13.149Z</time>
      </trkpt>
      <trkpt lat="51.72607" lon="4.40749">
        <ele>53.366433</ele>
        <time>2024-07-02T10:05:15.140Z</time>
      </trkpt>
      <trkpt lat="51.72616" lon="4.40754">
        <ele>53.27564</ele>
        <time>2024-07-02T10:05:17.142Z</time>
      </trkpt>
      <trkpt lat="51.72624" lon="4.4076">
        <ele>53.187049</ele>
        <time>2024-07-02T10:05:19.145Z</time>
      </trkpt>
      <trkpt lat="51.72633" lon="4.40766">
        <ele>53.097122</ele>
        <time>2024-07-02T10:05:21.136Z</time>
      </trkpt>
      <trkpt lat="51.72642" lon="4.40772">
        <ele>53.008509</ele>
        <time>2024-07-02T10:05:23.152Z</time>
      </trkpt>
      <trkpt lat="51.72651" lon="4.40776">
        <ele>52.917261</ele>
        <time>2024-07-02T10:05:25.125Z</time>
      </trkpt>
      <trkpt lat="51.72663" lon="4.40784">
        <ele>52.789893</ele>
        <time>2024-07-02T10:05:28.151Z</time>
      </trkpt>
      <trkpt lat="51.72672" lon="4.4079">
        <ele>52.701754</ele>
        <time>2024-07-02T10:05:30.153Z</time>
      </trkpt>
      <trkpt lat="51.72685" lon="4.40798">
        <ele>52.574386</ele>
        <time>2024-07-02T10:05:33.145Z</time>
      </trkpt>
      <trkpt lat="51.72693" lon="4.40803">
        <ele>52.553549</ele>
        <time>2024-07-02T10:05:35.135Z</time>
      </trkpt>
      <trkpt lat="51.72706" lon="4.40811">
        <ele>52.537171</ele>
        <time>2024-07-02T10:05:38.159Z</time>
      </trkpt>
      <trkpt lat="51.72715" lon="4.40816">
        <ele>52.525979</ele>
        <time>2024-07-02T10:05:40.150Z</time>
      </trkpt>
      <trkpt lat="51.72723" lon="4.40822">
        <ele>52.514587</ele>
        <time>2024-07-02T10:05:42.141Z</time>
      </trkpt>
      <trkpt lat="51.72735" lon="4.4083">
        <ele>52.498627</ele>
        <time>2024-07-02T10:05:45.119Z</time>
      </trkpt>
      <trkpt lat="51.72748" lon="4.40837">
        <ele>52.482586</ele>
        <time>2024-07-02T10:05:48.137Z</time>
      </trkpt>
      <trkpt lat="51.72756" lon="4.40843">
        <ele>52.471593</ele>
        <time>2024-07-02T10:05:50.145Z</time>
      </trkpt>
      <trkpt lat="51.72768" lon="4.40851">
        <ele>52.455582</ele>
        <time>2024-07-02T10:05:53.130Z</time>
      </trkpt>
      <trkpt lat="51.7278" lon="4.40859">
        <ele>52.440021</ele>
        <time>2024-07-02T10:05:56.144Z</time>
      </trkpt>
      <trkpt lat="51.72792" lon="4.40868">
        <ele>52.42377</ele>
        <time>2024-07-02T10:05:59.136Z</time>
      </trkpt>
      <trkpt lat="51.72804" lon="4.40877">
        <ele>52.407837</ele>
        <time>2024-07-02T10:06:02.128Z</time>
      </trkpt>
      <trkpt lat="51.72816" lon="4.40885">
        <ele>52.392079</ele>
        <time>2024-07-02T10:06:05.122Z</time>
      </trkpt>
      <trkpt lat="51.72828" lon="4.40893">
        <ele>52.376236</ele>
        <time>2024-07-02T10:06:08.129Z</time>
      </trkpt>
      <trkpt lat="51.7284" lon="4.40902">
        <ele>52.360049</ele>
        <time>2024-07-02T10:06:11.144Z</time>
      </trkpt>
      <trkpt lat="51.72849" lon="4.40907">
        <ele>52.348743</ele>
        <time>2024-07-02T10:06:13.158Z</time>
      </trkpt>
      <trkpt lat="51.72858" lon="4.40913">
        <ele>52.375363</ele>
        <time>2024-07-02T10:06:15.122Z</time>
      </trkpt>
      <trkpt lat="51.72866" lon="4.40919">
        <ele>52.420959</ele>
        <time>2024-07-02T10:06:17.156Z</time>
      </trkpt>
      <trkpt lat="51.72874" lon="4.40925">
        <ele>52.466185</ele>
        <time>2024-07-02T10:06:19.136Z</time>
      </trkpt>
      <trkpt lat="51.72887" lon="4.40933">
        <ele>52.531953</ele>
        <time>2024-07-02T10:06:22.132Z</time>
      </trkpt>
      <trkpt lat="51.72899" lon="4.40941">
        <ele>52.598308</ele>
        <time>2024-07-02T10:06:25.121Z</time>
      </trkpt>
      <trkpt lat="51.72908" lon="4.40946">
        <ele>52.642785</ele>
        <time>2024-07-02T10:06:27.139Z</time>
      </trkpt>
      <trkpt lat="51.7292" lon="4.40954">
        <ele>52.709354</ele>
        <time>2024-07-02T10:06:30.145Z</time>
      </trkpt>
      <trkpt lat="51.72929" lon="4.4096">
        <ele>52.754461</ele>
        <time>2024-07-02T10:06:32.135Z</time>
      </trkpt>
      <trkpt lat="51.72941" lon="4.40967">
        <ele>52.819879</ele>
        <time>2024-07-02T10:06:35.147Z</time>
      </trkpt>
      <trkpt lat="51.72953" lon="4.40975">
        <ele>52.885524</ele>
        <time>2024-07-02T10:06:38.133Z</time>
      </trkpt>
      <trkpt lat="51.72965" lon="4.40983">
        <ele>52.950136</ele>
        <time>2024-07-02T10:06:41.146Z</time>
      </trkpt>
      <trkpt lat="51.72977" lon="4.40991">
        <ele>53.013374</ele>
        <time>2024-07-02T10:06:44.154Z</time>
      </trkpt>
      <trkpt lat="51.7299" lon="4.40998">
        <ele>53.079439</ele>
        <time>2024-07-02T10:06:47.141Z</time>
      </trkpt>
      <trkpt lat="51.72998" lon="4.41003">
        <ele>53.12397</ele>
        <time>2024-07-02T10:06:49.140Z</time>
      </trkpt>
      <trkpt lat="51.73007" lon="4.41009">
        <ele>53.169077</ele>
        <time>2024-07-02T10:06:51.136Z</time>
      </trkpt>
      <trkpt lat="51.73015" lon="4.41014">
        <ele>53.214431</ele>
        <time>2024-07-02T10:06:53.152Z</time>
      </trkpt>
      <trkpt lat="51.73028" lon="4.41021">
        <ele>53.214135</ele>
        <time>2024-07-02T10:06:56.151Z</time>
      </trkpt>
      <trkpt lat="51.73036" lon="4.41026">
        <ele>53.193004</ele>
        <time>2024-07-02T10:06:58.140Z</time>
      </trkpt>
      <trkpt lat="51.73045" lon="4.4103">
        <ele>53.171188</ele>
        <time>2024-07-02T10:07:00.138Z</time>
      </trkpt>
      <trkpt lat="51.73058" lon="4.41038">
        <ele>53.140836</ele>
        <time>2024-07-02T10:07:03.141Z</time>
      </trkpt>
      <trkpt lat="51.7307" lon="4.41043">
        <ele>53.11176</ele>
        <time>2024-07-02T10:07:06.157Z</time>
      </trkpt>
      <trkpt lat="51.73081" lon="4.4105">
        <ele>53.084132</ele>
        <time>2024-07-02T10:07:09.135Z</time>
      </trkpt>
      <trkpt lat="51.73093" lon="4.41056">
        <ele>53.054981</ele>
        <time>2024-07-02T10:07:12.121Z</time>
      </trkpt>
      <trkpt lat="51.73105" lon="4.41063">
        <ele>53.025484</ele>
        <time>2024-07-02T10:07:15.125Z</time>
      </trkpt>
      <trkpt lat="51.73117" lon="4.41069">
        <ele>52.996645</ele>
        <time>2024-07-02T10:07:18.146Z</time>
      </trkpt>
      <trkpt lat="51.73128" lon="4.41076">
        <ele>52.968865</ele>
        <time>2024-07-02T10:07:21.143Z</time>
      </trkpt>
      <trkpt lat="51.73139" lon="4.41082">
        <ele>52.94092</ele>
        <time>2024-07-02T10:07:24.139Z</time>
      </trkpt>
      <trkpt lat="51.73151" lon="4.41088">
        <ele>52.912788</ele>
        <time>2024-07-02T10:07:27.145Z</time>
      </trkpt>
      <trkpt lat="51.73162" lon="4.41094">
        <ele>52.885141</ele>
        <time>2024-07-02T10:07:30.144Z</time>
      </trkpt>
      <trkpt lat="51.73174" lon="4.41099">
        <ele>52.857517</ele>
        <time>2024-07-02T10:07:33.150Z</time>
      </trkpt>
      <trkpt lat="51.73185" lon="4.41105">
        <ele>52.829869</ele>
        <time>2024-07-02T10:07:36.161Z</time>
      </trkpt>
      <trkpt lat="51.73197" lon="4.41111">
        <ele>52.734321</ele>
        <time>2024-07-02T10:07:39.116Z</time>
      </trkpt>
      <trkpt lat="51.73208" lon="4.41117">
        <ele>52.603647</ele>
        <time>2024-07-02T10:07:42.155Z</time>
      </trkpt>
      <trkpt lat="51.73219" lon="4.41122">
        <ele>52.474898</ele>
        <time>2024-07-02T10:07:45.117Z</time>
      </trkpt>
      <trkpt lat="51.7323" lon="4.4113">
        <ele>52.350044</ele>
        <time>2024-07-02T10:07:48.155Z</time>
      </trkpt>
      <trkpt lat="51.73239" lon="4.4114">
        <ele>52.227321</ele>
        <time>2024-07-02T10:07:51.148Z</time>
      </trkpt>
      <trkpt lat="51.73246" lon="4.41151">
        <ele>52.118914</ele>
        <time>2024-07-02T10:07:54.142Z</time>
      </trkpt>
      <trkpt lat="51.73253" lon="4.41161">
        <ele>52.015728</ele>
        <time>2024-07-02T10:07:57.145Z</time>
      </trkpt>
      <trkpt lat="51.7326" lon="4.41174">
        <ele>51.898344</ele>
        <time>2024-07-02T10:08:01.128Z</time>
      </trkpt>
      <trkpt lat="51.73267" lon="4.41183">
        <ele>51.79773</ele>
        <time>2024-07-02T10:08:04.149Z</time>
      </trkpt>
      <trkpt lat="51.73275" lon="4.41192">
        <ele>51.687936</ele>
        <time>2024-07-02T10:08:07.130Z</time>
      </trkpt>
      <trkpt lat="51.73281" lon="4.41203">
        <ele>51.584144</ele>
        <time>2024-07-02T10:08:10.135Z</time>
      </trkpt>
      <trkpt lat="51.73288" lon="4.41216">
        <ele>51.468412</ele>
        <time>2024-07-02T10:08:13.132Z</time>
      </trkpt>
      <trkpt lat="51.73293" lon="4.41232">
        <ele>51.343879</ele>
        <time>2024-07-02T10:08:16.156Z</time>
      </trkpt>
      <trkpt lat="51.73298" lon="4.41251">
        <ele>51.201219</ele>
        <time>2024-07-02T10:08:19.148Z</time>
      </trkpt>
      <trkpt lat="51.733" lon="4.41266">
        <ele>51.094268</ele>
        <time>2024-07-02T10:08:21.125Z</time>
      </trkpt>
      <trkpt lat="51.73302" lon="4.41282">
        <ele>50.981712</ele>
        <time>2024-07-02T10:08:23.117Z</time>
      </trkpt>
      <trkpt lat="51.733" lon="4.41298">
        <ele>50.870736</ele>
        <time>2024-07-02T10:08:25.141Z</time>
      </trkpt>
      <trkpt lat="51.73293" lon="4.4131">
        <ele>50.747518</ele>
        <time>2024-07-02T10:08:27.122Z</time>
      </trkpt>
      <trkpt lat="51.73283" lon="4.4131">
        <ele>50.633018</ele>
        <time>2024-07-02T10:08:29.122Z</time>
      </trkpt>
      <trkpt lat="51.73273" lon="4.41306">
        <ele>50.505978</ele>
        <time>2024-07-02T10:08:31.152Z</time>
      </trkpt>
      <trkpt lat="51.73262" lon="4.41306">
        <ele>50.3671</ele>
        <time>2024-07-02T10:08:33.136Z</time>
      </trkpt>
      <trkpt lat="51.73249" lon="4.41306">
        <ele>50.21726</ele>
        <time>2024-07-02T10:08:35.151Z</time>
      </trkpt>
      <trkpt lat="51.73236" lon="4.41305">
        <ele>50.057665</ele>
        <time>2024-07-02T10:08:37.150Z</time>
      </trkpt>
      <trkpt lat="51.73222" lon="4.41306">
        <ele>49.888347</ele>
        <time>2024-07-02T10:08:39.160Z</time>
      </trkpt>
      <trkpt lat="51.73209" lon="4.4131">
        <ele>49.718053</ele>
        <time>2024-07-02T10:08:41.141Z</time>
      </trkpt>
      <trkpt lat="51.73199" lon="4.41324">
        <ele>49.560212</ele>
        <time>2024-07-02T10:08:43.127Z</time>
      </trkpt>
      <trkpt lat="51.73191" lon="4.41339">
        <ele>49.410479</ele>
        <time>2024-07-02T10:08:45.130Z</time>
      </trkpt>
      <trkpt lat="51.73182" lon="4.41354">
        <ele>49.256472</ele>
        <time>2024-07-02T10:08:47.134Z</time>
      </trkpt>
      <trkpt lat="51.73174" lon="4.41369">
        <ele>49.105807</ele>
        <time>2024-07-02T10:08:49.151Z</time>
      </trkpt>
      <trkpt lat="51.73167" lon="4.41384">
        <ele>48.960919</ele>
        <time>2024-07-02T10:08:51.142Z</time>
      </trkpt>
      <trkpt lat="51.73158" lon="4.41398">
        <ele>48.813326</ele>
        <time>2024-07-02T10:08:53.143Z</time>
      </trkpt>
      <trkpt lat="51.7315" lon="4.41412">
        <ele>48.669887</ele>
        <time>2024-07-02T10:08:55.148Z</time>
      </trkpt>
      <trkpt lat="51.73144" lon="4.41425">
        <ele>48.617069</ele>
        <time>2024-07-02T10:08:57.128Z</time>
      </trkpt>
      <trkpt lat="51.73138" lon="4.4144">
        <ele>48.59424</ele>
        <time>2024-07-02T10:08:59.141Z</time>
      </trkpt>
      <trkpt lat="51.73141" lon="4.41459">
        <ele>48.568141</ele>
        <time>2024-07-02T10:09:01.133Z</time>
      </trkpt>
      <trkpt lat="51.73149" lon="4.41475">
        <ele>48.539561</ele>
        <time>2024-07-02T10:09:03.167Z</time>
      </trkpt>
      <trkpt lat="51.73158" lon="4.4149">
        <ele>48.511497</ele>
        <time>2024-07-02T10:09:05.133Z</time>
      </trkpt>
      <trkpt lat="51.73165" lon="4.41505">
        <ele>48.485437</ele>
        <time>2024-07-02T10:09:07.161Z</time>
      </trkpt>
      <trkpt lat="51.73171" lon="4.41521">
        <ele>48.460545</ele>
        <time>2024-07-02T10:09:09.139Z</time>
      </trkpt>
      <trkpt lat="51.73177" lon="4.41536">
        <ele>48.435886</ele>
        <time>2024-07-02T10:09:11.158Z</time>
      </trkpt>
      <trkpt lat="51.73183" lon="4.41551">
        <ele>48.412136</ele>
        <time>2024-07-02T10:09:13.156Z</time>
      </trkpt>
      <trkpt lat="51.73189" lon="4.41566">
        <ele>48.388512</ele>
        <time>2024-07-02T10:09:15.131Z</time>
      </trkpt>
      <trkpt lat="51.73194" lon="4.41581">
        <ele>48.365894</ele>
        <time>2024-07-02T10:09:17.147Z</time>
      </trkpt>
      <trkpt lat="51.73199" lon="4.41595">
        <ele>48.343301</ele>
        <time>2024-07-02T10:09:19.147Z</time>
      </trkpt>
      <trkpt lat="51.73203" lon="4.41609">
        <ele>48.321569</ele>
        <time>2024-07-02T10:09:21.158Z</time>
      </trkpt>
      <trkpt lat="51.73208" lon="4.41623">
        <ele>48.29977</ele>
        <time>2024-07-02T10:09:23.151Z</time>
      </trkpt>
      <trkpt lat="51.73213" lon="4.41638">
        <ele>48.277638</ele>
        <time>2024-07-02T10:09:25.140Z</time>
      </trkpt>
      <trkpt lat="51.73217" lon="4.41652">
        <ele>48.255827</ele>
        <time>2024-07-02T10:09:27.140Z</time>
      </trkpt>
      <trkpt lat="51.73222" lon="4.41667">
        <ele>48.239668</ele>
        <time>2024-07-02T10:09:29.137Z</time>
      </trkpt>
      <trkpt lat="51.73226" lon="4.41681">
        <ele>48.237322</ele>
        <time>2024-07-02T10:09:31.147Z</time>
      </trkpt>
      <trkpt lat="51.7323" lon="4.41694">
        <ele>48.23496</ele>
        <time>2024-07-02T10:09:33.139Z</time>
      </trkpt>
      <trkpt lat="51.73235" lon="4.41709">
        <ele>48.232503</ele>
        <time>2024-07-02T10:09:35.136Z</time>
      </trkpt>
      <trkpt lat="51.73239" lon="4.41723">
        <ele>48.230066</ele>
        <time>2024-07-02T10:09:37.141Z</time>
      </trkpt>
      <trkpt lat="51.73243" lon="4.41737">
        <ele>48.227765</ele>
        <time>2024-07-02T10:09:39.126Z</time>
      </trkpt>
      <trkpt lat="51.73248" lon="4.4175">
        <ele>48.225472</ele>
        <time>2024-07-02T10:09:41.156Z</time>
      </trkpt>
      <trkpt lat="51.73252" lon="4.41763">
        <ele>48.223241</ele>
        <time>2024-07-02T10:09:43.150Z</time>
      </trkpt>
      <trkpt lat="51.73256" lon="4.41776">
        <ele>48.220973</ele>
        <time>2024-07-02T10:09:45.130Z</time>
      </trkpt>
      <trkpt lat="51.7326" lon="4.4179">
        <ele>48.21869</ele>
        <time>2024-07-02T10:09:47.119Z</time>
      </trkpt>
      <trkpt lat="51.73264" lon="4.41804">
        <ele>48.216315</ele>
        <time>2024-07-02T10:09:49.132Z</time>
      </trkpt>
      <trkpt lat="51.73269" lon="4.41817">
        <ele>48.213984</ele>
        <time>2024-07-02T10:09:51.153Z</time>
      </trkpt>
      <trkpt lat="51.73275" lon="4.41837">
        <ele>48.210635</ele>
        <time>2024-07-02T10:09:54.140Z</time>
      </trkpt>
      <trkpt lat="51.73279" lon="4.41851">
        <ele>48.208292</ele>
        <time>2024-07-02T10:09:56.141Z</time>
      </trkpt>
      <trkpt lat="51.73283" lon="4.41864">
        <ele>48.206072</ele>
        <time>2024-07-02T10:09:58.155Z</time>
      </trkpt>
      <trkpt lat="51.73289" lon="4.41882">
        <ele>48.202919</ele>
        <time>2024-07-02T10:10:01.152Z</time>
      </trkpt>
      <trkpt lat="51.73293" lon="4.41895">
        <ele>48.200677</ele>
        <time>2024-07-02T10:10:03.137Z</time>
      </trkpt>
      <trkpt lat="51.73299" lon="4.41915">
        <ele>48.197429</ele>
        <time>2024-07-02T10:10:06.141Z</time>
      </trkpt>
      <trkpt lat="51.73303" lon="4.41928">
        <ele>48.194444</ele>
        <time>2024-07-02T10:10:08.149Z</time>
      </trkpt>
      <trkpt lat="51.73307" lon="4.41941">
        <ele>48.190453</ele>
        <time>2024-07-02T10:10:10.144Z</time>
      </trkpt>
      <trkpt lat="51.73312" lon="4.41955">
        <ele>48.186377</ele>
        <time>2024-07-02T10:10:12.147Z</time>
      </trkpt>
      <trkpt lat="51.73316" lon="4.4197">
        <ele>48.182155</ele>
        <time>2024-07-02T10:10:14.148Z</time>
      </trkpt>
      <trkpt lat="51.73321" lon="4.41983">
        <ele>48.178164</ele>
        <time>2024-07-02T10:10:16.148Z</time>
      </trkpt>
      <trkpt lat="51.73325" lon="4.41998">
        <ele>48.174096</ele>
        <time>2024-07-02T10:10:18.130Z</time>
      </trkpt>
      <trkpt lat="51.73328" lon="4.42011">
        <ele>48.170279</ele>
        <time>2024-07-02T10:10:20.140Z</time>
      </trkpt>
      <trkpt lat="51.73331" lon="4.42026">
        <ele>48.16624</ele>
        <time>2024-07-02T10:10:22.145Z</time>
      </trkpt>
      <trkpt lat="51.73335" lon="4.4204">
        <ele>48.162158</ele>
        <time>2024-07-02T10:10:24.141Z</time>
      </trkpt>
      <trkpt lat="51.73339" lon="4.42055">
        <ele>48.1581</ele>
        <time>2024-07-02T10:10:26.143Z</time>
      </trkpt>
      <trkpt lat="51.73343" lon="4.42069">
        <ele>48.153854</ele>
        <time>2024-07-02T10:10:28.142Z</time>
      </trkpt>
      <trkpt lat="51.73347" lon="4.42084">
        <ele>48.14981</ele>
        <time>2024-07-02T10:10:30.159Z</time>
      </trkpt>
      <trkpt lat="51.7335" lon="4.42098">
        <ele>48.145711</ele>
        <time>2024-07-02T10:10:32.163Z</time>
      </trkpt>
      <trkpt lat="51.73355" lon="4.42113">
        <ele>48.141294</ele>
        <time>2024-07-02T10:10:34.155Z</time>
      </trkpt>
      <trkpt lat="51.73359" lon="4.42129">
        <ele>48.136947</ele>
        <time>2024-07-02T10:10:36.160Z</time>
      </trkpt>
      <trkpt lat="51.73363" lon="4.42144">
        <ele>48.13264</ele>
        <time>2024-07-02T10:10:38.141Z</time>
      </trkpt>
      <trkpt lat="51.73367" lon="4.42159">
        <ele>48.128412</ele>
        <time>2024-07-02T10:10:40.128Z</time>
      </trkpt>
      <trkpt lat="51.7337" lon="4.42174">
        <ele>48.124309</ele>
        <time>2024-07-02T10:10:42.151Z</time>
      </trkpt>
      <trkpt lat="51.73374" lon="4.42188">
        <ele>48.118143</ele>
        <time>2024-07-02T10:10:44.156Z</time>
      </trkpt>
      <trkpt lat="51.73377" lon="4.42202">
        <ele>48.031886</ele>
        <time>2024-07-02T10:10:46.165Z</time>
      </trkpt>
      <trkpt lat="51.73381" lon="4.42217">
        <ele>47.947777</ele>
        <time>2024-07-02T10:10:48.157Z</time>
      </trkpt>
      <trkpt lat="51.73384" lon="4.42231">
        <ele>47.864783</ele>
        <time>2024-07-02T10:10:50.158Z</time>
      </trkpt>
      <trkpt lat="51.73387" lon="4.42246">
        <ele>47.781336</ele>
        <time>2024-07-02T10:10:52.142Z</time>
      </trkpt>
      <trkpt lat="51.73389" lon="4.42261">
        <ele>47.697911</ele>
        <time>2024-07-02T10:10:54.150Z</time>
      </trkpt>
      <trkpt lat="51.73391" lon="4.42275">
        <ele>47.617238</ele>
        <time>2024-07-02T10:10:56.151Z</time>
      </trkpt>
      <trkpt lat="51.73393" lon="4.4229">
        <ele>47.53734</ele>
        <time>2024-07-02T10:10:58.142Z</time>
      </trkpt>
      <trkpt lat="51.73395" lon="4.42305">
        <ele>47.455519</ele>
        <time>2024-07-02T10:11:00.136Z</time>
      </trkpt>
      <trkpt lat="51.73396" lon="4.42326">
        <ele>47.33761</ele>
        <time>2024-07-02T10:11:03.139Z</time>
      </trkpt>
      <trkpt lat="51.73397" lon="4.42341">
        <ele>47.258901</ele>
        <time>2024-07-02T10:11:05.142Z</time>
      </trkpt>
      <trkpt lat="51.73398" lon="4.42355">
        <ele>47.178309</ele>
        <time>2024-07-02T10:11:07.143Z</time>
      </trkpt>
      <trkpt lat="51.73399" lon="4.4237">
        <ele>47.096895</ele>
        <time>2024-07-02T10:11:09.146Z</time>
      </trkpt>
      <trkpt lat="51.73399" lon="4.42386">
        <ele>47.014939</ele>
        <time>2024-07-02T10:11:11.151Z</time>
      </trkpt>
      <trkpt lat="51.73399" lon="4.42401">
        <ele>46.933548</ele>
        <time>2024-07-02T10:11:13.146Z</time>
      </trkpt>
      <trkpt lat="51.73398" lon="4.42422">
        <ele>46.816213</ele>
        <time>2024-07-02T10:11:16.143Z</time>
      </trkpt>
      <trkpt lat="51.73397" lon="4.42444">
        <ele>46.698877</ele>
        <time>2024-07-02T10:11:19.150Z</time>
      </trkpt>
      <trkpt lat="51.73397" lon="4.42459">
        <ele>46.618357</ele>
        <time>2024-07-02T10:11:21.147Z</time>
      </trkpt>
      <trkpt lat="51.73396" lon="4.42473">
        <ele>46.549573</ele>
        <time>2024-07-02T10:11:23.133Z</time>
      </trkpt>
      <trkpt lat="51.73395" lon="4.42495">
        <ele>46.636634</ele>
        <time>2024-07-02T10:11:26.168Z</time>
      </trkpt>
      <trkpt lat="51.73395" lon="4.42517">
        <ele>46.724527</ele>
        <time>2024-07-02T10:11:29.130Z</time>
      </trkpt>
      <trkpt lat="51.73394" lon="4.42531">
        <ele>46.78339</ele>
        <time>2024-07-02T10:11:31.132Z</time>
      </trkpt>
      <trkpt lat="51.73393" lon="4.42546">
        <ele>46.843288</ele>
        <time>2024-07-02T10:11:33.148Z</time>
      </trkpt>
      <trkpt lat="51.73393" lon="4.4256">
        <ele>46.901695</ele>
        <time>2024-07-02T10:11:35.129Z</time>
      </trkpt>
      <trkpt lat="51.73392" lon="4.42575">
        <ele>46.96073</ele>
        <time>2024-07-02T10:11:37.139Z</time>
      </trkpt>
      <trkpt lat="51.73392" lon="4.4259">
        <ele>47.020515</ele>
        <time>2024-07-02T10:11:39.137Z</time>
      </trkpt>
      <trkpt lat="51.73391" lon="4.42611">
        <ele>47.105401</ele>
        <time>2024-07-02T10:11:42.144Z</time>
      </trkpt>
      <trkpt lat="51.7339" lon="4.42626">
        <ele>47.164699</ele>
        <time>2024-07-02T10:11:44.144Z</time>
      </trkpt>
      <trkpt lat="51.73389" lon="4.4264">
        <ele>47.224998</ele>
        <time>2024-07-02T10:11:46.157Z</time>
      </trkpt>
      <trkpt lat="51.73388" lon="4.42655">
        <ele>47.285586</ele>
        <time>2024-07-02T10:11:48.143Z</time>
      </trkpt>
      <trkpt lat="51.73388" lon="4.4267">
        <ele>47.345826</ele>
        <time>2024-07-02T10:11:50.142Z</time>
      </trkpt>
      <trkpt lat="51.73386" lon="4.42692">
        <ele>47.433176</ele>
        <time>2024-07-02T10:11:53.155Z</time>
      </trkpt>
      <trkpt lat="51.73386" lon="4.42707">
        <ele>47.493607</ele>
        <time>2024-07-02T10:11:55.127Z</time>
      </trkpt>
      <trkpt lat="51.73385" lon="4.42722">
        <ele>47.554307</ele>
        <time>2024-07-02T10:11:57.154Z</time>
      </trkpt>
      <trkpt lat="51.73385" lon="4.42744">
        <ele>47.641307</ele>
        <time>2024-07-02T10:12:00.139Z</time>
      </trkpt>
      <trkpt lat="51.73384" lon="4.42765">
        <ele>47.713976</ele>
        <time>2024-07-02T10:12:03.159Z</time>
      </trkpt>
      <trkpt lat="51.73383" lon="4.4278">
        <ele>47.710496</ele>
        <time>2024-07-02T10:12:05.139Z</time>
      </trkpt>
      <trkpt lat="51.73382" lon="4.42795">
        <ele>47.706992</ele>
        <time>2024-07-02T10:12:07.148Z</time>
      </trkpt>
      <trkpt lat="51.73382" lon="4.4281">
        <ele>47.703581</ele>
        <time>2024-07-02T10:12:09.138Z</time>
      </trkpt>
      <trkpt lat="51.73381" lon="4.42825">
        <ele>47.700246</ele>
        <time>2024-07-02T10:12:11.154Z</time>
      </trkpt>
      <trkpt lat="51.73381" lon="4.42839">
        <ele>47.696903</ele>
        <time>2024-07-02T10:12:13.162Z</time>
      </trkpt>
      <trkpt lat="51.73379" lon="4.4286">
        <ele>47.692062</ele>
        <time>2024-07-02T10:12:16.121Z</time>
      </trkpt>
      <trkpt lat="51.73379" lon="4.42875">
        <ele>47.688655</ele>
        <time>2024-07-02T10:12:18.146Z</time>
      </trkpt>
      <trkpt lat="51.73378" lon="4.42896">
        <ele>47.683752</ele>
        <time>2024-07-02T10:12:21.153Z</time>
      </trkpt>
      <trkpt lat="51.73378" lon="4.42911">
        <ele>47.680373</ele>
        <time>2024-07-02T10:12:23.146Z</time>
      </trkpt>
      <trkpt lat="51.73377" lon="4.42925">
        <ele>47.677032</ele>
        <time>2024-07-02T10:12:25.123Z</time>
      </trkpt>
      <trkpt lat="51.73377" lon="4.4294">
        <ele>47.673653</ele>
        <time>2024-07-02T10:12:27.150Z</time>
      </trkpt>
      <trkpt lat="51.73376" lon="4.42962">
        <ele>47.668683</ele>
        <time>2024-07-02T10:12:30.151Z</time>
      </trkpt>
      <trkpt lat="51.73376" lon="4.42982">
        <ele>47.663962</ele>
        <time>2024-07-02T10:12:33.137Z</time>
      </trkpt>
      <trkpt lat="51.73374" lon="4.43002">
        <ele>47.659362</ele>
        <time>2024-07-02T10:12:36.149Z</time>
      </trkpt>
      <trkpt lat="51.73373" lon="4.43022">
        <ele>47.654789</ele>
        <time>2024-07-02T10:12:39.142Z</time>
      </trkpt>
      <trkpt lat="51.73373" lon="4.43042">
        <ele>47.650188</ele>
        <time>2024-07-02T10:12:42.143Z</time>
      </trkpt>
      <trkpt lat="51.73371" lon="4.43063">
        <ele>47.647168</ele>
        <time>2024-07-02T10:12:45.135Z</time>
      </trkpt>
      <trkpt lat="51.7337" lon="4.43078">
        <ele>47.646143</ele>
        <time>2024-07-02T10:12:47.154Z</time>
      </trkpt>
      <trkpt lat="51.73369" lon="4.43092">
        <ele>47.645107</ele>
        <time>2024-07-02T10:12:49.152Z</time>
      </trkpt>
      <trkpt lat="51.73369" lon="4.43113">
        <ele>47.64364</ele>
        <time>2024-07-02T10:12:52.138Z</time>
      </trkpt>
      <trkpt lat="51.73369" lon="4.43128">
        <ele>47.642615</ele>
        <time>2024-07-02T10:12:54.144Z</time>
      </trkpt>
      <trkpt lat="51.73369" lon="4.43143">
        <ele>47.641562</ele>
        <time>2024-07-02T10:12:56.151Z</time>
      </trkpt>
      <trkpt lat="51.73369" lon="4.43158">
        <ele>47.640542</ele>
        <time>2024-07-02T10:12:58.153Z</time>
      </trkpt>
      <trkpt lat="51.73368" lon="4.43178">
        <ele>47.639092</ele>
        <time>2024-07-02T10:13:01.151Z</time>
      </trkpt>
      <trkpt lat="51.73367" lon="4.43198">
        <ele>47.637755</ele>
        <time>2024-07-02T10:13:04.162Z</time>
      </trkpt>
      <trkpt lat="51.73366" lon="4.43216">
        <ele>47.63648</ele>
        <time>2024-07-02T10:13:07.151Z</time>
      </trkpt>
      <trkpt lat="51.73365" lon="4.43235">
        <ele>47.635114</ele>
        <time>2024-07-02T10:13:10.141Z</time>
      </trkpt>
      <trkpt lat="51.73364" lon="4.43254">
        <ele>47.633799</ele>
        <time>2024-07-02T10:13:13.155Z</time>
      </trkpt>
      <trkpt lat="51.73363" lon="4.43274">
        <ele>47.632381</ele>
        <time>2024-07-02T10:13:16.149Z</time>
      </trkpt>
      <trkpt lat="51.73363" lon="4.43294">
        <ele>47.63099</ele>
        <time>2024-07-02T10:13:19.148Z</time>
      </trkpt>
      <trkpt lat="51.73362" lon="4.43312">
        <ele>47.629726</ele>
        <time>2024-07-02T10:13:22.162Z</time>
      </trkpt>
      <trkpt lat="51.73359" lon="4.4333">
        <ele>47.628447</ele>
        <time>2024-07-02T10:13:25.136Z</time>
      </trkpt>
      <trkpt lat="51.73359" lon="4.43349">
        <ele>47.614473</ele>
        <time>2024-07-02T10:13:28.134Z</time>
      </trkpt>
      <trkpt lat="51.73359" lon="4.43366">
        <ele>47.586417</ele>
        <time>2024-07-02T10:13:31.133Z</time>
      </trkpt>
      <trkpt lat="51.73356" lon="4.43384">
        <ele>47.557066</ele>
        <time>2024-07-02T10:13:34.139Z</time>
      </trkpt>
      <trkpt lat="51.73355" lon="4.43403">
        <ele>47.526296</ele>
        <time>2024-07-02T10:13:37.147Z</time>
      </trkpt>
      <trkpt lat="51.73354" lon="4.43423">
        <ele>47.494985</ele>
        <time>2024-07-02T10:13:40.134Z</time>
      </trkpt>
      <trkpt lat="51.73353" lon="4.43443">
        <ele>47.463773</ele>
        <time>2024-07-02T10:13:43.156Z</time>
      </trkpt>
      <trkpt lat="51.73352" lon="4.43462">
        <ele>47.432507</ele>
        <time>2024-07-02T10:13:46.157Z</time>
      </trkpt>
      <trkpt lat="51.73351" lon="4.4348">
        <ele>47.403691</ele>
        <time>2024-07-02T10:13:49.140Z</time>
      </trkpt>
      <trkpt lat="51.73352" lon="4.43499">
        <ele>47.373272</ele>
        <time>2024-07-02T10:13:52.146Z</time>
      </trkpt>
      <trkpt lat="51.73351" lon="4.43519">
        <ele>47.341802</ele>
        <time>2024-07-02T10:13:55.132Z</time>
      </trkpt>
      <trkpt lat="51.7335" lon="4.43539">
        <ele>47.309832</ele>
        <time>2024-07-02T10:13:58.145Z</time>
      </trkpt>
      <trkpt lat="51.73349" lon="4.43559">
        <ele>47.27801</ele>
        <time>2024-07-02T10:14:01.141Z</time>
      </trkpt>
      <trkpt lat="51.73349" lon="4.4358">
        <ele>47.244608</ele>
        <time>2024-07-02T10:14:04.146Z</time>
      </trkpt>
      <trkpt lat="51.73348" lon="4.436">
        <ele>47.212934</ele>
        <time>2024-07-02T10:14:07.146Z</time>
      </trkpt>
      <trkpt lat="51.73347" lon="4.43621">
        <ele>47.179904</ele>
        <time>2024-07-02T10:14:10.130Z</time>
      </trkpt>
      <trkpt lat="51.73346" lon="4.43641">
        <ele>47.141264</ele>
        <time>2024-07-02T10:14:13.175Z</time>
      </trkpt>
      <trkpt lat="51.73345" lon="4.43659">
        <ele>47.101297</ele>
        <time>2024-07-02T10:14:16.148Z</time>
      </trkpt>
      <trkpt lat="51.73345" lon="4.43678">
        <ele>47.060917</ele>
        <time>2024-07-02T10:14:19.162Z</time>
      </trkpt>
      <trkpt lat="51.73343" lon="4.43697">
        <ele>47.018763</ele>
        <time>2024-07-02T10:14:22.146Z</time>
      </trkpt>
      <trkpt lat="51.73342" lon="4.43716">
        <ele>46.977206</ele>
        <time>2024-07-02T10:14:25.128Z</time>
      </trkpt>
      <trkpt lat="51.73342" lon="4.43734">
        <ele>46.938156</ele>
        <time>2024-07-02T10:14:28.141Z</time>
      </trkpt>
      <trkpt lat="51.73342" lon="4.43751">
        <ele>46.902058</ele>
        <time>2024-07-02T10:14:31.135Z</time>
      </trkpt>
      <trkpt lat="51.73341" lon="4.43767">
        <ele>46.86651</ele>
        <time>2024-07-02T10:14:34.166Z</time>
      </trkpt>
      <trkpt lat="51.73341" lon="4.43782">
        <ele>46.834189</ele>
        <time>2024-07-02T10:14:37.155Z</time>
      </trkpt>
      <trkpt lat="51.73341" lon="4.43797">
        <ele>46.802317</ele>
        <time>2024-07-02T10:14:41.176Z</time>
      </trkpt>
      <trkpt lat="51.73341" lon="4.43805">
        <ele>46.784319</ele>
        <time>2024-07-02T10:14:56.924Z</time>
      </trkpt>
      <trkpt lat="51.73342" lon="4.4384">
        <ele>46.709292</ele>
        <time>2024-07-02T10:17:08.146Z</time>
      </trkpt>
      <trkpt lat="51.73342" lon="4.43854">
        <ele>46.6773</ele>
        <time>2024-07-02T10:17:14.128Z</time>
      </trkpt>
      <trkpt lat="51.73351" lon="4.43864">
        <ele>46.641021</ele>
        <time>2024-07-02T10:17:19.135Z</time>
      </trkpt>
      <trkpt lat="51.7336" lon="4.43865">
        <ele>46.60939</ele>
        <time>2024-07-02T10:17:22.153Z</time>
      </trkpt>
      <trkpt lat="51.73369" lon="4.43866">
        <ele>46.576116</ele>
        <time>2024-07-02T10:17:25.111Z</time>
      </trkpt>
      <trkpt lat="51.7338" lon="4.43868">
        <ele>46.539849</ele>
        <time>2024-07-02T10:17:28.153Z</time>
      </trkpt>
      <trkpt lat="51.7339" lon="4.43869">
        <ele>46.520777</ele>
        <time>2024-07-02T10:17:31.158Z</time>
      </trkpt>
      <trkpt lat="51.73399" lon="4.43871">
        <ele>46.505158</ele>
        <time>2024-07-02T10:17:34.146Z</time>
      </trkpt>
      <trkpt lat="51.73409" lon="4.43872">
        <ele>46.488237</ele>
        <time>2024-07-02T10:17:37.141Z</time>
      </trkpt>
      <trkpt lat="51.73419" lon="4.43874">
        <ele>46.470406</ele>
        <time>2024-07-02T10:17:40.157Z</time>
      </trkpt>
      <trkpt lat="51.73429" lon="4.43875">
        <ele>46.453331</ele>
        <time>2024-07-02T10:17:43.138Z</time>
      </trkpt>
      <trkpt lat="51.73439" lon="4.43876">
        <ele>46.435772</ele>
        <time>2024-07-02T10:17:46.159Z</time>
      </trkpt>
      <trkpt lat="51.7345" lon="4.43877">
        <ele>46.41803</ele>
        <time>2024-07-02T10:17:49.137Z</time>
      </trkpt>
      <trkpt lat="51.73459" lon="4.43878">
        <ele>46.401609</ele>
        <time>2024-07-02T10:17:52.155Z</time>
      </trkpt>
      <trkpt lat="51.73471" lon="4.4388">
        <ele>46.381289</ele>
        <time>2024-07-02T10:17:56.137Z</time>
      </trkpt>
      <trkpt lat="51.73482" lon="4.43881">
        <ele>46.363661</ele>
        <time>2024-07-02T10:17:59.145Z</time>
      </trkpt>
      <trkpt lat="51.73492" lon="4.43883">
        <ele>46.345016</ele>
        <time>2024-07-02T10:18:02.155Z</time>
      </trkpt>
      <trkpt lat="51.73503" lon="4.43883">
        <ele>46.327125</ele>
        <time>2024-07-02T10:18:05.125Z</time>
      </trkpt>
      <trkpt lat="51.73513" lon="4.43885">
        <ele>46.309656</ele>
        <time>2024-07-02T10:18:08.161Z</time>
      </trkpt>
      <trkpt lat="51.73523" lon="4.43888">
        <ele>46.292534</ele>
        <time>2024-07-02T10:18:11.134Z</time>
      </trkpt>
      <trkpt lat="51.73533" lon="4.4389">
        <ele>46.27489</ele>
        <time>2024-07-02T10:18:14.146Z</time>
      </trkpt>
      <trkpt lat="51.73543" lon="4.43894">
        <ele>46.257877</ele>
        <time>2024-07-02T10:18:17.156Z</time>
      </trkpt>
      <trkpt lat="51.73554" lon="4.43898">
        <ele>46.239498</ele>
        <time>2024-07-02T10:18:20.153Z</time>
      </trkpt>
      <trkpt lat="51.73564" lon="4.43901">
        <ele>46.249453</ele>
        <time>2024-07-02T10:18:23.135Z</time>
      </trkpt>
      <trkpt lat="51.73575" lon="4.43904">
        <ele>46.294528</ele>
        <time>2024-07-02T10:18:26.158Z</time>
      </trkpt>
      <trkpt lat="51.73585" lon="4.43907">
        <ele>46.338357</ele>
        <time>2024-07-02T10:18:29.147Z</time>
      </trkpt>
      <trkpt lat="51.73596" lon="4.43911">
        <ele>46.381913</ele>
        <time>2024-07-02T10:18:32.162Z</time>
      </trkpt>
      <trkpt lat="51.73607" lon="4.43914">
        <ele>46.427034</ele>
        <time>2024-07-02T10:18:35.122Z</time>
      </trkpt>
      <trkpt lat="51.73617" lon="4.43919">
        <ele>46.47144</ele>
        <time>2024-07-02T10:18:38.150Z</time>
      </trkpt>
      <trkpt lat="51.73627" lon="4.43922">
        <ele>46.514372</ele>
        <time>2024-07-02T10:18:41.129Z</time>
      </trkpt>
      <trkpt lat="51.73637" lon="4.43925">
        <ele>46.555264</ele>
        <time>2024-07-02T10:18:44.150Z</time>
      </trkpt>
      <trkpt lat="51.73647" lon="4.43929">
        <ele>46.596552</ele>
        <time>2024-07-02T10:18:47.135Z</time>
      </trkpt>
      <trkpt lat="51.73656" lon="4.43932">
        <ele>46.634671</ele>
        <time>2024-07-02T10:18:50.118Z</time>
      </trkpt>
      <trkpt lat="51.73667" lon="4.43936">
        <ele>46.679792</ele>
        <time>2024-07-02T10:18:54.155Z</time>
      </trkpt>
      <trkpt lat="51.73677" lon="4.4394">
        <ele>46.719736</ele>
        <time>2024-07-02T10:18:58.131Z</time>
      </trkpt>
      <trkpt lat="51.73686" lon="4.43942">
        <ele>46.756935</ele>
        <time>2024-07-02T10:19:03.167Z</time>
      </trkpt>
      <trkpt lat="51.73687" lon="4.43946">
        <ele>46.766251</ele>
        <time>2024-07-02T10:19:13.957Z</time>
      </trkpt>
      <trkpt lat="51.73696" lon="4.43946">
        <ele>46.805717</ele>
        <time>2024-07-02T10:42:02.138Z</time>
      </trkpt>
      <trkpt lat="51.73705" lon="4.43949">
        <ele>46.843057</ele>
        <time>2024-07-02T10:42:06.145Z</time>
      </trkpt>
      <trkpt lat="51.73715" lon="4.43952">
        <ele>46.885139</ele>
        <time>2024-07-02T10:42:10.156Z</time>
      </trkpt>
      <trkpt lat="51.73726" lon="4.43957">
        <ele>46.928487</ele>
        <time>2024-07-02T10:42:14.131Z</time>
      </trkpt>
      <trkpt lat="51.73735" lon="4.43959">
        <ele>46.962493</ele>
        <time>2024-07-02T10:42:17.148Z</time>
      </trkpt>
      <trkpt lat="51.73744" lon="4.43963">
        <ele>46.97181</ele>
        <time>2024-07-02T10:42:20.137Z</time>
      </trkpt>
      <trkpt lat="51.73754" lon="4.43967">
        <ele>46.980623</ele>
        <time>2024-07-02T10:42:23.140Z</time>
      </trkpt>
      <trkpt lat="51.73764" lon="4.43969">
        <ele>46.990322</ele>
        <time>2024-07-02T10:42:26.142Z</time>
      </trkpt>
      <trkpt lat="51.73774" lon="4.43972">
        <ele>47.000254</ele>
        <time>2024-07-02T10:42:29.139Z</time>
      </trkpt>
      <trkpt lat="51.73784" lon="4.43976">
        <ele>47.009844</ele>
        <time>2024-07-02T10:42:32.143Z</time>
      </trkpt>
      <trkpt lat="51.73794" lon="4.43979">
        <ele>47.018842</ele>
        <time>2024-07-02T10:42:36.147Z</time>
      </trkpt>
      <trkpt lat="51.73804" lon="4.43983">
        <ele>47.028779</ele>
        <time>2024-07-02T10:42:41.140Z</time>
      </trkpt>
      <trkpt lat="51.73814" lon="4.43987">
        <ele>47.038488</ele>
        <time>2024-07-02T10:42:45.134Z</time>
      </trkpt>
      <trkpt lat="51.73824" lon="4.4399">
        <ele>47.047315</ele>
        <time>2024-07-02T10:42:48.139Z</time>
      </trkpt>
      <trkpt lat="51.73834" lon="4.43994">
        <ele>47.056723</ele>
        <time>2024-07-02T10:42:51.136Z</time>
      </trkpt>
      <trkpt lat="51.73844" lon="4.43997">
        <ele>47.066586</ele>
        <time>2024-07-02T10:42:54.126Z</time>
      </trkpt>
      <trkpt lat="51.73854" lon="4.44">
        <ele>47.076416</ele>
        <time>2024-07-02T10:42:57.157Z</time>
      </trkpt>
      <trkpt lat="51.73865" lon="4.44004">
        <ele>47.086473</ele>
        <time>2024-07-02T10:43:00.145Z</time>
      </trkpt>
      <trkpt lat="51.73876" lon="4.44007">
        <ele>47.096529</ele>
        <time>2024-07-02T10:43:03.137Z</time>
      </trkpt>
      <trkpt lat="51.73887" lon="4.44011">
        <ele>47.107167</ele>
        <time>2024-07-02T10:43:06.143Z</time>
      </trkpt>
      <trkpt lat="51.73898" lon="4.44013">
        <ele>47.117938</ele>
        <time>2024-07-02T10:43:09.144Z</time>
      </trkpt>
      <trkpt lat="51.7391" lon="4.44013">
        <ele>47.128444</ele>
        <time>2024-07-02T10:43:12.141Z</time>
      </trkpt>
      <trkpt lat="51.7392" lon="4.44012">
        <ele>47.216257</ele>
        <time>2024-07-02T10:43:15.122Z</time>
      </trkpt>
      <trkpt lat="51.73931" lon="4.44012">
        <ele>47.310782</ele>
        <time>2024-07-02T10:43:18.146Z</time>
      </trkpt>
      <trkpt lat="51.73942" lon="4.44012">
        <ele>47.408798</ele>
        <time>2024-07-02T10:43:21.142Z</time>
      </trkpt>
      <trkpt lat="51.73953" lon="4.44012">
        <ele>47.500747</ele>
        <time>2024-07-02T10:43:24.141Z</time>
      </trkpt>
      <trkpt lat="51.73964" lon="4.44012">
        <ele>47.591815</ele>
        <time>2024-07-02T10:43:27.134Z</time>
      </trkpt>
      <trkpt lat="51.73974" lon="4.44011">
        <ele>47.681125</ele>
        <time>2024-07-02T10:43:30.149Z</time>
      </trkpt>
      <trkpt lat="51.73984" lon="4.44011">
        <ele>47.767839</ele>
        <time>2024-07-02T10:43:33.138Z</time>
      </trkpt>
      <trkpt lat="51.73994" lon="4.4401">
        <ele>47.853847</ele>
        <time>2024-07-02T10:43:36.135Z</time>
      </trkpt>
      <trkpt lat="51.74003" lon="4.44009">
        <ele>47.938446</ele>
        <time>2024-07-02T10:43:39.149Z</time>
      </trkpt>
      <trkpt lat="51.74013" lon="4.44006">
        <ele>48.019723</ele>
        <time>2024-07-02T10:43:42.149Z</time>
      </trkpt>
      <trkpt lat="51.74022" lon="4.44004">
        <ele>48.098071</ele>
        <time>2024-07-02T10:43:45.136Z</time>
      </trkpt>
      <trkpt lat="51.74031" lon="4.44003">
        <ele>48.181559</ele>
        <time>2024-07-02T10:43:48.139Z</time>
      </trkpt>
      <trkpt lat="51.7404" lon="4.44002">
        <ele>48.261418</ele>
        <time>2024-07-02T10:43:51.153Z</time>
      </trkpt>
      <trkpt lat="51.74049" lon="4.44">
        <ele>48.34019</ele>
        <time>2024-07-02T10:43:54.147Z</time>
      </trkpt>
      <trkpt lat="51.74061" lon="4.43999">
        <ele>48.438417</ele>
        <time>2024-07-02T10:43:58.147Z</time>
      </trkpt>
      <trkpt lat="51.74072" lon="4.43996">
        <ele>48.540738</ele>
        <time>2024-07-02T10:44:02.157Z</time>
      </trkpt>
      <trkpt lat="51.74081" lon="4.43993">
        <ele>48.620775</ele>
        <time>2024-07-02T10:44:05.159Z</time>
      </trkpt>
      <trkpt lat="51.74091" lon="4.4399">
        <ele>48.681558</ele>
        <time>2024-07-02T10:44:08.138Z</time>
      </trkpt>
      <trkpt lat="51.74104" lon="4.43987">
        <ele>48.644855</ele>
        <time>2024-07-02T10:44:11.147Z</time>
      </trkpt>
      <trkpt lat="51.74116" lon="4.43985">
        <ele>48.608986</ele>
        <time>2024-07-02T10:44:14.151Z</time>
      </trkpt>
      <trkpt lat="51.74125" lon="4.43982">
        <ele>48.581819</ele>
        <time>2024-07-02T10:44:16.145Z</time>
      </trkpt>
      <trkpt lat="51.74135" lon="4.43982">
        <ele>48.554324</ele>
        <time>2024-07-02T10:44:18.149Z</time>
      </trkpt>
      <trkpt lat="51.74144" lon="4.43984">
        <ele>48.526054</ele>
        <time>2024-07-02T10:44:20.117Z</time>
      </trkpt>
      <trkpt lat="51.74153" lon="4.43987">
        <ele>48.498383</ele>
        <time>2024-07-02T10:44:22.127Z</time>
      </trkpt>
      <trkpt lat="51.74163" lon="4.4399">
        <ele>48.468528</ele>
        <time>2024-07-02T10:44:24.139Z</time>
      </trkpt>
      <trkpt lat="51.74173" lon="4.43994">
        <ele>48.440329</ele>
        <time>2024-07-02T10:44:26.144Z</time>
      </trkpt>
      <trkpt lat="51.74183" lon="4.43997">
        <ele>48.411153</ele>
        <time>2024-07-02T10:44:28.143Z</time>
      </trkpt>
      <trkpt lat="51.74192" lon="4.44">
        <ele>48.38265</ele>
        <time>2024-07-02T10:44:30.129Z</time>
      </trkpt>
      <trkpt lat="51.74202" lon="4.44003">
        <ele>48.3543</ele>
        <time>2024-07-02T10:44:32.151Z</time>
      </trkpt>
      <trkpt lat="51.74211" lon="4.44006">
        <ele>48.325716</ele>
        <time>2024-07-02T10:44:34.147Z</time>
      </trkpt>
      <trkpt lat="51.7422" lon="4.4401">
        <ele>48.298311</ele>
        <time>2024-07-02T10:44:36.151Z</time>
      </trkpt>
      <trkpt lat="51.74229" lon="4.44014">
        <ele>48.2711</ele>
        <time>2024-07-02T10:44:38.139Z</time>
      </trkpt>
      <trkpt lat="51.74242" lon="4.4402">
        <ele>48.232544</ele>
        <time>2024-07-02T10:44:41.148Z</time>
      </trkpt>
      <trkpt lat="51.74254" lon="4.44024">
        <ele>48.19613</ele>
        <time>2024-07-02T10:44:44.141Z</time>
      </trkpt>
      <trkpt lat="51.74266" lon="4.44027">
        <ele>48.164423</ele>
        <time>2024-07-02T10:44:47.141Z</time>
      </trkpt>
      <trkpt lat="51.74278" lon="4.44032">
        <ele>48.192184</ele>
        <time>2024-07-02T10:44:50.148Z</time>
      </trkpt>
      <trkpt lat="51.7429" lon="4.44036">
        <ele>48.22004</ele>
        <time>2024-07-02T10:44:53.146Z</time>
      </trkpt>
      <trkpt lat="51.74303" lon="4.4404">
        <ele>48.248352</ele>
        <time>2024-07-02T10:44:56.140Z</time>
      </trkpt>
      <trkpt lat="51.74315" lon="4.44042">
        <ele>48.276533</ele>
        <time>2024-07-02T10:44:59.137Z</time>
      </trkpt>
      <trkpt lat="51.74327" lon="4.44047">
        <ele>48.304547</ele>
        <time>2024-07-02T10:45:02.153Z</time>
      </trkpt>
      <trkpt lat="51.74339" lon="4.44052">
        <ele>48.333173</ele>
        <time>2024-07-02T10:45:05.145Z</time>
      </trkpt>
      <trkpt lat="51.74352" lon="4.44056">
        <ele>48.362778</ele>
        <time>2024-07-02T10:45:08.138Z</time>
      </trkpt>
      <trkpt lat="51.74364" lon="4.44061">
        <ele>48.390605</ele>
        <time>2024-07-02T10:45:11.140Z</time>
      </trkpt>
      <trkpt lat="51.74376" lon="4.44065">
        <ele>48.41935</ele>
        <time>2024-07-02T10:45:14.140Z</time>
      </trkpt>
      <trkpt lat="51.74388" lon="4.4407">
        <ele>48.447905</ele>
        <time>2024-07-02T10:45:17.142Z</time>
      </trkpt>
      <trkpt lat="51.74401" lon="4.44075">
        <ele>48.476312</ele>
        <time>2024-07-02T10:45:20.161Z</time>
      </trkpt>
      <trkpt lat="51.74412" lon="4.44083">
        <ele>48.504039</ele>
        <time>2024-07-02T10:45:23.130Z</time>
      </trkpt>
      <trkpt lat="51.74423" lon="4.44082">
        <ele>48.530614</ele>
        <time>2024-07-02T10:45:26.140Z</time>
      </trkpt>
      <trkpt lat="51.74434" lon="4.44085">
        <ele>48.555878</ele>
        <time>2024-07-02T10:45:29.136Z</time>
      </trkpt>
      <trkpt lat="51.74447" lon="4.4409">
        <ele>48.542516</ele>
        <time>2024-07-02T10:45:32.139Z</time>
      </trkpt>
      <trkpt lat="51.74459" lon="4.44094">
        <ele>48.486507</ele>
        <time>2024-07-02T10:45:35.125Z</time>
      </trkpt>
      <trkpt lat="51.7447" lon="4.44099">
        <ele>48.433734</ele>
        <time>2024-07-02T10:45:38.165Z</time>
      </trkpt>
      <trkpt lat="51.74482" lon="4.44103">
        <ele>48.379393</ele>
        <time>2024-07-02T10:45:41.158Z</time>
      </trkpt>
      <trkpt lat="51.74494" lon="4.44106">
        <ele>48.326092</ele>
        <time>2024-07-02T10:45:44.150Z</time>
      </trkpt>
      <trkpt lat="51.74506" lon="4.4411">
        <ele>48.273381</ele>
        <time>2024-07-02T10:45:47.149Z</time>
      </trkpt>
      <trkpt lat="51.74517" lon="4.44114">
        <ele>48.222654</ele>
        <time>2024-07-02T10:45:50.141Z</time>
      </trkpt>
      <trkpt lat="51.74527" lon="4.44118">
        <ele>48.173055</ele>
        <time>2024-07-02T10:45:53.145Z</time>
      </trkpt>
      <trkpt lat="51.74537" lon="4.44128">
        <ele>48.124613</ele>
        <time>2024-07-02T10:45:56.133Z</time>
      </trkpt>
      <trkpt lat="51.74546" lon="4.44136">
        <ele>48.076584</ele>
        <time>2024-07-02T10:46:00.117Z</time>
      </trkpt>
      <trkpt lat="51.74556" lon="4.44139">
        <ele>48.029304</ele>
        <time>2024-07-02T10:46:04.142Z</time>
      </trkpt>
      <trkpt lat="51.74566" lon="4.44139">
        <ele>47.98593</ele>
        <time>2024-07-02T10:46:07.123Z</time>
      </trkpt>
      <trkpt lat="51.74576" lon="4.44135">
        <ele>47.941807</ele>
        <time>2024-07-02T10:46:10.158Z</time>
      </trkpt>
      <trkpt lat="51.74586" lon="4.44132">
        <ele>47.893818</ele>
        <time>2024-07-02T10:46:13.150Z</time>
      </trkpt>
      <trkpt lat="51.74597" lon="4.44132">
        <ele>47.846875</ele>
        <time>2024-07-02T10:46:16.132Z</time>
      </trkpt>
      <trkpt lat="51.74608" lon="4.4413">
        <ele>47.797446</ele>
        <time>2024-07-02T10:46:19.132Z</time>
      </trkpt>
      <trkpt lat="51.74618" lon="4.44129">
        <ele>47.782792</ele>
        <time>2024-07-02T10:46:22.145Z</time>
      </trkpt>
      <trkpt lat="51.74629" lon="4.4413">
        <ele>47.834042</ele>
        <time>2024-07-02T10:46:25.124Z</time>
      </trkpt>
      <trkpt lat="51.74641" lon="4.44134">
        <ele>47.893959</ele>
        <time>2024-07-02T10:46:28.159Z</time>
      </trkpt>
      <trkpt lat="51.74651" lon="4.44138">
        <ele>47.943668</ele>
        <time>2024-07-02T10:46:31.134Z</time>
      </trkpt>
      <trkpt lat="51.74659" lon="4.44149">
        <ele>47.993334</ele>
        <time>2024-07-02T10:46:34.146Z</time>
      </trkpt>
      <trkpt lat="51.74664" lon="4.44164">
        <ele>48.042132</ele>
        <time>2024-07-02T10:46:37.130Z</time>
      </trkpt>
      <trkpt lat="51.74671" lon="4.44174">
        <ele>48.088809</ele>
        <time>2024-07-02T10:46:40.140Z</time>
      </trkpt>
      <trkpt lat="51.7468" lon="4.44182">
        <ele>48.136396</ele>
        <time>2024-07-02T10:46:43.129Z</time>
      </trkpt>
      <trkpt lat="51.74688" lon="4.44189">
        <ele>48.183286</ele>
        <time>2024-07-02T10:46:46.127Z</time>
      </trkpt>
      <trkpt lat="51.74698" lon="4.44194">
        <ele>48.232957</ele>
        <time>2024-07-02T10:46:50.154Z</time>
      </trkpt>
      <trkpt lat="51.74707" lon="4.44186">
        <ele>48.281227</ele>
        <time>2024-07-02T10:46:54.128Z</time>
      </trkpt>
      <trkpt lat="51.74718" lon="4.44183">
        <ele>48.33272</ele>
        <time>2024-07-02T10:46:58.146Z</time>
      </trkpt>
      <trkpt lat="51.74728" lon="4.44187">
        <ele>48.384559</ele>
        <time>2024-07-02T10:47:01.114Z</time>
      </trkpt>
      <trkpt lat="51.74738" lon="4.44192">
        <ele>48.434141</ele>
        <time>2024-07-02T10:47:04.132Z</time>
      </trkpt>
      <trkpt lat="51.74748" lon="4.44196">
        <ele>48.483581</ele>
        <time>2024-07-02T10:47:07.139Z</time>
      </trkpt>
      <trkpt lat="51.7476" lon="4.44201">
        <ele>48.542371</ele>
        <time>2024-07-02T10:47:10.137Z</time>
      </trkpt>
      <trkpt lat="51.74769" lon="4.44203">
        <ele>48.58627</ele>
        <time>2024-07-02T10:47:12.135Z</time>
      </trkpt>
      <trkpt lat="51.74782" lon="4.4421">
        <ele>48.612373</ele>
        <time>2024-07-02T10:47:15.146Z</time>
      </trkpt>
      <trkpt lat="51.74792" lon="4.44214">
        <ele>48.585824</ele>
        <time>2024-07-02T10:47:17.134Z</time>
      </trkpt>
      <trkpt lat="51.74801" lon="4.44216">
        <ele>48.561517</ele>
        <time>2024-07-02T10:47:19.142Z</time>
      </trkpt>
      <trkpt lat="51.7481" lon="4.44219">
        <ele>48.536861</ele>
        <time>2024-07-02T10:47:21.130Z</time>
      </trkpt>
      <trkpt lat="51.74819" lon="4.44223">
        <ele>48.512502</ele>
        <time>2024-07-02T10:47:23.118Z</time>
      </trkpt>
      <trkpt lat="51.74831" lon="4.44227">
        <ele>48.478564</ele>
        <time>2024-07-02T10:47:26.156Z</time>
      </trkpt>
      <trkpt lat="51.74843" lon="4.44233">
        <ele>48.445546</ele>
        <time>2024-07-02T10:47:29.140Z</time>
      </trkpt>
      <trkpt lat="51.74855" lon="4.44236">
        <ele>48.413337</ele>
        <time>2024-07-02T10:47:32.144Z</time>
      </trkpt>
      <trkpt lat="51.74867" lon="4.44241">
        <ele>48.380178</ele>
        <time>2024-07-02T10:47:35.127Z</time>
      </trkpt>
      <trkpt lat="51.7488" lon="4.44245">
        <ele>48.345662</ele>
        <time>2024-07-02T10:47:38.158Z</time>
      </trkpt>
      <trkpt lat="51.74892" lon="4.4425">
        <ele>48.311403</ele>
        <time>2024-07-02T10:47:41.144Z</time>
      </trkpt>
      <trkpt lat="51.74905" lon="4.44254">
        <ele>48.275938</ele>
        <time>2024-07-02T10:47:44.140Z</time>
      </trkpt>
      <trkpt lat="51.74918" lon="4.44259">
        <ele>48.241366</ele>
        <time>2024-07-02T10:47:47.157Z</time>
      </trkpt>
      <trkpt lat="51.7493" lon="4.44264">
        <ele>48.206683</ele>
        <time>2024-07-02T10:47:50.139Z</time>
      </trkpt>
      <trkpt lat="51.74943" lon="4.44267">
        <ele>48.172578</ele>
        <time>2024-07-02T10:47:53.132Z</time>
      </trkpt>
      <trkpt lat="51.74956" lon="4.44272">
        <ele>48.14718</ele>
        <time>2024-07-02T10:47:56.144Z</time>
      </trkpt>
      <trkpt lat="51.74968" lon="4.44277">
        <ele>48.150669</ele>
        <time>2024-07-02T10:47:59.129Z</time>
      </trkpt>
      <trkpt lat="51.74978" lon="4.44281">
        <ele>48.153149</ele>
        <time>2024-07-02T10:48:01.143Z</time>
      </trkpt>
      <trkpt lat="51.74986" lon="4.44284">
        <ele>48.155543</ele>
        <time>2024-07-02T10:48:03.140Z</time>
      </trkpt>
      <trkpt lat="51.74998" lon="4.44291">
        <ele>48.158981</ele>
        <time>2024-07-02T10:48:06.151Z</time>
      </trkpt>
      <trkpt lat="51.75009" lon="4.44304">
        <ele>48.162414</ele>
        <time>2024-07-02T10:48:09.138Z</time>
      </trkpt>
      <trkpt lat="51.75016" lon="4.44313">
        <ele>48.16483</ele>
        <time>2024-07-02T10:48:11.137Z</time>
      </trkpt>
      <trkpt lat="51.75025" lon="4.44327">
        <ele>48.168245</ele>
        <time>2024-07-02T10:48:14.160Z</time>
      </trkpt>
      <trkpt lat="51.75037" lon="4.44336">
        <ele>48.171715</ele>
        <time>2024-07-02T10:48:17.136Z</time>
      </trkpt>
      <trkpt lat="51.75046" lon="4.44338">
        <ele>48.174178</ele>
        <time>2024-07-02T10:48:19.122Z</time>
      </trkpt>
      <trkpt lat="51.75058" lon="4.44334">
        <ele>48.177482</ele>
        <time>2024-07-02T10:48:22.143Z</time>
      </trkpt>
      <trkpt lat="51.7507" lon="4.4433">
        <ele>48.180618</ele>
        <time>2024-07-02T10:48:25.113Z</time>
      </trkpt>
      <trkpt lat="51.75082" lon="4.44326">
        <ele>48.183904</ele>
        <time>2024-07-02T10:48:28.153Z</time>
      </trkpt>
      <trkpt lat="51.75095" lon="4.44329">
        <ele>48.187445</ele>
        <time>2024-07-02T10:48:31.123Z</time>
      </trkpt>
      <trkpt lat="51.75108" lon="4.44334">
        <ele>48.191042</ele>
        <time>2024-07-02T10:48:34.137Z</time>
      </trkpt>
      <trkpt lat="51.75117" lon="4.44337">
        <ele>48.193554</ele>
        <time>2024-07-02T10:48:36.149Z</time>
      </trkpt>
      <trkpt lat="51.75127" lon="4.4434">
        <ele>48.171318</ele>
        <time>2024-07-02T10:48:38.139Z</time>
      </trkpt>
      <trkpt lat="51.75136" lon="4.44342">
        <ele>48.139841</ele>
        <time>2024-07-02T10:48:40.164Z</time>
      </trkpt>
      <trkpt lat="51.75145" lon="4.44344">
        <ele>48.108986</ele>
        <time>2024-07-02T10:48:42.142Z</time>
      </trkpt>
      <trkpt lat="51.75154" lon="4.44347">
        <ele>48.078715</ele>
        <time>2024-07-02T10:48:44.151Z</time>
      </trkpt>
      <trkpt lat="51.75163" lon="4.4435">
        <ele>48.048118</ele>
        <time>2024-07-02T10:48:46.143Z</time>
      </trkpt>
      <trkpt lat="51.75172" lon="4.44352">
        <ele>48.018209</ele>
        <time>2024-07-02T10:48:48.146Z</time>
      </trkpt>
      <trkpt lat="51.75182" lon="4.44355">
        <ele>47.986684</ele>
        <time>2024-07-02T10:48:50.155Z</time>
      </trkpt>
      <trkpt lat="51.75191" lon="4.44358">
        <ele>47.955725</ele>
        <time>2024-07-02T10:48:52.141Z</time>
      </trkpt>
      <trkpt lat="51.752" lon="4.44362">
        <ele>47.925669</ele>
        <time>2024-07-02T10:48:54.142Z</time>
      </trkpt>
      <trkpt lat="51.75209" lon="4.44366">
        <ele>47.89455</ele>
        <time>2024-07-02T10:48:56.131Z</time>
      </trkpt>
      <trkpt lat="51.75222" lon="4.44369">
        <ele>47.849702</ele>
        <time>2024-07-02T10:48:59.152Z</time>
      </trkpt>
      <trkpt lat="51.75235" lon="4.44373">
        <ele>47.805443</ele>
        <time>2024-07-02T10:49:02.160Z</time>
      </trkpt>
      <trkpt lat="51.75244" lon="4.44377">
        <ele>47.775604</ele>
        <time>2024-07-02T10:49:04.139Z</time>
      </trkpt>
      <trkpt lat="51.75256" lon="4.44383">
        <ele>47.734706</ele>
        <time>2024-07-02T10:49:07.154Z</time>
      </trkpt>
      <trkpt lat="51.75266" lon="4.44389">
        <ele>47.697088</ele>
        <time>2024-07-02T10:49:10.145Z</time>
      </trkpt>
      <trkpt lat="51.75278" lon="4.44393">
        <ele>47.656301</ele>
        <time>2024-07-02T10:49:13.128Z</time>
      </trkpt>
      <trkpt lat="51.7529" lon="4.44396">
        <ele>47.617764</ele>
        <time>2024-07-02T10:49:16.143Z</time>
      </trkpt>
      <trkpt lat="51.75303" lon="4.44399">
        <ele>47.614245</ele>
        <time>2024-07-02T10:49:19.140Z</time>
      </trkpt>
      <trkpt lat="51.75315" lon="4.44401">
        <ele>47.642667</ele>
        <time>2024-07-02T10:49:22.138Z</time>
      </trkpt>
      <trkpt lat="51.75327" lon="4.44403">
        <ele>47.669401</ele>
        <time>2024-07-02T10:49:25.125Z</time>
      </trkpt>
      <trkpt lat="51.75338" lon="4.44406">
        <ele>47.694134</ele>
        <time>2024-07-02T10:49:28.136Z</time>
      </trkpt>
      <trkpt lat="51.75349" lon="4.4441">
        <ele>47.720471</ele>
        <time>2024-07-02T10:49:31.154Z</time>
      </trkpt>
      <trkpt lat="51.75361" lon="4.44413">
        <ele>47.747409</ele>
        <time>2024-07-02T10:49:34.143Z</time>
      </trkpt>
      <trkpt lat="51.75373" lon="4.44418">
        <ele>47.773901</ele>
        <time>2024-07-02T10:49:37.143Z</time>
      </trkpt>
      <trkpt lat="51.75385" lon="4.44422">
        <ele>47.801014</ele>
        <time>2024-07-02T10:49:40.146Z</time>
      </trkpt>
      <trkpt lat="51.75396" lon="4.44426">
        <ele>47.827848</ele>
        <time>2024-07-02T10:49:43.141Z</time>
      </trkpt>
      <trkpt lat="51.75408" lon="4.4443">
        <ele>47.854904</ele>
        <time>2024-07-02T10:49:46.137Z</time>
      </trkpt>
      <trkpt lat="51.75419" lon="4.44435">
        <ele>47.879575</ele>
        <time>2024-07-02T10:49:49.138Z</time>
      </trkpt>
      <trkpt lat="51.7543" lon="4.44439">
        <ele>47.905801</ele>
        <time>2024-07-02T10:49:52.139Z</time>
      </trkpt>
      <trkpt lat="51.75442" lon="4.44443">
        <ele>47.932167</ele>
        <time>2024-07-02T10:49:55.143Z</time>
      </trkpt>
      <trkpt lat="51.75452" lon="4.44447">
        <ele>47.955853</ele>
        <time>2024-07-02T10:49:58.153Z</time>
      </trkpt>
      <trkpt lat="51.75463" lon="4.44451">
        <ele>47.982031</ele>
        <time>2024-07-02T10:50:01.139Z</time>
      </trkpt>
      <trkpt lat="51.75475" lon="4.44455">
        <ele>48.004808</ele>
        <time>2024-07-02T10:50:04.162Z</time>
      </trkpt>
      <trkpt lat="51.75486" lon="4.4446">
        <ele>48.016756</ele>
        <time>2024-07-02T10:50:07.140Z</time>
      </trkpt>
      <trkpt lat="51.75497" lon="4.44464">
        <ele>48.028473</ele>
        <time>2024-07-02T10:50:10.158Z</time>
      </trkpt>
      <trkpt lat="51.75509" lon="4.44468">
        <ele>48.040942</ele>
        <time>2024-07-02T10:50:13.139Z</time>
      </trkpt>
      <trkpt lat="51.75521" lon="4.44473">
        <ele>48.053736</ele>
        <time>2024-07-02T10:50:16.153Z</time>
      </trkpt>
      <trkpt lat="51.75532" lon="4.44477">
        <ele>48.06615</ele>
        <time>2024-07-02T10:50:19.141Z</time>
      </trkpt>
      <trkpt lat="51.75544" lon="4.44481">
        <ele>48.078214</ele>
        <time>2024-07-02T10:50:22.142Z</time>
      </trkpt>
      <trkpt lat="51.75555" lon="4.44485">
        <ele>48.090235</ele>
        <time>2024-07-02T10:50:25.133Z</time>
      </trkpt>
      <trkpt lat="51.75566" lon="4.4449">
        <ele>48.102415</ele>
        <time>2024-07-02T10:50:28.142Z</time>
      </trkpt>
      <trkpt lat="51.75578" lon="4.44493">
        <ele>48.114143</ele>
        <time>2024-07-02T10:50:31.135Z</time>
      </trkpt>
      <trkpt lat="51.75589" lon="4.44497">
        <ele>48.125904</ele>
        <time>2024-07-02T10:50:34.162Z</time>
      </trkpt>
      <trkpt lat="51.756" lon="4.445">
        <ele>48.137814</ele>
        <time>2024-07-02T10:50:37.159Z</time>
      </trkpt>
      <trkpt lat="51.75612" lon="4.44503">
        <ele>48.150443</ele>
        <time>2024-07-02T10:50:40.139Z</time>
      </trkpt>
      <trkpt lat="51.75623" lon="4.44504">
        <ele>48.161989</ele>
        <time>2024-07-02T10:50:43.139Z</time>
      </trkpt>
      <trkpt lat="51.75634" lon="4.44505">
        <ele>48.173841</ele>
        <time>2024-07-02T10:50:46.128Z</time>
      </trkpt>
      <trkpt lat="51.75647" lon="4.44504">
        <ele>48.18673</ele>
        <time>2024-07-02T10:50:49.136Z</time>
      </trkpt>
      <trkpt lat="51.75659" lon="4.44502">
        <ele>48.175173</ele>
        <time>2024-07-02T10:50:52.159Z</time>
      </trkpt>
      <trkpt lat="51.7567" lon="4.44498">
        <ele>48.16076</ele>
        <time>2024-07-02T10:50:55.135Z</time>
      </trkpt>
      <trkpt lat="51.75682" lon="4.44491">
        <ele>48.145774</ele>
        <time>2024-07-02T10:50:58.161Z</time>
      </trkpt>
      <trkpt lat="51.75693" lon="4.44484">
        <ele>48.131299</ele>
        <time>2024-07-02T10:51:01.149Z</time>
      </trkpt>
      <trkpt lat="51.75703" lon="4.44478">
        <ele>48.117076</ele>
        <time>2024-07-02T10:51:04.140Z</time>
      </trkpt>
      <trkpt lat="51.75715" lon="4.44469">
        <ele>48.101051</ele>
        <time>2024-07-02T10:51:07.153Z</time>
      </trkpt>
      <trkpt lat="51.75727" lon="4.44461">
        <ele>48.08566</ele>
        <time>2024-07-02T10:51:10.159Z</time>
      </trkpt>
      <trkpt lat="51.75739" lon="4.44455">
        <ele>48.069572</ele>
        <time>2024-07-02T10:51:13.161Z</time>
      </trkpt>
      <trkpt lat="51.75752" lon="4.44452">
        <ele>48.053466</ele>
        <time>2024-07-02T10:51:16.129Z</time>
      </trkpt>
      <trkpt lat="51.75766" lon="4.4445">
        <ele>48.036411</ele>
        <time>2024-07-02T10:51:19.133Z</time>
      </trkpt>
      <trkpt lat="51.75775" lon="4.44449">
        <ele>48.025155</ele>
        <time>2024-07-02T10:51:21.139Z</time>
      </trkpt>
      <trkpt lat="51.75784" lon="4.44449">
        <ele>48.013923</ele>
        <time>2024-07-02T10:51:23.159Z</time>
      </trkpt>
      <trkpt lat="51.75793" lon="4.44449">
        <ele>48.002683</ele>
        <time>2024-07-02T10:51:25.136Z</time>
      </trkpt>
      <trkpt lat="51.75802" lon="4.44448">
        <ele>47.991313</ele>
        <time>2024-07-02T10:51:27.136Z</time>
      </trkpt>
      <trkpt lat="51.75816" lon="4.44446">
        <ele>47.974719</ele>
        <time>2024-07-02T10:51:30.161Z</time>
      </trkpt>
      <trkpt lat="51.75829" lon="4.44445">
        <ele>47.982159</ele>
        <time>2024-07-02T10:51:33.138Z</time>
      </trkpt>
      <trkpt lat="51.75842" lon="4.44444">
        <ele>48.013942</ele>
        <time>2024-07-02T10:51:36.137Z</time>
      </trkpt>
      <trkpt lat="51.75855" lon="4.44443">
        <ele>48.046274</ele>
        <time>2024-07-02T10:51:39.135Z</time>
      </trkpt>
      <trkpt lat="51.75864" lon="4.44442">
        <ele>48.06828</ele>
        <time>2024-07-02T10:51:41.152Z</time>
      </trkpt>
      <trkpt lat="51.75874" lon="4.44442">
        <ele>48.091761</ele>
        <time>2024-07-02T10:51:43.146Z</time>
      </trkpt>
      <trkpt lat="51.75883" lon="4.44442">
        <ele>48.11547</ele>
        <time>2024-07-02T10:51:45.123Z</time>
      </trkpt>
      <trkpt lat="51.75893" lon="4.44443">
        <ele>48.139248</ele>
        <time>2024-07-02T10:51:47.147Z</time>
      </trkpt>
      <trkpt lat="51.75902" lon="4.44444">
        <ele>48.161807</ele>
        <time>2024-07-02T10:51:49.154Z</time>
      </trkpt>
      <trkpt lat="51.75911" lon="4.44448">
        <ele>48.18411</ele>
        <time>2024-07-02T10:51:51.118Z</time>
      </trkpt>
      <trkpt lat="51.7592" lon="4.44451">
        <ele>48.206905</ele>
        <time>2024-07-02T10:51:53.135Z</time>
      </trkpt>
      <trkpt lat="51.75932" lon="4.44454">
        <ele>48.236721</ele>
        <time>2024-07-02T10:51:56.144Z</time>
      </trkpt>
      <trkpt lat="51.75942" lon="4.44455">
        <ele>48.260537</ele>
        <time>2024-07-02T10:51:59.154Z</time>
      </trkpt>
      <trkpt lat="51.75952" lon="4.44456">
        <ele>48.285523</ele>
        <time>2024-07-02T10:52:02.143Z</time>
      </trkpt>
      <trkpt lat="51.75963" lon="4.44456">
        <ele>48.310942</ele>
        <time>2024-07-02T10:52:05.127Z</time>
      </trkpt>
      <trkpt lat="51.75973" lon="4.44456">
        <ele>48.335629</ele>
        <time>2024-07-02T10:52:08.137Z</time>
      </trkpt>
      <trkpt lat="51.75983" lon="4.44455">
        <ele>48.361328</ele>
        <time>2024-07-02T10:52:11.132Z</time>
      </trkpt>
      <trkpt lat="51.75993" lon="4.44452">
        <ele>48.386815</ele>
        <time>2024-07-02T10:52:14.146Z</time>
      </trkpt>
      <trkpt lat="51.76004" lon="4.4445">
        <ele>48.396242</ele>
        <time>2024-07-02T10:52:17.137Z</time>
      </trkpt>
      <trkpt lat="51.76017" lon="4.44447">
        <ele>48.359164</ele>
        <time>2024-07-02T10:52:20.146Z</time>
      </trkpt>
      <trkpt lat="51.7603" lon="4.44442">
        <ele>48.318658</ele>
        <time>2024-07-02T10:52:23.131Z</time>
      </trkpt>
      <trkpt lat="51.76039" lon="4.4444">
        <ele>48.290035</ele>
        <time>2024-07-02T10:52:25.126Z</time>
      </trkpt>
      <trkpt lat="51.76049" lon="4.44436">
        <ele>48.258658</ele>
        <time>2024-07-02T10:52:27.137Z</time>
      </trkpt>
      <trkpt lat="51.76059" lon="4.44433">
        <ele>48.228411</ele>
        <time>2024-07-02T10:52:29.136Z</time>
      </trkpt>
      <trkpt lat="51.76069" lon="4.44429">
        <ele>48.198675</ele>
        <time>2024-07-02T10:52:31.139Z</time>
      </trkpt>
      <trkpt lat="51.76078" lon="4.44426">
        <ele>48.169233</ele>
        <time>2024-07-02T10:52:33.143Z</time>
      </trkpt>
      <trkpt lat="51.76087" lon="4.44424">
        <ele>48.141209</ele>
        <time>2024-07-02T10:52:35.126Z</time>
      </trkpt>
      <trkpt lat="51.76097" lon="4.4442">
        <ele>48.110589</ele>
        <time>2024-07-02T10:52:37.148Z</time>
      </trkpt>
      <trkpt lat="51.76106" lon="4.44418">
        <ele>48.082005</ele>
        <time>2024-07-02T10:52:39.135Z</time>
      </trkpt>
      <trkpt lat="51.76116" lon="4.44415">
        <ele>48.053904</ele>
        <time>2024-07-02T10:52:41.154Z</time>
      </trkpt>
      <trkpt lat="51.76128" lon="4.44412">
        <ele>48.01587</ele>
        <time>2024-07-02T10:52:44.158Z</time>
      </trkpt>
      <trkpt lat="51.7614" lon="4.44411">
        <ele>47.978914</ele>
        <time>2024-07-02T10:52:47.148Z</time>
      </trkpt>
      <trkpt lat="51.76152" lon="4.44409">
        <ele>47.943135</ele>
        <time>2024-07-02T10:52:50.155Z</time>
      </trkpt>
      <trkpt lat="51.76164" lon="4.44409">
        <ele>47.907481</ele>
        <time>2024-07-02T10:52:53.152Z</time>
      </trkpt>
      <trkpt lat="51.76176" lon="4.44407">
        <ele>47.870181</ele>
        <time>2024-07-02T10:52:56.139Z</time>
      </trkpt>
      <trkpt lat="51.76188" lon="4.44406">
        <ele>47.864166</ele>
        <time>2024-07-02T10:52:59.144Z</time>
      </trkpt>
      <trkpt lat="51.76201" lon="4.44405">
        <ele>47.866297</ele>
        <time>2024-07-02T10:53:02.147Z</time>
      </trkpt>
      <trkpt lat="51.76214" lon="4.44404">
        <ele>47.868546</ele>
        <time>2024-07-02T10:53:05.130Z</time>
      </trkpt>
      <trkpt lat="51.76227" lon="4.44404">
        <ele>47.870743</ele>
        <time>2024-07-02T10:53:08.159Z</time>
      </trkpt>
      <trkpt lat="51.7624" lon="4.44402">
        <ele>47.872842</ele>
        <time>2024-07-02T10:53:11.140Z</time>
      </trkpt>
      <trkpt lat="51.76252" lon="4.44401">
        <ele>47.874894</ele>
        <time>2024-07-02T10:53:14.145Z</time>
      </trkpt>
      <trkpt lat="51.76265" lon="4.44399">
        <ele>47.877081</ele>
        <time>2024-07-02T10:53:17.147Z</time>
      </trkpt>
      <trkpt lat="51.76278" lon="4.44398">
        <ele>47.879298</ele>
        <time>2024-07-02T10:53:20.150Z</time>
      </trkpt>
      <trkpt lat="51.76291" lon="4.44397">
        <ele>47.881497</ele>
        <time>2024-07-02T10:53:23.148Z</time>
      </trkpt>
      <trkpt lat="51.76304" lon="4.44396">
        <ele>47.883678</ele>
        <time>2024-07-02T10:53:26.142Z</time>
      </trkpt>
      <trkpt lat="51.76313" lon="4.44395">
        <ele>47.885205</ele>
        <time>2024-07-02T10:53:28.146Z</time>
      </trkpt>
      <trkpt lat="51.76326" lon="4.44394">
        <ele>47.887454</ele>
        <time>2024-07-02T10:53:31.138Z</time>
      </trkpt>
      <trkpt lat="51.76335" lon="4.44393">
        <ele>47.889014</ele>
        <time>2024-07-02T10:53:33.157Z</time>
      </trkpt>
      <trkpt lat="51.76348" lon="4.44391">
        <ele>47.891222</ele>
        <time>2024-07-02T10:53:36.142Z</time>
      </trkpt>
      <trkpt lat="51.76361" lon="4.44389">
        <ele>47.880718</ele>
        <time>2024-07-02T10:53:39.144Z</time>
      </trkpt>
      <trkpt lat="51.76374" lon="4.44388">
        <ele>47.822051</ele>
        <time>2024-07-02T10:53:42.142Z</time>
      </trkpt>
      <trkpt lat="51.76383" lon="4.44386">
        <ele>47.781106</ele>
        <time>2024-07-02T10:53:44.147Z</time>
      </trkpt>
      <trkpt lat="51.76396" lon="4.44383">
        <ele>47.721194</ele>
        <time>2024-07-02T10:53:47.155Z</time>
      </trkpt>
      <trkpt lat="51.76409" lon="4.44383">
        <ele>47.661746</ele>
        <time>2024-07-02T10:53:50.141Z</time>
      </trkpt>
      <trkpt lat="51.76422" lon="4.44382">
        <ele>47.604446</ele>
        <time>2024-07-02T10:53:53.137Z</time>
      </trkpt>
      <trkpt lat="51.76435" lon="4.44383">
        <ele>47.544943</ele>
        <time>2024-07-02T10:53:56.157Z</time>
      </trkpt>
      <trkpt lat="51.76448" lon="4.44384">
        <ele>47.485441</ele>
        <time>2024-07-02T10:53:59.150Z</time>
      </trkpt>
      <trkpt lat="51.76462" lon="4.44384">
        <ele>47.425553</ele>
        <time>2024-07-02T10:54:02.151Z</time>
      </trkpt>
      <trkpt lat="51.76474" lon="4.44385">
        <ele>47.368762</ele>
        <time>2024-07-02T10:54:05.129Z</time>
      </trkpt>
      <trkpt lat="51.76486" lon="4.44387">
        <ele>47.316289</ele>
        <time>2024-07-02T10:54:08.138Z</time>
      </trkpt>
      <trkpt lat="51.76498" lon="4.44387">
        <ele>47.261297</ele>
        <time>2024-07-02T10:54:11.153Z</time>
      </trkpt>
      <trkpt lat="51.7651" lon="4.44389">
        <ele>47.205794</ele>
        <time>2024-07-02T10:54:14.143Z</time>
      </trkpt>
      <trkpt lat="51.76522" lon="4.44389">
        <ele>47.152642</ele>
        <time>2024-07-02T10:54:17.138Z</time>
      </trkpt>
      <trkpt lat="51.76534" lon="4.4439">
        <ele>47.099502</ele>
        <time>2024-07-02T10:54:20.150Z</time>
      </trkpt>
      <trkpt lat="51.76546" lon="4.44389">
        <ele>47.140391</ele>
        <time>2024-07-02T10:54:23.113Z</time>
      </trkpt>
      <trkpt lat="51.76558" lon="4.4439">
        <ele>47.21926</ele>
        <time>2024-07-02T10:54:26.155Z</time>
      </trkpt>
      <trkpt lat="51.76571" lon="4.44396">
        <ele>47.308608</ele>
        <time>2024-07-02T10:54:31.134Z</time>
      </trkpt>
      <trkpt lat="51.76582" lon="4.44399">
        <ele>47.378312</ele>
        <time>2024-07-02T10:54:33.139Z</time>
      </trkpt>
      <trkpt lat="51.76592" lon="4.44399">
        <ele>47.441311</ele>
        <time>2024-07-02T10:54:35.137Z</time>
      </trkpt>
      <trkpt lat="51.76605" lon="4.444">
        <ele>47.526694</ele>
        <time>2024-07-02T10:54:38.146Z</time>
      </trkpt>
      <trkpt lat="51.76617" lon="4.44398">
        <ele>47.606467</ele>
        <time>2024-07-02T10:54:41.125Z</time>
      </trkpt>
      <trkpt lat="51.76628" lon="4.44395">
        <ele>47.684266</ele>
        <time>2024-07-02T10:54:44.155Z</time>
      </trkpt>
      <trkpt lat="51.7664" lon="4.44397">
        <ele>47.758816</ele>
        <time>2024-07-02T10:54:47.126Z</time>
      </trkpt>
      <trkpt lat="51.7665" lon="4.44396">
        <ele>47.829047</ele>
        <time>2024-07-02T10:54:50.142Z</time>
      </trkpt>
      <trkpt lat="51.76661" lon="4.44397">
        <ele>47.898633</ele>
        <time>2024-07-02T10:54:53.143Z</time>
      </trkpt>
      <trkpt lat="51.76671" lon="4.44397">
        <ele>47.966887</ele>
        <time>2024-07-02T10:54:56.141Z</time>
      </trkpt>
      <trkpt lat="51.76682" lon="4.44398">
        <ele>48.03783</ele>
        <time>2024-07-02T10:54:59.141Z</time>
      </trkpt>
      <trkpt lat="51.76693" lon="4.44401">
        <ele>48.111679</ele>
        <time>2024-07-02T10:55:02.147Z</time>
      </trkpt>
      <trkpt lat="51.76704" lon="4.44405">
        <ele>48.181829</ele>
        <time>2024-07-02T10:55:05.140Z</time>
      </trkpt>
      <trkpt lat="51.76714" lon="4.44407">
        <ele>48.253208</ele>
        <time>2024-07-02T10:55:08.143Z</time>
      </trkpt>
      <trkpt lat="51.76725" lon="4.44409">
        <ele>48.41494</ele>
        <time>2024-07-02T10:55:11.146Z</time>
      </trkpt>
      <trkpt lat="51.76735" lon="4.44413">
        <ele>48.595561</ele>
        <time>2024-07-02T10:55:14.161Z</time>
      </trkpt>
      <trkpt lat="51.76746" lon="4.44416">
        <ele>48.779277</ele>
        <time>2024-07-02T10:55:17.139Z</time>
      </trkpt>
      <trkpt lat="51.76757" lon="4.4442">
        <ele>48.972513</ele>
        <time>2024-07-02T10:55:20.138Z</time>
      </trkpt>
      <trkpt lat="51.76768" lon="4.44425">
        <ele>49.158406</ele>
        <time>2024-07-02T10:55:23.151Z</time>
      </trkpt>
      <trkpt lat="51.76779" lon="4.44428">
        <ele>49.345971</ele>
        <time>2024-07-02T10:55:26.168Z</time>
      </trkpt>
      <trkpt lat="51.7679" lon="4.44431">
        <ele>49.528035</ele>
        <time>2024-07-02T10:55:29.149Z</time>
      </trkpt>
      <trkpt lat="51.768" lon="4.44434">
        <ele>49.700012</ele>
        <time>2024-07-02T10:55:32.137Z</time>
      </trkpt>
      <trkpt lat="51.7681" lon="4.44438">
        <ele>49.880404</ele>
        <time>2024-07-02T10:55:35.137Z</time>
      </trkpt>
      <trkpt lat="51.76821" lon="4.4444">
        <ele>50.062534</ele>
        <time>2024-07-02T10:55:38.140Z</time>
      </trkpt>
      <trkpt lat="51.76833" lon="4.4444">
        <ele>50.252002</ele>
        <time>2024-07-02T10:55:41.125Z</time>
      </trkpt>
      <trkpt lat="51.76844" lon="4.44435">
        <ele>50.449767</ele>
        <time>2024-07-02T10:55:44.151Z</time>
      </trkpt>
      <trkpt lat="51.76856" lon="4.4443">
        <ele>50.659941</ele>
        <time>2024-07-02T10:55:47.141Z</time>
      </trkpt>
      <trkpt lat="51.76865" lon="4.44427">
        <ele>50.811212</ele>
        <time>2024-07-02T10:55:49.136Z</time>
      </trkpt>
      <trkpt lat="51.76877" lon="4.44421">
        <ele>51.0269</ele>
        <time>2024-07-02T10:55:52.137Z</time>
      </trkpt>
      <trkpt lat="51.76889" lon="4.44413">
        <ele>51.241801</ele>
        <time>2024-07-02T10:55:55.136Z</time>
      </trkpt>
      <trkpt lat="51.76898" lon="4.44408">
        <ele>51.253396</ele>
        <time>2024-07-02T10:55:57.149Z</time>
      </trkpt>
      <trkpt lat="51.76911" lon="4.444">
        <ele>51.20413</ele>
        <time>2024-07-02T10:56:00.146Z</time>
      </trkpt>
      <trkpt lat="51.76919" lon="4.44395">
        <ele>51.170377</ele>
        <time>2024-07-02T10:56:02.156Z</time>
      </trkpt>
      <trkpt lat="51.76928" lon="4.4439">
        <ele>51.137442</ele>
        <time>2024-07-02T10:56:04.157Z</time>
      </trkpt>
      <trkpt lat="51.7694" lon="4.44383">
        <ele>51.090879</ele>
        <time>2024-07-02T10:56:07.152Z</time>
      </trkpt>
      <trkpt lat="51.76952" lon="4.44374">
        <ele>51.044142</ele>
        <time>2024-07-02T10:56:10.143Z</time>
      </trkpt>
      <trkpt lat="51.76961" lon="4.44369">
        <ele>51.009535</ele>
        <time>2024-07-02T10:56:12.138Z</time>
      </trkpt>
      <trkpt lat="51.76972" lon="4.44361">
        <ele>50.963883</ele>
        <time>2024-07-02T10:56:15.121Z</time>
      </trkpt>
      <trkpt lat="51.76984" lon="4.44351">
        <ele>50.916696</ele>
        <time>2024-07-02T10:56:18.150Z</time>
      </trkpt>
      <trkpt lat="51.76997" lon="4.44343">
        <ele>50.866616</ele>
        <time>2024-07-02T10:56:21.158Z</time>
      </trkpt>
      <trkpt lat="51.77008" lon="4.44333">
        <ele>50.821556</ele>
        <time>2024-07-02T10:56:24.159Z</time>
      </trkpt>
      <trkpt lat="51.77018" lon="4.44325">
        <ele>50.779975</ele>
        <time>2024-07-02T10:56:27.137Z</time>
      </trkpt>
      <trkpt lat="51.77029" lon="4.44316">
        <ele>50.734561</ele>
        <time>2024-07-02T10:56:30.141Z</time>
      </trkpt>
      <trkpt lat="51.77041" lon="4.44308">
        <ele>50.690231</ele>
        <time>2024-07-02T10:56:33.154Z</time>
      </trkpt>
      <trkpt lat="51.77052" lon="4.443">
        <ele>50.646044</ele>
        <time>2024-07-02T10:56:36.139Z</time>
      </trkpt>
      <trkpt lat="51.77062" lon="4.44291">
        <ele>50.59396</ele>
        <time>2024-07-02T10:56:39.145Z</time>
      </trkpt>
      <trkpt lat="51.77073" lon="4.44283">
        <ele>50.536397</ele>
        <time>2024-07-02T10:56:42.152Z</time>
      </trkpt>
      <trkpt lat="51.77083" lon="4.44275">
        <ele>50.480805</ele>
        <time>2024-07-02T10:56:45.127Z</time>
      </trkpt>
      <trkpt lat="51.77093" lon="4.44267">
        <ele>50.422744</ele>
        <time>2024-07-02T10:56:48.143Z</time>
      </trkpt>
      <trkpt lat="51.77104" lon="4.44258">
        <ele>50.364204</ele>
        <time>2024-07-02T10:56:51.149Z</time>
      </trkpt>
      <trkpt lat="51.77115" lon="4.44251">
        <ele>50.305105</ele>
        <time>2024-07-02T10:56:54.144Z</time>
      </trkpt>
      <trkpt lat="51.77125" lon="4.44243">
        <ele>50.24992</ele>
        <time>2024-07-02T10:56:57.138Z</time>
      </trkpt>
      <trkpt lat="51.77134" lon="4.44235">
        <ele>50.196537</ele>
        <time>2024-07-02T10:57:00.144Z</time>
      </trkpt>
      <trkpt lat="51.77145" lon="4.44229">
        <ele>50.139879</ele>
        <time>2024-07-02T10:57:03.134Z</time>
      </trkpt>
      <trkpt lat="51.77156" lon="4.44221">
        <ele>50.081205</ele>
        <time>2024-07-02T10:57:06.160Z</time>
      </trkpt>
      <trkpt lat="51.77166" lon="4.44213">
        <ele>50.023771</ele>
        <time>2024-07-02T10:57:09.144Z</time>
      </trkpt>
      <trkpt lat="51.77176" lon="4.44207">
        <ele>49.971173</ele>
        <time>2024-07-02T10:57:12.134Z</time>
      </trkpt>
      <trkpt lat="51.77186" lon="4.44201">
        <ele>49.919203</ele>
        <time>2024-07-02T10:57:15.131Z</time>
      </trkpt>
      <trkpt lat="51.77196" lon="4.44193">
        <ele>49.865046</ele>
        <time>2024-07-02T10:57:18.140Z</time>
      </trkpt>
      <trkpt lat="51.77206" lon="4.44187">
        <ele>49.811508</ele>
        <time>2024-07-02T10:57:21.153Z</time>
      </trkpt>
      <trkpt lat="51.77217" lon="4.4418">
        <ele>49.750103</ele>
        <time>2024-07-02T10:57:24.137Z</time>
      </trkpt>
      <trkpt lat="51.77228" lon="4.44172">
        <ele>49.727819</ele>
        <time>2024-07-02T10:57:27.145Z</time>
      </trkpt>
      <trkpt lat="51.77239" lon="4.44165">
        <ele>49.718486</ele>
        <time>2024-07-02T10:57:30.149Z</time>
      </trkpt>
      <trkpt lat="51.77249" lon="4.44156">
        <ele>49.709113</ele>
        <time>2024-07-02T10:57:33.147Z</time>
      </trkpt>
      <trkpt lat="51.77259" lon="4.44148">
        <ele>49.699991</ele>
        <time>2024-07-02T10:57:36.146Z</time>
      </trkpt>
      <trkpt lat="51.77269" lon="4.4414">
        <ele>49.690712</ele>
        <time>2024-07-02T10:57:39.137Z</time>
      </trkpt>
      <trkpt lat="51.7728" lon="4.44133">
        <ele>49.68129</ele>
        <time>2024-07-02T10:57:42.125Z</time>
      </trkpt>
      <trkpt lat="51.7729" lon="4.44125">
        <ele>49.67229</ele>
        <time>2024-07-02T10:57:45.118Z</time>
      </trkpt>
      <trkpt lat="51.773" lon="4.44116">
        <ele>49.663202</ele>
        <time>2024-07-02T10:57:48.147Z</time>
      </trkpt>
      <trkpt lat="51.7731" lon="4.44108">
        <ele>49.654122</ele>
        <time>2024-07-02T10:57:51.144Z</time>
      </trkpt>
      <trkpt lat="51.77321" lon="4.441">
        <ele>49.6447</ele>
        <time>2024-07-02T10:57:54.146Z</time>
      </trkpt>
      <trkpt lat="51.77331" lon="4.44091">
        <ele>49.635295</ele>
        <time>2024-07-02T10:57:57.154Z</time>
      </trkpt>
      <trkpt lat="51.77342" lon="4.44084">
        <ele>49.626076</ele>
        <time>2024-07-02T10:58:00.143Z</time>
      </trkpt>
      <trkpt lat="51.77351" lon="4.44076">
        <ele>49.617413</ele>
        <time>2024-07-02T10:58:03.134Z</time>
      </trkpt>
      <trkpt lat="51.7736" lon="4.44068">
        <ele>49.60908</ele>
        <time>2024-07-02T10:58:06.145Z</time>
      </trkpt>
      <trkpt lat="51.7737" lon="4.44061">
        <ele>49.600345</ele>
        <time>2024-07-02T10:58:09.134Z</time>
      </trkpt>
      <trkpt lat="51.7738" lon="4.44053">
        <ele>49.591295</ele>
        <time>2024-07-02T10:58:12.146Z</time>
      </trkpt>
      <trkpt lat="51.77391" lon="4.44045">
        <ele>49.557698</ele>
        <time>2024-07-02T10:58:15.123Z</time>
      </trkpt>
      <trkpt lat="51.77402" lon="4.44038">
        <ele>49.518844</ele>
        <time>2024-07-02T10:58:18.144Z</time>
      </trkpt>
      <trkpt lat="51.77412" lon="4.44029">
        <ele>49.479945</ele>
        <time>2024-07-02T10:58:21.150Z</time>
      </trkpt>
      <trkpt lat="51.77423" lon="4.4402">
        <ele>49.441735</ele>
        <time>2024-07-02T10:58:24.155Z</time>
      </trkpt>
      <trkpt lat="51.77433" lon="4.44013">
        <ele>49.405406</ele>
        <time>2024-07-02T10:58:27.137Z</time>
      </trkpt>
      <trkpt lat="51.77443" lon="4.44004">
        <ele>49.36835</ele>
        <time>2024-07-02T10:58:30.156Z</time>
      </trkpt>
      <trkpt lat="51.77454" lon="4.43999">
        <ele>49.330526</ele>
        <time>2024-07-02T10:58:33.138Z</time>
      </trkpt>
      <trkpt lat="51.77464" lon="4.43992">
        <ele>49.292818</ele>
        <time>2024-07-02T10:58:36.151Z</time>
      </trkpt>
      <trkpt lat="51.77475" lon="4.43986">
        <ele>49.255607</ele>
        <time>2024-07-02T10:58:39.138Z</time>
      </trkpt>
      <trkpt lat="51.77484" lon="4.43978">
        <ele>49.223364</ele>
        <time>2024-07-02T10:58:42.154Z</time>
      </trkpt>
      <trkpt lat="51.77493" lon="4.43971">
        <ele>49.188688</ele>
        <time>2024-07-02T10:58:45.131Z</time>
      </trkpt>
      <trkpt lat="51.77502" lon="4.43964">
        <ele>49.155843</ele>
        <time>2024-07-02T10:58:48.138Z</time>
      </trkpt>
      <trkpt lat="51.77511" lon="4.43957">
        <ele>49.123764</ele>
        <time>2024-07-02T10:58:51.134Z</time>
      </trkpt>
      <trkpt lat="51.77521" lon="4.4395">
        <ele>49.089389</ele>
        <time>2024-07-02T10:58:54.144Z</time>
      </trkpt>
      <trkpt lat="51.77531" lon="4.43943">
        <ele>49.053867</ele>
        <time>2024-07-02T10:58:57.138Z</time>
      </trkpt>
      <trkpt lat="51.7754" lon="4.43935">
        <ele>49.018808</ele>
        <time>2024-07-02T10:59:00.137Z</time>
      </trkpt>
      <trkpt lat="51.7755" lon="4.43928">
        <ele>49.013129</ele>
        <time>2024-07-02T10:59:03.152Z</time>
      </trkpt>
      <trkpt lat="51.77559" lon="4.43921">
        <ele>49.043447</ele>
        <time>2024-07-02T10:59:06.143Z</time>
      </trkpt>
      <trkpt lat="51.77569" lon="4.43915">
        <ele>49.073243</ele>
        <time>2024-07-02T10:59:09.140Z</time>
      </trkpt>
      <trkpt lat="51.77578" lon="4.43907">
        <ele>49.103646</ele>
        <time>2024-07-02T10:59:12.145Z</time>
      </trkpt>
      <trkpt lat="51.77588" lon="4.43899">
        <ele>49.134709</ele>
        <time>2024-07-02T10:59:15.135Z</time>
      </trkpt>
      <trkpt lat="51.77598" lon="4.43892">
        <ele>49.167135</ele>
        <time>2024-07-02T10:59:18.141Z</time>
      </trkpt>
      <trkpt lat="51.77609" lon="4.43884">
        <ele>49.199048</ele>
        <time>2024-07-02T10:59:21.141Z</time>
      </trkpt>
      <trkpt lat="51.77618" lon="4.43877">
        <ele>49.230067</ele>
        <time>2024-07-02T10:59:24.150Z</time>
      </trkpt>
      <trkpt lat="51.77628" lon="4.4387">
        <ele>49.261036</ele>
        <time>2024-07-02T10:59:27.132Z</time>
      </trkpt>
      <trkpt lat="51.77638" lon="4.43862">
        <ele>49.2927</ele>
        <time>2024-07-02T10:59:30.154Z</time>
      </trkpt>
      <trkpt lat="51.77648" lon="4.43854">
        <ele>49.325369</ele>
        <time>2024-07-02T10:59:33.140Z</time>
      </trkpt>
      <trkpt lat="51.77659" lon="4.43847">
        <ele>49.357282</ele>
        <time>2024-07-02T10:59:36.141Z</time>
      </trkpt>
      <trkpt lat="51.7767" lon="4.43842">
        <ele>49.39135</ele>
        <time>2024-07-02T10:59:39.147Z</time>
      </trkpt>
      <trkpt lat="51.77682" lon="4.43838">
        <ele>49.425878</ele>
        <time>2024-07-02T10:59:42.142Z</time>
      </trkpt>
      <trkpt lat="51.77693" lon="4.43835">
        <ele>49.458176</ele>
        <time>2024-07-02T10:59:45.130Z</time>
      </trkpt>
      <trkpt lat="51.77704" lon="4.43832">
        <ele>49.489556</ele>
        <time>2024-07-02T10:59:48.144Z</time>
      </trkpt>
      <trkpt lat="51.77715" lon="4.4383">
        <ele>49.512781</ele>
        <time>2024-07-02T10:59:51.143Z</time>
      </trkpt>
      <trkpt lat="51.77727" lon="4.43828">
        <ele>49.504896</ele>
        <time>2024-07-02T10:59:54.149Z</time>
      </trkpt>
      <trkpt lat="51.77738" lon="4.43826">
        <ele>49.497589</ele>
        <time>2024-07-02T10:59:57.138Z</time>
      </trkpt>
      <trkpt lat="51.77749" lon="4.43825">
        <ele>49.490175</ele>
        <time>2024-07-02T11:00:00.145Z</time>
      </trkpt>
      <trkpt lat="51.7776" lon="4.43822">
        <ele>49.482868</ele>
        <time>2024-07-02T11:00:03.137Z</time>
      </trkpt>
      <trkpt lat="51.7777" lon="4.4382">
        <ele>49.475904</ele>
        <time>2024-07-02T11:00:06.146Z</time>
      </trkpt>
      <trkpt lat="51.77781" lon="4.43819">
        <ele>49.468345</ele>
        <time>2024-07-02T11:00:09.138Z</time>
      </trkpt>
      <trkpt lat="51.77791" lon="4.43817">
        <ele>49.461462</ele>
        <time>2024-07-02T11:00:12.154Z</time>
      </trkpt>
      <trkpt lat="51.77802" lon="4.43815">
        <ele>49.454315</ele>
        <time>2024-07-02T11:00:15.132Z</time>
      </trkpt>
      <trkpt lat="51.77812" lon="4.43814">
        <ele>49.447322</ele>
        <time>2024-07-02T11:00:18.139Z</time>
      </trkpt>
      <trkpt lat="51.77822" lon="4.43812">
        <ele>49.440568</ele>
        <time>2024-07-02T11:00:21.133Z</time>
      </trkpt>
      <trkpt lat="51.77833" lon="4.43811">
        <ele>49.433087</ele>
        <time>2024-07-02T11:00:24.152Z</time>
      </trkpt>
      <trkpt lat="51.77845" lon="4.43809">
        <ele>49.425242</ele>
        <time>2024-07-02T11:00:27.138Z</time>
      </trkpt>
      <trkpt lat="51.77856" lon="4.43807">
        <ele>49.417564</ele>
        <time>2024-07-02T11:00:30.138Z</time>
      </trkpt>
      <trkpt lat="51.77868" lon="4.43805">
        <ele>49.409781</ele>
        <time>2024-07-02T11:00:33.137Z</time>
      </trkpt>
      <trkpt lat="51.77879" lon="4.43803">
        <ele>49.402412</ele>
        <time>2024-07-02T11:00:36.157Z</time>
      </trkpt>
      <trkpt lat="51.7789" lon="4.43801">
        <ele>49.394941</ele>
        <time>2024-07-02T11:00:39.149Z</time>
      </trkpt>
      <trkpt lat="51.77901" lon="4.438">
        <ele>49.273387</ele>
        <time>2024-07-02T11:00:42.154Z</time>
      </trkpt>
      <trkpt lat="51.77913" lon="4.43798">
        <ele>49.131917</ele>
        <time>2024-07-02T11:00:45.136Z</time>
      </trkpt>
      <trkpt lat="51.77924" lon="4.43796">
        <ele>48.993972</ele>
        <time>2024-07-02T11:00:48.119Z</time>
      </trkpt>
      <trkpt lat="51.77936" lon="4.43795">
        <ele>48.858062</ele>
        <time>2024-07-02T11:00:51.138Z</time>
      </trkpt>
      <trkpt lat="51.77947" lon="4.43792">
        <ele>48.72103</ele>
        <time>2024-07-02T11:00:54.147Z</time>
      </trkpt>
      <trkpt lat="51.77958" lon="4.43791">
        <ele>48.586091</ele>
        <time>2024-07-02T11:00:57.155Z</time>
      </trkpt>
      <trkpt lat="51.77969" lon="4.43789">
        <ele>48.447112</ele>
        <time>2024-07-02T11:01:00.163Z</time>
      </trkpt>
      <trkpt lat="51.77981" lon="4.43787">
        <ele>48.309633</ele>
        <time>2024-07-02T11:01:03.124Z</time>
      </trkpt>
      <trkpt lat="51.77992" lon="4.43786">
        <ele>48.174568</ele>
        <time>2024-07-02T11:01:06.138Z</time>
      </trkpt>
      <trkpt lat="51.78003" lon="4.43784">
        <ele>48.036711</ele>
        <time>2024-07-02T11:01:09.138Z</time>
      </trkpt>
      <trkpt lat="51.78015" lon="4.43782">
        <ele>47.890423</ele>
        <time>2024-07-02T11:01:12.145Z</time>
      </trkpt>
      <trkpt lat="51.78027" lon="4.43779">
        <ele>47.748778</ele>
        <time>2024-07-02T11:01:15.120Z</time>
      </trkpt>
      <trkpt lat="51.78038" lon="4.43778">
        <ele>47.60669</ele>
        <time>2024-07-02T11:01:18.147Z</time>
      </trkpt>
      <trkpt lat="51.7805" lon="4.43776">
        <ele>47.461762</ele>
        <time>2024-07-02T11:01:21.154Z</time>
      </trkpt>
      <trkpt lat="51.78062" lon="4.43774">
        <ele>47.322119</ele>
        <time>2024-07-02T11:01:24.147Z</time>
      </trkpt>
      <trkpt lat="51.78073" lon="4.43772">
        <ele>47.208335</ele>
        <time>2024-07-02T11:01:27.153Z</time>
      </trkpt>
      <trkpt lat="51.78083" lon="4.4377">
        <ele>47.183831</ele>
        <time>2024-07-02T11:01:30.148Z</time>
      </trkpt>
      <trkpt lat="51.78093" lon="4.4377">
        <ele>47.160829</ele>
        <time>2024-07-02T11:01:33.135Z</time>
      </trkpt>
      <trkpt lat="51.78104" lon="4.43771">
        <ele>47.135184</ele>
        <time>2024-07-02T11:01:36.149Z</time>
      </trkpt>
      <trkpt lat="51.78116" lon="4.43772">
        <ele>47.106691</ele>
        <time>2024-07-02T11:01:39.142Z</time>
      </trkpt>
      <trkpt lat="51.78128" lon="4.43771">
        <ele>47.077725</ele>
        <time>2024-07-02T11:01:42.150Z</time>
      </trkpt>
      <trkpt lat="51.7814" lon="4.4377">
        <ele>47.049713</ele>
        <time>2024-07-02T11:01:45.122Z</time>
      </trkpt>
      <trkpt lat="51.7815" lon="4.43768">
        <ele>47.023724</ele>
        <time>2024-07-02T11:01:48.130Z</time>
      </trkpt>
      <trkpt lat="51.7816" lon="4.43767">
        <ele>46.999981</ele>
        <time>2024-07-02T11:01:51.126Z</time>
      </trkpt>
      <trkpt lat="51.78171" lon="4.43766">
        <ele>46.975311</ele>
        <time>2024-07-02T11:01:54.153Z</time>
      </trkpt>
      <trkpt lat="51.78181" lon="4.43768">
        <ele>46.951764</ele>
        <time>2024-07-02T11:01:57.147Z</time>
      </trkpt>
      <trkpt lat="51.78189" lon="4.43777">
        <ele>46.927098</ele>
        <time>2024-07-02T11:02:00.130Z</time>
      </trkpt>
      <trkpt lat="51.78197" lon="4.4379">
        <ele>46.901029</ele>
        <time>2024-07-02T11:02:04.153Z</time>
      </trkpt>
      <trkpt lat="51.78197" lon="4.43806">
        <ele>46.877857</ele>
        <time>2024-07-02T11:02:07.133Z</time>
      </trkpt>
      <trkpt lat="51.78196" lon="4.43821">
        <ele>46.85638</ele>
        <time>2024-07-02T11:02:09.122Z</time>
      </trkpt>
      <trkpt lat="51.78198" lon="4.43836">
        <ele>46.833638</ele>
        <time>2024-07-02T11:02:11.145Z</time>
      </trkpt>
      <trkpt lat="51.782" lon="4.43851">
        <ele>46.810939</ele>
        <time>2024-07-02T11:02:13.133Z</time>
      </trkpt>
      <trkpt lat="51.78201" lon="4.43866">
        <ele>46.789161</ele>
        <time>2024-07-02T11:02:15.132Z</time>
      </trkpt>
      <trkpt lat="51.78205" lon="4.43886">
        <ele>46.729652</ele>
        <time>2024-07-02T11:02:18.146Z</time>
      </trkpt>
      <trkpt lat="51.78208" lon="4.43906">
        <ele>46.669265</ele>
        <time>2024-07-02T11:02:21.132Z</time>
      </trkpt>
      <trkpt lat="51.78211" lon="4.43925">
        <ele>46.609853</ele>
        <time>2024-07-02T11:02:24.147Z</time>
      </trkpt>
      <trkpt lat="51.78214" lon="4.43939">
        <ele>46.567426</ele>
        <time>2024-07-02T11:02:26.151Z</time>
      </trkpt>
      <trkpt lat="51.78216" lon="4.43961">
        <ele>46.503052</ele>
        <time>2024-07-02T11:02:29.152Z</time>
      </trkpt>
      <trkpt lat="51.78218" lon="4.43975">
        <ele>46.459086</ele>
        <time>2024-07-02T11:02:31.144Z</time>
      </trkpt>
      <trkpt lat="51.78221" lon="4.43991">
        <ele>46.412989</ele>
        <time>2024-07-02T11:02:33.154Z</time>
      </trkpt>
      <trkpt lat="51.78223" lon="4.44006">
        <ele>46.366891</ele>
        <time>2024-07-02T11:02:35.128Z</time>
      </trkpt>
      <trkpt lat="51.78226" lon="4.4402">
        <ele>46.321811</ele>
        <time>2024-07-02T11:02:37.150Z</time>
      </trkpt>
      <trkpt lat="51.78229" lon="4.44035">
        <ele>46.2774</ele>
        <time>2024-07-02T11:02:39.153Z</time>
      </trkpt>
      <trkpt lat="51.78233" lon="4.44049">
        <ele>46.231235</ele>
        <time>2024-07-02T11:02:41.145Z</time>
      </trkpt>
      <trkpt lat="51.78237" lon="4.44064">
        <ele>46.185699</ele>
        <time>2024-07-02T11:02:43.139Z</time>
      </trkpt>
      <trkpt lat="51.78241" lon="4.44084">
        <ele>46.122498</ele>
        <time>2024-07-02T11:02:46.165Z</time>
      </trkpt>
      <trkpt lat="51.78245" lon="4.44097">
        <ele>46.079561</ele>
        <time>2024-07-02T11:02:48.141Z</time>
      </trkpt>
      <trkpt lat="51.78249" lon="4.44118">
        <ele>46.016268</ele>
        <time>2024-07-02T11:02:51.138Z</time>
      </trkpt>
      <trkpt lat="51.78253" lon="4.44132">
        <ele>45.971832</ele>
        <time>2024-07-02T11:02:53.128Z</time>
      </trkpt>
      <trkpt lat="51.78256" lon="4.44146">
        <ele>45.942864</ele>
        <time>2024-07-02T11:02:55.127Z</time>
      </trkpt>
      <trkpt lat="51.78259" lon="4.44159">
        <ele>45.9907</ele>
        <time>2024-07-02T11:02:57.149Z</time>
      </trkpt>
      <trkpt lat="51.78262" lon="4.44173">
        <ele>46.039386</ele>
        <time>2024-07-02T11:02:59.157Z</time>
      </trkpt>
      <trkpt lat="51.78266" lon="4.44187">
        <ele>46.087503</ele>
        <time>2024-07-02T11:03:01.143Z</time>
      </trkpt>
      <trkpt lat="51.7827" lon="4.44207">
        <ele>46.157696</ele>
        <time>2024-07-02T11:03:04.140Z</time>
      </trkpt>
      <trkpt lat="51.78275" lon="4.44227">
        <ele>46.227704</ele>
        <time>2024-07-02T11:03:07.142Z</time>
      </trkpt>
      <trkpt lat="51.78278" lon="4.44241">
        <ele>46.276339</ele>
        <time>2024-07-02T11:03:09.153Z</time>
      </trkpt>
      <trkpt lat="51.78281" lon="4.44255">
        <ele>46.325279</ele>
        <time>2024-07-02T11:03:11.141Z</time>
      </trkpt>
      <trkpt lat="51.78285" lon="4.44269">
        <ele>46.373801</ele>
        <time>2024-07-02T11:03:13.138Z</time>
      </trkpt>
      <trkpt lat="51.78289" lon="4.44289">
        <ele>46.443197</ele>
        <time>2024-07-02T11:03:16.147Z</time>
      </trkpt>
      <trkpt lat="51.78292" lon="4.4431">
        <ele>46.512732</ele>
        <time>2024-07-02T11:03:19.134Z</time>
      </trkpt>
      <trkpt lat="51.78293" lon="4.4433">
        <ele>46.579474</ele>
        <time>2024-07-02T11:03:22.131Z</time>
      </trkpt>
      <trkpt lat="51.78296" lon="4.44344">
        <ele>46.627255</ele>
        <time>2024-07-02T11:03:24.136Z</time>
      </trkpt>
      <trkpt lat="51.78305" lon="4.44359">
        <ele>46.695381</ele>
        <time>2024-07-02T11:03:27.141Z</time>
      </trkpt>
      <trkpt lat="51.7831" lon="4.44371">
        <ele>46.742913</ele>
        <time>2024-07-02T11:03:29.137Z</time>
      </trkpt>
      <trkpt lat="51.78313" lon="4.44385">
        <ele>46.791958</ele>
        <time>2024-07-02T11:03:31.139Z</time>
      </trkpt>
      <trkpt lat="51.78317" lon="4.44399">
        <ele>46.840177</ele>
        <time>2024-07-02T11:03:33.140Z</time>
      </trkpt>
      <trkpt lat="51.78319" lon="4.4442">
        <ele>46.877359</ele>
        <time>2024-07-02T11:03:36.141Z</time>
      </trkpt>
      <trkpt lat="51.78323" lon="4.44434">
        <ele>46.861944</ele>
        <time>2024-07-02T11:03:38.123Z</time>
      </trkpt>
      <trkpt lat="51.78326" lon="4.44448">
        <ele>46.846685</ele>
        <time>2024-07-02T11:03:40.143Z</time>
      </trkpt>
      <trkpt lat="51.7833" lon="4.44462">
        <ele>46.831519</ele>
        <time>2024-07-02T11:03:42.151Z</time>
      </trkpt>
      <trkpt lat="51.78333" lon="4.44476">
        <ele>46.816259</ele>
        <time>2024-07-02T11:03:44.140Z</time>
      </trkpt>
      <trkpt lat="51.78336" lon="4.4449">
        <ele>46.801279</ele>
        <time>2024-07-02T11:03:46.162Z</time>
      </trkpt>
      <trkpt lat="51.78339" lon="4.44504">
        <ele>46.786343</ele>
        <time>2024-07-02T11:03:48.130Z</time>
      </trkpt>
      <trkpt lat="51.78342" lon="4.44517">
        <ele>46.771366</ele>
        <time>2024-07-02T11:03:50.136Z</time>
      </trkpt>
      <trkpt lat="51.78345" lon="4.44532">
        <ele>46.7558</ele>
        <time>2024-07-02T11:03:52.132Z</time>
      </trkpt>
      <trkpt lat="51.78351" lon="4.44551">
        <ele>46.73424</ele>
        <time>2024-07-02T11:03:55.136Z</time>
      </trkpt>
      <trkpt lat="51.78354" lon="4.44565">
        <ele>46.719097</ele>
        <time>2024-07-02T11:03:57.150Z</time>
      </trkpt>
      <trkpt lat="51.7836" lon="4.44585">
        <ele>46.696755</ele>
        <time>2024-07-02T11:04:00.141Z</time>
      </trkpt>
      <trkpt lat="51.78363" lon="4.44599">
        <ele>46.681859</ele>
        <time>2024-07-02T11:04:02.148Z</time>
      </trkpt>
      <trkpt lat="51.78366" lon="4.44613">
        <ele>46.667001</ele>
        <time>2024-07-02T11:04:04.146Z</time>
      </trkpt>
      <trkpt lat="51.78369" lon="4.44627">
        <ele>46.65104</ele>
        <time>2024-07-02T11:04:06.150Z</time>
      </trkpt>
      <trkpt lat="51.78373" lon="4.44641">
        <ele>46.635953</ele>
        <time>2024-07-02T11:04:08.124Z</time>
      </trkpt>
      <trkpt lat="51.78375" lon="4.44656">
        <ele>46.62068</ele>
        <time>2024-07-02T11:04:10.145Z</time>
      </trkpt>
      <trkpt lat="51.7838" lon="4.44675">
        <ele>46.599575</ele>
        <time>2024-07-02T11:04:13.134Z</time>
      </trkpt>
      <trkpt lat="51.78384" lon="4.44695">
        <ele>46.587204</ele>
        <time>2024-07-02T11:04:16.118Z</time>
      </trkpt>
      <trkpt lat="51.78388" lon="4.44715">
        <ele>46.581833</ele>
        <time>2024-07-02T11:04:19.140Z</time>
      </trkpt>
      <trkpt lat="51.78393" lon="4.44735">
        <ele>46.576268</ele>
        <time>2024-07-02T11:04:22.145Z</time>
      </trkpt>
      <trkpt lat="51.78398" lon="4.44755">
        <ele>46.570802</ele>
        <time>2024-07-02T11:04:25.146Z</time>
      </trkpt>
      <trkpt lat="51.78403" lon="4.44775">
        <ele>46.565383</ele>
        <time>2024-07-02T11:04:28.156Z</time>
      </trkpt>
      <trkpt lat="51.78407" lon="4.44795">
        <ele>46.56001</ele>
        <time>2024-07-02T11:04:31.136Z</time>
      </trkpt>
      <trkpt lat="51.78411" lon="4.44815">
        <ele>46.554688</ele>
        <time>2024-07-02T11:04:34.147Z</time>
      </trkpt>
      <trkpt lat="51.78416" lon="4.44835">
        <ele>46.549017</ele>
        <time>2024-07-02T11:04:37.109Z</time>
      </trkpt>
      <trkpt lat="51.78419" lon="4.44849">
        <ele>46.545287</ele>
        <time>2024-07-02T11:04:39.106Z</time>
      </trkpt>
      <trkpt lat="51.78424" lon="4.44869">
        <ele>46.539803</ele>
        <time>2024-07-02T11:04:42.143Z</time>
      </trkpt>
      <trkpt lat="51.78429" lon="4.44889">
        <ele>46.534439</ele>
        <time>2024-07-02T11:04:45.107Z</time>
      </trkpt>
      <trkpt lat="51.78432" lon="4.44903">
        <ele>46.530708</ele>
        <time>2024-07-02T11:04:47.149Z</time>
      </trkpt>
      <trkpt lat="51.78435" lon="4.44916">
        <ele>46.526947</ele>
        <time>2024-07-02T11:04:49.126Z</time>
      </trkpt>
      <trkpt lat="51.7844" lon="4.44936">
        <ele>46.521458</ele>
        <time>2024-07-02T11:04:52.162Z</time>
      </trkpt>
      <trkpt lat="51.78445" lon="4.44956">
        <ele>46.516011</ele>
        <time>2024-07-02T11:04:55.123Z</time>
      </trkpt>
      <trkpt lat="51.78449" lon="4.44976">
        <ele>46.497953</ele>
        <time>2024-07-02T11:04:58.155Z</time>
      </trkpt>
      <trkpt lat="51.78452" lon="4.4499">
        <ele>46.485448</ele>
        <time>2024-07-02T11:05:00.158Z</time>
      </trkpt>
      <trkpt lat="51.78456" lon="4.45004">
        <ele>46.473023</ele>
        <time>2024-07-02T11:05:02.147Z</time>
      </trkpt>
      <trkpt lat="51.78459" lon="4.45018">
        <ele>46.460472</ele>
        <time>2024-07-02T11:05:04.139Z</time>
      </trkpt>
      <trkpt lat="51.78463" lon="4.45038">
        <ele>46.442381</ele>
        <time>2024-07-02T11:05:07.151Z</time>
      </trkpt>
      <trkpt lat="51.78467" lon="4.45052">
        <ele>46.429784</ele>
        <time>2024-07-02T11:05:09.147Z</time>
      </trkpt>
      <trkpt lat="51.78471" lon="4.45072">
        <ele>46.411647</ele>
        <time>2024-07-02T11:05:12.139Z</time>
      </trkpt>
      <trkpt lat="51.78476" lon="4.45092">
        <ele>46.393313</ele>
        <time>2024-07-02T11:05:15.129Z</time>
      </trkpt>
      <trkpt lat="51.7848" lon="4.45112">
        <ele>46.375889</ele>
        <time>2024-07-02T11:05:18.155Z</time>
      </trkpt>
      <trkpt lat="51.78485" lon="4.45131">
        <ele>46.358049</ele>
        <time>2024-07-02T11:05:21.130Z</time>
      </trkpt>
      <trkpt lat="51.7849" lon="4.4515">
        <ele>46.340521</ele>
        <time>2024-07-02T11:05:24.135Z</time>
      </trkpt>
      <trkpt lat="51.78494" lon="4.4517">
        <ele>46.32326</ele>
        <time>2024-07-02T11:05:27.142Z</time>
      </trkpt>
      <trkpt lat="51.78498" lon="4.4519">
        <ele>46.305136</ele>
        <time>2024-07-02T11:05:30.141Z</time>
      </trkpt>
      <trkpt lat="51.78503" lon="4.4521">
        <ele>46.287267</ele>
        <time>2024-07-02T11:05:33.139Z</time>
      </trkpt>
      <trkpt lat="51.78508" lon="4.45229">
        <ele>46.270641</ele>
        <time>2024-07-02T11:05:36.151Z</time>
      </trkpt>
      <trkpt lat="51.78512" lon="4.45248">
        <ele>46.309257</ele>
        <time>2024-07-02T11:05:39.147Z</time>
      </trkpt>
      <trkpt lat="51.78517" lon="4.45266">
        <ele>46.348115</ele>
        <time>2024-07-02T11:05:42.144Z</time>
      </trkpt>
      <trkpt lat="51.78521" lon="4.45285">
        <ele>46.386914</ele>
        <time>2024-07-02T11:05:45.120Z</time>
      </trkpt>
      <trkpt lat="51.78526" lon="4.45306">
        <ele>46.429467</ele>
        <time>2024-07-02T11:05:48.138Z</time>
      </trkpt>
      <trkpt lat="51.78529" lon="4.4532">
        <ele>46.458138</ele>
        <time>2024-07-02T11:05:50.157Z</time>
      </trkpt>
      <trkpt lat="51.78534" lon="4.4534">
        <ele>46.49964</ele>
        <time>2024-07-02T11:05:53.133Z</time>
      </trkpt>
      <trkpt lat="51.78538" lon="4.4536">
        <ele>46.540781</ele>
        <time>2024-07-02T11:05:56.134Z</time>
      </trkpt>
      <trkpt lat="51.78543" lon="4.45379">
        <ele>46.58012</ele>
        <time>2024-07-02T11:05:59.141Z</time>
      </trkpt>
      <trkpt lat="51.78548" lon="4.45399">
        <ele>46.622021</ele>
        <time>2024-07-02T11:06:02.139Z</time>
      </trkpt>
      <trkpt lat="51.78552" lon="4.4542">
        <ele>46.663417</ele>
        <time>2024-07-02T11:06:05.138Z</time>
      </trkpt>
      <trkpt lat="51.78557" lon="4.45439">
        <ele>46.70483</ele>
        <time>2024-07-02T11:06:08.154Z</time>
      </trkpt>
      <trkpt lat="51.78562" lon="4.4546">
        <ele>46.74677</ele>
        <time>2024-07-02T11:06:11.143Z</time>
      </trkpt>
      <trkpt lat="51.78566" lon="4.4548">
        <ele>46.788061</ele>
        <time>2024-07-02T11:06:14.139Z</time>
      </trkpt>
      <trkpt lat="51.78569" lon="4.45494">
        <ele>46.816992</ele>
        <time>2024-07-02T11:06:16.137Z</time>
      </trkpt>
      <trkpt lat="51.78574" lon="4.45514">
        <ele>46.782311</ele>
        <time>2024-07-02T11:06:19.134Z</time>
      </trkpt>
      <trkpt lat="51.78579" lon="4.45533">
        <ele>46.711819</ele>
        <time>2024-07-02T11:06:22.148Z</time>
      </trkpt>
      <trkpt lat="51.78583" lon="4.45553">
        <ele>46.640563</ele>
        <time>2024-07-02T11:06:25.133Z</time>
      </trkpt>
      <trkpt lat="51.78587" lon="4.45574">
        <ele>46.56916</ele>
        <time>2024-07-02T11:06:28.130Z</time>
      </trkpt>
      <trkpt lat="51.78591" lon="4.45593">
        <ele>46.499219</ele>
        <time>2024-07-02T11:06:31.134Z</time>
      </trkpt>
      <trkpt lat="51.78595" lon="4.45612">
        <ele>46.432666</ele>
        <time>2024-07-02T11:06:34.145Z</time>
      </trkpt>
      <trkpt lat="51.786" lon="4.45631">
        <ele>46.361346</ele>
        <time>2024-07-02T11:06:37.149Z</time>
      </trkpt>
      <trkpt lat="51.78603" lon="4.45646">
        <ele>46.310575</ele>
        <time>2024-07-02T11:06:39.124Z</time>
      </trkpt>
      <trkpt lat="51.78608" lon="4.45666">
        <ele>46.23686</ele>
        <time>2024-07-02T11:06:42.149Z</time>
      </trkpt>
      <trkpt lat="51.78611" lon="4.4568">
        <ele>46.187011</ele>
        <time>2024-07-02T11:06:44.138Z</time>
      </trkpt>
      <trkpt lat="51.78615" lon="4.45694">
        <ele>46.134612</ele>
        <time>2024-07-02T11:06:46.157Z</time>
      </trkpt>
      <trkpt lat="51.78619" lon="4.45708">
        <ele>46.082415</ele>
        <time>2024-07-02T11:06:48.145Z</time>
      </trkpt>
      <trkpt lat="51.78622" lon="4.45723">
        <ele>46.029288</ele>
        <time>2024-07-02T11:06:50.138Z</time>
      </trkpt>
      <trkpt lat="51.78626" lon="4.45737">
        <ele>45.977719</ele>
        <time>2024-07-02T11:06:52.145Z</time>
      </trkpt>
      <trkpt lat="51.78629" lon="4.45751">
        <ele>45.926463</ele>
        <time>2024-07-02T11:06:54.138Z</time>
      </trkpt>
      <trkpt lat="51.78633" lon="4.45766">
        <ele>45.873108</ele>
        <time>2024-07-02T11:06:56.151Z</time>
      </trkpt>
      <trkpt lat="51.78636" lon="4.45781">
        <ele>45.846009</ele>
        <time>2024-07-02T11:06:58.149Z</time>
      </trkpt>
      <trkpt lat="51.78639" lon="4.45794">
        <ele>45.839561</ele>
        <time>2024-07-02T11:07:00.146Z</time>
      </trkpt>
      <trkpt lat="51.78643" lon="4.45809">
        <ele>45.832881</ele>
        <time>2024-07-02T11:07:02.139Z</time>
      </trkpt>
      <trkpt lat="51.78647" lon="4.45829">
        <ele>45.823773</ele>
        <time>2024-07-02T11:07:05.118Z</time>
      </trkpt>
      <trkpt lat="51.78651" lon="4.45846">
        <ele>45.816171</ele>
        <time>2024-07-02T11:07:08.144Z</time>
      </trkpt>
      <trkpt lat="51.78656" lon="4.45864">
        <ele>45.807411</ele>
        <time>2024-07-02T11:07:11.137Z</time>
      </trkpt>
      <trkpt lat="51.7866" lon="4.45883">
        <ele>45.798611</ele>
        <time>2024-07-02T11:07:14.143Z</time>
      </trkpt>
      <trkpt lat="51.78665" lon="4.45903">
        <ele>45.789302</ele>
        <time>2024-07-02T11:07:17.139Z</time>
      </trkpt>
      <trkpt lat="51.78669" lon="4.45924">
        <ele>45.779948</ele>
        <time>2024-07-02T11:07:20.127Z</time>
      </trkpt>
      <trkpt lat="51.78672" lon="4.45938">
        <ele>45.773661</ele>
        <time>2024-07-02T11:07:22.145Z</time>
      </trkpt>
      <trkpt lat="51.78677" lon="4.45957">
        <ele>45.764556</ele>
        <time>2024-07-02T11:07:25.126Z</time>
      </trkpt>
      <trkpt lat="51.78682" lon="4.45976">
        <ele>45.755704</ele>
        <time>2024-07-02T11:07:28.143Z</time>
      </trkpt>
      <trkpt lat="51.78687" lon="4.45996">
        <ele>45.746582</ele>
        <time>2024-07-02T11:07:31.145Z</time>
      </trkpt>
      <trkpt lat="51.78691" lon="4.46016">
        <ele>45.737617</ele>
        <time>2024-07-02T11:07:34.143Z</time>
      </trkpt>
      <trkpt lat="51.78695" lon="4.46036">
        <ele>45.728443</ele>
        <time>2024-07-02T11:07:37.156Z</time>
      </trkpt>
      <trkpt lat="51.78699" lon="4.4605">
        <ele>45.730694</ele>
        <time>2024-07-02T11:07:39.149Z</time>
      </trkpt>
      <trkpt lat="51.78702" lon="4.46064">
        <ele>45.749234</ele>
        <time>2024-07-02T11:07:41.150Z</time>
      </trkpt>
      <trkpt lat="51.78705" lon="4.46079">
        <ele>45.767758</ele>
        <time>2024-07-02T11:07:43.155Z</time>
      </trkpt>
      <trkpt lat="51.78709" lon="4.46094">
        <ele>45.786541</ele>
        <time>2024-07-02T11:07:45.120Z</time>
      </trkpt>
      <trkpt lat="51.78712" lon="4.46108">
        <ele>45.804734</ele>
        <time>2024-07-02T11:07:47.146Z</time>
      </trkpt>
      <trkpt lat="51.78716" lon="4.46122">
        <ele>45.822984</ele>
        <time>2024-07-02T11:07:49.154Z</time>
      </trkpt>
      <trkpt lat="51.78719" lon="4.46137">
        <ele>45.84122</ele>
        <time>2024-07-02T11:07:51.149Z</time>
      </trkpt>
      <trkpt lat="51.78724" lon="4.46157">
        <ele>45.866912</ele>
        <time>2024-07-02T11:07:54.141Z</time>
      </trkpt>
      <trkpt lat="51.78729" lon="4.46176">
        <ele>45.892126</ele>
        <time>2024-07-02T11:07:57.154Z</time>
      </trkpt>
      <trkpt lat="51.78731" lon="4.4619">
        <ele>45.909562</ele>
        <time>2024-07-02T11:07:59.142Z</time>
      </trkpt>
      <trkpt lat="51.78735" lon="4.46204">
        <ele>45.927501</ele>
        <time>2024-07-02T11:08:01.143Z</time>
      </trkpt>
      <trkpt lat="51.78738" lon="4.46218">
        <ele>45.945415</ele>
        <time>2024-07-02T11:08:03.154Z</time>
      </trkpt>
      <trkpt lat="51.78742" lon="4.46239">
        <ele>45.971058</ele>
        <time>2024-07-02T11:08:06.160Z</time>
      </trkpt>
      <trkpt lat="51.78747" lon="4.46258">
        <ele>45.99609</ele>
        <time>2024-07-02T11:08:09.137Z</time>
      </trkpt>
      <trkpt lat="51.78751" lon="4.46277">
        <ele>46.0204</ele>
        <time>2024-07-02T11:08:12.140Z</time>
      </trkpt>
      <trkpt lat="51.78756" lon="4.46297">
        <ele>46.045361</ele>
        <time>2024-07-02T11:08:15.117Z</time>
      </trkpt>
      <trkpt lat="51.78761" lon="4.46315">
        <ele>46.06955</ele>
        <time>2024-07-02T11:08:18.147Z</time>
      </trkpt>
      <trkpt lat="51.78765" lon="4.46334">
        <ele>46.105084</ele>
        <time>2024-07-02T11:08:21.142Z</time>
      </trkpt>
      <trkpt lat="51.78769" lon="4.46353">
        <ele>46.140679</ele>
        <time>2024-07-02T11:08:24.127Z</time>
      </trkpt>
      <trkpt lat="51.78774" lon="4.46373">
        <ele>46.177114</ele>
        <time>2024-07-02T11:08:27.143Z</time>
      </trkpt>
      <trkpt lat="51.78778" lon="4.46391">
        <ele>46.21241</ele>
        <time>2024-07-02T11:08:30.140Z</time>
      </trkpt>
      <trkpt lat="51.78783" lon="4.4641">
        <ele>46.248807</ele>
        <time>2024-07-02T11:08:33.143Z</time>
      </trkpt>
      <trkpt lat="51.78787" lon="4.46429">
        <ele>46.284479</ele>
        <time>2024-07-02T11:08:36.136Z</time>
      </trkpt>
      <trkpt lat="51.78791" lon="4.46447">
        <ele>46.31884</ele>
        <time>2024-07-02T11:08:39.135Z</time>
      </trkpt>
      <trkpt lat="51.78796" lon="4.46466">
        <ele>46.354436</ele>
        <time>2024-07-02T11:08:42.159Z</time>
      </trkpt>
      <trkpt lat="51.78799" lon="4.46484">
        <ele>46.389657</ele>
        <time>2024-07-02T11:08:45.121Z</time>
      </trkpt>
      <trkpt lat="51.78804" lon="4.46502">
        <ele>46.424122</ele>
        <time>2024-07-02T11:08:48.138Z</time>
      </trkpt>
      <trkpt lat="51.78808" lon="4.4652">
        <ele>46.45828</ele>
        <time>2024-07-02T11:08:51.145Z</time>
      </trkpt>
      <trkpt lat="51.78812" lon="4.4654">
        <ele>46.49505</ele>
        <time>2024-07-02T11:08:54.165Z</time>
      </trkpt>
      <trkpt lat="51.78817" lon="4.46557">
        <ele>46.527979</ele>
        <time>2024-07-02T11:08:57.131Z</time>
      </trkpt>
      <trkpt lat="51.7882" lon="4.46572">
        <ele>46.557698</ele>
        <time>2024-07-02T11:09:00.146Z</time>
      </trkpt>
      <trkpt lat="51.78823" lon="4.46586">
        <ele>46.583642</ele>
        <time>2024-07-02T11:09:03.144Z</time>
      </trkpt>
      <trkpt lat="51.78827" lon="4.46602">
        <ele>46.620874</ele>
        <time>2024-07-02T11:09:08.138Z</time>
      </trkpt>
      <trkpt lat="51.78828" lon="4.46616">
        <ele>46.656175</ele>
        <time>2024-07-02T11:09:31.135Z</time>
      </trkpt>
      <trkpt lat="51.78834" lon="4.4663">
        <ele>46.694393</ele>
        <time>2024-07-02T11:12:22.140Z</time>
      </trkpt>
      <trkpt lat="51.78837" lon="4.46647">
        <ele>46.736308</ele>
        <time>2024-07-02T11:12:27.120Z</time>
      </trkpt>
      <trkpt lat="51.78841" lon="4.46665">
        <ele>46.782745</ele>
        <time>2024-07-02T11:12:31.134Z</time>
      </trkpt>
      <trkpt lat="51.78845" lon="4.46679">
        <ele>46.817515</ele>
        <time>2024-07-02T11:12:34.167Z</time>
      </trkpt>
      <trkpt lat="51.78849" lon="4.46697">
        <ele>46.862152</ele>
        <time>2024-07-02T11:12:38.144Z</time>
      </trkpt>
      <trkpt lat="51.78852" lon="4.46711">
        <ele>46.897896</ele>
        <time>2024-07-02T11:12:41.144Z</time>
      </trkpt>
      <trkpt lat="51.78855" lon="4.46726">
        <ele>46.935212</ele>
        <time>2024-07-02T11:12:44.139Z</time>
      </trkpt>
      <trkpt lat="51.78859" lon="4.46741">
        <ele>46.975008</ele>
        <time>2024-07-02T11:12:47.137Z</time>
      </trkpt>
      <trkpt lat="51.78863" lon="4.46758">
        <ele>47.016263</ele>
        <time>2024-07-02T11:12:50.145Z</time>
      </trkpt>
      <trkpt lat="51.78867" lon="4.46775">
        <ele>47.06008</ele>
        <time>2024-07-02T11:12:53.136Z</time>
      </trkpt>
      <trkpt lat="51.78871" lon="4.46792">
        <ele>47.104475</ele>
        <time>2024-07-02T11:12:56.137Z</time>
      </trkpt>
      <trkpt lat="51.78875" lon="4.46811">
        <ele>47.150862</ele>
        <time>2024-07-02T11:12:59.118Z</time>
      </trkpt>
      <trkpt lat="51.7888" lon="4.46829">
        <ele>47.196924</ele>
        <time>2024-07-02T11:13:02.141Z</time>
      </trkpt>
      <trkpt lat="51.78884" lon="4.46847">
        <ele>47.24204</ele>
        <time>2024-07-02T11:13:05.131Z</time>
      </trkpt>
      <trkpt lat="51.78888" lon="4.46864">
        <ele>47.285243</ele>
        <time>2024-07-02T11:13:08.145Z</time>
      </trkpt>
      <trkpt lat="51.78891" lon="4.46881">
        <ele>47.330142</ele>
        <time>2024-07-02T11:13:11.150Z</time>
      </trkpt>
      <trkpt lat="51.78896" lon="4.46899">
        <ele>47.37551</ele>
        <time>2024-07-02T11:13:14.160Z</time>
      </trkpt>
      <trkpt lat="51.789" lon="4.46917">
        <ele>47.42367</ele>
        <time>2024-07-02T11:13:17.140Z</time>
      </trkpt>
      <trkpt lat="51.78904" lon="4.46934">
        <ele>47.468852</ele>
        <time>2024-07-02T11:13:20.142Z</time>
      </trkpt>
      <trkpt lat="51.78908" lon="4.4695">
        <ele>47.51151</ele>
        <time>2024-07-02T11:13:23.138Z</time>
      </trkpt>
      <trkpt lat="51.78915" lon="4.46965">
        <ele>47.557027</ele>
        <time>2024-07-02T11:13:26.130Z</time>
      </trkpt>
      <trkpt lat="51.78926" lon="4.46972">
        <ele>47.601152</ele>
        <time>2024-07-02T11:13:29.173Z</time>
      </trkpt>
      <trkpt lat="51.78932" lon="4.46987">
        <ele>47.645196</ele>
        <time>2024-07-02T11:13:32.129Z</time>
      </trkpt>
      <trkpt lat="51.78939" lon="4.47002">
        <ele>47.690971</ele>
        <time>2024-07-02T11:13:35.126Z</time>
      </trkpt>
      <trkpt lat="51.78947" lon="4.47017">
        <ele>47.738119</ele>
        <time>2024-07-02T11:13:38.164Z</time>
      </trkpt>
      <trkpt lat="51.78954" lon="4.47031">
        <ele>47.782317</ele>
        <time>2024-07-02T11:13:41.147Z</time>
      </trkpt>
      <trkpt lat="51.78962" lon="4.47045">
        <ele>47.829474</ele>
        <time>2024-07-02T11:13:44.146Z</time>
      </trkpt>
      <trkpt lat="51.78971" lon="4.47058">
        <ele>47.876732</ele>
        <time>2024-07-02T11:13:47.135Z</time>
      </trkpt>
      <trkpt lat="51.7898" lon="4.47072">
        <ele>47.927729</ele>
        <time>2024-07-02T11:13:50.151Z</time>
      </trkpt>
      <trkpt lat="51.7899" lon="4.47086">
        <ele>47.978862</ele>
        <time>2024-07-02T11:13:53.139Z</time>
      </trkpt>
      <trkpt lat="51.79" lon="4.47098">
        <ele>47.968546</ele>
        <time>2024-07-02T11:13:56.142Z</time>
      </trkpt>
      <trkpt lat="51.7901" lon="4.47109">
        <ele>47.947714</ele>
        <time>2024-07-02T11:13:59.134Z</time>
      </trkpt>
      <trkpt lat="51.79021" lon="4.47121">
        <ele>47.92571</ele>
        <time>2024-07-02T11:14:02.156Z</time>
      </trkpt>
      <trkpt lat="51.79032" lon="4.4713">
        <ele>47.904723</ele>
        <time>2024-07-02T11:14:05.130Z</time>
      </trkpt>
      <trkpt lat="51.79044" lon="4.47138">
        <ele>47.883947</ele>
        <time>2024-07-02T11:14:08.133Z</time>
      </trkpt>
      <trkpt lat="51.79054" lon="4.47147">
        <ele>47.863609</ele>
        <time>2024-07-02T11:14:11.161Z</time>
      </trkpt>
      <trkpt lat="51.79065" lon="4.47157">
        <ele>47.842183</ele>
        <time>2024-07-02T11:14:14.150Z</time>
      </trkpt>
      <trkpt lat="51.79076" lon="4.47165">
        <ele>47.821867</ele>
        <time>2024-07-02T11:14:17.153Z</time>
      </trkpt>
      <trkpt lat="51.79088" lon="4.47173">
        <ele>47.800526</ele>
        <time>2024-07-02T11:14:20.138Z</time>
      </trkpt>
      <trkpt lat="51.79099" lon="4.47183">
        <ele>47.778803</ele>
        <time>2024-07-02T11:14:23.144Z</time>
      </trkpt>
      <trkpt lat="51.79108" lon="4.47189">
        <ele>47.763233</ele>
        <time>2024-07-02T11:14:25.129Z</time>
      </trkpt>
      <trkpt lat="51.7912" lon="4.47199">
        <ele>47.740515</ele>
        <time>2024-07-02T11:14:28.146Z</time>
      </trkpt>
      <trkpt lat="51.79128" lon="4.47206">
        <ele>47.724384</ele>
        <time>2024-07-02T11:14:30.139Z</time>
      </trkpt>
      <trkpt lat="51.79136" lon="4.47214">
        <ele>47.708599</ele>
        <time>2024-07-02T11:14:32.138Z</time>
      </trkpt>
      <trkpt lat="51.79145" lon="4.47222">
        <ele>47.692503</ele>
        <time>2024-07-02T11:14:34.150Z</time>
      </trkpt>
      <trkpt lat="51.79156" lon="4.47231">
        <ele>47.73385</ele>
        <time>2024-07-02T11:14:37.149Z</time>
      </trkpt>
      <trkpt lat="51.79168" lon="4.47239">
        <ele>47.820695</ele>
        <time>2024-07-02T11:14:40.131Z</time>
      </trkpt>
      <trkpt lat="51.7918" lon="4.47247">
        <ele>47.904093</ele>
        <time>2024-07-02T11:14:43.149Z</time>
      </trkpt>
      <trkpt lat="51.79192" lon="4.47254">
        <ele>47.988118</ele>
        <time>2024-07-02T11:14:46.149Z</time>
      </trkpt>
      <trkpt lat="51.79202" lon="4.47263">
        <ele>48.06578</ele>
        <time>2024-07-02T11:14:49.127Z</time>
      </trkpt>
      <trkpt lat="51.79213" lon="4.4727">
        <ele>48.144858</ele>
        <time>2024-07-02T11:14:52.142Z</time>
      </trkpt>
      <trkpt lat="51.79223" lon="4.47279">
        <ele>48.21873</ele>
        <time>2024-07-02T11:14:55.123Z</time>
      </trkpt>
      <trkpt lat="51.79232" lon="4.47287">
        <ele>48.290426</ele>
        <time>2024-07-02T11:14:58.136Z</time>
      </trkpt>
      <trkpt lat="51.79243" lon="4.47295">
        <ele>48.367054</ele>
        <time>2024-07-02T11:15:01.154Z</time>
      </trkpt>
      <trkpt lat="51.79252" lon="4.47301">
        <ele>48.437185</ele>
        <time>2024-07-02T11:15:04.144Z</time>
      </trkpt>
      <trkpt lat="51.79261" lon="4.47309">
        <ele>48.50578</ele>
        <time>2024-07-02T11:15:07.132Z</time>
      </trkpt>
      <trkpt lat="51.79271" lon="4.47317">
        <ele>48.578659</ele>
        <time>2024-07-02T11:15:10.148Z</time>
      </trkpt>
      <trkpt lat="51.79281" lon="4.47325">
        <ele>48.65476</ele>
        <time>2024-07-02T11:15:13.148Z</time>
      </trkpt>
      <trkpt lat="51.79291" lon="4.47331">
        <ele>48.722846</ele>
        <time>2024-07-02T11:15:16.137Z</time>
      </trkpt>
      <trkpt lat="51.793" lon="4.47339">
        <ele>48.791013</ele>
        <time>2024-07-02T11:15:19.128Z</time>
      </trkpt>
      <trkpt lat="51.7931" lon="4.47346">
        <ele>48.862341</ele>
        <time>2024-07-02T11:15:22.144Z</time>
      </trkpt>
      <trkpt lat="51.79319" lon="4.47354">
        <ele>48.893266</ele>
        <time>2024-07-02T11:15:25.142Z</time>
      </trkpt>
      <trkpt lat="51.79328" lon="4.4736">
        <ele>48.90616</ele>
        <time>2024-07-02T11:15:28.164Z</time>
      </trkpt>
      <trkpt lat="51.79337" lon="4.47368">
        <ele>48.919033</ele>
        <time>2024-07-02T11:15:31.152Z</time>
      </trkpt>
      <trkpt lat="51.79347" lon="4.47375">
        <ele>48.932626</ele>
        <time>2024-07-02T11:15:34.140Z</time>
      </trkpt>
      <trkpt lat="51.79357" lon="4.47384">
        <ele>48.946689</ele>
        <time>2024-07-02T11:15:37.139Z</time>
      </trkpt>
      <trkpt lat="51.79366" lon="4.47391">
        <ele>48.959872</ele>
        <time>2024-07-02T11:15:40.139Z</time>
      </trkpt>
      <trkpt lat="51.79376" lon="4.47398">
        <ele>48.972841</ele>
        <time>2024-07-02T11:15:43.141Z</time>
      </trkpt>
      <trkpt lat="51.79385" lon="4.47405">
        <ele>48.985606</ele>
        <time>2024-07-02T11:15:46.136Z</time>
      </trkpt>
      <trkpt lat="51.79393" lon="4.47413">
        <ele>48.997885</ele>
        <time>2024-07-02T11:15:49.157Z</time>
      </trkpt>
      <trkpt lat="51.79402" lon="4.47419">
        <ele>49.010339</ele>
        <time>2024-07-02T11:15:52.142Z</time>
      </trkpt>
      <trkpt lat="51.79412" lon="4.47429">
        <ele>49.024338</ele>
        <time>2024-07-02T11:15:55.148Z</time>
      </trkpt>
      <trkpt lat="51.79421" lon="4.47441">
        <ele>49.039627</ele>
        <time>2024-07-02T11:15:58.155Z</time>
      </trkpt>
      <trkpt lat="51.7943" lon="4.47453">
        <ele>49.054817</ele>
        <time>2024-07-02T11:16:01.146Z</time>
      </trkpt>
      <trkpt lat="51.79438" lon="4.47467">
        <ele>49.069407</ele>
        <time>2024-07-02T11:16:04.130Z</time>
      </trkpt>
      <trkpt lat="51.79443" lon="4.47484">
        <ele>49.08363</ele>
        <time>2024-07-02T11:16:07.126Z</time>
      </trkpt>
      <trkpt lat="51.79447" lon="4.47498">
        <ele>49.096232</ele>
        <time>2024-07-02T11:16:10.141Z</time>
      </trkpt>
      <trkpt lat="51.79455" lon="4.47504">
        <ele>49.108276</ele>
        <time>2024-07-02T11:16:13.123Z</time>
      </trkpt>
      <trkpt lat="51.79465" lon="4.47507">
        <ele>48.96808</ele>
        <time>2024-07-02T11:16:16.120Z</time>
      </trkpt>
      <trkpt lat="51.79474" lon="4.47499">
        <ele>48.77107</ele>
        <time>2024-07-02T11:16:19.136Z</time>
      </trkpt>
      <trkpt lat="51.79486" lon="4.47494">
        <ele>48.551557</ele>
        <time>2024-07-02T11:16:23.125Z</time>
      </trkpt>
      <trkpt lat="51.79497" lon="4.47497">
        <ele>48.331886</ele>
        <time>2024-07-02T11:16:27.142Z</time>
      </trkpt>
      <trkpt lat="51.79507" lon="4.47501">
        <ele>48.134264</ele>
        <time>2024-07-02T11:16:31.125Z</time>
      </trkpt>
      <trkpt lat="51.79518" lon="4.47505">
        <ele>47.934309</ele>
        <time>2024-07-02T11:16:35.107Z</time>
      </trkpt>
      <trkpt lat="51.79528" lon="4.47509">
        <ele>47.74476</ele>
        <time>2024-07-02T11:16:39.136Z</time>
      </trkpt>
      <trkpt lat="51.79538" lon="4.47515">
        <ele>47.540465</ele>
        <time>2024-07-02T11:16:43.140Z</time>
      </trkpt>
      <trkpt lat="51.79548" lon="4.47521">
        <ele>47.336304</ele>
        <time>2024-07-02T11:16:46.139Z</time>
      </trkpt>
      <trkpt lat="51.79559" lon="4.47528">
        <ele>47.10723</ele>
        <time>2024-07-02T11:16:49.143Z</time>
      </trkpt>
      <trkpt lat="51.7957" lon="4.47536">
        <ele>46.877608</ele>
        <time>2024-07-02T11:16:52.140Z</time>
      </trkpt>
      <trkpt lat="51.79579" lon="4.47542">
        <ele>46.698086</ele>
        <time>2024-07-02T11:16:54.138Z</time>
      </trkpt>
      <trkpt lat="51.79588" lon="4.47548">
        <ele>46.520306</ele>
        <time>2024-07-02T11:16:56.159Z</time>
      </trkpt>
      <trkpt lat="51.79601" lon="4.47556">
        <ele>46.26559</ele>
        <time>2024-07-02T11:16:59.142Z</time>
      </trkpt>
      <trkpt lat="51.7961" lon="4.47563">
        <ele>46.078073</ele>
        <time>2024-07-02T11:17:01.154Z</time>
      </trkpt>
      <trkpt lat="51.7962" lon="4.47569">
        <ele>45.880714</ele>
        <time>2024-07-02T11:17:03.138Z</time>
      </trkpt>
      <trkpt lat="51.79629" lon="4.47576">
        <ele>45.752243</ele>
        <time>2024-07-02T11:17:05.136Z</time>
      </trkpt>
      <trkpt lat="51.79639" lon="4.47582">
        <ele>45.808762</ele>
        <time>2024-07-02T11:17:07.137Z</time>
      </trkpt>
      <trkpt lat="51.79648" lon="4.47589">
        <ele>45.861467</ele>
        <time>2024-07-02T11:17:09.125Z</time>
      </trkpt>
      <trkpt lat="51.79657" lon="4.47594">
        <ele>45.916371</ele>
        <time>2024-07-02T11:17:11.125Z</time>
      </trkpt>
      <trkpt lat="51.79667" lon="4.47601">
        <ele>45.971312</ele>
        <time>2024-07-02T11:17:13.138Z</time>
      </trkpt>
      <trkpt lat="51.79676" lon="4.47606">
        <ele>46.02334</ele>
        <time>2024-07-02T11:17:15.115Z</time>
      </trkpt>
      <trkpt lat="51.79685" lon="4.47612">
        <ele>46.077116</ele>
        <time>2024-07-02T11:17:17.147Z</time>
      </trkpt>
      <trkpt lat="51.79694" lon="4.47617">
        <ele>46.127942</ele>
        <time>2024-07-02T11:17:19.133Z</time>
      </trkpt>
      <trkpt lat="51.79703" lon="4.47623">
        <ele>46.179111</ele>
        <time>2024-07-02T11:17:21.123Z</time>
      </trkpt>
      <trkpt lat="51.79711" lon="4.47628">
        <ele>46.227647</ele>
        <time>2024-07-02T11:17:23.142Z</time>
      </trkpt>
      <trkpt lat="51.79719" lon="4.47634">
        <ele>46.276318</ele>
        <time>2024-07-02T11:17:25.119Z</time>
      </trkpt>
      <trkpt lat="51.79731" lon="4.47642">
        <ele>46.345584</ele>
        <time>2024-07-02T11:17:28.140Z</time>
      </trkpt>
      <trkpt lat="51.79743" lon="4.4765">
        <ele>46.412972</ele>
        <time>2024-07-02T11:17:31.149Z</time>
      </trkpt>
      <trkpt lat="51.79755" lon="4.47658">
        <ele>46.482223</ele>
        <time>2024-07-02T11:17:34.140Z</time>
      </trkpt>
      <trkpt lat="51.79765" lon="4.47665">
        <ele>46.54424</ele>
        <time>2024-07-02T11:17:37.154Z</time>
      </trkpt>
      <trkpt lat="51.79776" lon="4.47672">
        <ele>46.608133</ele>
        <time>2024-07-02T11:17:40.141Z</time>
      </trkpt>
      <trkpt lat="51.79788" lon="4.47679">
        <ele>46.674898</ele>
        <time>2024-07-02T11:17:43.155Z</time>
      </trkpt>
      <trkpt lat="51.79799" lon="4.47687">
        <ele>46.728282</ele>
        <time>2024-07-02T11:17:46.145Z</time>
      </trkpt>
      <trkpt lat="51.7981" lon="4.47694">
        <ele>46.76896</ele>
        <time>2024-07-02T11:17:49.145Z</time>
      </trkpt>
      <trkpt lat="51.79821" lon="4.47701">
        <ele>46.809374</ele>
        <time>2024-07-02T11:17:52.152Z</time>
      </trkpt>
      <trkpt lat="51.79832" lon="4.47709">
        <ele>46.850974</ele>
        <time>2024-07-02T11:17:55.127Z</time>
      </trkpt>
      <trkpt lat="51.79844" lon="4.47716">
        <ele>46.893055</ele>
        <time>2024-07-02T11:17:58.139Z</time>
      </trkpt>
      <trkpt lat="51.79854" lon="4.47724">
        <ele>46.933381</ele>
        <time>2024-07-02T11:18:01.140Z</time>
      </trkpt>
      <trkpt lat="51.79865" lon="4.47731">
        <ele>46.972859</ele>
        <time>2024-07-02T11:18:04.142Z</time>
      </trkpt>
      <trkpt lat="51.79876" lon="4.47738">
        <ele>47.014143</ele>
        <time>2024-07-02T11:18:07.147Z</time>
      </trkpt>
      <trkpt lat="51.79887" lon="4.47745">
        <ele>47.054876</ele>
        <time>2024-07-02T11:18:10.140Z</time>
      </trkpt>
      <trkpt lat="51.79898" lon="4.47752">
        <ele>47.094567</ele>
        <time>2024-07-02T11:18:13.153Z</time>
      </trkpt>
      <trkpt lat="51.79909" lon="4.47759">
        <ele>47.134973</ele>
        <time>2024-07-02T11:18:16.142Z</time>
      </trkpt>
      <trkpt lat="51.7992" lon="4.47766">
        <ele>47.1753</ele>
        <time>2024-07-02T11:18:19.154Z</time>
      </trkpt>
      <trkpt lat="51.7993" lon="4.47773">
        <ele>47.213001</ele>
        <time>2024-07-02T11:18:22.138Z</time>
      </trkpt>
      <trkpt lat="51.79941" lon="4.47781">
        <ele>47.252707</ele>
        <time>2024-07-02T11:18:25.130Z</time>
      </trkpt>
      <trkpt lat="51.79951" lon="4.47787">
        <ele>47.292877</ele>
        <time>2024-07-02T11:18:28.149Z</time>
      </trkpt>
      <trkpt lat="51.79962" lon="4.47794">
        <ele>47.316041</ele>
        <time>2024-07-02T11:18:31.156Z</time>
      </trkpt>
      <trkpt lat="51.79972" lon="4.47801">
        <ele>47.277944</ele>
        <time>2024-07-02T11:18:34.150Z</time>
      </trkpt>
      <trkpt lat="51.79984" lon="4.47807">
        <ele>47.238127</ele>
        <time>2024-07-02T11:18:37.147Z</time>
      </trkpt>
      <trkpt lat="51.79995" lon="4.47815">
        <ele>47.197594</ele>
        <time>2024-07-02T11:18:40.126Z</time>
      </trkpt>
      <trkpt lat="51.80006" lon="4.47823">
        <ele>47.155845</ele>
        <time>2024-07-02T11:18:43.154Z</time>
      </trkpt>
      <trkpt lat="51.80017" lon="4.47831">
        <ele>47.115703</ele>
        <time>2024-07-02T11:18:46.140Z</time>
      </trkpt>
      <trkpt lat="51.80028" lon="4.4784">
        <ele>47.074681</ele>
        <time>2024-07-02T11:18:49.150Z</time>
      </trkpt>
      <trkpt lat="51.80038" lon="4.47848">
        <ele>47.036418</ele>
        <time>2024-07-02T11:18:52.137Z</time>
      </trkpt>
      <trkpt lat="51.80047" lon="4.47857">
        <ele>46.99983</ele>
        <time>2024-07-02T11:18:55.132Z</time>
      </trkpt>
      <trkpt lat="51.80058" lon="4.47864">
        <ele>46.960803</ele>
        <time>2024-07-02T11:18:58.133Z</time>
      </trkpt>
      <trkpt lat="51.80067" lon="4.47877">
        <ele>46.92177</ele>
        <time>2024-07-02T11:19:01.148Z</time>
      </trkpt>
      <trkpt lat="51.80071" lon="4.47892">
        <ele>46.887823</ele>
        <time>2024-07-02T11:19:04.128Z</time>
      </trkpt>
      <trkpt lat="51.80078" lon="4.47903">
        <ele>46.854875</ele>
        <time>2024-07-02T11:19:15.131Z</time>
      </trkpt>
      <trkpt lat="51.80087" lon="4.47907">
        <ele>46.823981</ele>
        <time>2024-07-02T11:19:20.157Z</time>
      </trkpt>
      <trkpt lat="51.80097" lon="4.47897">
        <ele>46.784235</ele>
        <time>2024-07-02T11:19:24.163Z</time>
      </trkpt>
      <trkpt lat="51.80106" lon="4.47896">
        <ele>46.752512</ele>
        <time>2024-07-02T11:19:27.118Z</time>
      </trkpt>
      <trkpt lat="51.80117" lon="4.47903">
        <ele>46.707241</ele>
        <time>2024-07-02T11:19:30.126Z</time>
      </trkpt>
      <trkpt lat="51.80127" lon="4.47908">
        <ele>46.630518</ele>
        <time>2024-07-02T11:19:33.157Z</time>
      </trkpt>
      <trkpt lat="51.80136" lon="4.47915">
        <ele>46.556904</ele>
        <time>2024-07-02T11:19:36.129Z</time>
      </trkpt>
      <trkpt lat="51.80146" lon="4.47921">
        <ele>46.477863</ele>
        <time>2024-07-02T11:19:39.151Z</time>
      </trkpt>
      <trkpt lat="51.80155" lon="4.47927">
        <ele>46.404638</ele>
        <time>2024-07-02T11:19:42.137Z</time>
      </trkpt>
      <trkpt lat="51.80165" lon="4.47932">
        <ele>46.328624</ele>
        <time>2024-07-02T11:19:45.135Z</time>
      </trkpt>
      <trkpt lat="51.80175" lon="4.47936">
        <ele>46.252292</ele>
        <time>2024-07-02T11:19:48.139Z</time>
      </trkpt>
      <trkpt lat="51.80185" lon="4.4794">
        <ele>46.176674</ele>
        <time>2024-07-02T11:19:51.135Z</time>
      </trkpt>
      <trkpt lat="51.80195" lon="4.47946">
        <ele>46.094597</ele>
        <time>2024-07-02T11:19:54.158Z</time>
      </trkpt>
      <trkpt lat="51.80205" lon="4.47953">
        <ele>46.014831</ele>
        <time>2024-07-02T11:19:57.140Z</time>
      </trkpt>
      <trkpt lat="51.80215" lon="4.4796">
        <ele>45.937657</ele>
        <time>2024-07-02T11:20:00.155Z</time>
      </trkpt>
      <trkpt lat="51.80224" lon="4.47967">
        <ele>45.85962</ele>
        <time>2024-07-02T11:20:03.136Z</time>
      </trkpt>
      <trkpt lat="51.80236" lon="4.47974">
        <ele>45.769256</ele>
        <time>2024-07-02T11:20:06.145Z</time>
      </trkpt>
      <trkpt lat="51.80247" lon="4.47981">
        <ele>45.679908</ele>
        <time>2024-07-02T11:20:09.129Z</time>
      </trkpt>
      <trkpt lat="51.80258" lon="4.47988">
        <ele>45.592808</ele>
        <time>2024-07-02T11:20:12.143Z</time>
      </trkpt>
      <trkpt lat="51.80268" lon="4.47995">
        <ele>45.511051</ele>
        <time>2024-07-02T11:20:15.137Z</time>
      </trkpt>
      <trkpt lat="51.8028" lon="4.48003">
        <ele>45.418303</ele>
        <time>2024-07-02T11:20:18.131Z</time>
      </trkpt>
      <trkpt lat="51.80291" lon="4.4801">
        <ele>45.422233</ele>
        <time>2024-07-02T11:20:21.152Z</time>
      </trkpt>
      <trkpt lat="51.80303" lon="4.48017">
        <ele>45.473625</ele>
        <time>2024-07-02T11:20:24.151Z</time>
      </trkpt>
      <trkpt lat="51.80314" lon="4.48024">
        <ele>45.52642</ele>
        <time>2024-07-02T11:20:27.137Z</time>
      </trkpt>
      <trkpt lat="51.80326" lon="4.48032">
        <ele>45.579294</ele>
        <time>2024-07-02T11:20:30.145Z</time>
      </trkpt>
      <trkpt lat="51.80337" lon="4.48039">
        <ele>45.629105</ele>
        <time>2024-07-02T11:20:33.142Z</time>
      </trkpt>
      <trkpt lat="51.80347" lon="4.48046">
        <ele>45.677237</ele>
        <time>2024-07-02T11:20:36.143Z</time>
      </trkpt>
      <trkpt lat="51.80357" lon="4.48053">
        <ele>45.7237</ele>
        <time>2024-07-02T11:20:39.131Z</time>
      </trkpt>
      <trkpt lat="51.80367" lon="4.48059">
        <ele>45.770164</ele>
        <time>2024-07-02T11:20:42.137Z</time>
      </trkpt>
      <trkpt lat="51.80377" lon="4.48066">
        <ele>45.815847</ele>
        <time>2024-07-02T11:20:45.128Z</time>
      </trkpt>
      <trkpt lat="51.80388" lon="4.48073">
        <ele>45.867143</ele>
        <time>2024-07-02T11:20:48.127Z</time>
      </trkpt>
      <trkpt lat="51.80398" lon="4.48079">
        <ele>45.913478</ele>
        <time>2024-07-02T11:20:51.137Z</time>
      </trkpt>
      <trkpt lat="51.80409" lon="4.48086">
        <ele>45.961325</ele>
        <time>2024-07-02T11:20:54.140Z</time>
      </trkpt>
      <trkpt lat="51.80419" lon="4.48094">
        <ele>46.008515</ele>
        <time>2024-07-02T11:20:57.148Z</time>
      </trkpt>
      <trkpt lat="51.80429" lon="4.48101">
        <ele>46.056744</ele>
        <time>2024-07-02T11:21:00.134Z</time>
      </trkpt>
      <trkpt lat="51.8044" lon="4.48108">
        <ele>46.105566</ele>
        <time>2024-07-02T11:21:03.140Z</time>
      </trkpt>
      <trkpt lat="51.8045" lon="4.48114">
        <ele>46.15265</ele>
        <time>2024-07-02T11:21:06.137Z</time>
      </trkpt>
      <trkpt lat="51.8046" lon="4.48121">
        <ele>46.163077</ele>
        <time>2024-07-02T11:21:09.146Z</time>
      </trkpt>
      <trkpt lat="51.8047" lon="4.48127">
        <ele>46.172811</ele>
        <time>2024-07-02T11:21:12.136Z</time>
      </trkpt>
      <trkpt lat="51.80481" lon="4.48135">
        <ele>46.183655</ele>
        <time>2024-07-02T11:21:15.120Z</time>
      </trkpt>
      <trkpt lat="51.80491" lon="4.48141">
        <ele>46.19322</ele>
        <time>2024-07-02T11:21:18.148Z</time>
      </trkpt>
      <trkpt lat="51.80501" lon="4.48147">
        <ele>46.203338</ele>
        <time>2024-07-02T11:21:21.138Z</time>
      </trkpt>
      <trkpt lat="51.8051" lon="4.48153">
        <ele>46.212794</ele>
        <time>2024-07-02T11:21:24.139Z</time>
      </trkpt>
      <trkpt lat="51.8052" lon="4.4816">
        <ele>46.22221</ele>
        <time>2024-07-02T11:21:27.144Z</time>
      </trkpt>
      <trkpt lat="51.8053" lon="4.48166">
        <ele>46.23265</ele>
        <time>2024-07-02T11:21:30.154Z</time>
      </trkpt>
      <trkpt lat="51.80542" lon="4.48175">
        <ele>46.244733</ele>
        <time>2024-07-02T11:21:33.157Z</time>
      </trkpt>
      <trkpt lat="51.80553" lon="4.48182">
        <ele>46.254916</ele>
        <time>2024-07-02T11:21:36.140Z</time>
      </trkpt>
      <trkpt lat="51.80563" lon="4.48188">
        <ele>46.265098</ele>
        <time>2024-07-02T11:21:39.152Z</time>
      </trkpt>
      <trkpt lat="51.80573" lon="4.48195">
        <ele>46.275134</ele>
        <time>2024-07-02T11:21:42.146Z</time>
      </trkpt>
      <trkpt lat="51.80583" lon="4.48202">
        <ele>46.285645</ele>
        <time>2024-07-02T11:21:45.143Z</time>
      </trkpt>
      <trkpt lat="51.80594" lon="4.48209">
        <ele>46.296431</ele>
        <time>2024-07-02T11:21:48.139Z</time>
      </trkpt>
      <trkpt lat="51.80605" lon="4.48216">
        <ele>46.306784</ele>
        <time>2024-07-02T11:21:51.141Z</time>
      </trkpt>
      <trkpt lat="51.80615" lon="4.48222">
        <ele>46.317184</ele>
        <time>2024-07-02T11:21:54.137Z</time>
      </trkpt>
      <trkpt lat="51.80625" lon="4.48228">
        <ele>46.318165</ele>
        <time>2024-07-02T11:21:57.158Z</time>
      </trkpt>
      <trkpt lat="51.80635" lon="4.48235">
        <ele>46.317375</ele>
        <time>2024-07-02T11:22:00.134Z</time>
      </trkpt>
      <trkpt lat="51.80645" lon="4.48241">
        <ele>46.316603</ele>
        <time>2024-07-02T11:22:03.138Z</time>
      </trkpt>
      <trkpt lat="51.80655" lon="4.48247">
        <ele>46.315786</ele>
        <time>2024-07-02T11:22:06.138Z</time>
      </trkpt>
      <trkpt lat="51.80665" lon="4.48253">
        <ele>46.314991</ele>
        <time>2024-07-02T11:22:09.138Z</time>
      </trkpt>
      <trkpt lat="51.80675" lon="4.48259">
        <ele>46.314184</ele>
        <time>2024-07-02T11:22:12.139Z</time>
      </trkpt>
      <trkpt lat="51.80684" lon="4.48266">
        <ele>46.313426</ele>
        <time>2024-07-02T11:22:15.127Z</time>
      </trkpt>
      <trkpt lat="51.80694" lon="4.48272">
        <ele>46.312651</ele>
        <time>2024-07-02T11:22:18.117Z</time>
      </trkpt>
      <trkpt lat="51.80705" lon="4.4828">
        <ele>46.311746</ele>
        <time>2024-07-02T11:22:21.158Z</time>
      </trkpt>
      <trkpt lat="51.80715" lon="4.48286">
        <ele>46.310952</ele>
        <time>2024-07-02T11:22:24.138Z</time>
      </trkpt>
      <trkpt lat="51.80725" lon="4.48292">
        <ele>46.31014</ele>
        <time>2024-07-02T11:22:27.136Z</time>
      </trkpt>
      <trkpt lat="51.80735" lon="4.48301">
        <ele>46.309235</ele>
        <time>2024-07-02T11:22:30.144Z</time>
      </trkpt>
      <trkpt lat="51.80746" lon="4.48308">
        <ele>46.308386</ele>
        <time>2024-07-02T11:22:33.140Z</time>
      </trkpt>
      <trkpt lat="51.80758" lon="4.48316">
        <ele>46.307414</ele>
        <time>2024-07-02T11:22:36.156Z</time>
      </trkpt>
      <trkpt lat="51.8077" lon="4.48324">
        <ele>46.306459</ele>
        <time>2024-07-02T11:22:39.154Z</time>
      </trkpt>
      <trkpt lat="51.80782" lon="4.48331">
        <ele>46.305473</ele>
        <time>2024-07-02T11:22:42.116Z</time>
      </trkpt>
      <trkpt lat="51.80794" lon="4.48338">
        <ele>46.294912</ele>
        <time>2024-07-02T11:22:45.133Z</time>
      </trkpt>
      <trkpt lat="51.80805" lon="4.48346">
        <ele>46.282381</ele>
        <time>2024-07-02T11:22:48.152Z</time>
      </trkpt>
      <trkpt lat="51.80817" lon="4.48355">
        <ele>46.269997</ele>
        <time>2024-07-02T11:22:51.118Z</time>
      </trkpt>
      <trkpt lat="51.80828" lon="4.48362">
        <ele>46.257783</ele>
        <time>2024-07-02T11:22:54.138Z</time>
      </trkpt>
      <trkpt lat="51.8084" lon="4.48369">
        <ele>46.245739</ele>
        <time>2024-07-02T11:22:57.141Z</time>
      </trkpt>
      <trkpt lat="51.8085" lon="4.48376">
        <ele>46.234775</ele>
        <time>2024-07-02T11:23:00.149Z</time>
      </trkpt>
      <trkpt lat="51.80862" lon="4.48384">
        <ele>46.222627</ele>
        <time>2024-07-02T11:23:03.128Z</time>
      </trkpt>
      <trkpt lat="51.80872" lon="4.48391">
        <ele>46.211413</ele>
        <time>2024-07-02T11:23:06.135Z</time>
      </trkpt>
      <trkpt lat="51.80883" lon="4.48398">
        <ele>46.20029</ele>
        <time>2024-07-02T11:23:09.135Z</time>
      </trkpt>
      <trkpt lat="51.80894" lon="4.48406">
        <ele>46.188655</ele>
        <time>2024-07-02T11:23:12.138Z</time>
      </trkpt>
      <trkpt lat="51.80905" lon="4.48414">
        <ele>46.17646</ele>
        <time>2024-07-02T11:23:15.121Z</time>
      </trkpt>
      <trkpt lat="51.80916" lon="4.48422">
        <ele>46.165003</ele>
        <time>2024-07-02T11:23:18.138Z</time>
      </trkpt>
      <trkpt lat="51.80926" lon="4.48428">
        <ele>46.153829</ele>
        <time>2024-07-02T11:23:21.156Z</time>
      </trkpt>
      <trkpt lat="51.80937" lon="4.48436">
        <ele>46.142587</ele>
        <time>2024-07-02T11:23:24.143Z</time>
      </trkpt>
      <trkpt lat="51.80946" lon="4.48447">
        <ele>46.131616</ele>
        <time>2024-07-02T11:23:27.132Z</time>
      </trkpt>
      <trkpt lat="51.80954" lon="4.48462">
        <ele>46.162975</ele>
        <time>2024-07-02T11:23:30.146Z</time>
      </trkpt>
      <trkpt lat="51.80966" lon="4.48469">
        <ele>46.203887</ele>
        <time>2024-07-02T11:23:33.133Z</time>
      </trkpt>
      <trkpt lat="51.80979" lon="4.48468">
        <ele>46.245266</ele>
        <time>2024-07-02T11:23:36.130Z</time>
      </trkpt>
      <trkpt lat="51.80991" lon="4.48475">
        <ele>46.285594</ele>
        <time>2024-07-02T11:23:39.137Z</time>
      </trkpt>
      <trkpt lat="51.81002" lon="4.48482">
        <ele>46.325581</ele>
        <time>2024-07-02T11:23:42.157Z</time>
      </trkpt>
      <trkpt lat="51.81013" lon="4.48488">
        <ele>46.363635</ele>
        <time>2024-07-02T11:23:45.141Z</time>
      </trkpt>
      <trkpt lat="51.81024" lon="4.48497">
        <ele>46.403763</ele>
        <time>2024-07-02T11:23:48.145Z</time>
      </trkpt>
      <trkpt lat="51.81036" lon="4.48505">
        <ele>46.444321</ele>
        <time>2024-07-02T11:23:51.156Z</time>
      </trkpt>
      <trkpt lat="51.81046" lon="4.48514">
        <ele>46.482645</ele>
        <time>2024-07-02T11:23:54.145Z</time>
      </trkpt>
      <trkpt lat="51.81057" lon="4.48522">
        <ele>46.521073</ele>
        <time>2024-07-02T11:23:57.149Z</time>
      </trkpt>
      <trkpt lat="51.81066" lon="4.48534">
        <ele>46.560748</ele>
        <time>2024-07-02T11:24:00.121Z</time>
      </trkpt>
      <trkpt lat="51.81077" lon="4.48545">
        <ele>46.601236</ele>
        <time>2024-07-02T11:24:03.137Z</time>
      </trkpt>
      <trkpt lat="51.81087" lon="4.48556">
        <ele>46.64051</ele>
        <time>2024-07-02T11:24:06.144Z</time>
      </trkpt>
      <trkpt lat="51.81097" lon="4.48569">
        <ele>46.683337</ele>
        <time>2024-07-02T11:24:09.152Z</time>
      </trkpt>
      <trkpt lat="51.81107" lon="4.48584">
        <ele>46.734417</ele>
        <time>2024-07-02T11:24:12.153Z</time>
      </trkpt>
      <trkpt lat="51.81117" lon="4.48597">
        <ele>46.804074</ele>
        <time>2024-07-02T11:24:15.123Z</time>
      </trkpt>
      <trkpt lat="51.81127" lon="4.48611">
        <ele>46.873359</ele>
        <time>2024-07-02T11:24:18.139Z</time>
      </trkpt>
      <trkpt lat="51.81136" lon="4.48625">
        <ele>46.938527</ele>
        <time>2024-07-02T11:24:21.145Z</time>
      </trkpt>
      <trkpt lat="51.81146" lon="4.48639">
        <ele>47.006461</ele>
        <time>2024-07-02T11:24:24.146Z</time>
      </trkpt>
      <trkpt lat="51.81154" lon="4.48654">
        <ele>47.074448</ele>
        <time>2024-07-02T11:24:27.146Z</time>
      </trkpt>
      <trkpt lat="51.81163" lon="4.4867">
        <ele>47.144361</ele>
        <time>2024-07-02T11:24:30.139Z</time>
      </trkpt>
      <trkpt lat="51.8117" lon="4.48686">
        <ele>47.210526</ele>
        <time>2024-07-02T11:24:33.137Z</time>
      </trkpt>
      <trkpt lat="51.81179" lon="4.48701">
        <ele>47.277907</ele>
        <time>2024-07-02T11:24:36.134Z</time>
      </trkpt>
      <trkpt lat="51.81186" lon="4.48718">
        <ele>47.344212</ele>
        <time>2024-07-02T11:24:39.143Z</time>
      </trkpt>
      <trkpt lat="51.81193" lon="4.48735">
        <ele>47.411122</ele>
        <time>2024-07-02T11:24:42.155Z</time>
      </trkpt>
      <trkpt lat="51.81199" lon="4.48753">
        <ele>47.477164</ele>
        <time>2024-07-02T11:24:45.127Z</time>
      </trkpt>
      <trkpt lat="51.81205" lon="4.4877">
        <ele>47.541926</ele>
        <time>2024-07-02T11:24:48.136Z</time>
      </trkpt>
      <trkpt lat="51.8121" lon="4.48787">
        <ele>47.604647</ele>
        <time>2024-07-02T11:24:51.134Z</time>
      </trkpt>
      <trkpt lat="51.8121" lon="4.48808">
        <ele>47.664715</ele>
        <time>2024-07-02T11:24:54.163Z</time>
      </trkpt>
      <trkpt lat="51.81209" lon="4.48828">
        <ele>47.597794</ele>
        <time>2024-07-02T11:24:57.141Z</time>
      </trkpt>
      <trkpt lat="51.81206" lon="4.48847">
        <ele>47.532591</ele>
        <time>2024-07-02T11:25:00.151Z</time>
      </trkpt>
      <trkpt lat="51.81211" lon="4.48866">
        <ele>47.463705</ele>
        <time>2024-07-02T11:25:03.138Z</time>
      </trkpt>
      <trkpt lat="51.81221" lon="4.48878">
        <ele>47.396101</ele>
        <time>2024-07-02T11:25:06.151Z</time>
      </trkpt>
      <trkpt lat="51.81232" lon="4.48888">
        <ele>47.330096</ele>
        <time>2024-07-02T11:25:09.136Z</time>
      </trkpt>
      <trkpt lat="51.8124" lon="4.48902">
        <ele>47.264779</ele>
        <time>2024-07-02T11:25:12.128Z</time>
      </trkpt>
      <trkpt lat="51.81245" lon="4.48921">
        <ele>47.197935</ele>
        <time>2024-07-02T11:25:15.129Z</time>
      </trkpt>
      <trkpt lat="51.81249" lon="4.4894">
        <ele>47.132179</ele>
        <time>2024-07-02T11:25:18.141Z</time>
      </trkpt>
      <trkpt lat="51.81253" lon="4.48959">
        <ele>47.065871</ele>
        <time>2024-07-02T11:25:21.144Z</time>
      </trkpt>
      <trkpt lat="51.81255" lon="4.48973">
        <ele>47.016805</ele>
        <time>2024-07-02T11:25:23.133Z</time>
      </trkpt>
      <trkpt lat="51.81257" lon="4.48994">
        <ele>46.948692</ele>
        <time>2024-07-02T11:25:26.147Z</time>
      </trkpt>
      <trkpt lat="51.8126" lon="4.49013">
        <ele>46.880991</ele>
        <time>2024-07-02T11:25:29.142Z</time>
      </trkpt>
      <trkpt lat="51.81264" lon="4.49033">
        <ele>46.812582</ele>
        <time>2024-07-02T11:25:32.155Z</time>
      </trkpt>
      <trkpt lat="51.81266" lon="4.49053">
        <ele>46.745648</ele>
        <time>2024-07-02T11:25:35.126Z</time>
      </trkpt>
      <trkpt lat="51.8127" lon="4.49073">
        <ele>46.701473</ele>
        <time>2024-07-02T11:25:38.149Z</time>
      </trkpt>
      <trkpt lat="51.81272" lon="4.49094">
        <ele>46.692592</ele>
        <time>2024-07-02T11:25:41.142Z</time>
      </trkpt>
      <trkpt lat="51.81274" lon="4.49109">
        <ele>46.686471</ele>
        <time>2024-07-02T11:25:43.140Z</time>
      </trkpt>
      <trkpt lat="51.81276" lon="4.49123">
        <ele>46.680497</ele>
        <time>2024-07-02T11:25:45.121Z</time>
      </trkpt>
      <trkpt lat="51.81278" lon="4.49138">
        <ele>46.67423</ele>
        <time>2024-07-02T11:25:47.138Z</time>
      </trkpt>
      <trkpt lat="51.81281" lon="4.49159">
        <ele>46.665893</ele>
        <time>2024-07-02T11:25:50.143Z</time>
      </trkpt>
      <trkpt lat="51.81283" lon="4.49179">
        <ele>46.657276</ele>
        <time>2024-07-02T11:25:53.143Z</time>
      </trkpt>
      <trkpt lat="51.81285" lon="4.49199">
        <ele>46.649176</ele>
        <time>2024-07-02T11:25:56.152Z</time>
      </trkpt>
      <trkpt lat="51.81288" lon="4.49219">
        <ele>46.640931</ele>
        <time>2024-07-02T11:25:59.153Z</time>
      </trkpt>
      <trkpt lat="51.8129" lon="4.49239">
        <ele>46.632646</ele>
        <time>2024-07-02T11:26:02.136Z</time>
      </trkpt>
      <trkpt lat="51.81293" lon="4.49258">
        <ele>46.624633</ele>
        <time>2024-07-02T11:26:05.123Z</time>
      </trkpt>
      <trkpt lat="51.81296" lon="4.49278">
        <ele>46.616427</ele>
        <time>2024-07-02T11:26:08.138Z</time>
      </trkpt>
      <trkpt lat="51.813" lon="4.49296">
        <ele>46.608579</ele>
        <time>2024-07-02T11:26:11.155Z</time>
      </trkpt>
      <trkpt lat="51.81304" lon="4.49315">
        <ele>46.600481</ele>
        <time>2024-07-02T11:26:14.147Z</time>
      </trkpt>
      <trkpt lat="51.8131" lon="4.49332">
        <ele>46.592606</ele>
        <time>2024-07-02T11:26:17.155Z</time>
      </trkpt>
      <trkpt lat="51.81315" lon="4.49349">
        <ele>46.598694</ele>
        <time>2024-07-02T11:26:20.147Z</time>
      </trkpt>
      <trkpt lat="51.81321" lon="4.49366">
        <ele>46.657141</ele>
        <time>2024-07-02T11:26:23.136Z</time>
      </trkpt>
      <trkpt lat="51.81327" lon="4.49382">
        <ele>46.71378</ele>
        <time>2024-07-02T11:26:26.155Z</time>
      </trkpt>
      <trkpt lat="51.81333" lon="4.49398">
        <ele>46.770421</ele>
        <time>2024-07-02T11:26:29.137Z</time>
      </trkpt>
      <trkpt lat="51.8134" lon="4.49414">
        <ele>46.826925</ele>
        <time>2024-07-02T11:26:32.159Z</time>
      </trkpt>
      <trkpt lat="51.81346" lon="4.49427">
        <ele>46.877619</ele>
        <time>2024-07-02T11:26:35.123Z</time>
      </trkpt>
      <trkpt lat="51.81352" lon="4.49439">
        <ele>46.921863</ele>
        <time>2024-07-02T11:26:38.150Z</time>
      </trkpt>
      <trkpt lat="51.81358" lon="4.49453">
        <ele>46.97432</ele>
        <time>2024-07-02T11:26:42.144Z</time>
      </trkpt>
      <trkpt lat="51.81364" lon="4.49467">
        <ele>47.024416</ele>
        <time>2024-07-02T11:26:46.146Z</time>
      </trkpt>
      <trkpt lat="51.81371" lon="4.49482">
        <ele>47.080068</ele>
        <time>2024-07-02T11:26:50.159Z</time>
      </trkpt>
      <trkpt lat="51.81376" lon="4.49496">
        <ele>47.127327</ele>
        <time>2024-07-02T11:26:54.145Z</time>
      </trkpt>
      <trkpt lat="51.81383" lon="4.49511">
        <ele>47.185165</ele>
        <time>2024-07-02T11:28:37.146Z</time>
      </trkpt>
      <trkpt lat="51.81391" lon="4.49523">
        <ele>47.23873</ele>
        <time>2024-07-02T11:28:41.135Z</time>
      </trkpt>
      <trkpt lat="51.814" lon="4.49537">
        <ele>47.2949</ele>
        <time>2024-07-02T11:28:44.147Z</time>
      </trkpt>
      <trkpt lat="51.81409" lon="4.4955">
        <ele>47.354094</ele>
        <time>2024-07-02T11:28:47.137Z</time>
      </trkpt>
      <trkpt lat="51.81419" lon="4.4956">
        <ele>47.412111</ele>
        <time>2024-07-02T11:28:50.138Z</time>
      </trkpt>
      <trkpt lat="51.81429" lon="4.4957">
        <ele>47.459165</ele>
        <time>2024-07-02T11:28:53.147Z</time>
      </trkpt>
      <trkpt lat="51.81437" lon="4.49584">
        <ele>47.477675</ele>
        <time>2024-07-02T11:28:56.134Z</time>
      </trkpt>
      <trkpt lat="51.81444" lon="4.49598">
        <ele>47.496033</ele>
        <time>2024-07-02T11:28:59.139Z</time>
      </trkpt>
      <trkpt lat="51.81452" lon="4.49611">
        <ele>47.513716</ele>
        <time>2024-07-02T11:29:02.154Z</time>
      </trkpt>
      <trkpt lat="51.8146" lon="4.49625">
        <ele>47.532411</ele>
        <time>2024-07-02T11:29:05.128Z</time>
      </trkpt>
      <trkpt lat="51.81468" lon="4.49639">
        <ele>47.551569</ele>
        <time>2024-07-02T11:29:08.141Z</time>
      </trkpt>
      <trkpt lat="51.81477" lon="4.49651">
        <ele>47.569589</ele>
        <time>2024-07-02T11:29:11.132Z</time>
      </trkpt>
      <trkpt lat="51.81486" lon="4.49666">
        <ele>47.589755</ele>
        <time>2024-07-02T11:29:14.141Z</time>
      </trkpt>
      <trkpt lat="51.81495" lon="4.49679">
        <ele>47.609237</ele>
        <time>2024-07-02T11:29:17.136Z</time>
      </trkpt>
      <trkpt lat="51.81504" lon="4.49693">
        <ele>47.628924</ele>
        <time>2024-07-02T11:29:20.140Z</time>
      </trkpt>
      <trkpt lat="51.81513" lon="4.49707">
        <ele>47.648438</ele>
        <time>2024-07-02T11:29:23.140Z</time>
      </trkpt>
      <trkpt lat="51.81521" lon="4.4972">
        <ele>47.666691</ele>
        <time>2024-07-02T11:29:26.144Z</time>
      </trkpt>
      <trkpt lat="51.81529" lon="4.49734">
        <ele>47.685705</ele>
        <time>2024-07-02T11:29:29.145Z</time>
      </trkpt>
      <trkpt lat="51.81537" lon="4.49747">
        <ele>47.703549</ele>
        <time>2024-07-02T11:29:32.141Z</time>
      </trkpt>
      <trkpt lat="51.81545" lon="4.49759">
        <ele>47.720436</ele>
        <time>2024-07-02T11:29:35.109Z</time>
      </trkpt>
      <trkpt lat="51.81552" lon="4.4977">
        <ele>47.736209</ele>
        <time>2024-07-02T11:29:38.141Z</time>
      </trkpt>
      <trkpt lat="51.81559" lon="4.4978">
        <ele>47.72287</ele>
        <time>2024-07-02T11:29:41.144Z</time>
      </trkpt>
      <trkpt lat="51.81567" lon="4.49791">
        <ele>47.69958</ele>
        <time>2024-07-02T11:29:44.157Z</time>
      </trkpt>
      <trkpt lat="51.81574" lon="4.49801">
        <ele>47.676321</ele>
        <time>2024-07-02T11:29:47.149Z</time>
      </trkpt>
      <trkpt lat="51.81582" lon="4.4981">
        <ele>47.652417</ele>
        <time>2024-07-02T11:29:50.166Z</time>
      </trkpt>
      <trkpt lat="51.81592" lon="4.49818">
        <ele>47.626223</ele>
        <time>2024-07-02T11:29:53.137Z</time>
      </trkpt>
      <trkpt lat="51.81603" lon="4.49825">
        <ele>47.598719</ele>
        <time>2024-07-02T11:29:56.144Z</time>
      </trkpt>
      <trkpt lat="51.81614" lon="4.49832">
        <ele>47.570218</ele>
        <time>2024-07-02T11:29:59.157Z</time>
      </trkpt>
      <trkpt lat="51.81624" lon="4.49838">
        <ele>47.543769</ele>
        <time>2024-07-02T11:30:02.144Z</time>
      </trkpt>
      <trkpt lat="51.81635" lon="4.49842">
        <ele>47.517429</ele>
        <time>2024-07-02T11:30:05.133Z</time>
      </trkpt>
      <trkpt lat="51.81646" lon="4.49846">
        <ele>47.491321</ele>
        <time>2024-07-02T11:30:08.111Z</time>
      </trkpt>
      <trkpt lat="51.81656" lon="4.49851">
        <ele>47.465448</ele>
        <time>2024-07-02T11:30:11.143Z</time>
      </trkpt>
      <trkpt lat="51.81667" lon="4.49858">
        <ele>47.437837</ele>
        <time>2024-07-02T11:30:14.152Z</time>
      </trkpt>
      <trkpt lat="51.81677" lon="4.49863">
        <ele>47.411523</ele>
        <time>2024-07-02T11:30:17.140Z</time>
      </trkpt>
      <trkpt lat="51.81689" lon="4.49868">
        <ele>47.383379</ele>
        <time>2024-07-02T11:30:20.158Z</time>
      </trkpt>
      <trkpt lat="51.81699" lon="4.49873">
        <ele>47.358383</ele>
        <time>2024-07-02T11:30:23.142Z</time>
      </trkpt>
      <trkpt lat="51.81709" lon="4.49877">
        <ele>47.333204</ele>
        <time>2024-07-02T11:30:26.147Z</time>
      </trkpt>
      <trkpt lat="51.81716" lon="4.49886">
        <ele>47.310966</ele>
        <time>2024-07-02T11:30:29.139Z</time>
      </trkpt>
      <trkpt lat="51.81724" lon="4.49896">
        <ele>47.385741</ele>
        <time>2024-07-02T11:30:33.131Z</time>
      </trkpt>
      <trkpt lat="51.81735" lon="4.49899">
        <ele>47.467601</ele>
        <time>2024-07-02T11:30:37.143Z</time>
      </trkpt>
      <trkpt lat="51.81744" lon="4.49893">
        <ele>47.542909</ele>
        <time>2024-07-02T11:30:40.141Z</time>
      </trkpt>
      <trkpt lat="51.81752" lon="4.49885">
        <ele>47.616481</ele>
        <time>2024-07-02T11:30:43.135Z</time>
      </trkpt>
      <trkpt lat="51.8176" lon="4.49877">
        <ele>47.69087</ele>
        <time>2024-07-02T11:30:46.146Z</time>
      </trkpt>
      <trkpt lat="51.81769" lon="4.49867">
        <ele>47.770519</ele>
        <time>2024-07-02T11:30:49.135Z</time>
      </trkpt>
      <trkpt lat="51.81777" lon="4.49856">
        <ele>47.850192</ele>
        <time>2024-07-02T11:30:52.156Z</time>
      </trkpt>
      <trkpt lat="51.81783" lon="4.49842">
        <ele>47.935828</ele>
        <time>2024-07-02T11:30:55.125Z</time>
      </trkpt>
      <trkpt lat="51.81789" lon="4.49826">
        <ele>48.025705</ele>
        <time>2024-07-02T11:30:58.137Z</time>
      </trkpt>
      <trkpt lat="51.81795" lon="4.49809">
        <ele>48.116969</ele>
        <time>2024-07-02T11:31:01.137Z</time>
      </trkpt>
      <trkpt lat="51.81801" lon="4.49792">
        <ele>48.210492</ele>
        <time>2024-07-02T11:31:04.134Z</time>
      </trkpt>
      <trkpt lat="51.81808" lon="4.49775">
        <ele>48.302797</ele>
        <time>2024-07-02T11:31:07.135Z</time>
      </trkpt>
      <trkpt lat="51.81814" lon="4.49758">
        <ele>48.399154</ele>
        <time>2024-07-02T11:31:10.152Z</time>
      </trkpt>
      <trkpt lat="51.81821" lon="4.49742">
        <ele>48.490309</ele>
        <time>2024-07-02T11:31:13.120Z</time>
      </trkpt>
      <trkpt lat="51.81827" lon="4.49726">
        <ele>48.580998</ele>
        <time>2024-07-02T11:31:16.156Z</time>
      </trkpt>
      <trkpt lat="51.81833" lon="4.49711">
        <ele>48.666964</ele>
        <time>2024-07-02T11:31:19.156Z</time>
      </trkpt>
      <trkpt lat="51.8184" lon="4.49696">
        <ele>48.77319</ele>
        <time>2024-07-02T11:31:22.157Z</time>
      </trkpt>
      <trkpt lat="51.81848" lon="4.49682">
        <ele>48.884641</ele>
        <time>2024-07-02T11:31:25.139Z</time>
      </trkpt>
      <trkpt lat="51.81856" lon="4.49668">
        <ele>48.997314</ele>
        <time>2024-07-02T11:31:28.149Z</time>
      </trkpt>
      <trkpt lat="51.81864" lon="4.49656">
        <ele>49.108201</ele>
        <time>2024-07-02T11:31:31.148Z</time>
      </trkpt>
      <trkpt lat="51.81873" lon="4.49643">
        <ele>49.222671</ele>
        <time>2024-07-02T11:31:34.146Z</time>
      </trkpt>
      <trkpt lat="51.81883" lon="4.4963">
        <ele>49.342438</ele>
        <time>2024-07-02T11:31:37.137Z</time>
      </trkpt>
      <trkpt lat="51.81892" lon="4.49618">
        <ele>49.457291</ele>
        <time>2024-07-02T11:31:40.141Z</time>
      </trkpt>
      <trkpt lat="51.81901" lon="4.49605">
        <ele>49.571408</ele>
        <time>2024-07-02T11:31:43.139Z</time>
      </trkpt>
      <trkpt lat="51.8191" lon="4.49594">
        <ele>49.679115</ele>
        <time>2024-07-02T11:31:46.157Z</time>
      </trkpt>
      <trkpt lat="51.81919" lon="4.49582">
        <ele>49.791698</ele>
        <time>2024-07-02T11:31:49.158Z</time>
      </trkpt>
      <trkpt lat="51.8193" lon="4.49578">
        <ele>49.90174</ele>
        <time>2024-07-02T11:31:52.127Z</time>
      </trkpt>
      <trkpt lat="51.8194" lon="4.49583">
        <ele>50.005157</ele>
        <time>2024-07-02T11:31:55.122Z</time>
      </trkpt>
      <trkpt lat="51.81947" lon="4.49595">
        <ele>50.106299</ele>
        <time>2024-07-02T11:31:58.135Z</time>
      </trkpt>
      <trkpt lat="51.81955" lon="4.49607">
        <ele>50.209146</ele>
        <time>2024-07-02T11:32:01.134Z</time>
      </trkpt>
      <trkpt lat="51.81962" lon="4.4962">
        <ele>50.314193</ele>
        <time>2024-07-02T11:32:04.141Z</time>
      </trkpt>
      <trkpt lat="51.81971" lon="4.49634">
        <ele>50.431027</ele>
        <time>2024-07-02T11:32:07.140Z</time>
      </trkpt>
      <trkpt lat="51.81979" lon="4.49647">
        <ele>50.362098</ele>
        <time>2024-07-02T11:32:10.151Z</time>
      </trkpt>
      <trkpt lat="51.81988" lon="4.49661">
        <ele>50.291502</ele>
        <time>2024-07-02T11:32:13.150Z</time>
      </trkpt>
      <trkpt lat="51.81997" lon="4.49674">
        <ele>50.221474</ele>
        <time>2024-07-02T11:32:16.141Z</time>
      </trkpt>
      <trkpt lat="51.82006" lon="4.49687">
        <ele>50.151934</ele>
        <time>2024-07-02T11:32:19.134Z</time>
      </trkpt>
      <trkpt lat="51.82015" lon="4.497">
        <ele>50.080449</ele>
        <time>2024-07-02T11:32:22.135Z</time>
      </trkpt>
      <trkpt lat="51.82025" lon="4.49712">
        <ele>50.008752</ele>
        <time>2024-07-02T11:32:25.159Z</time>
      </trkpt>
      <trkpt lat="51.82034" lon="4.49726">
        <ele>49.934321</ele>
        <time>2024-07-02T11:32:28.146Z</time>
      </trkpt>
      <trkpt lat="51.82044" lon="4.49737">
        <ele>49.862817</ele>
        <time>2024-07-02T11:32:31.161Z</time>
      </trkpt>
      <trkpt lat="51.82054" lon="4.49752">
        <ele>49.786107</ele>
        <time>2024-07-02T11:32:34.136Z</time>
      </trkpt>
      <trkpt lat="51.82063" lon="4.49766">
        <ele>49.711205</ele>
        <time>2024-07-02T11:32:37.160Z</time>
      </trkpt>
      <trkpt lat="51.82072" lon="4.49779">
        <ele>49.63934</ele>
        <time>2024-07-02T11:32:40.158Z</time>
      </trkpt>
      <trkpt lat="51.82081" lon="4.49792">
        <ele>49.56806</ele>
        <time>2024-07-02T11:32:43.135Z</time>
      </trkpt>
      <trkpt lat="51.82091" lon="4.49806">
        <ele>49.495189</ele>
        <time>2024-07-02T11:32:46.150Z</time>
      </trkpt>
      <trkpt lat="51.821" lon="4.4982">
        <ele>49.422159</ele>
        <time>2024-07-02T11:32:49.138Z</time>
      </trkpt>
      <trkpt lat="51.8211" lon="4.49832">
        <ele>49.402906</ele>
        <time>2024-07-02T11:32:52.134Z</time>
      </trkpt>
      <trkpt lat="51.82119" lon="4.49846">
        <ele>49.452416</ele>
        <time>2024-07-02T11:32:55.132Z</time>
      </trkpt>
      <trkpt lat="51.82129" lon="4.49859">
        <ele>49.500627</ele>
        <time>2024-07-02T11:32:58.158Z</time>
      </trkpt>
      <trkpt lat="51.82139" lon="4.49872">
        <ele>49.549142</ele>
        <time>2024-07-02T11:33:01.147Z</time>
      </trkpt>
      <trkpt lat="51.82148" lon="4.49885">
        <ele>49.594529</ele>
        <time>2024-07-02T11:33:04.153Z</time>
      </trkpt>
      <trkpt lat="51.82157" lon="4.49896">
        <ele>49.637264</ele>
        <time>2024-07-02T11:33:07.145Z</time>
      </trkpt>
      <trkpt lat="51.82165" lon="4.49909">
        <ele>49.680493</ele>
        <time>2024-07-02T11:33:10.138Z</time>
      </trkpt>
      <trkpt lat="51.82174" lon="4.49922">
        <ele>49.72552</ele>
        <time>2024-07-02T11:33:13.138Z</time>
      </trkpt>
      <trkpt lat="51.82182" lon="4.49935">
        <ele>49.771191</ele>
        <time>2024-07-02T11:33:16.151Z</time>
      </trkpt>
      <trkpt lat="51.82191" lon="4.49947">
        <ele>49.814677</ele>
        <time>2024-07-02T11:33:19.147Z</time>
      </trkpt>
      <trkpt lat="51.82199" lon="4.4996">
        <ele>49.857671</ele>
        <time>2024-07-02T11:33:22.139Z</time>
      </trkpt>
      <trkpt lat="51.82207" lon="4.49973">
        <ele>49.902516</ele>
        <time>2024-07-02T11:33:25.137Z</time>
      </trkpt>
      <trkpt lat="51.82216" lon="4.49987">
        <ele>49.947692</ele>
        <time>2024-07-02T11:33:28.146Z</time>
      </trkpt>
      <trkpt lat="51.82223" lon="4.5">
        <ele>49.989985</ele>
        <time>2024-07-02T11:33:31.138Z</time>
      </trkpt>
      <trkpt lat="51.82231" lon="4.50013">
        <ele>50.032109</ele>
        <time>2024-07-02T11:33:34.138Z</time>
      </trkpt>
      <trkpt lat="51.82238" lon="4.50025">
        <ele>50.072396</ele>
        <time>2024-07-02T11:33:37.140Z</time>
      </trkpt>
      <trkpt lat="51.82245" lon="4.50037">
        <ele>50.125706</ele>
        <time>2024-07-02T11:33:40.135Z</time>
      </trkpt>
      <trkpt lat="51.82252" lon="4.50049">
        <ele>50.18118</ele>
        <time>2024-07-02T11:33:43.146Z</time>
      </trkpt>
      <trkpt lat="51.82259" lon="4.50062">
        <ele>50.236673</ele>
        <time>2024-07-02T11:33:46.155Z</time>
      </trkpt>
      <trkpt lat="51.82266" lon="4.50074">
        <ele>50.291788</ele>
        <time>2024-07-02T11:33:49.143Z</time>
      </trkpt>
      <trkpt lat="51.82273" lon="4.50086">
        <ele>50.345337</ele>
        <time>2024-07-02T11:33:52.133Z</time>
      </trkpt>
      <trkpt lat="51.82279" lon="4.50099">
        <ele>50.40073</ele>
        <time>2024-07-02T11:33:55.120Z</time>
      </trkpt>
      <trkpt lat="51.82287" lon="4.50113">
        <ele>50.460302</ele>
        <time>2024-07-02T11:33:58.134Z</time>
      </trkpt>
      <trkpt lat="51.82294" lon="4.50126">
        <ele>50.518046</ele>
        <time>2024-07-02T11:34:01.154Z</time>
      </trkpt>
      <trkpt lat="51.82302" lon="4.5014">
        <ele>50.581752</ele>
        <time>2024-07-02T11:34:04.135Z</time>
      </trkpt>
      <trkpt lat="51.8231" lon="4.50152">
        <ele>50.639968</ele>
        <time>2024-07-02T11:34:07.134Z</time>
      </trkpt>
      <trkpt lat="51.82318" lon="4.50166">
        <ele>50.70221</ele>
        <time>2024-07-02T11:34:10.143Z</time>
      </trkpt>
      <trkpt lat="51.82326" lon="4.50181">
        <ele>50.765986</ele>
        <time>2024-07-02T11:34:13.146Z</time>
      </trkpt>
      <trkpt lat="51.82334" lon="4.50194">
        <ele>50.82881</ele>
        <time>2024-07-02T11:34:16.150Z</time>
      </trkpt>
      <trkpt lat="51.82342" lon="4.50209">
        <ele>50.893796</ele>
        <time>2024-07-02T11:34:19.141Z</time>
      </trkpt>
      <trkpt lat="51.8235" lon="4.50222">
        <ele>50.953362</ele>
        <time>2024-07-02T11:34:22.137Z</time>
      </trkpt>
      <trkpt lat="51.82357" lon="4.50235">
        <ele>51.009563</ele>
        <time>2024-07-02T11:34:25.124Z</time>
      </trkpt>
      <trkpt lat="51.82364" lon="4.50247">
        <ele>51.034504</ele>
        <time>2024-07-02T11:34:28.139Z</time>
      </trkpt>
      <trkpt lat="51.82371" lon="4.50259">
        <ele>51.050156</ele>
        <time>2024-07-02T11:34:31.149Z</time>
      </trkpt>
      <trkpt lat="51.82379" lon="4.50271">
        <ele>51.065704</ele>
        <time>2024-07-02T11:34:34.150Z</time>
      </trkpt>
      <trkpt lat="51.82386" lon="4.50284">
        <ele>51.081285</ele>
        <time>2024-07-02T11:34:37.145Z</time>
      </trkpt>
      <trkpt lat="51.82393" lon="4.50296">
        <ele>51.097242</ele>
        <time>2024-07-02T11:34:40.137Z</time>
      </trkpt>
      <trkpt lat="51.824" lon="4.50308">
        <ele>51.112894</ele>
        <time>2024-07-02T11:34:43.135Z</time>
      </trkpt>
      <trkpt lat="51.82407" lon="4.50321">
        <ele>51.128172</ele>
        <time>2024-07-02T11:34:46.142Z</time>
      </trkpt>
      <trkpt lat="51.82413" lon="4.50332">
        <ele>51.142764</ele>
        <time>2024-07-02T11:34:49.155Z</time>
      </trkpt>
      <trkpt lat="51.8242" lon="4.50344">
        <ele>51.158142</ele>
        <time>2024-07-02T11:34:52.154Z</time>
      </trkpt>
      <trkpt lat="51.82427" lon="4.50356">
        <ele>51.173347</ele>
        <time>2024-07-02T11:34:55.127Z</time>
      </trkpt>
      <trkpt lat="51.82433" lon="4.50368">
        <ele>51.188259</ele>
        <time>2024-07-02T11:34:58.141Z</time>
      </trkpt>
      <trkpt lat="51.8244" lon="4.5038">
        <ele>51.20302</ele>
        <time>2024-07-02T11:35:01.138Z</time>
      </trkpt>
      <trkpt lat="51.82447" lon="4.50392">
        <ele>51.218499</ele>
        <time>2024-07-02T11:35:04.159Z</time>
      </trkpt>
      <trkpt lat="51.82454" lon="4.50404">
        <ele>51.234256</ele>
        <time>2024-07-02T11:35:07.138Z</time>
      </trkpt>
      <trkpt lat="51.82462" lon="4.50416">
        <ele>51.250137</ele>
        <time>2024-07-02T11:35:10.133Z</time>
      </trkpt>
      <trkpt lat="51.82469" lon="4.50428">
        <ele>51.265909</ele>
        <time>2024-07-02T11:35:13.150Z</time>
      </trkpt>
      <trkpt lat="51.82477" lon="4.50439">
        <ele>51.28136</ele>
        <time>2024-07-02T11:35:16.144Z</time>
      </trkpt>
      <trkpt lat="51.82484" lon="4.5045">
        <ele>51.293936</ele>
        <time>2024-07-02T11:35:19.139Z</time>
      </trkpt>
      <trkpt lat="51.82491" lon="4.50461">
        <ele>51.2928</ele>
        <time>2024-07-02T11:35:22.136Z</time>
      </trkpt>
      <trkpt lat="51.82498" lon="4.50473">
        <ele>51.291647</ele>
        <time>2024-07-02T11:35:25.122Z</time>
      </trkpt>
      <trkpt lat="51.82506" lon="4.50485">
        <ele>51.290494</ele>
        <time>2024-07-02T11:35:28.150Z</time>
      </trkpt>
      <trkpt lat="51.82513" lon="4.50496">
        <ele>51.289351</ele>
        <time>2024-07-02T11:35:31.146Z</time>
      </trkpt>
      <trkpt lat="51.8252" lon="4.50506">
        <ele>51.288268</ele>
        <time>2024-07-02T11:35:34.153Z</time>
      </trkpt>
      <trkpt lat="51.82528" lon="4.50516">
        <ele>51.287136</ele>
        <time>2024-07-02T11:35:37.136Z</time>
      </trkpt>
      <trkpt lat="51.82536" lon="4.50527">
        <ele>51.285922</ele>
        <time>2024-07-02T11:35:40.145Z</time>
      </trkpt>
      <trkpt lat="51.82544" lon="4.50538">
        <ele>51.284746</ele>
        <time>2024-07-02T11:35:43.125Z</time>
      </trkpt>
      <trkpt lat="51.82552" lon="4.50548">
        <ele>51.28362</ele>
        <time>2024-07-02T11:35:46.138Z</time>
      </trkpt>
      <trkpt lat="51.8256" lon="4.50559">
        <ele>51.282462</ele>
        <time>2024-07-02T11:35:49.126Z</time>
      </trkpt>
      <trkpt lat="51.82567" lon="4.5057">
        <ele>51.281321</ele>
        <time>2024-07-02T11:35:52.154Z</time>
      </trkpt>
      <trkpt lat="51.82575" lon="4.50581">
        <ele>51.280141</ele>
        <time>2024-07-02T11:35:55.118Z</time>
      </trkpt>
      <trkpt lat="51.82584" lon="4.50592">
        <ele>51.278909</ele>
        <time>2024-07-02T11:35:58.147Z</time>
      </trkpt>
      <trkpt lat="51.82592" lon="4.50603">
        <ele>51.277689</ele>
        <time>2024-07-02T11:36:01.130Z</time>
      </trkpt>
      <trkpt lat="51.826" lon="4.50614">
        <ele>51.276457</ele>
        <time>2024-07-02T11:36:04.137Z</time>
      </trkpt>
      <trkpt lat="51.82607" lon="4.50626">
        <ele>51.275294</ele>
        <time>2024-07-02T11:36:07.132Z</time>
      </trkpt>
      <trkpt lat="51.82614" lon="4.50637">
        <ele>51.274181</ele>
        <time>2024-07-02T11:36:10.144Z</time>
      </trkpt>
      <trkpt lat="51.82622" lon="4.50651">
        <ele>51.136385</ele>
        <time>2024-07-02T11:36:14.136Z</time>
      </trkpt>
      <trkpt lat="51.8263" lon="4.50663">
        <ele>50.941469</ele>
        <time>2024-07-02T11:36:18.129Z</time>
      </trkpt>
      <trkpt lat="51.82643" lon="4.50674">
        <ele>50.683153</ele>
        <time>2024-07-02T11:36:43.136Z</time>
      </trkpt>
      <trkpt lat="51.82652" lon="4.50686">
        <ele>50.482103</ele>
        <time>2024-07-02T11:36:47.135Z</time>
      </trkpt>
      <trkpt lat="51.8266" lon="4.50696">
        <ele>50.297019</ele>
        <time>2024-07-02T11:36:50.127Z</time>
      </trkpt>
      <trkpt lat="51.8267" lon="4.50708">
        <ele>50.073428</ele>
        <time>2024-07-02T11:36:53.140Z</time>
      </trkpt>
      <trkpt lat="51.82679" lon="4.50721">
        <ele>49.851514</ele>
        <time>2024-07-02T11:36:56.131Z</time>
      </trkpt>
      <trkpt lat="51.82689" lon="4.50735">
        <ele>49.620366</ele>
        <time>2024-07-02T11:36:59.150Z</time>
      </trkpt>
      <trkpt lat="51.82698" lon="4.50749">
        <ele>49.39565</ele>
        <time>2024-07-02T11:37:02.127Z</time>
      </trkpt>
      <trkpt lat="51.82708" lon="4.50762">
        <ele>49.166036</ele>
        <time>2024-07-02T11:37:05.136Z</time>
      </trkpt>
      <trkpt lat="51.82715" lon="4.5078">
        <ele>48.937334</ele>
        <time>2024-07-02T11:37:08.134Z</time>
      </trkpt>
      <trkpt lat="51.82718" lon="4.50799">
        <ele>48.710519</ele>
        <time>2024-07-02T11:37:11.111Z</time>
      </trkpt>
      <trkpt lat="51.8272" lon="4.50819">
        <ele>48.493181</ele>
        <time>2024-07-02T11:37:14.135Z</time>
      </trkpt>
      <trkpt lat="51.82718" lon="4.50836">
        <ele>48.298234</ele>
        <time>2024-07-02T11:37:18.140Z</time>
      </trkpt>
      <trkpt lat="51.82716" lon="4.50855">
        <ele>48.086625</ele>
        <time>2024-07-02T11:37:22.135Z</time>
      </trkpt>
      <trkpt lat="51.82717" lon="4.50875">
        <ele>47.582274</ele>
        <time>2024-07-02T11:37:25.132Z</time>
      </trkpt>
      <trkpt lat="51.82722" lon="4.50891">
        <ele>47.091438</ele>
        <time>2024-07-02T11:37:27.127Z</time>
      </trkpt>
      <trkpt lat="51.8273" lon="4.50904">
        <ele>46.574369</ele>
        <time>2024-07-02T11:37:29.146Z</time>
      </trkpt>
      <trkpt lat="51.8274" lon="4.50914">
        <ele>46.053937</ele>
        <time>2024-07-02T11:37:31.117Z</time>
      </trkpt>
      <trkpt lat="51.82751" lon="4.50922">
        <ele>45.541475</ele>
        <time>2024-07-02T11:37:33.122Z</time>
      </trkpt>
      <trkpt lat="51.82759" lon="4.5093">
        <ele>45.099365</ele>
        <time>2024-07-02T11:37:35.127Z</time>
      </trkpt>
      <trkpt lat="51.82767" lon="4.50939">
        <ele>44.671083</ele>
        <time>2024-07-02T11:37:37.119Z</time>
      </trkpt>
      <trkpt lat="51.82776" lon="4.50947">
        <ele>44.22857</ele>
        <time>2024-07-02T11:37:39.121Z</time>
      </trkpt>
      <trkpt lat="51.82784" lon="4.50955">
        <ele>43.793055</ele>
        <time>2024-07-02T11:37:41.128Z</time>
      </trkpt>
      <trkpt lat="51.82793" lon="4.50963">
        <ele>43.335525</ele>
        <time>2024-07-02T11:37:43.154Z</time>
      </trkpt>
      <trkpt lat="51.82803" lon="4.50969">
        <ele>42.868008</ele>
        <time>2024-07-02T11:37:45.129Z</time>
      </trkpt>
      <trkpt lat="51.82814" lon="4.50979">
        <ele>42.306207</ele>
        <time>2024-07-02T11:37:48.131Z</time>
      </trkpt>
      <trkpt lat="51.82822" lon="4.50987">
        <ele>41.88315</ele>
        <time>2024-07-02T11:37:51.129Z</time>
      </trkpt>
      <trkpt lat="51.8283" lon="4.50996">
        <ele>41.457179</ele>
        <time>2024-07-02T11:37:54.134Z</time>
      </trkpt>
      <trkpt lat="51.82837" lon="4.51011">
        <ele>40.964139</ele>
        <time>2024-07-02T11:37:57.118Z</time>
      </trkpt>
      <trkpt lat="51.82842" lon="4.51025">
        <ele>40.508562</ele>
        <time>2024-07-02T11:38:01.119Z</time>
      </trkpt>
      <trkpt lat="51.82848" lon="4.5104">
        <ele>40.071481</ele>
        <time>2024-07-02T11:38:05.118Z</time>
      </trkpt>
      <trkpt lat="51.8285" lon="4.51055">
        <ele>40.121592</ele>
        <time>2024-07-02T11:38:08.125Z</time>
      </trkpt>
      <trkpt lat="51.82845" lon="4.5104">
        <ele>40.1797</ele>
        <time>2024-07-02T11:38:20.102Z</time>
      </trkpt>
      <trkpt lat="51.82834" lon="4.51037">
        <ele>40.239059</ele>
        <time>2024-07-02T11:38:23.109Z</time>
      </trkpt>
      <trkpt lat="51.82823" lon="4.51044">
        <ele>40.298219</ele>
        <time>2024-07-02T11:38:25.097Z</time>
      </trkpt>
      <trkpt lat="51.8281" lon="4.51056">
        <ele>40.381403</ele>
        <time>2024-07-02T11:38:28.153Z</time>
      </trkpt>
      <trkpt lat="51.83642" lon="4.51586">
        <ele>45.8762</ele>
        <time>2024-07-02T11:41:08.113Z</time>
      </trkpt>
      <trkpt lat="51.83644" lon="4.51572">
        <ele>45.90155</ele>
        <time>2024-07-02T11:41:12.107Z</time>
      </trkpt>
      <trkpt lat="51.83643" lon="4.51556">
        <ele>45.929382</ele>
        <time>2024-07-02T11:41:22.129Z</time>
      </trkpt>
      <trkpt lat="51.8364" lon="4.51558">
        <ele>45.938332</ele>
        <time>2024-07-02T11:41:28.327Z</time>
      </trkpt>
      <trkpt lat="51.83667" lon="4.51573">
        <ele>46.019545</ele>
        <time>2024-07-02T11:44:58.131Z</time>
      </trkpt>
      <trkpt lat="51.83677" lon="4.5158">
        <ele>46.050241</ele>
        <time>2024-07-02T11:45:03.157Z</time>
      </trkpt>
      <trkpt lat="51.83686" lon="4.51587">
        <ele>46.07804</ele>
        <time>2024-07-02T11:45:07.138Z</time>
      </trkpt>
      <trkpt lat="51.83697" lon="4.51591">
        <ele>46.108928</ele>
        <time>2024-07-02T11:45:11.116Z</time>
      </trkpt>
      <trkpt lat="51.83707" lon="4.51596">
        <ele>46.138763</ele>
        <time>2024-07-02T11:45:15.147Z</time>
      </trkpt>
      <trkpt lat="51.83716" lon="4.516">
        <ele>46.164185</ele>
        <time>2024-07-02T11:45:18.149Z</time>
      </trkpt>
      <trkpt lat="51.83725" lon="4.51603">
        <ele>46.189524</ele>
        <time>2024-07-02T11:45:21.144Z</time>
      </trkpt>
      <trkpt lat="51.83733" lon="4.51608">
        <ele>46.215383</ele>
        <time>2024-07-02T11:45:24.133Z</time>
      </trkpt>
      <trkpt lat="51.83743" lon="4.51612">
        <ele>46.313657</ele>
        <time>2024-07-02T11:45:27.154Z</time>
      </trkpt>
      <trkpt lat="51.83751" lon="4.5162">
        <ele>46.474084</ele>
        <time>2024-07-02T11:45:30.125Z</time>
      </trkpt>
      <trkpt lat="51.8376" lon="4.51626">
        <ele>46.631881</ele>
        <time>2024-07-02T11:45:33.139Z</time>
      </trkpt>
      <trkpt lat="51.83769" lon="4.51633">
        <ele>46.787361</ele>
        <time>2024-07-02T11:45:36.136Z</time>
      </trkpt>
      <trkpt lat="51.8378" lon="4.51639">
        <ele>46.984887</ele>
        <time>2024-07-02T11:45:40.132Z</time>
      </trkpt>
      <trkpt lat="51.83789" lon="4.51642">
        <ele>47.132591</ele>
        <time>2024-07-02T11:45:43.126Z</time>
      </trkpt>
      <trkpt lat="51.83798" lon="4.51641">
        <ele>47.282354</ele>
        <time>2024-07-02T11:45:46.132Z</time>
      </trkpt>
      <trkpt lat="51.83809" lon="4.51636">
        <ele>47.462852</ele>
        <time>2024-07-02T11:45:50.115Z</time>
      </trkpt>
      <trkpt lat="51.83819" lon="4.5163">
        <ele>47.639421</ele>
        <time>2024-07-02T11:45:54.138Z</time>
      </trkpt>
      <trkpt lat="51.8383" lon="4.51623">
        <ele>47.823841</ele>
        <time>2024-07-02T11:45:58.142Z</time>
      </trkpt>
      <trkpt lat="51.8384" lon="4.51617">
        <ele>47.998813</ele>
        <time>2024-07-02T11:46:02.120Z</time>
      </trkpt>
      <trkpt lat="51.8385" lon="4.51609">
        <ele>48.177952</ele>
        <time>2024-07-02T11:46:06.121Z</time>
      </trkpt>
      <trkpt lat="51.83858" lon="4.51596">
        <ele>48.364966</ele>
        <time>2024-07-02T11:46:10.129Z</time>
      </trkpt>
      <trkpt lat="51.83865" lon="4.51581">
        <ele>48.54815</ele>
        <time>2024-07-02T11:46:14.134Z</time>
      </trkpt>
      <trkpt lat="51.83868" lon="4.51565">
        <ele>48.718668</ele>
        <time>2024-07-02T11:46:18.135Z</time>
      </trkpt>
      <trkpt lat="51.8387" lon="4.51549">
        <ele>48.880175</ele>
        <time>2024-07-02T11:46:22.134Z</time>
      </trkpt>
      <trkpt lat="51.83872" lon="4.51533">
        <ele>49.048846</ele>
        <time>2024-07-02T11:46:26.138Z</time>
      </trkpt>
      <trkpt lat="51.83882" lon="4.51523">
        <ele>49.22666</ele>
        <time>2024-07-02T11:46:30.127Z</time>
      </trkpt>
      <trkpt lat="51.83893" lon="4.51523">
        <ele>49.394771</ele>
        <time>2024-07-02T11:46:34.151Z</time>
      </trkpt>
      <trkpt lat="51.83904" lon="4.51525">
        <ele>49.57092</ele>
        <time>2024-07-02T11:46:38.143Z</time>
      </trkpt>
      <trkpt lat="51.83914" lon="4.51528">
        <ele>49.72063</ele>
        <time>2024-07-02T11:46:41.155Z</time>
      </trkpt>
      <trkpt lat="51.83924" lon="4.5153">
        <ele>49.883984</ele>
        <time>2024-07-02T11:46:44.134Z</time>
      </trkpt>
      <trkpt lat="51.83934" lon="4.51533">
        <ele>50.040343</ele>
        <time>2024-07-02T11:46:47.135Z</time>
      </trkpt>
      <trkpt lat="51.83945" lon="4.51535">
        <ele>50.205212</ele>
        <time>2024-07-02T11:46:50.150Z</time>
      </trkpt>
      <trkpt lat="51.83957" lon="4.51539">
        <ele>50.385274</ele>
        <time>2024-07-02T11:46:53.113Z</time>
      </trkpt>
      <trkpt lat="51.83968" lon="4.51541">
        <ele>50.563559</ele>
        <time>2024-07-02T11:46:56.156Z</time>
      </trkpt>
      <trkpt lat="51.8398" lon="4.51543">
        <ele>50.746114</ele>
        <time>2024-07-02T11:46:59.140Z</time>
      </trkpt>
      <trkpt lat="51.83992" lon="4.51544">
        <ele>50.922414</ele>
        <time>2024-07-02T11:47:02.136Z</time>
      </trkpt>
      <trkpt lat="51.84004" lon="4.51546">
        <ele>51.109448</ele>
        <time>2024-07-02T11:47:05.114Z</time>
      </trkpt>
      <trkpt lat="51.84015" lon="4.51548">
        <ele>51.28288</ele>
        <time>2024-07-02T11:47:08.168Z</time>
      </trkpt>
      <trkpt lat="51.84026" lon="4.5155">
        <ele>51.448813</ele>
        <time>2024-07-02T11:47:11.143Z</time>
      </trkpt>
      <trkpt lat="51.84038" lon="4.51551">
        <ele>51.626297</ele>
        <time>2024-07-02T11:47:14.158Z</time>
      </trkpt>
      <trkpt lat="51.84049" lon="4.51553">
        <ele>51.80448</ele>
        <time>2024-07-02T11:47:17.148Z</time>
      </trkpt>
      <trkpt lat="51.84061" lon="4.51556">
        <ele>51.785522</ele>
        <time>2024-07-02T11:47:20.140Z</time>
      </trkpt>
      <trkpt lat="51.84074" lon="4.51557">
        <ele>51.553069</ele>
        <time>2024-07-02T11:47:23.142Z</time>
      </trkpt>
      <trkpt lat="51.84085" lon="4.51559">
        <ele>51.323421</ele>
        <time>2024-07-02T11:47:26.139Z</time>
      </trkpt>
      <trkpt lat="51.84097" lon="4.51562">
        <ele>51.097935</ele>
        <time>2024-07-02T11:47:29.150Z</time>
      </trkpt>
      <trkpt lat="51.8411" lon="4.51565">
        <ele>50.852638</ele>
        <time>2024-07-02T11:47:32.133Z</time>
      </trkpt>
      <trkpt lat="51.84122" lon="4.5157">
        <ele>50.612329</ele>
        <time>2024-07-02T11:47:35.155Z</time>
      </trkpt>
      <trkpt lat="51.84131" lon="4.51573">
        <ele>50.4395</ele>
        <time>2024-07-02T11:47:37.145Z</time>
      </trkpt>
      <trkpt lat="51.8414" lon="4.51577">
        <ele>50.253843</ele>
        <time>2024-07-02T11:47:39.137Z</time>
      </trkpt>
      <trkpt lat="51.8415" lon="4.51582">
        <ele>50.055467</ele>
        <time>2024-07-02T11:47:41.142Z</time>
      </trkpt>
      <trkpt lat="51.84161" lon="4.51587">
        <ele>49.842167</ele>
        <time>2024-07-02T11:47:43.157Z</time>
      </trkpt>
      <trkpt lat="51.84172" lon="4.51593">
        <ele>49.616769</ele>
        <time>2024-07-02T11:47:45.121Z</time>
      </trkpt>
      <trkpt lat="51.84183" lon="4.51599">
        <ele>49.392494</ele>
        <time>2024-07-02T11:47:47.140Z</time>
      </trkpt>
      <trkpt lat="51.84194" lon="4.51605">
        <ele>49.178459</ele>
        <time>2024-07-02T11:47:49.145Z</time>
      </trkpt>
      <trkpt lat="51.84205" lon="4.51611">
        <ele>48.95487</ele>
        <time>2024-07-02T11:47:51.137Z</time>
      </trkpt>
      <trkpt lat="51.84216" lon="4.51616">
        <ele>48.732771</ele>
        <time>2024-07-02T11:47:53.151Z</time>
      </trkpt>
      <trkpt lat="51.84226" lon="4.51622">
        <ele>48.516165</ele>
        <time>2024-07-02T11:47:55.118Z</time>
      </trkpt>
      <trkpt lat="51.84238" lon="4.51629">
        <ele>48.318134</ele>
        <time>2024-07-02T11:47:57.148Z</time>
      </trkpt>
      <trkpt lat="51.84249" lon="4.51635">
        <ele>48.137709</ele>
        <time>2024-07-02T11:47:59.142Z</time>
      </trkpt>
      <trkpt lat="51.8426" lon="4.51639">
        <ele>47.970312</ele>
        <time>2024-07-02T11:48:01.136Z</time>
      </trkpt>
      <trkpt lat="51.84271" lon="4.51642">
        <ele>47.804714</ele>
        <time>2024-07-02T11:48:03.139Z</time>
      </trkpt>
      <trkpt lat="51.84281" lon="4.51645">
        <ele>47.644235</ele>
        <time>2024-07-02T11:48:05.130Z</time>
      </trkpt>
      <trkpt lat="51.84293" lon="4.51648">
        <ele>47.4704</ele>
        <time>2024-07-02T11:48:07.153Z</time>
      </trkpt>
      <trkpt lat="51.84305" lon="4.5165">
        <ele>47.292251</ele>
        <time>2024-07-02T11:48:09.135Z</time>
      </trkpt>
      <trkpt lat="51.84316" lon="4.51651">
        <ele>47.123471</ele>
        <time>2024-07-02T11:48:11.135Z</time>
      </trkpt>
      <trkpt lat="51.84327" lon="4.51652">
        <ele>46.960598</ele>
        <time>2024-07-02T11:48:13.165Z</time>
      </trkpt>
      <trkpt lat="51.84337" lon="4.51653">
        <ele>46.797726</ele>
        <time>2024-07-02T11:48:15.116Z</time>
      </trkpt>
      <trkpt lat="51.84348" lon="4.51653">
        <ele>46.639665</ele>
        <time>2024-07-02T11:48:17.155Z</time>
      </trkpt>
      <trkpt lat="51.84358" lon="4.51654">
        <ele>46.491977</ele>
        <time>2024-07-02T11:48:19.158Z</time>
      </trkpt>
      <trkpt lat="51.8437" lon="4.51656">
        <ele>46.302922</ele>
        <time>2024-07-02T11:48:22.149Z</time>
      </trkpt>
      <trkpt lat="51.84381" lon="4.51656">
        <ele>46.1388</ele>
        <time>2024-07-02T11:48:25.152Z</time>
      </trkpt>
      <trkpt lat="51.84389" lon="4.51647">
        <ele>45.991467</ele>
        <time>2024-07-02T11:48:28.129Z</time>
      </trkpt>
      <trkpt lat="51.84392" lon="4.51632">
        <ele>45.846301</ele>
        <time>2024-07-02T11:48:31.132Z</time>
      </trkpt>
      <trkpt lat="51.84392" lon="4.51614">
        <ele>45.740136</ele>
        <time>2024-07-02T11:48:34.134Z</time>
      </trkpt>
      <trkpt lat="51.84392" lon="4.51594">
        <ele>45.722265</ele>
        <time>2024-07-02T11:48:37.146Z</time>
      </trkpt>
      <trkpt lat="51.84394" lon="4.51575">
        <ele>45.704348</ele>
        <time>2024-07-02T11:48:40.157Z</time>
      </trkpt>
      <trkpt lat="51.84395" lon="4.51558">
        <ele>45.688901</ele>
        <time>2024-07-02T11:48:43.143Z</time>
      </trkpt>
      <trkpt lat="51.84396" lon="4.51541">
        <ele>45.673728</ele>
        <time>2024-07-02T11:48:46.133Z</time>
      </trkpt>
      <trkpt lat="51.84396" lon="4.51525">
        <ele>45.658942</ele>
        <time>2024-07-02T11:48:49.120Z</time>
      </trkpt>
      <trkpt lat="51.84396" lon="4.51504">
        <ele>45.640615</ele>
        <time>2024-07-02T11:48:52.151Z</time>
      </trkpt>
      <trkpt lat="51.84397" lon="4.51489">
        <ele>45.626824</ele>
        <time>2024-07-02T11:48:54.142Z</time>
      </trkpt>
      <trkpt lat="51.84399" lon="4.51469">
        <ele>45.608417</ele>
        <time>2024-07-02T11:48:57.133Z</time>
      </trkpt>
      <trkpt lat="51.84399" lon="4.51447">
        <ele>45.588518</ele>
        <time>2024-07-02T11:49:00.158Z</time>
      </trkpt>
      <trkpt lat="51.844" lon="4.51425">
        <ele>45.56871</ele>
        <time>2024-07-02T11:49:03.137Z</time>
      </trkpt>
      <trkpt lat="51.84401" lon="4.51411">
        <ele>45.555331</ele>
        <time>2024-07-02T11:49:05.143Z</time>
      </trkpt>
      <trkpt lat="51.84402" lon="4.51396">
        <ele>45.541842</ele>
        <time>2024-07-02T11:49:07.141Z</time>
      </trkpt>
      <trkpt lat="51.84404" lon="4.51375">
        <ele>45.522323</ele>
        <time>2024-07-02T11:49:10.137Z</time>
      </trkpt>
      <trkpt lat="51.84405" lon="4.51354">
        <ele>45.503297</ele>
        <time>2024-07-02T11:49:13.134Z</time>
      </trkpt>
      <trkpt lat="51.84405" lon="4.51333">
        <ele>45.484689</ele>
        <time>2024-07-02T11:49:16.138Z</time>
      </trkpt>
      <trkpt lat="51.84406" lon="4.51314">
        <ele>45.523705</ele>
        <time>2024-07-02T11:49:19.130Z</time>
      </trkpt>
      <trkpt lat="51.84407" lon="4.51294">
        <ele>45.568302</ele>
        <time>2024-07-02T11:49:22.151Z</time>
      </trkpt>
      <trkpt lat="51.84407" lon="4.51273">
        <ele>45.615858</ele>
        <time>2024-07-02T11:49:25.121Z</time>
      </trkpt>
      <trkpt lat="51.84408" lon="4.51252">
        <ele>45.662618</ele>
        <time>2024-07-02T11:49:28.123Z</time>
      </trkpt>
      <trkpt lat="51.84409" lon="4.51232">
        <ele>45.708236</ele>
        <time>2024-07-02T11:49:31.119Z</time>
      </trkpt>
      <trkpt lat="51.8441" lon="4.51213">
        <ele>45.753122</ele>
        <time>2024-07-02T11:49:34.141Z</time>
      </trkpt>
      <trkpt lat="51.84411" lon="4.51192">
        <ele>45.799007</ele>
        <time>2024-07-02T11:49:37.154Z</time>
      </trkpt>
      <trkpt lat="51.84412" lon="4.51172">
        <ele>45.84509</ele>
        <time>2024-07-02T11:49:40.154Z</time>
      </trkpt>
      <trkpt lat="51.84413" lon="4.51152">
        <ele>45.891265</ele>
        <time>2024-07-02T11:49:43.155Z</time>
      </trkpt>
      <trkpt lat="51.84414" lon="4.51132">
        <ele>45.935216</ele>
        <time>2024-07-02T11:49:46.133Z</time>
      </trkpt>
      <trkpt lat="51.84414" lon="4.51112">
        <ele>45.980348</ele>
        <time>2024-07-02T11:49:49.148Z</time>
      </trkpt>
      <trkpt lat="51.84415" lon="4.51091">
        <ele>46.029819</ele>
        <time>2024-07-02T11:49:52.147Z</time>
      </trkpt>
      <trkpt lat="51.84415" lon="4.51075">
        <ele>46.064238</ele>
        <time>2024-07-02T11:49:54.138Z</time>
      </trkpt>
      <trkpt lat="51.84416" lon="4.5106">
        <ele>46.099403</ele>
        <time>2024-07-02T11:49:56.141Z</time>
      </trkpt>
      <trkpt lat="51.84417" lon="4.51045">
        <ele>46.132915</ele>
        <time>2024-07-02T11:49:58.157Z</time>
      </trkpt>
      <trkpt lat="51.84418" lon="4.51025">
        <ele>46.099763</ele>
        <time>2024-07-02T11:50:01.158Z</time>
      </trkpt>
      <trkpt lat="51.8442" lon="4.51007">
        <ele>46.051752</ele>
        <time>2024-07-02T11:50:04.135Z</time>
      </trkpt>
      <trkpt lat="51.84421" lon="4.50987">
        <ele>46.001584</ele>
        <time>2024-07-02T11:50:07.139Z</time>
      </trkpt>
      <trkpt lat="51.84421" lon="4.50969">
        <ele>45.953127</ele>
        <time>2024-07-02T11:50:10.142Z</time>
      </trkpt>
      <trkpt lat="51.84423" lon="4.50948">
        <ele>45.899279</ele>
        <time>2024-07-02T11:50:13.157Z</time>
      </trkpt>
      <trkpt lat="51.84433" lon="4.50933">
        <ele>45.842728</ele>
        <time>2024-07-02T11:50:16.132Z</time>
      </trkpt>
      <trkpt lat="51.84438" lon="4.50914">
        <ele>45.787265</ele>
        <time>2024-07-02T11:50:19.135Z</time>
      </trkpt>
      <trkpt lat="51.84439" lon="4.50892">
        <ele>45.730665</ele>
        <time>2024-07-02T11:50:22.149Z</time>
      </trkpt>
      <trkpt lat="51.8444" lon="4.50877">
        <ele>45.692419</ele>
        <time>2024-07-02T11:50:24.135Z</time>
      </trkpt>
      <trkpt lat="51.84441" lon="4.50857">
        <ele>45.639262</ele>
        <time>2024-07-02T11:50:27.137Z</time>
      </trkpt>
      <trkpt lat="51.84438" lon="4.50838">
        <ele>45.589008</ele>
        <time>2024-07-02T11:50:30.149Z</time>
      </trkpt>
      <trkpt lat="51.84433" lon="4.50823">
        <ele>45.542919</ele>
        <time>2024-07-02T11:50:33.142Z</time>
      </trkpt>
      <trkpt lat="51.84425" lon="4.5081">
        <ele>45.497546</ele>
        <time>2024-07-02T11:50:36.160Z</time>
      </trkpt>
      <trkpt lat="51.84419" lon="4.50797">
        <ele>45.453392</ele>
        <time>2024-07-02T11:50:39.149Z</time>
      </trkpt>
      <trkpt lat="51.84411" lon="4.50785">
        <ele>45.409724</ele>
        <time>2024-07-02T11:50:42.132Z</time>
      </trkpt>
      <trkpt lat="51.84405" lon="4.50773">
        <ele>45.390221</ele>
        <time>2024-07-02T11:50:45.136Z</time>
      </trkpt>
      <trkpt lat="51.84408" lon="4.50759">
        <ele>45.406826</ele>
        <time>2024-07-02T11:50:49.160Z</time>
      </trkpt>
      <trkpt lat="51.84418" lon="4.50752">
        <ele>45.426282</ele>
        <time>2024-07-02T11:50:58.132Z</time>
      </trkpt>
      <trkpt lat="51.84427" lon="4.50743">
        <ele>45.444802</ele>
        <time>2024-07-02T11:51:02.132Z</time>
      </trkpt>
      <trkpt lat="51.84436" lon="4.50749">
        <ele>45.461383</ele>
        <time>2024-07-02T11:51:05.125Z</time>
      </trkpt>
      <trkpt lat="51.84443" lon="4.50762">
        <ele>45.479869</ele>
        <time>2024-07-02T11:51:08.141Z</time>
      </trkpt>
      <trkpt lat="51.84451" lon="4.50776">
        <ele>45.500935</ele>
        <time>2024-07-02T11:51:11.137Z</time>
      </trkpt>
      <trkpt lat="51.84459" lon="4.50789">
        <ele>45.521419</ele>
        <time>2024-07-02T11:51:14.135Z</time>
      </trkpt>
      <trkpt lat="51.8447" lon="4.50798">
        <ele>45.542963</ele>
        <time>2024-07-02T11:51:17.145Z</time>
      </trkpt>
      <trkpt lat="51.84481" lon="4.50799">
        <ele>45.56231</ele>
        <time>2024-07-02T11:51:20.145Z</time>
      </trkpt>
      <trkpt lat="51.84492" lon="4.508">
        <ele>45.583463</ele>
        <time>2024-07-02T11:51:23.136Z</time>
      </trkpt>
      <trkpt lat="51.84503" lon="4.50808">
        <ele>45.604675</ele>
        <time>2024-07-02T11:51:26.133Z</time>
      </trkpt>
      <trkpt lat="51.84515" lon="4.50811">
        <ele>45.625101</ele>
        <time>2024-07-02T11:51:29.132Z</time>
      </trkpt>
      <trkpt lat="51.84527" lon="4.50803">
        <ele>45.648008</ele>
        <time>2024-07-02T11:51:32.131Z</time>
      </trkpt>
      <trkpt lat="51.84539" lon="4.50796">
        <ele>45.670486</ele>
        <time>2024-07-02T11:51:35.117Z</time>
      </trkpt>
      <trkpt lat="51.8455" lon="4.50789">
        <ele>45.692775</ele>
        <time>2024-07-02T11:51:38.150Z</time>
      </trkpt>
      <trkpt lat="51.84563" lon="4.50785">
        <ele>45.744925</ele>
        <time>2024-07-02T11:51:41.124Z</time>
      </trkpt>
      <trkpt lat="51.84576" lon="4.50781">
        <ele>45.822324</ele>
        <time>2024-07-02T11:51:44.143Z</time>
      </trkpt>
      <trkpt lat="51.84589" lon="4.50778">
        <ele>45.900958</ele>
        <time>2024-07-02T11:51:47.135Z</time>
      </trkpt>
      <trkpt lat="51.84603" lon="4.50778">
        <ele>45.980088</ele>
        <time>2024-07-02T11:51:50.156Z</time>
      </trkpt>
      <trkpt lat="51.84616" lon="4.50779">
        <ele>46.058788</ele>
        <time>2024-07-02T11:51:53.151Z</time>
      </trkpt>
      <trkpt lat="51.84629" lon="4.50781">
        <ele>46.137488</ele>
        <time>2024-07-02T11:51:56.142Z</time>
      </trkpt>
      <trkpt lat="51.84642" lon="4.50781">
        <ele>46.215438</ele>
        <time>2024-07-02T11:51:59.154Z</time>
      </trkpt>
      <trkpt lat="51.84651" lon="4.50782">
        <ele>46.269278</ele>
        <time>2024-07-02T11:52:01.142Z</time>
      </trkpt>
      <trkpt lat="51.84664" lon="4.50784">
        <ele>46.34509</ele>
        <time>2024-07-02T11:52:04.135Z</time>
      </trkpt>
      <trkpt lat="51.84677" lon="4.50785">
        <ele>46.42082</ele>
        <time>2024-07-02T11:52:07.157Z</time>
      </trkpt>
      <trkpt lat="51.84689" lon="4.50787">
        <ele>46.493582</ele>
        <time>2024-07-02T11:52:10.143Z</time>
      </trkpt>
      <trkpt lat="51.84702" lon="4.50787">
        <ele>46.566837</ele>
        <time>2024-07-02T11:52:13.154Z</time>
      </trkpt>
      <trkpt lat="51.84714" lon="4.5079">
        <ele>46.637539</ele>
        <time>2024-07-02T11:52:16.141Z</time>
      </trkpt>
      <trkpt lat="51.84726" lon="4.5079">
        <ele>46.707861</ele>
        <time>2024-07-02T11:52:19.137Z</time>
      </trkpt>
      <trkpt lat="51.84737" lon="4.5079">
        <ele>46.762276</ele>
        <time>2024-07-02T11:52:22.137Z</time>
      </trkpt>
      <trkpt lat="51.84749" lon="4.50788">
        <ele>46.742384</ele>
        <time>2024-07-02T11:52:25.132Z</time>
      </trkpt>
      <trkpt lat="51.8476" lon="4.50786">
        <ele>46.723919</ele>
        <time>2024-07-02T11:52:28.137Z</time>
      </trkpt>
      <trkpt lat="51.84771" lon="4.50781">
        <ele>46.70486</ele>
        <time>2024-07-02T11:52:31.140Z</time>
      </trkpt>
      <trkpt lat="51.8478" lon="4.50773">
        <ele>46.686722</ele>
        <time>2024-07-02T11:52:34.140Z</time>
      </trkpt>
      <trkpt lat="51.84787" lon="4.50759">
        <ele>46.668031</ele>
        <time>2024-07-02T11:52:37.145Z</time>
      </trkpt>
      <trkpt lat="51.84791" lon="4.50745">
        <ele>46.651638</ele>
        <time>2024-07-02T11:52:40.134Z</time>
      </trkpt>
      <trkpt lat="51.84794" lon="4.50731">
        <ele>46.636315</ele>
        <time>2024-07-02T11:52:43.146Z</time>
      </trkpt>
      <trkpt lat="51.84797" lon="4.50713">
        <ele>46.617513</ele>
        <time>2024-07-02T11:52:47.141Z</time>
      </trkpt>
      <trkpt lat="51.84807" lon="4.50714">
        <ele>46.60034</ele>
        <time>2024-07-02T11:52:52.136Z</time>
      </trkpt>
      <trkpt lat="51.8481" lon="4.50734">
        <ele>46.579359</ele>
        <time>2024-07-02T11:52:56.147Z</time>
      </trkpt>
      <trkpt lat="51.84814" lon="4.50753">
        <ele>46.559132</ele>
        <time>2024-07-02T11:52:59.133Z</time>
      </trkpt>
      <trkpt lat="51.84817" lon="4.50771">
        <ele>46.539468</ele>
        <time>2024-07-02T11:53:02.141Z</time>
      </trkpt>
      <trkpt lat="51.84825" lon="4.50784">
        <ele>46.520067</ele>
        <time>2024-07-02T11:53:05.126Z</time>
      </trkpt>
      <trkpt lat="51.84834" lon="4.50783">
        <ele>46.504577</ele>
        <time>2024-07-02T11:53:07.130Z</time>
      </trkpt>
      <trkpt lat="51.84846" lon="4.50784">
        <ele>46.484238</ele>
        <time>2024-07-02T11:53:10.122Z</time>
      </trkpt>
      <trkpt lat="51.84857" lon="4.50786">
        <ele>46.466145</ele>
        <time>2024-07-02T11:53:13.142Z</time>
      </trkpt>
      <trkpt lat="51.84868" lon="4.50788">
        <ele>46.450903</ele>
        <time>2024-07-02T11:53:16.157Z</time>
      </trkpt>
      <trkpt lat="51.84879" lon="4.50789">
        <ele>46.436135</ele>
        <time>2024-07-02T11:53:19.124Z</time>
      </trkpt>
      <trkpt lat="51.8489" lon="4.5079">
        <ele>46.422191</ele>
        <time>2024-07-02T11:53:22.158Z</time>
      </trkpt>
      <trkpt lat="51.849" lon="4.50791">
        <ele>46.407847</ele>
        <time>2024-07-02T11:53:25.150Z</time>
      </trkpt>
      <trkpt lat="51.84911" lon="4.50791">
        <ele>46.393784</ele>
        <time>2024-07-02T11:53:28.145Z</time>
      </trkpt>
      <trkpt lat="51.84922" lon="4.50791">
        <ele>46.378791</ele>
        <time>2024-07-02T11:53:31.164Z</time>
      </trkpt>
      <trkpt lat="51.84932" lon="4.50783">
        <ele>46.365237</ele>
        <time>2024-07-02T11:53:34.130Z</time>
      </trkpt>
      <trkpt lat="51.84941" lon="4.50782">
        <ele>46.352458</ele>
        <time>2024-07-02T11:53:38.145Z</time>
      </trkpt>
      <trkpt lat="51.84953" lon="4.50787">
        <ele>46.336833</ele>
        <time>2024-07-02T11:53:42.117Z</time>
      </trkpt>
      <trkpt lat="51.84961" lon="4.50798">
        <ele>46.322809</ele>
        <time>2024-07-02T11:53:45.132Z</time>
      </trkpt>
      <trkpt lat="51.84968" lon="4.50809">
        <ele>46.309395</ele>
        <time>2024-07-02T11:53:48.142Z</time>
      </trkpt>
      <trkpt lat="51.84978" lon="4.50812">
        <ele>46.296004</ele>
        <time>2024-07-02T11:53:51.125Z</time>
      </trkpt>
      <trkpt lat="51.84987" lon="4.50812">
        <ele>46.283933</ele>
        <time>2024-07-02T11:53:54.127Z</time>
      </trkpt>
      <trkpt lat="51.84997" lon="4.50812">
        <ele>46.271596</ele>
        <time>2024-07-02T11:53:57.137Z</time>
      </trkpt>
      <trkpt lat="51.85008" lon="4.50814">
        <ele>46.256799</ele>
        <time>2024-07-02T11:54:01.158Z</time>
      </trkpt>
      <trkpt lat="51.8502" lon="4.50815">
        <ele>46.240702</ele>
        <time>2024-07-02T11:54:05.111Z</time>
      </trkpt>
      <trkpt lat="51.8503" lon="4.50817">
        <ele>46.227364</ele>
        <time>2024-07-02T11:54:08.151Z</time>
      </trkpt>
      <trkpt lat="51.8504" lon="4.50819">
        <ele>46.243307</ele>
        <time>2024-07-02T11:54:11.152Z</time>
      </trkpt>
      <trkpt lat="51.85051" lon="4.5082">
        <ele>46.268485</ele>
        <time>2024-07-02T11:54:14.136Z</time>
      </trkpt>
      <trkpt lat="51.85064" lon="4.50821">
        <ele>46.296369</ele>
        <time>2024-07-02T11:54:17.130Z</time>
      </trkpt>
      <trkpt lat="51.85076" lon="4.50822">
        <ele>46.324046</ele>
        <time>2024-07-02T11:54:20.142Z</time>
      </trkpt>
      <trkpt lat="51.85088" lon="4.50825">
        <ele>46.352638</ele>
        <time>2024-07-02T11:54:23.145Z</time>
      </trkpt>
      <trkpt lat="51.851" lon="4.50826">
        <ele>46.380332</ele>
        <time>2024-07-02T11:54:26.147Z</time>
      </trkpt>
      <trkpt lat="51.85112" lon="4.50826">
        <ele>46.407967</ele>
        <time>2024-07-02T11:54:29.150Z</time>
      </trkpt>
      <trkpt lat="51.85125" lon="4.50827">
        <ele>46.438133</ele>
        <time>2024-07-02T11:54:32.138Z</time>
      </trkpt>
      <trkpt lat="51.85138" lon="4.50828">
        <ele>46.467414</ele>
        <time>2024-07-02T11:54:35.124Z</time>
      </trkpt>
      <trkpt lat="51.85151" lon="4.5083">
        <ele>46.497666</ele>
        <time>2024-07-02T11:54:38.145Z</time>
      </trkpt>
      <trkpt lat="51.85165" lon="4.50831">
        <ele>46.527648</ele>
        <time>2024-07-02T11:54:41.149Z</time>
      </trkpt>
      <trkpt lat="51.85177" lon="4.50833">
        <ele>46.556956</ele>
        <time>2024-07-02T11:54:44.151Z</time>
      </trkpt>
      <trkpt lat="51.8519" lon="4.50834">
        <ele>46.586921</ele>
        <time>2024-07-02T11:54:47.154Z</time>
      </trkpt>
      <trkpt lat="51.85203" lon="4.50835">
        <ele>46.615503</ele>
        <time>2024-07-02T11:54:50.152Z</time>
      </trkpt>
      <trkpt lat="51.85216" lon="4.50837">
        <ele>46.613298</ele>
        <time>2024-07-02T11:54:53.137Z</time>
      </trkpt>
      <trkpt lat="51.8523" lon="4.50838">
        <ele>46.550923</ele>
        <time>2024-07-02T11:54:56.151Z</time>
      </trkpt>
      <trkpt lat="51.85239" lon="4.50838">
        <ele>46.508571</ele>
        <time>2024-07-02T11:54:58.144Z</time>
      </trkpt>
      <trkpt lat="51.85252" lon="4.5084">
        <ele>46.445219</ele>
        <time>2024-07-02T11:55:01.136Z</time>
      </trkpt>
      <trkpt lat="51.85265" lon="4.50841">
        <ele>46.383741</ele>
        <time>2024-07-02T11:55:04.131Z</time>
      </trkpt>
      <trkpt lat="51.85275" lon="4.50842">
        <ele>46.340856</ele>
        <time>2024-07-02T11:55:06.152Z</time>
      </trkpt>
      <trkpt lat="51.85284" lon="4.50841">
        <ele>46.298795</ele>
        <time>2024-07-02T11:55:08.155Z</time>
      </trkpt>
      <trkpt lat="51.85297" lon="4.5084">
        <ele>46.237813</ele>
        <time>2024-07-02T11:55:11.156Z</time>
      </trkpt>
      <trkpt lat="51.8531" lon="4.50837">
        <ele>46.176385</ele>
        <time>2024-07-02T11:55:14.150Z</time>
      </trkpt>
      <trkpt lat="51.85322" lon="4.50835">
        <ele>46.120454</ele>
        <time>2024-07-02T11:55:17.135Z</time>
      </trkpt>
      <trkpt lat="51.85333" lon="4.50834">
        <ele>46.067769</ele>
        <time>2024-07-02T11:55:20.151Z</time>
      </trkpt>
      <trkpt lat="51.85344" lon="4.50834">
        <ele>46.018013</ele>
        <time>2024-07-02T11:55:23.146Z</time>
      </trkpt>
      <trkpt lat="51.85354" lon="4.50832">
        <ele>45.968548</ele>
        <time>2024-07-02T11:55:26.137Z</time>
      </trkpt>
      <trkpt lat="51.85366" lon="4.5083">
        <ele>45.915671</ele>
        <time>2024-07-02T11:55:29.160Z</time>
      </trkpt>
      <trkpt lat="51.85379" lon="4.50829">
        <ele>45.855102</ele>
        <time>2024-07-02T11:55:32.151Z</time>
      </trkpt>
      <trkpt lat="51.85391" lon="4.50836">
        <ele>45.798642</ele>
        <time>2024-07-02T11:55:35.126Z</time>
      </trkpt>
      <trkpt lat="51.854" lon="4.50845">
        <ele>45.796192</ele>
        <time>2024-07-02T11:55:38.138Z</time>
      </trkpt>
      <trkpt lat="51.85409" lon="4.50851">
        <ele>45.794124</ele>
        <time>2024-07-02T11:55:41.126Z</time>
      </trkpt>
      <trkpt lat="51.85418" lon="4.50851">
        <ele>45.792029</ele>
        <time>2024-07-02T11:55:44.129Z</time>
      </trkpt>
      <trkpt lat="51.85428" lon="4.50853">
        <ele>45.789725</ele>
        <time>2024-07-02T11:55:47.138Z</time>
      </trkpt>
      <trkpt lat="51.85438" lon="4.50853">
        <ele>45.787334</ele>
        <time>2024-07-02T11:55:50.126Z</time>
      </trkpt>
      <trkpt lat="51.85449" lon="4.50854">
        <ele>45.784981</ele>
        <time>2024-07-02T11:55:53.118Z</time>
      </trkpt>
      <trkpt lat="51.85458" lon="4.50855">
        <ele>45.782746</ele>
        <time>2024-07-02T11:55:56.153Z</time>
      </trkpt>
      <trkpt lat="51.8547" lon="4.50855">
        <ele>45.780103</ele>
        <time>2024-07-02T11:55:59.144Z</time>
      </trkpt>
      <trkpt lat="51.8548" lon="4.50855">
        <ele>45.777709</ele>
        <time>2024-07-02T11:56:02.153Z</time>
      </trkpt>
      <trkpt lat="51.8549" lon="4.50857">
        <ele>45.775468</ele>
        <time>2024-07-02T11:56:05.121Z</time>
      </trkpt>
      <trkpt lat="51.855" lon="4.50858">
        <ele>45.773318</ele>
        <time>2024-07-02T11:56:08.156Z</time>
      </trkpt>
      <trkpt lat="51.8551" lon="4.50858">
        <ele>45.771019</ele>
        <time>2024-07-02T11:56:11.163Z</time>
      </trkpt>
      <trkpt lat="51.85519" lon="4.50853">
        <ele>45.7689</ele>
        <time>2024-07-02T11:56:14.125Z</time>
      </trkpt>
      <trkpt lat="51.85528" lon="4.50844">
        <ele>45.766465</ele>
        <time>2024-07-02T11:56:17.138Z</time>
      </trkpt>
      <trkpt lat="51.85536" lon="4.50838">
        <ele>45.764257</ele>
        <time>2024-07-02T11:56:20.145Z</time>
      </trkpt>
      <trkpt lat="51.85547" lon="4.50837">
        <ele>45.761842</ele>
        <time>2024-07-02T11:56:23.127Z</time>
      </trkpt>
      <trkpt lat="51.85558" lon="4.50844">
        <ele>45.759209</ele>
        <time>2024-07-02T11:56:26.146Z</time>
      </trkpt>
      <trkpt lat="51.85564" lon="4.50861">
        <ele>45.774765</ele>
        <time>2024-07-02T11:56:29.142Z</time>
      </trkpt>
      <trkpt lat="51.85575" lon="4.50872">
        <ele>45.805978</ele>
        <time>2024-07-02T11:56:32.130Z</time>
      </trkpt>
      <trkpt lat="51.85588" lon="4.50871">
        <ele>45.836767</ele>
        <time>2024-07-02T11:56:35.145Z</time>
      </trkpt>
      <trkpt lat="51.85599" lon="4.50871">
        <ele>45.866059</ele>
        <time>2024-07-02T11:56:38.134Z</time>
      </trkpt>
      <trkpt lat="51.85612" lon="4.50871">
        <ele>45.897829</ele>
        <time>2024-07-02T11:56:41.140Z</time>
      </trkpt>
      <trkpt lat="51.85625" lon="4.5087">
        <ele>45.928961</ele>
        <time>2024-07-02T11:56:44.138Z</time>
      </trkpt>
      <trkpt lat="51.85637" lon="4.50868">
        <ele>45.959613</ele>
        <time>2024-07-02T11:56:47.139Z</time>
      </trkpt>
      <trkpt lat="51.85649" lon="4.50865">
        <ele>45.990399</ele>
        <time>2024-07-02T11:56:50.140Z</time>
      </trkpt>
      <trkpt lat="51.85662" lon="4.50864">
        <ele>46.021972</ele>
        <time>2024-07-02T11:56:53.143Z</time>
      </trkpt>
      <trkpt lat="51.85674" lon="4.50862">
        <ele>46.052338</ele>
        <time>2024-07-02T11:56:56.143Z</time>
      </trkpt>
      <trkpt lat="51.85687" lon="4.50862">
        <ele>46.083634</ele>
        <time>2024-07-02T11:56:59.141Z</time>
      </trkpt>
      <trkpt lat="51.857" lon="4.5086">
        <ele>46.11596</ele>
        <time>2024-07-02T11:57:02.135Z</time>
      </trkpt>
      <trkpt lat="51.85712" lon="4.50859">
        <ele>46.14682</ele>
        <time>2024-07-02T11:57:05.115Z</time>
      </trkpt>
      <trkpt lat="51.85725" lon="4.50858">
        <ele>46.177605</ele>
        <time>2024-07-02T11:57:08.147Z</time>
      </trkpt>
      <trkpt lat="51.85738" lon="4.50861">
        <ele>46.194632</ele>
        <time>2024-07-02T11:57:11.141Z</time>
      </trkpt>
      <trkpt lat="51.85749" lon="4.50861">
        <ele>46.147664</ele>
        <time>2024-07-02T11:57:14.153Z</time>
      </trkpt>
      <trkpt lat="51.85761" lon="4.50861">
        <ele>46.102699</ele>
        <time>2024-07-02T11:57:17.146Z</time>
      </trkpt>
      <trkpt lat="51.85773" lon="4.50863">
        <ele>46.053479</ele>
        <time>2024-07-02T11:57:20.140Z</time>
      </trkpt>
      <trkpt lat="51.85785" lon="4.50865">
        <ele>46.003587</ele>
        <time>2024-07-02T11:57:23.141Z</time>
      </trkpt>
      <trkpt lat="51.85796" lon="4.50866">
        <ele>45.959751</ele>
        <time>2024-07-02T11:57:26.133Z</time>
      </trkpt>
      <trkpt lat="51.85807" lon="4.5087">
        <ele>45.913477</ele>
        <time>2024-07-02T11:57:29.136Z</time>
      </trkpt>
      <trkpt lat="51.85818" lon="4.50873">
        <ele>45.869098</ele>
        <time>2024-07-02T11:57:32.149Z</time>
      </trkpt>
      <trkpt lat="51.85829" lon="4.50876">
        <ele>45.823844</ele>
        <time>2024-07-02T11:57:35.142Z</time>
      </trkpt>
      <trkpt lat="51.8584" lon="4.5088">
        <ele>45.7801</ele>
        <time>2024-07-02T11:57:38.148Z</time>
      </trkpt>
      <trkpt lat="51.8585" lon="4.50884">
        <ele>45.738182</ele>
        <time>2024-07-02T11:57:41.149Z</time>
      </trkpt>
      <trkpt lat="51.85861" lon="4.50888">
        <ele>45.694266</ele>
        <time>2024-07-02T11:57:44.139Z</time>
      </trkpt>
      <trkpt lat="51.85871" lon="4.50892">
        <ele>45.651186</ele>
        <time>2024-07-02T11:57:47.147Z</time>
      </trkpt>
      <trkpt lat="51.8588" lon="4.50888">
        <ele>45.614885</ele>
        <time>2024-07-02T11:57:50.148Z</time>
      </trkpt>
      <trkpt lat="51.85884" lon="4.50872">
        <ele>45.571528</ele>
        <time>2024-07-02T11:57:54.145Z</time>
      </trkpt>
      <trkpt lat="51.85888" lon="4.50853">
        <ele>45.52309</ele>
        <time>2024-07-02T11:58:50.125Z</time>
      </trkpt>
      <trkpt lat="51.85891" lon="4.50836">
        <ele>45.480598</ele>
        <time>2024-07-02T11:58:54.125Z</time>
      </trkpt>
      <trkpt lat="51.85894" lon="4.50822">
        <ele>45.45914</ele>
        <time>2024-07-02T11:58:57.141Z</time>
      </trkpt>
      <trkpt lat="51.85896" lon="4.50807">
        <ele>45.436264</ele>
        <time>2024-07-02T11:59:00.140Z</time>
      </trkpt>
      <trkpt lat="51.85899" lon="4.50791">
        <ele>45.411124</ele>
        <time>2024-07-02T11:59:03.128Z</time>
      </trkpt>
      <trkpt lat="51.85902" lon="4.50773">
        <ele>45.383293</ele>
        <time>2024-07-02T11:59:06.136Z</time>
      </trkpt>
      <trkpt lat="51.85906" lon="4.50755">
        <ele>45.355624</ele>
        <time>2024-07-02T11:59:09.120Z</time>
      </trkpt>
      <trkpt lat="51.85909" lon="4.50736">
        <ele>45.327037</ele>
        <time>2024-07-02T11:59:12.133Z</time>
      </trkpt>
      <trkpt lat="51.85913" lon="4.50718">
        <ele>45.298078</ele>
        <time>2024-07-02T11:59:15.134Z</time>
      </trkpt>
      <trkpt lat="51.85916" lon="4.50701">
        <ele>45.272143</ele>
        <time>2024-07-02T11:59:18.138Z</time>
      </trkpt>
      <trkpt lat="51.8592" lon="4.50682">
        <ele>45.243044</ele>
        <time>2024-07-02T11:59:21.143Z</time>
      </trkpt>
      <trkpt lat="51.85922" lon="4.50663">
        <ele>45.214681</ele>
        <time>2024-07-02T11:59:24.132Z</time>
      </trkpt>
      <trkpt lat="51.85926" lon="4.50644">
        <ele>45.184183</ele>
        <time>2024-07-02T11:59:27.143Z</time>
      </trkpt>
      <trkpt lat="51.8593" lon="4.50624">
        <ele>45.153684</ele>
        <time>2024-07-02T11:59:30.125Z</time>
      </trkpt>
      <trkpt lat="51.85934" lon="4.50605">
        <ele>45.124039</ele>
        <time>2024-07-02T11:59:33.136Z</time>
      </trkpt>
      <trkpt lat="51.85938" lon="4.50585">
        <ele>45.093475</ele>
        <time>2024-07-02T11:59:36.169Z</time>
      </trkpt>
      <trkpt lat="51.8594" lon="4.50571">
        <ele>45.071724</ele>
        <time>2024-07-02T11:59:38.150Z</time>
      </trkpt>
      <trkpt lat="51.85944" lon="4.50552">
        <ele>45.101086</ele>
        <time>2024-07-02T11:59:41.146Z</time>
      </trkpt>
      <trkpt lat="51.85947" lon="4.50532">
        <ele>45.253288</ele>
        <time>2024-07-02T11:59:44.156Z</time>
      </trkpt>
      <trkpt lat="51.85951" lon="4.50513">
        <ele>45.393779</ele>
        <time>2024-07-02T11:59:47.139Z</time>
      </trkpt>
      <trkpt lat="51.85954" lon="4.50497">
        <ele>45.517336</ele>
        <time>2024-07-02T11:59:50.137Z</time>
      </trkpt>
      <trkpt lat="51.85957" lon="4.50479">
        <ele>45.652279</ele>
        <time>2024-07-02T11:59:54.159Z</time>
      </trkpt>
      <trkpt lat="51.85961" lon="4.5046">
        <ele>45.794814</ele>
        <time>2024-07-02T11:59:57.128Z</time>
      </trkpt>
      <trkpt lat="51.85963" lon="4.50443">
        <ele>45.921327</ele>
        <time>2024-07-02T12:00:00.150Z</time>
      </trkpt>
      <trkpt lat="51.85966" lon="4.50427">
        <ele>46.03832</ele>
        <time>2024-07-02T12:00:03.139Z</time>
      </trkpt>
      <trkpt lat="51.8597" lon="4.50412">
        <ele>46.15457</ele>
        <time>2024-07-02T12:00:06.141Z</time>
      </trkpt>
      <trkpt lat="51.85972" lon="4.50396">
        <ele>46.275096</ele>
        <time>2024-07-02T12:00:09.133Z</time>
      </trkpt>
      <trkpt lat="51.85976" lon="4.50379">
        <ele>46.404338</ele>
        <time>2024-07-02T12:00:12.168Z</time>
      </trkpt>
      <trkpt lat="51.8598" lon="4.50361">
        <ele>46.545248</ele>
        <time>2024-07-02T12:00:15.121Z</time>
      </trkpt>
      <trkpt lat="51.85983" lon="4.50342">
        <ele>46.689435</ele>
        <time>2024-07-02T12:00:18.133Z</time>
      </trkpt>
      <trkpt lat="51.85986" lon="4.50323">
        <ele>46.82679</ele>
        <time>2024-07-02T12:00:21.133Z</time>
      </trkpt>
      <trkpt lat="51.85989" lon="4.50305">
        <ele>46.962884</ele>
        <time>2024-07-02T12:00:24.142Z</time>
      </trkpt>
      <trkpt lat="51.85992" lon="4.50289">
        <ele>47.083459</ele>
        <time>2024-07-02T12:00:27.148Z</time>
      </trkpt>
      <trkpt lat="51.85995" lon="4.50271">
        <ele>47.225391</ele>
        <time>2024-07-02T12:00:31.135Z</time>
      </trkpt>
      <trkpt lat="51.86007" lon="4.5027">
        <ele>47.374834</ele>
        <time>2024-07-02T12:00:36.140Z</time>
      </trkpt>
      <trkpt lat="51.86016" lon="4.50274">
        <ele>47.502626</ele>
        <time>2024-07-02T12:00:39.164Z</time>
      </trkpt>
      <trkpt lat="51.86025" lon="4.50277">
        <ele>47.626022</ele>
        <time>2024-07-02T12:00:42.129Z</time>
      </trkpt>
      <trkpt lat="51.86034" lon="4.5028">
        <ele>47.746719</ele>
        <time>2024-07-02T12:00:45.111Z</time>
      </trkpt>
      <trkpt lat="51.86045" lon="4.50288">
        <ele>47.902684</ele>
        <time>2024-07-02T12:00:48.140Z</time>
      </trkpt>
      <trkpt lat="51.86057" lon="4.50293">
        <ele>48.056725</ele>
        <time>2024-07-02T12:00:51.136Z</time>
      </trkpt>
      <trkpt lat="51.86065" lon="4.50296">
        <ele>48.175134</ele>
        <time>2024-07-02T12:00:54.137Z</time>
      </trkpt>
      <trkpt lat="51.86078" lon="4.50302">
        <ele>48.34189</ele>
        <time>2024-07-02T12:00:57.133Z</time>
      </trkpt>
      <trkpt lat="51.8609" lon="4.50308">
        <ele>48.511936</ele>
        <time>2024-07-02T12:01:00.136Z</time>
      </trkpt>
      <trkpt lat="51.86101" lon="4.50312">
        <ele>48.65758</ele>
        <time>2024-07-02T12:01:03.135Z</time>
      </trkpt>
      <trkpt lat="51.8611" lon="4.50317">
        <ele>48.784117</ele>
        <time>2024-07-02T12:01:06.146Z</time>
      </trkpt>
      <trkpt lat="51.8612" lon="4.50321">
        <ele>48.913578</ele>
        <time>2024-07-02T12:01:09.151Z</time>
      </trkpt>
      <trkpt lat="51.8613" lon="4.50325">
        <ele>49.050824</ele>
        <time>2024-07-02T12:01:12.164Z</time>
      </trkpt>
      <trkpt lat="51.86142" lon="4.50332">
        <ele>49.215633</ele>
        <time>2024-07-02T12:01:15.134Z</time>
      </trkpt>
      <trkpt lat="51.86154" lon="4.50337">
        <ele>49.373464</ele>
        <time>2024-07-02T12:01:18.144Z</time>
      </trkpt>
      <trkpt lat="51.86166" lon="4.50339">
        <ele>49.509215</ele>
        <time>2024-07-02T12:01:21.117Z</time>
      </trkpt>
      <trkpt lat="51.86178" lon="4.50343">
        <ele>49.528321</ele>
        <time>2024-07-02T12:01:24.130Z</time>
      </trkpt>
      <trkpt lat="51.86189" lon="4.5035">
        <ele>49.547542</ele>
        <time>2024-07-02T12:01:27.140Z</time>
      </trkpt>
      <trkpt lat="51.862" lon="4.50356">
        <ele>49.565428</ele>
        <time>2024-07-02T12:01:30.140Z</time>
      </trkpt>
      <trkpt lat="51.8621" lon="4.5036">
        <ele>49.582222</ele>
        <time>2024-07-02T12:01:33.121Z</time>
      </trkpt>
      <trkpt lat="51.8622" lon="4.50363">
        <ele>49.598508</ele>
        <time>2024-07-02T12:01:36.137Z</time>
      </trkpt>
      <trkpt lat="51.86229" lon="4.50366">
        <ele>49.613815</ele>
        <time>2024-07-02T12:01:39.135Z</time>
      </trkpt>
      <trkpt lat="51.86239" lon="4.5037">
        <ele>49.629476</ele>
        <time>2024-07-02T12:01:43.137Z</time>
      </trkpt>
      <trkpt lat="51.86249" lon="4.50369">
        <ele>49.645771</ele>
        <time>2024-07-02T12:01:46.136Z</time>
      </trkpt>
      <trkpt lat="51.8626" lon="4.50372">
        <ele>49.662858</ele>
        <time>2024-07-02T12:01:49.160Z</time>
      </trkpt>
      <trkpt lat="51.8627" lon="4.50374">
        <ele>49.679095</ele>
        <time>2024-07-02T12:01:52.139Z</time>
      </trkpt>
      <trkpt lat="51.86279" lon="4.50378">
        <ele>49.693474</ele>
        <time>2024-07-02T12:01:55.119Z</time>
      </trkpt>
      <trkpt lat="51.86288" lon="4.5038">
        <ele>49.708736</ele>
        <time>2024-07-02T12:01:58.153Z</time>
      </trkpt>
      <trkpt lat="51.86298" lon="4.50379">
        <ele>49.72423</ele>
        <time>2024-07-02T12:02:01.132Z</time>
      </trkpt>
      <trkpt lat="51.86307" lon="4.5038">
        <ele>49.739565</ele>
        <time>2024-07-02T12:02:04.154Z</time>
      </trkpt>
      <trkpt lat="51.86319" lon="4.5038">
        <ele>49.758404</ele>
        <time>2024-07-02T12:02:08.138Z</time>
      </trkpt>
      <trkpt lat="51.86328" lon="4.50381">
        <ele>49.773277</ele>
        <time>2024-07-02T12:02:11.136Z</time>
      </trkpt>
      <trkpt lat="51.86338" lon="4.50381">
        <ele>49.788292</ele>
        <time>2024-07-02T12:02:14.123Z</time>
      </trkpt>
      <trkpt lat="51.86347" lon="4.5038">
        <ele>49.886604</ele>
        <time>2024-07-02T12:02:17.135Z</time>
      </trkpt>
      <trkpt lat="51.86357" lon="4.50379">
        <ele>50.014321</ele>
        <time>2024-07-02T12:02:20.133Z</time>
      </trkpt>
      <trkpt lat="51.86366" lon="4.50378">
        <ele>50.131354</ele>
        <time>2024-07-02T12:02:23.129Z</time>
      </trkpt>
      <trkpt lat="51.86378" lon="4.50375">
        <ele>50.286951</ele>
        <time>2024-07-02T12:02:27.131Z</time>
      </trkpt>
      <trkpt lat="51.86387" lon="4.50373">
        <ele>50.4086</ele>
        <time>2024-07-02T12:02:30.127Z</time>
      </trkpt>
      <trkpt lat="51.86397" lon="4.50371">
        <ele>50.530049</ele>
        <time>2024-07-02T12:02:33.128Z</time>
      </trkpt>
      <trkpt lat="51.86406" lon="4.5037">
        <ele>50.655107</ele>
        <time>2024-07-02T12:02:36.129Z</time>
      </trkpt>
      <trkpt lat="51.86418" lon="4.50367">
        <ele>50.807183</ele>
        <time>2024-07-02T12:02:40.126Z</time>
      </trkpt>
      <trkpt lat="51.8643" lon="4.50365">
        <ele>50.96331</ele>
        <time>2024-07-02T12:02:44.137Z</time>
      </trkpt>
      <trkpt lat="51.86442" lon="4.50363">
        <ele>51.116553</ele>
        <time>2024-07-02T12:02:48.139Z</time>
      </trkpt>
      <trkpt lat="51.86451" lon="4.5036">
        <ele>51.234697</ele>
        <time>2024-07-02T12:02:51.134Z</time>
      </trkpt>
      <trkpt lat="51.8646" lon="4.50359">
        <ele>51.355609</ele>
        <time>2024-07-02T12:02:54.135Z</time>
      </trkpt>
      <trkpt lat="51.86469" lon="4.50357">
        <ele>51.477983</ele>
        <time>2024-07-02T12:02:57.148Z</time>
      </trkpt>
      <trkpt lat="51.86478" lon="4.50355">
        <ele>51.5953</ele>
        <time>2024-07-02T12:03:00.146Z</time>
      </trkpt>
      <trkpt lat="51.86488" lon="4.50354">
        <ele>51.718858</ele>
        <time>2024-07-02T12:03:03.137Z</time>
      </trkpt>
      <trkpt lat="51.86498" lon="4.50351">
        <ele>51.847895</ele>
        <time>2024-07-02T12:03:06.136Z</time>
      </trkpt>
      <trkpt lat="51.86507" lon="4.5035">
        <ele>51.975331</ele>
        <time>2024-07-02T12:03:09.144Z</time>
      </trkpt>
      <trkpt lat="51.86517" lon="4.50349">
        <ele>52.097808</ele>
        <time>2024-07-02T12:03:12.137Z</time>
      </trkpt>
      <trkpt lat="51.86526" lon="4.50347">
        <ele>52.100882</ele>
        <time>2024-07-02T12:03:15.127Z</time>
      </trkpt>
      <trkpt lat="51.86537" lon="4.50344">
        <ele>52.068043</ele>
        <time>2024-07-02T12:03:19.129Z</time>
      </trkpt>
      <trkpt lat="51.86547" lon="4.50342">
        <ele>52.038791</ele>
        <time>2024-07-02T12:03:23.130Z</time>
      </trkpt>
      <trkpt lat="51.86558" lon="4.5034">
        <ele>52.003897</ele>
        <time>2024-07-02T12:03:27.148Z</time>
      </trkpt>
      <trkpt lat="51.86567" lon="4.50338">
        <ele>51.976763</ele>
        <time>2024-07-02T12:03:30.129Z</time>
      </trkpt>
      <trkpt lat="51.86576" lon="4.50336">
        <ele>51.948976</ele>
        <time>2024-07-02T12:03:33.147Z</time>
      </trkpt>
      <trkpt lat="51.86588" lon="4.50334">
        <ele>51.914017</ele>
        <time>2024-07-02T12:03:37.123Z</time>
      </trkpt>
      <trkpt lat="51.86599" lon="4.50331">
        <ele>51.880579</ele>
        <time>2024-07-02T12:03:41.140Z</time>
      </trkpt>
      <trkpt lat="51.86611" lon="4.50329">
        <ele>51.844184</ele>
        <time>2024-07-02T12:03:45.119Z</time>
      </trkpt>
      <trkpt lat="51.8662" lon="4.50327">
        <ele>51.815006</ele>
        <time>2024-07-02T12:03:48.138Z</time>
      </trkpt>
      <trkpt lat="51.8663" lon="4.50325">
        <ele>51.786976</ele>
        <time>2024-07-02T12:03:51.139Z</time>
      </trkpt>
      <trkpt lat="51.86639" lon="4.50323">
        <ele>51.757127</ele>
        <time>2024-07-02T12:03:54.134Z</time>
      </trkpt>
      <trkpt lat="51.8665" lon="4.50321">
        <ele>51.726451</ele>
        <time>2024-07-02T12:03:57.133Z</time>
      </trkpt>
      <trkpt lat="51.86659" lon="4.50319">
        <ele>51.698096</ele>
        <time>2024-07-02T12:04:00.142Z</time>
      </trkpt>
      <trkpt lat="51.86668" lon="4.50317">
        <ele>51.669239</ele>
        <time>2024-07-02T12:04:03.128Z</time>
      </trkpt>
      <trkpt lat="51.86678" lon="4.50316">
        <ele>51.639504</ele>
        <time>2024-07-02T12:04:06.125Z</time>
      </trkpt>
      <trkpt lat="51.8669" lon="4.50313">
        <ele>51.604545</ele>
        <time>2024-07-02T12:04:09.126Z</time>
      </trkpt>
      <trkpt lat="51.86701" lon="4.50312">
        <ele>51.481899</ele>
        <time>2024-07-02T12:04:12.128Z</time>
      </trkpt>
      <trkpt lat="51.86711" lon="4.50309">
        <ele>51.243</ele>
        <time>2024-07-02T12:04:14.135Z</time>
      </trkpt>
      <trkpt lat="51.8672" lon="4.50306">
        <ele>51.020035</ele>
        <time>2024-07-02T12:04:16.147Z</time>
      </trkpt>
      <trkpt lat="51.86733" lon="4.50302">
        <ele>50.675747</ele>
        <time>2024-07-02T12:04:19.154Z</time>
      </trkpt>
      <trkpt lat="51.86743" lon="4.50298">
        <ele>50.43279</ele>
        <time>2024-07-02T12:04:21.130Z</time>
      </trkpt>
      <trkpt lat="51.86753" lon="4.50294">
        <ele>50.175843</ele>
        <time>2024-07-02T12:04:23.129Z</time>
      </trkpt>
      <trkpt lat="51.86763" lon="4.5029">
        <ele>49.912209</ele>
        <time>2024-07-02T12:04:25.107Z</time>
      </trkpt>
      <trkpt lat="51.86774" lon="4.50283">
        <ele>49.640662</ele>
        <time>2024-07-02T12:04:27.123Z</time>
      </trkpt>
      <trkpt lat="51.86784" lon="4.50277">
        <ele>49.370342</ele>
        <time>2024-07-02T12:04:29.137Z</time>
      </trkpt>
      <trkpt lat="51.86794" lon="4.50269">
        <ele>49.096053</ele>
        <time>2024-07-02T12:04:31.137Z</time>
      </trkpt>
      <trkpt lat="51.86804" lon="4.5026">
        <ele>48.811841</ele>
        <time>2024-07-02T12:04:33.128Z</time>
      </trkpt>
      <trkpt lat="51.86814" lon="4.50251">
        <ele>48.525479</ele>
        <time>2024-07-02T12:04:35.122Z</time>
      </trkpt>
      <trkpt lat="51.86823" lon="4.50242">
        <ele>48.262471</ele>
        <time>2024-07-02T12:04:37.135Z</time>
      </trkpt>
      <trkpt lat="51.86831" lon="4.50232">
        <ele>48.017575</ele>
        <time>2024-07-02T12:04:39.126Z</time>
      </trkpt>
      <trkpt lat="51.86841" lon="4.50219">
        <ele>47.702398</ele>
        <time>2024-07-02T12:04:42.127Z</time>
      </trkpt>
      <trkpt lat="51.8685" lon="4.50211">
        <ele>47.443555</ele>
        <time>2024-07-02T12:04:45.143Z</time>
      </trkpt>
      <trkpt lat="51.86859" lon="4.50209">
        <ele>47.208625</ele>
        <time>2024-07-02T12:04:49.128Z</time>
      </trkpt>
      <trkpt lat="51.86869" lon="4.50206">
        <ele>47.034602</ele>
        <time>2024-07-02T12:04:58.154Z</time>
      </trkpt>
      <trkpt lat="51.86871" lon="4.50202">
        <ele>46.990372</ele>
        <time>2024-07-02T12:05:10.976Z</time>
      </trkpt>
      <trkpt lat="51.8688" lon="4.50207">
        <ele>46.845709</ele>
        <time>2024-07-02T12:08:33.115Z</time>
      </trkpt>
      <trkpt lat="51.8689" lon="4.50209">
        <ele>46.705431</ele>
        <time>2024-07-02T12:08:37.143Z</time>
      </trkpt>
      <trkpt lat="51.86901" lon="4.50209">
        <ele>46.550212</ele>
        <time>2024-07-02T12:08:42.160Z</time>
      </trkpt>
      <trkpt lat="51.8691" lon="4.5021">
        <ele>46.407931</ele>
        <time>2024-07-02T12:08:47.144Z</time>
      </trkpt>
      <trkpt lat="51.86921" lon="4.50212">
        <ele>46.254785</ele>
        <time>2024-07-02T12:08:51.153Z</time>
      </trkpt>
      <trkpt lat="51.8693" lon="4.5021">
        <ele>46.122114</ele>
        <time>2024-07-02T12:08:54.131Z</time>
      </trkpt>
      <trkpt lat="51.86939" lon="4.5021">
        <ele>45.987221</ele>
        <time>2024-07-02T12:08:57.142Z</time>
      </trkpt>
      <trkpt lat="51.86951" lon="4.5021">
        <ele>45.820419</ele>
        <time>2024-07-02T12:09:01.135Z</time>
      </trkpt>
      <trkpt lat="51.86959" lon="4.50197">
        <ele>45.650232</ele>
        <time>2024-07-02T12:09:05.139Z</time>
      </trkpt>
      <trkpt lat="51.86967" lon="4.50188">
        <ele>45.51261</ele>
        <time>2024-07-02T12:09:08.135Z</time>
      </trkpt>
      <trkpt lat="51.86977" lon="4.50184">
        <ele>45.358543</ele>
        <time>2024-07-02T12:09:11.128Z</time>
      </trkpt>
      <trkpt lat="51.86987" lon="4.50179">
        <ele>45.205931</ele>
        <time>2024-07-02T12:09:14.156Z</time>
      </trkpt>
      <trkpt lat="51.86998" lon="4.50175">
        <ele>45.047436</ele>
        <time>2024-07-02T12:09:17.119Z</time>
      </trkpt>
      <trkpt lat="51.87008" lon="4.50171">
        <ele>44.902433</ele>
        <time>2024-07-02T12:09:20.154Z</time>
      </trkpt>
      <trkpt lat="51.87018" lon="4.50166">
        <ele>44.749255</ele>
        <time>2024-07-02T12:09:23.145Z</time>
      </trkpt>
      <trkpt lat="51.87029" lon="4.50162">
        <ele>44.587904</ele>
        <time>2024-07-02T12:09:26.147Z</time>
      </trkpt>
      <trkpt lat="51.8704" lon="4.50159">
        <ele>44.586411</ele>
        <time>2024-07-02T12:09:29.118Z</time>
      </trkpt>
      <trkpt lat="51.87053" lon="4.50155">
        <ele>44.68571</ele>
        <time>2024-07-02T12:09:32.137Z</time>
      </trkpt>
      <trkpt lat="51.87065" lon="4.50152">
        <ele>44.783147</ele>
        <time>2024-07-02T12:09:35.116Z</time>
      </trkpt>
      <trkpt lat="51.87076" lon="4.50149">
        <ele>44.870498</ele>
        <time>2024-07-02T12:09:38.138Z</time>
      </trkpt>
      <trkpt lat="51.87088" lon="4.50145">
        <ele>44.9659</ele>
        <time>2024-07-02T12:09:41.147Z</time>
      </trkpt>
      <trkpt lat="51.871" lon="4.50141">
        <ele>45.061579</ele>
        <time>2024-07-02T12:09:44.151Z</time>
      </trkpt>
      <trkpt lat="51.87113" lon="4.50138">
        <ele>45.163384</ele>
        <time>2024-07-02T12:09:47.137Z</time>
      </trkpt>
      <trkpt lat="51.87127" lon="4.50136">
        <ele>45.266677</ele>
        <time>2024-07-02T12:09:50.145Z</time>
      </trkpt>
      <trkpt lat="51.8714" lon="4.50134">
        <ele>45.367896</ele>
        <time>2024-07-02T12:09:53.158Z</time>
      </trkpt>
      <trkpt lat="51.87152" lon="4.50132">
        <ele>45.465167</ele>
        <time>2024-07-02T12:09:56.137Z</time>
      </trkpt>
      <trkpt lat="51.87166" lon="4.50132">
        <ele>45.568985</ele>
        <time>2024-07-02T12:09:59.143Z</time>
      </trkpt>
      <trkpt lat="51.87175" lon="4.50133">
        <ele>45.64027</ele>
        <time>2024-07-02T12:10:01.135Z</time>
      </trkpt>
      <trkpt lat="51.87188" lon="4.50133">
        <ele>45.74488</ele>
        <time>2024-07-02T12:10:04.144Z</time>
      </trkpt>
      <trkpt lat="51.87202" lon="4.50135">
        <ele>45.849385</ele>
        <time>2024-07-02T12:10:07.145Z</time>
      </trkpt>
      <trkpt lat="51.87211" lon="4.50138">
        <ele>45.920388</ele>
        <time>2024-07-02T12:10:09.154Z</time>
      </trkpt>
      <trkpt lat="51.87224" lon="4.50141">
        <ele>45.852827</ele>
        <time>2024-07-02T12:10:12.129Z</time>
      </trkpt>
      <trkpt lat="51.87232" lon="4.50144">
        <ele>45.804682</ele>
        <time>2024-07-02T12:10:14.128Z</time>
      </trkpt>
      <trkpt lat="51.87241" lon="4.50148">
        <ele>45.755544</ele>
        <time>2024-07-02T12:10:16.135Z</time>
      </trkpt>
      <trkpt lat="51.8725" lon="4.50152">
        <ele>45.707275</ele>
        <time>2024-07-02T12:10:18.132Z</time>
      </trkpt>
      <trkpt lat="51.87263" lon="4.50155">
        <ele>45.637205</ele>
        <time>2024-07-02T12:10:21.148Z</time>
      </trkpt>
      <trkpt lat="51.87273" lon="4.50156">
        <ele>45.587117</ele>
        <time>2024-07-02T12:10:23.133Z</time>
      </trkpt>
      <trkpt lat="51.87282" lon="4.50155">
        <ele>45.535437</ele>
        <time>2024-07-02T12:10:25.118Z</time>
      </trkpt>
      <trkpt lat="51.87294" lon="4.50148">
        <ele>45.467796</ele>
        <time>2024-07-02T12:10:28.134Z</time>
      </trkpt>
      <trkpt lat="51.87305" lon="4.50138">
        <ele>45.400734</ele>
        <time>2024-07-02T12:10:31.118Z</time>
      </trkpt>
      <trkpt lat="51.87313" lon="4.5013">
        <ele>45.351555</ele>
        <time>2024-07-02T12:10:33.135Z</time>
      </trkpt>
      <trkpt lat="51.87322" lon="4.5012">
        <ele>45.296311</ele>
        <time>2024-07-02T12:10:35.134Z</time>
      </trkpt>
      <trkpt lat="51.87329" lon="4.50113">
        <ele>45.248113</ele>
        <time>2024-07-02T12:10:37.141Z</time>
      </trkpt>
      <trkpt lat="51.87338" lon="4.50106">
        <ele>45.198042</ele>
        <time>2024-07-02T12:10:39.134Z</time>
      </trkpt>
      <trkpt lat="51.87346" lon="4.501">
        <ele>45.149495</ele>
        <time>2024-07-02T12:10:41.138Z</time>
      </trkpt>
      <trkpt lat="51.87354" lon="4.50094">
        <ele>45.100661</ele>
        <time>2024-07-02T12:10:43.117Z</time>
      </trkpt>
      <trkpt lat="51.87363" lon="4.50086">
        <ele>45.048564</ele>
        <time>2024-07-02T12:10:45.125Z</time>
      </trkpt>
      <trkpt lat="51.87372" lon="4.50081">
        <ele>44.997576</ele>
        <time>2024-07-02T12:10:47.131Z</time>
      </trkpt>
      <trkpt lat="51.87381" lon="4.50076">
        <ele>44.956078</ele>
        <time>2024-07-02T12:10:49.142Z</time>
      </trkpt>
      <trkpt lat="51.8739" lon="4.50071">
        <ele>44.931413</ele>
        <time>2024-07-02T12:10:51.149Z</time>
      </trkpt>
      <trkpt lat="51.87402" lon="4.50066">
        <ele>44.897261</ele>
        <time>2024-07-02T12:10:54.125Z</time>
      </trkpt>
      <trkpt lat="51.87414" lon="4.50059">
        <ele>44.862487</ele>
        <time>2024-07-02T12:10:57.140Z</time>
      </trkpt>
      <trkpt lat="51.87425" lon="4.50052">
        <ele>44.831263</ele>
        <time>2024-07-02T12:11:00.133Z</time>
      </trkpt>
      <trkpt lat="51.87436" lon="4.50043">
        <ele>44.797364</ele>
        <time>2024-07-02T12:11:03.121Z</time>
      </trkpt>
      <trkpt lat="51.87445" lon="4.50034">
        <ele>44.768384</ele>
        <time>2024-07-02T12:11:06.135Z</time>
      </trkpt>
      <trkpt lat="51.87455" lon="4.50031">
        <ele>44.741295</ele>
        <time>2024-07-02T12:11:09.121Z</time>
      </trkpt>
      <trkpt lat="51.87465" lon="4.50032">
        <ele>44.715573</ele>
        <time>2024-07-02T12:11:12.135Z</time>
      </trkpt>
      <trkpt lat="51.87474" lon="4.50029">
        <ele>44.689774</ele>
        <time>2024-07-02T12:11:17.125Z</time>
      </trkpt>
      <trkpt lat="51.87483" lon="4.50023">
        <ele>44.664</ele>
        <time>2024-07-02T12:11:26.132Z</time>
      </trkpt>
      <trkpt lat="51.87496" lon="4.50022">
        <ele>44.6294</ele>
        <time>2024-07-02T12:11:30.128Z</time>
      </trkpt>
      <trkpt lat="51.87505" lon="4.5002">
        <ele>44.602378</ele>
        <time>2024-07-02T12:11:32.143Z</time>
      </trkpt>
      <trkpt lat="51.87516" lon="4.50015">
        <ele>44.572357</ele>
        <time>2024-07-02T12:11:34.153Z</time>
      </trkpt>
      <trkpt lat="51.87528" lon="4.50009">
        <ele>44.53907</ele>
        <time>2024-07-02T12:11:37.135Z</time>
      </trkpt>
      <trkpt lat="51.87538" lon="4.50003">
        <ele>44.510921</ele>
        <time>2024-07-02T12:11:40.141Z</time>
      </trkpt>
      <trkpt lat="51.87548" lon="4.49998">
        <ele>44.482776</ele>
        <time>2024-07-02T12:11:43.135Z</time>
      </trkpt>
      <trkpt lat="51.87557" lon="4.49992">
        <ele>44.460901</ele>
        <time>2024-07-02T12:11:46.142Z</time>
      </trkpt>
      <trkpt lat="51.87568" lon="4.49986">
        <ele>44.436581</ele>
        <time>2024-07-02T12:11:49.112Z</time>
      </trkpt>
      <trkpt lat="51.8758" lon="4.4998">
        <ele>44.409207</ele>
        <time>2024-07-02T12:11:52.155Z</time>
      </trkpt>
      <trkpt lat="51.87589" lon="4.49976">
        <ele>44.389779</ele>
        <time>2024-07-02T12:11:54.149Z</time>
      </trkpt>
      <trkpt lat="51.87601" lon="4.49968">
        <ele>44.363777</ele>
        <time>2024-07-02T12:11:57.133Z</time>
      </trkpt>
      <trkpt lat="51.87609" lon="4.49962">
        <ele>44.344012</ele>
        <time>2024-07-02T12:11:59.101Z</time>
      </trkpt>
      <trkpt lat="51.87621" lon="4.49954">
        <ele>44.317961</ele>
        <time>2024-07-02T12:12:02.154Z</time>
      </trkpt>
      <trkpt lat="51.87633" lon="4.49946">
        <ele>44.290143</ele>
        <time>2024-07-02T12:12:05.118Z</time>
      </trkpt>
      <trkpt lat="51.87644" lon="4.49938">
        <ele>44.263897</ele>
        <time>2024-07-02T12:12:08.159Z</time>
      </trkpt>
      <trkpt lat="51.87654" lon="4.49932">
        <ele>44.24253</ele>
        <time>2024-07-02T12:12:10.134Z</time>
      </trkpt>
      <trkpt lat="51.87663" lon="4.49926">
        <ele>44.22209</ele>
        <time>2024-07-02T12:12:12.142Z</time>
      </trkpt>
      <trkpt lat="51.87672" lon="4.4992">
        <ele>44.201204</ele>
        <time>2024-07-02T12:12:14.153Z</time>
      </trkpt>
      <trkpt lat="51.87681" lon="4.49913">
        <ele>44.180488</ele>
        <time>2024-07-02T12:12:16.162Z</time>
      </trkpt>
      <trkpt lat="51.8769" lon="4.49907">
        <ele>44.159949</ele>
        <time>2024-07-02T12:12:18.143Z</time>
      </trkpt>
      <trkpt lat="51.87699" lon="4.499">
        <ele>44.138796</ele>
        <time>2024-07-02T12:12:20.135Z</time>
      </trkpt>
      <trkpt lat="51.87708" lon="4.49893">
        <ele>44.118295</ele>
        <time>2024-07-02T12:12:22.156Z</time>
      </trkpt>
      <trkpt lat="51.87716" lon="4.49887">
        <ele>44.100668</ele>
        <time>2024-07-02T12:12:24.148Z</time>
      </trkpt>
      <trkpt lat="51.87726" lon="4.49884">
        <ele>44.098085</ele>
        <time>2024-07-02T12:12:26.134Z</time>
      </trkpt>
      <trkpt lat="51.87735" lon="4.49884">
        <ele>44.095592</ele>
        <time>2024-07-02T12:12:28.137Z</time>
      </trkpt>
      <trkpt lat="51.87744" lon="4.49883">
        <ele>44.0931</ele>
        <time>2024-07-02T12:12:30.135Z</time>
      </trkpt>
      <trkpt lat="51.87753" lon="4.49882">
        <ele>44.090697</ele>
        <time>2024-07-02T12:12:32.140Z</time>
      </trkpt>
      <trkpt lat="51.87766" lon="4.49878">
        <ele>44.087241</ele>
        <time>2024-07-02T12:12:35.139Z</time>
      </trkpt>
      <trkpt lat="51.87779" lon="4.4987">
        <ele>44.083721</ele>
        <time>2024-07-02T12:12:38.138Z</time>
      </trkpt>
      <trkpt lat="51.87791" lon="4.49859">
        <ele>44.080121</ele>
        <time>2024-07-02T12:12:41.115Z</time>
      </trkpt>
      <trkpt lat="51.87802" lon="4.49849">
        <ele>44.076545</ele>
        <time>2024-07-02T12:12:44.140Z</time>
      </trkpt>
      <trkpt lat="51.8781" lon="4.49842">
        <ele>44.074111</ele>
        <time>2024-07-02T12:12:46.138Z</time>
      </trkpt>
      <trkpt lat="51.87822" lon="4.49831">
        <ele>44.070588</ele>
        <time>2024-07-02T12:12:49.146Z</time>
      </trkpt>
      <trkpt lat="51.87832" lon="4.49823">
        <ele>44.067743</ele>
        <time>2024-07-02T12:12:52.148Z</time>
      </trkpt>
      <trkpt lat="51.87841" lon="4.49814">
        <ele>44.064848</ele>
        <time>2024-07-02T12:12:55.122Z</time>
      </trkpt>
      <trkpt lat="51.87852" lon="4.49804">
        <ele>44.061526</ele>
        <time>2024-07-02T12:12:59.113Z</time>
      </trkpt>
      <trkpt lat="51.87861" lon="4.49794">
        <ele>44.058518</ele>
        <time>2024-07-02T12:13:02.106Z</time>
      </trkpt>
      <trkpt lat="51.87871" lon="4.49784">
        <ele>44.055421</ele>
        <time>2024-07-02T12:13:05.099Z</time>
      </trkpt>
      <trkpt lat="51.8788" lon="4.49772">
        <ele>44.039446</ele>
        <time>2024-07-02T12:13:08.099Z</time>
      </trkpt>
      <trkpt lat="51.87889" lon="4.49764">
        <ele>43.987398</ele>
        <time>2024-07-02T12:13:11.122Z</time>
      </trkpt>
      <trkpt lat="51.879" lon="4.4977">
        <ele>43.932381</ele>
        <time>2024-07-02T12:13:14.106Z</time>
      </trkpt>
      <trkpt lat="51.87909" lon="4.49785">
        <ele>43.875975</ele>
        <time>2024-07-02T12:13:17.117Z</time>
      </trkpt>
      <trkpt lat="51.87917" lon="4.49798">
        <ele>43.820709</ele>
        <time>2024-07-02T12:13:20.117Z</time>
      </trkpt>
      <trkpt lat="51.87926" lon="4.49813">
        <ele>43.759211</ele>
        <time>2024-07-02T12:13:23.106Z</time>
      </trkpt>
      <trkpt lat="51.87934" lon="4.49829">
        <ele>43.700225</ele>
        <time>2024-07-02T12:13:26.115Z</time>
      </trkpt>
      <trkpt lat="51.87942" lon="4.49846">
        <ele>43.638619</ele>
        <time>2024-07-02T12:13:29.102Z</time>
      </trkpt>
      <trkpt lat="51.87949" lon="4.49863">
        <ele>43.579821</ele>
        <time>2024-07-02T12:13:32.104Z</time>
      </trkpt>
      <trkpt lat="51.87957" lon="4.4988">
        <ele>43.517987</ele>
        <time>2024-07-02T12:13:35.114Z</time>
      </trkpt>
      <trkpt lat="51.87963" lon="4.49891">
        <ele>43.4752</ele>
        <time>2024-07-02T12:13:37.105Z</time>
      </trkpt>
      <trkpt lat="51.8797" lon="4.4991">
        <ele>43.413224</ele>
        <time>2024-07-02T12:13:40.099Z</time>
      </trkpt>
      <trkpt lat="51.87974" lon="4.49923">
        <ele>43.36936</ele>
        <time>2024-07-02T12:13:42.107Z</time>
      </trkpt>
      <trkpt lat="51.87982" lon="4.49941">
        <ele>43.306839</ele>
        <time>2024-07-02T12:13:45.105Z</time>
      </trkpt>
      <trkpt lat="51.87987" lon="4.49953">
        <ele>43.264197</ele>
        <time>2024-07-02T12:13:47.099Z</time>
      </trkpt>
      <trkpt lat="51.87995" lon="4.49969">
        <ele>43.225512</ele>
        <time>2024-07-02T12:13:50.098Z</time>
      </trkpt>
      <trkpt lat="51.88001" lon="4.49981">
        <ele>43.297553</ele>
        <time>2024-07-02T12:13:52.109Z</time>
      </trkpt>
      <trkpt lat="51.88009" lon="4.49998">
        <ele>43.403008</ele>
        <time>2024-07-02T12:13:55.106Z</time>
      </trkpt>
      <trkpt lat="51.88018" lon="4.50013">
        <ele>43.507051</ele>
        <time>2024-07-02T12:13:58.105Z</time>
      </trkpt>
      <trkpt lat="51.88028" lon="4.50029">
        <ele>43.615054</ele>
        <time>2024-07-02T12:14:01.111Z</time>
      </trkpt>
      <trkpt lat="51.88037" lon="4.50043">
        <ele>43.715801</ele>
        <time>2024-07-02T12:14:04.105Z</time>
      </trkpt>
      <trkpt lat="51.88043" lon="4.5006">
        <ele>43.808811</ele>
        <time>2024-07-02T12:14:07.108Z</time>
      </trkpt>
      <trkpt lat="51.88048" lon="4.50074">
        <ele>43.888207</ele>
        <time>2024-07-02T12:14:10.103Z</time>
      </trkpt>
      <trkpt lat="51.88053" lon="4.50089">
        <ele>43.968679</ele>
        <time>2024-07-02T12:14:14.105Z</time>
      </trkpt>
      <trkpt lat="51.88063" lon="4.50109">
        <ele>44.096606</ele>
        <time>2024-07-02T12:15:35.137Z</time>
      </trkpt>
      <trkpt lat="51.88071" lon="4.50122">
        <ele>44.187155</ele>
        <time>2024-07-02T12:15:39.129Z</time>
      </trkpt>
      <trkpt lat="51.88077" lon="4.50135">
        <ele>44.26976</ele>
        <time>2024-07-02T12:15:42.132Z</time>
      </trkpt>
      <trkpt lat="51.88087" lon="4.50146">
        <ele>44.362601</ele>
        <time>2024-07-02T12:15:45.121Z</time>
      </trkpt>
      <trkpt lat="51.88096" lon="4.50153">
        <ele>44.436766</ele>
        <time>2024-07-02T12:15:48.133Z</time>
      </trkpt>
      <trkpt lat="51.88088" lon="4.50144">
        <ele>44.512321</ele>
        <time>2024-07-02T12:15:57.143Z</time>
      </trkpt>
      <trkpt lat="51.88102" lon="4.50118">
        <ele>44.57924</ele>
        <time>2024-07-02T12:16:33.133Z</time>
      </trkpt>
      <trkpt lat="51.8811" lon="4.50107">
        <ele>44.47471</ele>
        <time>2024-07-02T12:16:36.137Z</time>
      </trkpt>
      <trkpt lat="51.88118" lon="4.50096">
        <ele>44.377545</ele>
        <time>2024-07-02T12:16:39.122Z</time>
      </trkpt>
      <trkpt lat="51.88128" lon="4.50085">
        <ele>44.26599</ele>
        <time>2024-07-02T12:16:42.140Z</time>
      </trkpt>
      <trkpt lat="51.88137" lon="4.50073">
        <ele>44.151121</ele>
        <time>2024-07-02T12:16:45.115Z</time>
      </trkpt>
      <trkpt lat="51.88147" lon="4.5006">
        <ele>44.035252</ele>
        <time>2024-07-02T12:16:48.130Z</time>
      </trkpt>
      <trkpt lat="51.88156" lon="4.50046">
        <ele>43.91546</ele>
        <time>2024-07-02T12:16:51.116Z</time>
      </trkpt>
      <trkpt lat="51.88166" lon="4.50033">
        <ele>43.792644</ele>
        <time>2024-07-02T12:16:54.150Z</time>
      </trkpt>
      <trkpt lat="51.88176" lon="4.50019">
        <ele>43.67231</ele>
        <time>2024-07-02T12:16:57.137Z</time>
      </trkpt>
      <trkpt lat="51.88183" lon="4.50009">
        <ele>43.585724</ele>
        <time>2024-07-02T12:16:59.146Z</time>
      </trkpt>
      <trkpt lat="51.8819" lon="4.49999">
        <ele>43.496567</ele>
        <time>2024-07-02T12:17:01.141Z</time>
      </trkpt>
      <trkpt lat="51.882" lon="4.49986">
        <ele>43.373326</ele>
        <time>2024-07-02T12:17:04.138Z</time>
      </trkpt>
      <trkpt lat="51.8821" lon="4.49973">
        <ele>43.249403</ele>
        <time>2024-07-02T12:17:07.132Z</time>
      </trkpt>
      <trkpt lat="51.8822" lon="4.4996">
        <ele>43.128047</ele>
        <time>2024-07-02T12:17:10.127Z</time>
      </trkpt>
      <trkpt lat="51.88229" lon="4.49947">
        <ele>43.01201</ele>
        <time>2024-07-02T12:17:13.133Z</time>
      </trkpt>
      <trkpt lat="51.88239" lon="4.49934">
        <ele>42.977423</ele>
        <time>2024-07-02T12:17:16.142Z</time>
      </trkpt>
      <trkpt lat="51.88249" lon="4.4992">
        <ele>43.107201</ele>
        <time>2024-07-02T12:17:19.137Z</time>
      </trkpt>
      <trkpt lat="51.88259" lon="4.49905">
        <ele>43.236677</ele>
        <time>2024-07-02T12:17:22.142Z</time>
      </trkpt>
      <trkpt lat="51.88268" lon="4.4989">
        <ele>43.362118</ele>
        <time>2024-07-02T12:17:25.127Z</time>
      </trkpt>
      <trkpt lat="51.88278" lon="4.49875">
        <ele>43.493542</ele>
        <time>2024-07-02T12:17:28.134Z</time>
      </trkpt>
      <trkpt lat="51.88285" lon="4.49865">
        <ele>43.584065</ele>
        <time>2024-07-02T12:17:30.130Z</time>
      </trkpt>
      <trkpt lat="51.88292" lon="4.49854">
        <ele>43.679153</ele>
        <time>2024-07-02T12:17:32.133Z</time>
      </trkpt>
      <trkpt lat="51.88301" lon="4.49839">
        <ele>43.809974</ele>
        <time>2024-07-02T12:17:35.152Z</time>
      </trkpt>
      <trkpt lat="51.88308" lon="4.49827">
        <ele>43.903009</ele>
        <time>2024-07-02T12:17:37.111Z</time>
      </trkpt>
      <trkpt lat="51.88313" lon="4.49815">
        <ele>43.993741</ele>
        <time>2024-07-02T12:17:39.108Z</time>
      </trkpt>
      <trkpt lat="51.88322" lon="4.49799">
        <ele>44.117274</ele>
        <time>2024-07-02T12:17:42.139Z</time>
      </trkpt>
      <trkpt lat="51.88327" lon="4.49787">
        <ele>44.205691</ele>
        <time>2024-07-02T12:17:44.128Z</time>
      </trkpt>
      <trkpt lat="51.88335" lon="4.49769">
        <ele>44.339504</ele>
        <time>2024-07-02T12:17:47.142Z</time>
      </trkpt>
      <trkpt lat="51.8834" lon="4.49756">
        <ele>44.432628</ele>
        <time>2024-07-02T12:17:49.130Z</time>
      </trkpt>
      <trkpt lat="51.88346" lon="4.49744">
        <ele>44.523993</ele>
        <time>2024-07-02T12:17:51.147Z</time>
      </trkpt>
      <trkpt lat="51.88353" lon="4.49726">
        <ele>44.651992</ele>
        <time>2024-07-02T12:17:54.133Z</time>
      </trkpt>
      <trkpt lat="51.88359" lon="4.49707">
        <ele>44.8112</ele>
        <time>2024-07-02T12:17:57.137Z</time>
      </trkpt>
      <trkpt lat="51.88364" lon="4.49688">
        <ele>44.977448</ele>
        <time>2024-07-02T12:18:00.120Z</time>
      </trkpt>
      <trkpt lat="51.88369" lon="4.49668">
        <ele>45.15858</ele>
        <time>2024-07-02T12:18:03.143Z</time>
      </trkpt>
      <trkpt lat="51.88375" lon="4.49648">
        <ele>45.330889</ele>
        <time>2024-07-02T12:18:06.141Z</time>
      </trkpt>
      <trkpt lat="51.8838" lon="4.49628">
        <ele>45.505656</ele>
        <time>2024-07-02T12:18:09.140Z</time>
      </trkpt>
      <trkpt lat="51.88385" lon="4.4961">
        <ele>45.675045</ele>
        <time>2024-07-02T12:18:12.131Z</time>
      </trkpt>
      <trkpt lat="51.8839" lon="4.49591">
        <ele>45.838669</ele>
        <time>2024-07-02T12:18:15.134Z</time>
      </trkpt>
      <trkpt lat="51.88396" lon="4.49574">
        <ele>45.998767</ele>
        <time>2024-07-02T12:18:18.141Z</time>
      </trkpt>
      <trkpt lat="51.88404" lon="4.4956">
        <ele>46.151064</ele>
        <time>2024-07-02T12:18:21.138Z</time>
      </trkpt>
      <trkpt lat="51.88412" lon="4.49544">
        <ele>46.317474</ele>
        <time>2024-07-02T12:18:24.133Z</time>
      </trkpt>
      <trkpt lat="51.8842" lon="4.4953">
        <ele>46.477318</ele>
        <time>2024-07-02T12:18:27.135Z</time>
      </trkpt>
      <trkpt lat="51.88427" lon="4.4952">
        <ele>46.596018</ele>
        <time>2024-07-02T12:18:29.137Z</time>
      </trkpt>
      <trkpt lat="51.88436" lon="4.49505">
        <ele>46.765108</ele>
        <time>2024-07-02T12:18:32.155Z</time>
      </trkpt>
      <trkpt lat="51.88442" lon="4.49494">
        <ele>46.885208</ele>
        <time>2024-07-02T12:18:34.152Z</time>
      </trkpt>
      <trkpt lat="51.88448" lon="4.49477">
        <ele>47.04448</ele>
        <time>2024-07-02T12:18:37.138Z</time>
      </trkpt>
      <trkpt lat="51.8845" lon="4.49456">
        <ele>47.173901</ele>
        <time>2024-07-02T12:18:40.123Z</time>
      </trkpt>
      <trkpt lat="51.8845" lon="4.49435">
        <ele>47.304162</ele>
        <time>2024-07-02T12:18:43.135Z</time>
      </trkpt>
      <trkpt lat="51.88449" lon="4.49414">
        <ele>47.435717</ele>
        <time>2024-07-02T12:18:46.137Z</time>
      </trkpt>
      <trkpt lat="51.88449" lon="4.49393">
        <ele>47.567179</ele>
        <time>2024-07-02T12:18:49.146Z</time>
      </trkpt>
      <trkpt lat="51.88451" lon="4.49373">
        <ele>47.694224</ele>
        <time>2024-07-02T12:18:52.136Z</time>
      </trkpt>
      <trkpt lat="51.88457" lon="4.49356">
        <ele>47.818987</ele>
        <time>2024-07-02T12:18:55.122Z</time>
      </trkpt>
      <trkpt lat="51.88464" lon="4.4934">
        <ele>47.935272</ele>
        <time>2024-07-02T12:18:58.138Z</time>
      </trkpt>
      <trkpt lat="51.88473" lon="4.49327">
        <ele>48.05649</ele>
        <time>2024-07-02T12:19:01.137Z</time>
      </trkpt>
      <trkpt lat="51.88481" lon="4.49313">
        <ele>48.17505</ele>
        <time>2024-07-02T12:19:04.146Z</time>
      </trkpt>
      <trkpt lat="51.88488" lon="4.49298">
        <ele>48.29587</ele>
        <time>2024-07-02T12:19:07.150Z</time>
      </trkpt>
      <trkpt lat="51.88496" lon="4.49283">
        <ele>48.415087</ele>
        <time>2024-07-02T12:19:10.144Z</time>
      </trkpt>
      <trkpt lat="51.88505" lon="4.49269">
        <ele>48.54821</ele>
        <time>2024-07-02T12:19:13.150Z</time>
      </trkpt>
      <trkpt lat="51.88516" lon="4.49256">
        <ele>48.680377</ele>
        <time>2024-07-02T12:19:16.139Z</time>
      </trkpt>
      <trkpt lat="51.88528" lon="4.49246">
        <ele>48.817352</ele>
        <time>2024-07-02T12:19:19.136Z</time>
      </trkpt>
      <trkpt lat="51.8854" lon="4.49241">
        <ele>48.809185</ele>
        <time>2024-07-02T12:19:22.146Z</time>
      </trkpt>
      <trkpt lat="51.88553" lon="4.4924">
        <ele>48.722604</ele>
        <time>2024-07-02T12:19:25.121Z</time>
      </trkpt>
      <trkpt lat="51.88562" lon="4.49241">
        <ele>48.662956</ele>
        <time>2024-07-02T12:19:27.116Z</time>
      </trkpt>
      <trkpt lat="51.88575" lon="4.49243">
        <ele>48.575657</ele>
        <time>2024-07-02T12:19:30.137Z</time>
      </trkpt>
      <trkpt lat="51.88585" lon="4.49245">
        <ele>48.514998</ele>
        <time>2024-07-02T12:19:32.131Z</time>
      </trkpt>
      <trkpt lat="51.88597" lon="4.49248">
        <ele>48.430703</ele>
        <time>2024-07-02T12:19:35.119Z</time>
      </trkpt>
      <trkpt lat="51.8861" lon="4.4925">
        <ele>48.343832</ele>
        <time>2024-07-02T12:19:38.146Z</time>
      </trkpt>
      <trkpt lat="51.88623" lon="4.49254">
        <ele>48.260779</ele>
        <time>2024-07-02T12:19:41.125Z</time>
      </trkpt>
      <trkpt lat="51.88635" lon="4.49257">
        <ele>48.176931</ele>
        <time>2024-07-02T12:19:44.132Z</time>
      </trkpt>
      <trkpt lat="51.88645" lon="4.49258">
        <ele>48.11557</ele>
        <time>2024-07-02T12:19:47.131Z</time>
      </trkpt>
      <trkpt lat="51.88654" lon="4.49259">
        <ele>48.054849</ele>
        <time>2024-07-02T12:19:50.133Z</time>
      </trkpt>
      <trkpt lat="51.88665" lon="4.49262">
        <ele>47.978924</ele>
        <time>2024-07-02T12:19:54.139Z</time>
      </trkpt>
      <trkpt lat="51.88675" lon="4.49266">
        <ele>47.908547</ele>
        <time>2024-07-02T12:19:59.140Z</time>
      </trkpt>
      <trkpt lat="51.88689" lon="4.49271">
        <ele>47.818243</ele>
        <time>2024-07-02T12:20:52.136Z</time>
      </trkpt>
      <trkpt lat="51.88699" lon="4.49274">
        <ele>47.748087</ele>
        <time>2024-07-02T12:20:56.148Z</time>
      </trkpt>
      <trkpt lat="51.8871" lon="4.49276">
        <ele>47.679882</ele>
        <time>2024-07-02T12:20:59.145Z</time>
      </trkpt>
      <trkpt lat="51.88721" lon="4.4928">
        <ele>47.588207</ele>
        <time>2024-07-02T12:21:02.148Z</time>
      </trkpt>
      <trkpt lat="51.88732" lon="4.49281">
        <ele>47.500954</ele>
        <time>2024-07-02T12:21:05.113Z</time>
      </trkpt>
      <trkpt lat="51.88744" lon="4.49283">
        <ele>47.40717</ele>
        <time>2024-07-02T12:21:08.133Z</time>
      </trkpt>
      <trkpt lat="51.88756" lon="4.49288">
        <ele>47.30675</ele>
        <time>2024-07-02T12:21:11.154Z</time>
      </trkpt>
      <trkpt lat="51.88767" lon="4.49291">
        <ele>47.214023</ele>
        <time>2024-07-02T12:21:14.147Z</time>
      </trkpt>
      <trkpt lat="51.88779" lon="4.49293">
        <ele>47.121366</ele>
        <time>2024-07-02T12:21:17.133Z</time>
      </trkpt>
      <trkpt lat="51.8879" lon="4.49296">
        <ele>47.033926</ele>
        <time>2024-07-02T12:21:20.140Z</time>
      </trkpt>
      <trkpt lat="51.888" lon="4.493">
        <ele>46.946915</ele>
        <time>2024-07-02T12:21:23.134Z</time>
      </trkpt>
      <trkpt lat="51.88811" lon="4.49303">
        <ele>46.859026</ele>
        <time>2024-07-02T12:21:27.142Z</time>
      </trkpt>
      <trkpt lat="51.88821" lon="4.49305">
        <ele>46.782375</ele>
        <time>2024-07-02T12:21:31.150Z</time>
      </trkpt>
      <trkpt lat="51.88829" lon="4.49302">
        <ele>46.70893</ele>
        <time>2024-07-02T12:21:37.127Z</time>
      </trkpt>
      <trkpt lat="51.88831" lon="4.49284">
        <ele>46.622038</ele>
        <time>2024-07-02T12:21:58.132Z</time>
      </trkpt>
      <trkpt lat="51.88832" lon="4.49266">
        <ele>46.530911</ele>
        <time>2024-07-02T12:22:03.147Z</time>
      </trkpt>
      <trkpt lat="51.88833" lon="4.4925">
        <ele>46.451216</ele>
        <time>2024-07-02T12:22:06.151Z</time>
      </trkpt>
      <trkpt lat="51.88835" lon="4.49232">
        <ele>46.36262</ele>
        <time>2024-07-02T12:22:09.142Z</time>
      </trkpt>
      <trkpt lat="51.88842" lon="4.49218">
        <ele>46.273694</ele>
        <time>2024-07-02T12:22:12.134Z</time>
      </trkpt>
      <trkpt lat="51.88853" lon="4.49226">
        <ele>46.307761</ele>
        <time>2024-07-02T12:22:15.127Z</time>
      </trkpt>
      <trkpt lat="51.88863" lon="4.49232">
        <ele>46.402854</ele>
        <time>2024-07-02T12:22:18.140Z</time>
      </trkpt>
      <trkpt lat="51.88874" lon="4.49238">
        <ele>46.494662</ele>
        <time>2024-07-02T12:22:21.146Z</time>
      </trkpt>
      <trkpt lat="51.88883" lon="4.49239">
        <ele>46.578314</ele>
        <time>2024-07-02T12:22:24.140Z</time>
      </trkpt>
      <trkpt lat="51.88889" lon="4.49225">
        <ele>46.667544</ele>
        <time>2024-07-02T12:22:27.129Z</time>
      </trkpt>
      <trkpt lat="51.88899" lon="4.49218">
        <ele>46.755963</ele>
        <time>2024-07-02T12:22:30.123Z</time>
      </trkpt>
      <trkpt lat="51.88908" lon="4.49211">
        <ele>46.8477</ele>
        <time>2024-07-02T12:22:33.132Z</time>
      </trkpt>
      <trkpt lat="51.88918" lon="4.49202">
        <ele>46.940899</ele>
        <time>2024-07-02T12:22:36.145Z</time>
      </trkpt>
      <trkpt lat="51.88928" lon="4.49194">
        <ele>47.037158</ele>
        <time>2024-07-02T12:22:39.132Z</time>
      </trkpt>
      <trkpt lat="51.88938" lon="4.49187">
        <ele>47.129106</ele>
        <time>2024-07-02T12:22:42.145Z</time>
      </trkpt>
      <trkpt lat="51.88947" lon="4.49178">
        <ele>47.216489</ele>
        <time>2024-07-02T12:22:45.152Z</time>
      </trkpt>
      <trkpt lat="51.88956" lon="4.49173">
        <ele>47.299955</ele>
        <time>2024-07-02T12:22:48.139Z</time>
      </trkpt>
      <trkpt lat="51.88965" lon="4.49166">
        <ele>47.381929</ele>
        <time>2024-07-02T12:22:51.138Z</time>
      </trkpt>
      <trkpt lat="51.88973" lon="4.49159">
        <ele>47.460764</ele>
        <time>2024-07-02T12:22:54.134Z</time>
      </trkpt>
      <trkpt lat="51.8898" lon="4.49144">
        <ele>47.559955</ele>
        <time>2024-07-02T12:22:58.136Z</time>
      </trkpt>
      <trkpt lat="51.88985" lon="4.49129">
        <ele>47.647847</ele>
        <time>2024-07-02T12:23:01.130Z</time>
      </trkpt>
      <trkpt lat="51.88991" lon="4.49115">
        <ele>47.739353</ele>
        <time>2024-07-02T12:23:04.136Z</time>
      </trkpt>
      <trkpt lat="51.88996" lon="4.49099">
        <ele>47.800535</ele>
        <time>2024-07-02T12:23:07.128Z</time>
      </trkpt>
      <trkpt lat="51.89" lon="4.49081">
        <ele>47.849267</ele>
        <time>2024-07-02T12:23:10.136Z</time>
      </trkpt>
      <trkpt lat="51.89004" lon="4.49065">
        <ele>47.895141</ele>
        <time>2024-07-02T12:23:13.156Z</time>
      </trkpt>
      <trkpt lat="51.89011" lon="4.49048">
        <ele>47.947523</ele>
        <time>2024-07-02T12:23:16.154Z</time>
      </trkpt>
      <trkpt lat="51.89016" lon="4.49031">
        <ele>47.995311</ele>
        <time>2024-07-02T12:23:19.138Z</time>
      </trkpt>
      <trkpt lat="51.89019" lon="4.49013">
        <ele>48.043035</ele>
        <time>2024-07-02T12:23:22.145Z</time>
      </trkpt>
      <trkpt lat="51.89023" lon="4.48996">
        <ele>48.089462</ele>
        <time>2024-07-02T12:23:25.140Z</time>
      </trkpt>
      <trkpt lat="51.89028" lon="4.48981">
        <ele>48.13491</ele>
        <time>2024-07-02T12:23:28.139Z</time>
      </trkpt>
      <trkpt lat="51.89032" lon="4.48965">
        <ele>48.17726</ele>
        <time>2024-07-02T12:23:31.141Z</time>
      </trkpt>
      <trkpt lat="51.89036" lon="4.4895">
        <ele>48.219966</ele>
        <time>2024-07-02T12:23:34.127Z</time>
      </trkpt>
      <trkpt lat="51.89037" lon="4.48934">
        <ele>48.260679</ele>
        <time>2024-07-02T12:23:37.127Z</time>
      </trkpt>
      <trkpt lat="51.89042" lon="4.48918">
        <ele>48.307407</ele>
        <time>2024-07-02T12:23:41.128Z</time>
      </trkpt>
      <trkpt lat="51.89044" lon="4.489">
        <ele>48.354492</ele>
        <time>2024-07-02T12:23:46.150Z</time>
      </trkpt>
      <trkpt lat="51.89042" lon="4.48883">
        <ele>48.399389</ele>
        <time>2024-07-02T12:23:50.143Z</time>
      </trkpt>
      <trkpt lat="51.8904" lon="4.48868">
        <ele>48.438255</ele>
        <time>2024-07-02T12:23:53.140Z</time>
      </trkpt>
      <trkpt lat="51.89037" lon="4.48851">
        <ele>48.48438</ele>
        <time>2024-07-02T12:23:56.140Z</time>
      </trkpt>
      <trkpt lat="51.89036" lon="4.48834">
        <ele>48.519582</ele>
        <time>2024-07-02T12:23:59.149Z</time>
      </trkpt>
      <trkpt lat="51.89036" lon="4.48817">
        <ele>48.523178</ele>
        <time>2024-07-02T12:24:02.121Z</time>
      </trkpt>
      <trkpt lat="51.89038" lon="4.48799">
        <ele>48.526838</ele>
        <time>2024-07-02T12:24:05.145Z</time>
      </trkpt>
      <trkpt lat="51.89043" lon="4.48782">
        <ele>48.530714</ele>
        <time>2024-07-02T12:24:08.129Z</time>
      </trkpt>
      <trkpt lat="51.89046" lon="4.48764">
        <ele>48.534333</ele>
        <time>2024-07-02T12:24:11.146Z</time>
      </trkpt>
      <trkpt lat="51.8905" lon="4.48747">
        <ele>48.538023</ele>
        <time>2024-07-02T12:24:14.130Z</time>
      </trkpt>
      <trkpt lat="51.89053" lon="4.4873">
        <ele>48.541728</ele>
        <time>2024-07-02T12:24:17.134Z</time>
      </trkpt>
      <trkpt lat="51.89057" lon="4.48714">
        <ele>48.545109</ele>
        <time>2024-07-02T12:24:20.134Z</time>
      </trkpt>
      <trkpt lat="51.8906" lon="4.48696">
        <ele>48.54895</ele>
        <time>2024-07-02T12:24:23.133Z</time>
      </trkpt>
      <trkpt lat="51.89064" lon="4.48677">
        <ele>48.552898</ele>
        <time>2024-07-02T12:24:26.132Z</time>
      </trkpt>
      <trkpt lat="51.89068" lon="4.48658">
        <ele>48.556874</ele>
        <time>2024-07-02T12:24:29.137Z</time>
      </trkpt>
      <trkpt lat="51.89072" lon="4.48642">
        <ele>48.56041</ele>
        <time>2024-07-02T12:24:32.141Z</time>
      </trkpt>
      <trkpt lat="51.89075" lon="4.48625">
        <ele>48.56402</ele>
        <time>2024-07-02T12:24:35.133Z</time>
      </trkpt>
      <trkpt lat="51.89079" lon="4.48608">
        <ele>48.567739</ele>
        <time>2024-07-02T12:24:38.158Z</time>
      </trkpt>
      <trkpt lat="51.89083" lon="4.48589">
        <ele>48.571751</ele>
        <time>2024-07-02T12:24:41.128Z</time>
      </trkpt>
      <trkpt lat="51.89089" lon="4.48571">
        <ele>48.575765</ele>
        <time>2024-07-02T12:24:44.140Z</time>
      </trkpt>
      <trkpt lat="51.89093" lon="4.48553">
        <ele>48.598563</ele>
        <time>2024-07-02T12:24:47.127Z</time>
      </trkpt>
      <trkpt lat="51.89098" lon="4.48534">
        <ele>48.641796</ele>
        <time>2024-07-02T12:24:50.134Z</time>
      </trkpt>
      <trkpt lat="51.89103" lon="4.48514">
        <ele>48.685296</ele>
        <time>2024-07-02T12:24:53.148Z</time>
      </trkpt>
      <trkpt lat="51.89106" lon="4.48496">
        <ele>48.726184</ele>
        <time>2024-07-02T12:24:56.136Z</time>
      </trkpt>
      <trkpt lat="51.89109" lon="4.48479">
        <ele>48.763052</ele>
        <time>2024-07-02T12:24:59.135Z</time>
      </trkpt>
      <trkpt lat="51.89112" lon="4.48462">
        <ele>48.800135</ele>
        <time>2024-07-02T12:25:02.137Z</time>
      </trkpt>
      <trkpt lat="51.89115" lon="4.48445">
        <ele>48.836959</ele>
        <time>2024-07-02T12:25:05.126Z</time>
      </trkpt>
      <trkpt lat="51.89119" lon="4.48429">
        <ele>48.87423</ele>
        <time>2024-07-02T12:25:08.135Z</time>
      </trkpt>
      <trkpt lat="51.89123" lon="4.48412">
        <ele>48.912018</ele>
        <time>2024-07-02T12:25:11.137Z</time>
      </trkpt>
      <trkpt lat="51.89127" lon="4.48395">
        <ele>48.949012</ele>
        <time>2024-07-02T12:25:14.112Z</time>
      </trkpt>
      <trkpt lat="51.8913" lon="4.48378">
        <ele>48.986783</ele>
        <time>2024-07-02T12:25:17.155Z</time>
      </trkpt>
      <trkpt lat="51.89133" lon="4.4836">
        <ele>49.027166</ele>
        <time>2024-07-02T12:25:20.139Z</time>
      </trkpt>
      <trkpt lat="51.89137" lon="4.48344">
        <ele>49.063335</ele>
        <time>2024-07-02T12:25:23.135Z</time>
      </trkpt>
      <trkpt lat="51.89141" lon="4.48328">
        <ele>49.098432</ele>
        <time>2024-07-02T12:25:26.150Z</time>
      </trkpt>
      <trkpt lat="51.89144" lon="4.48314">
        <ele>49.130101</ele>
        <time>2024-07-02T12:25:29.132Z</time>
      </trkpt>
      <trkpt lat="51.89148" lon="4.48297">
        <ele>49.169064</ele>
        <time>2024-07-02T12:25:33.136Z</time>
      </trkpt>
      <trkpt lat="51.89151" lon="4.48282">
        <ele>49.166827</ele>
        <time>2024-07-02T12:25:36.141Z</time>
      </trkpt>
      <trkpt lat="51.89156" lon="4.48266">
        <ele>49.086578</ele>
        <time>2024-07-02T12:25:40.143Z</time>
      </trkpt>
      <trkpt lat="51.89159" lon="4.4825">
        <ele>49.010669</ele>
        <time>2024-07-02T12:25:44.139Z</time>
      </trkpt>
      <trkpt lat="51.89165" lon="4.48236">
        <ele>48.930207</ele>
        <time>2024-07-02T12:25:48.131Z</time>
      </trkpt>
      <trkpt lat="51.89169" lon="4.48221">
        <ele>48.858177</ele>
        <time>2024-07-02T12:25:51.131Z</time>
      </trkpt>
      <trkpt lat="51.89173" lon="4.48206">
        <ele>48.782373</ele>
        <time>2024-07-02T12:25:54.156Z</time>
      </trkpt>
      <trkpt lat="51.89175" lon="4.48189">
        <ele>48.705049</ele>
        <time>2024-07-02T12:25:57.135Z</time>
      </trkpt>
      <trkpt lat="51.89178" lon="4.48174">
        <ele>48.631733</ele>
        <time>2024-07-02T12:26:00.152Z</time>
      </trkpt>
      <trkpt lat="51.89181" lon="4.48159">
        <ele>48.556767</ele>
        <time>2024-07-02T12:26:03.127Z</time>
      </trkpt>
      <trkpt lat="51.89186" lon="4.48144">
        <ele>48.481312</ele>
        <time>2024-07-02T12:26:06.133Z</time>
      </trkpt>
      <trkpt lat="51.89191" lon="4.48129">
        <ele>48.404242</ele>
        <time>2024-07-02T12:26:10.132Z</time>
      </trkpt>
      <trkpt lat="51.89197" lon="4.48114">
        <ele>48.325022</ele>
        <time>2024-07-02T12:26:15.130Z</time>
      </trkpt>
      <trkpt lat="51.892" lon="4.48098">
        <ele>48.245648</ele>
        <time>2024-07-02T12:26:19.145Z</time>
      </trkpt>
      <trkpt lat="51.89205" lon="4.4808">
        <ele>48.157876</ele>
        <time>2024-07-02T12:26:23.135Z</time>
      </trkpt>
      <trkpt lat="51.89208" lon="4.48066">
        <ele>48.087384</ele>
        <time>2024-07-02T12:26:26.154Z</time>
      </trkpt>
      <trkpt lat="51.89212" lon="4.48049">
        <ele>48.003161</ele>
        <time>2024-07-02T12:26:30.152Z</time>
      </trkpt>
      <trkpt lat="51.89216" lon="4.48035">
        <ele>47.935266</ele>
        <time>2024-07-02T12:26:35.136Z</time>
      </trkpt>
      <trkpt lat="51.89217" lon="4.4802">
        <ele>47.863012</ele>
        <time>2024-07-02T12:26:50.138Z</time>
      </trkpt>
      <trkpt lat="51.89225" lon="4.48009">
        <ele>47.784219</ele>
        <time>2024-07-02T12:26:55.131Z</time>
      </trkpt>
      <trkpt lat="51.89229" lon="4.47996">
        <ele>47.710451</ele>
        <time>2024-07-02T12:26:59.131Z</time>
      </trkpt>
      <trkpt lat="51.89232" lon="4.47982">
        <ele>47.637107</ele>
        <time>2024-07-02T12:27:03.135Z</time>
      </trkpt>
      <trkpt lat="51.89235" lon="4.47967">
        <ele>47.558964</ele>
        <time>2024-07-02T12:27:07.132Z</time>
      </trkpt>
      <trkpt lat="51.89239" lon="4.47951">
        <ele>47.475246</ele>
        <time>2024-07-02T12:27:11.137Z</time>
      </trkpt>
      <trkpt lat="51.89242" lon="4.47936">
        <ele>47.394846</ele>
        <time>2024-07-02T12:27:15.140Z</time>
      </trkpt>
      <trkpt lat="51.89246" lon="4.47921">
        <ele>47.31127</ele>
        <time>2024-07-02T12:27:19.122Z</time>
      </trkpt>
      <trkpt lat="51.8925" lon="4.47903">
        <ele>47.221046</ele>
        <time>2024-07-02T12:27:23.152Z</time>
      </trkpt>
      <trkpt lat="51.89253" lon="4.47886">
        <ele>47.131763</ele>
        <time>2024-07-02T12:27:27.134Z</time>
      </trkpt>
      <trkpt lat="51.89257" lon="4.4787">
        <ele>47.046971</ele>
        <time>2024-07-02T12:27:31.148Z</time>
      </trkpt>
      <trkpt lat="51.89262" lon="4.47854">
        <ele>46.95781</ele>
        <time>2024-07-02T12:27:35.123Z</time>
      </trkpt>
      <trkpt lat="51.89265" lon="4.47838">
        <ele>46.874458</ele>
        <time>2024-07-02T12:27:39.137Z</time>
      </trkpt>
      <trkpt lat="51.89269" lon="4.47821">
        <ele>46.783832</ele>
        <time>2024-07-02T12:27:43.151Z</time>
      </trkpt>
      <trkpt lat="51.89274" lon="4.47805">
        <ele>46.695837</ele>
        <time>2024-07-02T12:27:47.131Z</time>
      </trkpt>
      <trkpt lat="51.89279" lon="4.47788">
        <ele>46.604091</ele>
        <time>2024-07-02T12:27:51.128Z</time>
      </trkpt>
      <trkpt lat="51.89284" lon="4.47771">
        <ele>46.50942</ele>
        <time>2024-07-02T12:27:55.147Z</time>
      </trkpt>
      <trkpt lat="51.89288" lon="4.47755">
        <ele>46.420146</ele>
        <time>2024-07-02T12:27:59.139Z</time>
      </trkpt>
      <trkpt lat="51.89292" lon="4.47739">
        <ele>46.612183</ele>
        <time>2024-07-02T12:28:03.154Z</time>
      </trkpt>
      <trkpt lat="51.89296" lon="4.47723">
        <ele>46.806555</ele>
        <time>2024-07-02T12:28:07.123Z</time>
      </trkpt>
      <trkpt lat="51.893" lon="4.47708">
        <ele>46.998748</ele>
        <time>2024-07-02T12:28:11.151Z</time>
      </trkpt>
      <trkpt lat="51.89304" lon="4.47694">
        <ele>47.180394</ele>
        <time>2024-07-02T12:28:15.134Z</time>
      </trkpt>
      <trkpt lat="51.89312" lon="4.47684">
        <ele>47.376631</ele>
        <time>2024-07-02T12:28:19.132Z</time>
      </trkpt>
      <trkpt lat="51.89321" lon="4.4769">
        <ele>47.567388</ele>
        <time>2024-07-02T12:28:23.142Z</time>
      </trkpt>
      <trkpt lat="51.89325" lon="4.47677">
        <ele>47.743393</ele>
        <time>2024-07-02T12:28:30.133Z</time>
      </trkpt>
      <trkpt lat="51.89324" lon="4.47662">
        <ele>47.918314</ele>
        <time>2024-07-02T12:28:35.155Z</time>
      </trkpt>
      <trkpt lat="51.89333" lon="4.47672">
        <ele>48.119785</ele>
        <time>2024-07-02T12:28:40.139Z</time>
      </trkpt>
      <trkpt lat="51.89339" lon="4.47684">
        <ele>48.297598</ele>
        <time>2024-07-02T12:28:46.138Z</time>
      </trkpt>
      <trkpt lat="51.89346" lon="4.47694">
        <ele>48.479709</ele>
        <time>2024-07-02T12:28:59.134Z</time>
      </trkpt>
      <trkpt lat="51.89357" lon="4.47683">
        <ele>48.726693</ele>
        <time>2024-07-02T12:29:25.135Z</time>
      </trkpt>
      <trkpt lat="51.89357" lon="4.47668">
        <ele>48.909751</ele>
        <time>2024-07-02T12:29:28.119Z</time>
      </trkpt>
      <trkpt lat="51.89355" lon="4.4765">
        <ele>49.128029</ele>
        <time>2024-07-02T12:29:31.137Z</time>
      </trkpt>
      <trkpt lat="51.89352" lon="4.47633">
        <ele>49.337888</ele>
        <time>2024-07-02T12:29:34.159Z</time>
      </trkpt>
      <trkpt lat="51.89349" lon="4.47618">
        <ele>49.520198</ele>
        <time>2024-07-02T12:29:37.153Z</time>
      </trkpt>
      <trkpt lat="51.89346" lon="4.47604">
        <ele>49.696302</ele>
        <time>2024-07-02T12:29:40.144Z</time>
      </trkpt>
      <trkpt lat="51.89343" lon="4.47588">
        <ele>49.888497</ele>
        <time>2024-07-02T12:29:43.153Z</time>
      </trkpt>
      <trkpt lat="51.89339" lon="4.47571">
        <ele>50.070529</ele>
        <time>2024-07-02T12:29:46.150Z</time>
      </trkpt>
      <trkpt lat="51.89334" lon="4.47555">
        <ele>50.249696</ele>
        <time>2024-07-02T12:29:49.142Z</time>
      </trkpt>
      <trkpt lat="51.89335" lon="4.47536">
        <ele>50.446535</ele>
        <time>2024-07-02T12:29:52.138Z</time>
      </trkpt>
      <trkpt lat="51.89335" lon="4.47518">
        <ele>50.620636</ele>
        <time>2024-07-02T12:29:55.150Z</time>
      </trkpt>
      <trkpt lat="51.89337" lon="4.47503">
        <ele>50.774241</ele>
        <time>2024-07-02T12:29:58.124Z</time>
      </trkpt>
      <trkpt lat="51.89339" lon="4.47489">
        <ele>50.925049</ele>
        <time>2024-07-02T12:30:01.141Z</time>
      </trkpt>
      <trkpt lat="51.89341" lon="4.47473">
        <ele>51.081906</ele>
        <time>2024-07-02T12:30:04.148Z</time>
      </trkpt>
      <trkpt lat="51.89345" lon="4.47452">
        <ele>51.3016</ele>
        <time>2024-07-02T12:30:07.146Z</time>
      </trkpt>
      <trkpt lat="51.89348" lon="4.47438">
        <ele>51.454618</ele>
        <time>2024-07-02T12:30:09.144Z</time>
      </trkpt>
      <trkpt lat="51.89352" lon="4.47423">
        <ele>51.616313</ele>
        <time>2024-07-02T12:30:11.135Z</time>
      </trkpt>
      <trkpt lat="51.89355" lon="4.47408">
        <ele>51.780052</ele>
        <time>2024-07-02T12:30:13.141Z</time>
      </trkpt>
      <trkpt lat="51.89361" lon="4.47395">
        <ele>51.939286</ele>
        <time>2024-07-02T12:30:15.146Z</time>
      </trkpt>
      <trkpt lat="51.89367" lon="4.47382">
        <ele>52.106817</ele>
        <time>2024-07-02T12:30:17.152Z</time>
      </trkpt>
      <trkpt lat="51.89372" lon="4.47369">
        <ele>52.258552</ele>
        <time>2024-07-02T12:30:19.139Z</time>
      </trkpt>
      <trkpt lat="51.89378" lon="4.47356">
        <ele>52.422121</ele>
        <time>2024-07-02T12:30:21.149Z</time>
      </trkpt>
      <trkpt lat="51.89383" lon="4.47343">
        <ele>52.577964</ele>
        <time>2024-07-02T12:30:23.147Z</time>
      </trkpt>
      <trkpt lat="51.89389" lon="4.4733">
        <ele>52.734039</ele>
        <time>2024-07-02T12:30:25.121Z</time>
      </trkpt>
      <trkpt lat="51.89395" lon="4.47317">
        <ele>52.835587</ele>
        <time>2024-07-02T12:30:27.132Z</time>
      </trkpt>
      <trkpt lat="51.894" lon="4.47305">
        <ele>52.898487</ele>
        <time>2024-07-02T12:30:29.140Z</time>
      </trkpt>
      <trkpt lat="51.89405" lon="4.47291">
        <ele>52.966654</ele>
        <time>2024-07-02T12:30:31.134Z</time>
      </trkpt>
      <trkpt lat="51.89411" lon="4.47279">
        <ele>53.028524</ele>
        <time>2024-07-02T12:30:33.151Z</time>
      </trkpt>
      <trkpt lat="51.89416" lon="4.47266">
        <ele>53.092746</ele>
        <time>2024-07-02T12:30:35.113Z</time>
      </trkpt>
      <trkpt lat="51.89421" lon="4.47254">
        <ele>53.158156</ele>
        <time>2024-07-02T12:30:37.136Z</time>
      </trkpt>
      <trkpt lat="51.89427" lon="4.47235">
        <ele>53.247606</ele>
        <time>2024-07-02T12:30:40.137Z</time>
      </trkpt>
      <trkpt lat="51.89432" lon="4.47222">
        <ele>53.310484</ele>
        <time>2024-07-02T12:30:42.139Z</time>
      </trkpt>
      <trkpt lat="51.89439" lon="4.47204">
        <ele>53.397665</ele>
        <time>2024-07-02T12:30:45.136Z</time>
      </trkpt>
      <trkpt lat="51.89444" lon="4.47186">
        <ele>53.485083</ele>
        <time>2024-07-02T12:30:48.130Z</time>
      </trkpt>
      <trkpt lat="51.89451" lon="4.4717">
        <ele>53.566293</ele>
        <time>2024-07-02T12:30:51.133Z</time>
      </trkpt>
      <trkpt lat="51.89458" lon="4.47155">
        <ele>53.641744</ele>
        <time>2024-07-02T12:30:54.137Z</time>
      </trkpt>
      <trkpt lat="51.89465" lon="4.47139">
        <ele>53.727587</ele>
        <time>2024-07-02T12:30:57.133Z</time>
      </trkpt>
      <trkpt lat="51.89473" lon="4.47123">
        <ele>53.813214</ele>
        <time>2024-07-02T12:31:00.141Z</time>
      </trkpt>
      <trkpt lat="51.89481" lon="4.47107">
        <ele>53.901981</ele>
        <time>2024-07-02T12:31:03.154Z</time>
      </trkpt>
      <trkpt lat="51.8949" lon="4.47091">
        <ele>53.992022</ele>
        <time>2024-07-02T12:31:06.144Z</time>
      </trkpt>
      <trkpt lat="51.89498" lon="4.47076">
        <ele>53.931175</ele>
        <time>2024-07-02T12:31:09.132Z</time>
      </trkpt>
      <trkpt lat="51.89506" lon="4.47061">
        <ele>53.8023</ele>
        <time>2024-07-02T12:31:12.137Z</time>
      </trkpt>
      <trkpt lat="51.89514" lon="4.47046">
        <ele>53.674921</ele>
        <time>2024-07-02T12:31:15.134Z</time>
      </trkpt>
      <trkpt lat="51.89522" lon="4.4703">
        <ele>53.545492</ele>
        <time>2024-07-02T12:31:18.133Z</time>
      </trkpt>
      <trkpt lat="51.8953" lon="4.47015">
        <ele>53.421219</ele>
        <time>2024-07-02T12:31:21.135Z</time>
      </trkpt>
      <trkpt lat="51.89537" lon="4.47">
        <ele>53.297453</ele>
        <time>2024-07-02T12:31:24.135Z</time>
      </trkpt>
      <trkpt lat="51.89544" lon="4.46985">
        <ele>53.181464</ele>
        <time>2024-07-02T12:31:27.133Z</time>
      </trkpt>
      <trkpt lat="51.89552" lon="4.46971">
        <ele>53.059332</ele>
        <time>2024-07-02T12:31:30.137Z</time>
      </trkpt>
      <trkpt lat="51.8956" lon="4.46958">
        <ele>52.93629</ele>
        <time>2024-07-02T12:31:33.134Z</time>
      </trkpt>
      <trkpt lat="51.89568" lon="4.46943">
        <ele>52.813516</ele>
        <time>2024-07-02T12:31:36.151Z</time>
      </trkpt>
      <trkpt lat="51.89574" lon="4.46929">
        <ele>52.706461</ele>
        <time>2024-07-02T12:31:39.145Z</time>
      </trkpt>
      <trkpt lat="51.8958" lon="4.46916">
        <ele>52.601267</ele>
        <time>2024-07-02T12:31:42.131Z</time>
      </trkpt>
      <trkpt lat="51.89589" lon="4.46906">
        <ele>52.488356</ele>
        <time>2024-07-02T12:31:46.132Z</time>
      </trkpt>
      <trkpt lat="51.896" lon="4.4691">
        <ele>52.369689</ele>
        <time>2024-07-02T12:31:49.145Z</time>
      </trkpt>
      <trkpt lat="51.89612" lon="4.46913">
        <ele>52.244661</ele>
        <time>2024-07-02T12:31:52.144Z</time>
      </trkpt>
      <trkpt lat="51.89624" lon="4.46917">
        <ele>52.143654</ele>
        <time>2024-07-02T12:31:55.129Z</time>
      </trkpt>
      <trkpt lat="51.89635" lon="4.4692">
        <ele>52.101839</ele>
        <time>2024-07-02T12:31:58.139Z</time>
      </trkpt>
      <trkpt lat="51.89647" lon="4.46922">
        <ele>52.059433</ele>
        <time>2024-07-02T12:32:01.151Z</time>
      </trkpt>
      <trkpt lat="51.89659" lon="4.46926">
        <ele>52.013977</ele>
        <time>2024-07-02T12:32:04.136Z</time>
      </trkpt>
      <trkpt lat="51.89669" lon="4.46928">
        <ele>51.973172</ele>
        <time>2024-07-02T12:32:07.132Z</time>
      </trkpt>
      <trkpt lat="51.8968" lon="4.4693">
        <ele>51.931657</ele>
        <time>2024-07-02T12:32:10.142Z</time>
      </trkpt>
      <trkpt lat="51.89691" lon="4.46934">
        <ele>51.88999</ele>
        <time>2024-07-02T12:32:13.135Z</time>
      </trkpt>
      <trkpt lat="51.89702" lon="4.46937">
        <ele>51.849684</ele>
        <time>2024-07-02T12:32:16.151Z</time>
      </trkpt>
      <trkpt lat="51.89714" lon="4.46936">
        <ele>51.80566</ele>
        <time>2024-07-02T12:32:20.159Z</time>
      </trkpt>
      <trkpt lat="51.89723" lon="4.46932">
        <ele>51.768816</ele>
        <time>2024-07-02T12:32:24.129Z</time>
      </trkpt>
      <trkpt lat="51.89732" lon="4.46937">
        <ele>51.733768</ele>
        <time>2024-07-02T12:32:29.135Z</time>
      </trkpt>
      <trkpt lat="51.89742" lon="4.46939">
        <ele>51.697587</ele>
        <time>2024-07-02T12:32:34.141Z</time>
      </trkpt>
      <trkpt lat="51.89751" lon="4.46931">
        <ele>51.658982</ele>
        <time>2024-07-02T12:32:40.137Z</time>
      </trkpt>
      <trkpt lat="51.89754" lon="4.46931">
        <ele>51.649264</ele>
        <time>2024-07-02T12:32:45.471Z</time>
      </trkpt>
      <trkpt lat="51.89743" lon="4.4693">
        <ele>51.609612</ele>
        <time>2024-07-02T12:34:42.122Z</time>
      </trkpt>
      <trkpt lat="51.89733" lon="4.46926">
        <ele>51.570736</ele>
        <time>2024-07-02T12:34:47.131Z</time>
      </trkpt>
      <trkpt lat="51.89726" lon="4.46913">
        <ele>51.531397</ele>
        <time>2024-07-02T12:34:51.128Z</time>
      </trkpt>
      <trkpt lat="51.89722" lon="4.46897">
        <ele>51.491817</ele>
        <time>2024-07-02T12:34:55.132Z</time>
      </trkpt>
      <trkpt lat="51.89722" lon="4.4688">
        <ele>51.43486</ele>
        <time>2024-07-02T12:34:59.137Z</time>
      </trkpt>
      <trkpt lat="51.89722" lon="4.46861">
        <ele>51.371004</ele>
        <time>2024-07-02T12:35:03.152Z</time>
      </trkpt>
      <trkpt lat="51.89721" lon="4.46846">
        <ele>51.321386</ele>
        <time>2024-07-02T12:35:06.139Z</time>
      </trkpt>
      <trkpt lat="51.89721" lon="4.46828">
        <ele>51.258207</ele>
        <time>2024-07-02T12:35:10.145Z</time>
      </trkpt>
      <trkpt lat="51.8972" lon="4.46813">
        <ele>51.207574</ele>
        <time>2024-07-02T12:35:14.147Z</time>
      </trkpt>
      <trkpt lat="51.89719" lon="4.46797">
        <ele>51.152373</ele>
        <time>2024-07-02T12:35:20.147Z</time>
      </trkpt>
      <trkpt lat="51.89719" lon="4.46814">
        <ele>51.094841</ele>
        <time>2024-07-02T12:35:35.145Z</time>
      </trkpt>
      <trkpt lat="51.8972" lon="4.46828">
        <ele>51.044903</ele>
        <time>2024-07-02T12:35:40.159Z</time>
      </trkpt>
      <trkpt lat="51.89721" lon="4.46844">
        <ele>50.989546</ele>
        <time>2024-07-02T12:35:49.126Z</time>
      </trkpt>
      <trkpt lat="51.89719" lon="4.4686">
        <ele>50.934316</ele>
        <time>2024-07-02T12:35:53.127Z</time>
      </trkpt>
      <trkpt lat="51.89719" lon="4.46879">
        <ele>50.872488</ele>
        <time>2024-07-02T12:35:57.156Z</time>
      </trkpt>
      <trkpt lat="51.89721" lon="4.46895">
        <ele>50.817183</ele>
        <time>2024-07-02T12:36:01.137Z</time>
      </trkpt>
      <trkpt lat="51.89729" lon="4.46903">
        <ele>50.764897</ele>
        <time>2024-07-02T12:36:09.138Z</time>
      </trkpt>
      <trkpt lat="51.89738" lon="4.46899">
        <ele>50.715119</ele>
        <time>2024-07-02T12:36:23.130Z</time>
      </trkpt>
      <trkpt lat="51.89735" lon="4.46884">
        <ele>50.663741</ele>
        <time>2024-07-02T12:36:45.123Z</time>
      </trkpt>
      <trkpt lat="51.89744" lon="4.46888">
        <ele>50.613249</ele>
        <time>2024-07-02T12:37:00.103Z</time>
      </trkpt>
      <trkpt lat="51.8974" lon="4.46905">
        <ele>50.549788</ele>
        <time>2024-07-02T12:37:03.091Z</time>
      </trkpt>
      <trkpt lat="51.8974" lon="4.46905">
        <ele>50.549788</ele>
        <time>2024-07-02T12:40:09.187Z</time>
      </trkpt>
      <trkpt lat="51.90287" lon="4.46832">
        <ele>49.931714</ele>
        <time>2024-07-02T12:44:11.135Z</time>
      </trkpt>
      <trkpt lat="51.90291" lon="4.46815">
        <ele>49.984221</ele>
        <time>2024-07-02T12:44:29.129Z</time>
      </trkpt>
      <trkpt lat="51.90292" lon="4.46799">
        <ele>50.03826</ele>
        <time>2024-07-02T12:44:33.111Z</time>
      </trkpt>
      <trkpt lat="51.90295" lon="4.46785">
        <ele>50.087835</ele>
        <time>2024-07-02T12:44:36.120Z</time>
      </trkpt>
      <trkpt lat="51.903" lon="4.46768">
        <ele>50.148917</ele>
        <time>2024-07-02T12:44:40.133Z</time>
      </trkpt>
      <trkpt lat="51.90307" lon="4.46754">
        <ele>50.211949</ele>
        <time>2024-07-02T12:44:44.117Z</time>
      </trkpt>
      <trkpt lat="51.90315" lon="4.46745">
        <ele>50.261784</ele>
        <time>2024-07-02T12:44:47.117Z</time>
      </trkpt>
      <trkpt lat="51.90324" lon="4.46738">
        <ele>50.317462</ele>
        <time>2024-07-02T12:44:51.110Z</time>
      </trkpt>
      <trkpt lat="51.90333" lon="4.4673">
        <ele>50.370836</ele>
        <time>2024-07-02T12:44:55.129Z</time>
      </trkpt>
      <trkpt lat="51.90342" lon="4.46725">
        <ele>50.420215</ele>
        <time>2024-07-02T12:44:58.141Z</time>
      </trkpt>
      <trkpt lat="51.90352" lon="4.4672">
        <ele>50.481131</ele>
        <time>2024-07-02T12:45:02.122Z</time>
      </trkpt>
      <trkpt lat="51.90362" lon="4.46713">
        <ele>50.534423</ele>
        <time>2024-07-02T12:45:05.118Z</time>
      </trkpt>
      <trkpt lat="51.90371" lon="4.46708">
        <ele>50.590471</ele>
        <time>2024-07-02T12:45:08.126Z</time>
      </trkpt>
      <trkpt lat="51.90381" lon="4.46701">
        <ele>50.647737</ele>
        <time>2024-07-02T12:45:11.156Z</time>
      </trkpt>
      <trkpt lat="51.90392" lon="4.46695">
        <ele>50.708999</ele>
        <time>2024-07-02T12:45:14.134Z</time>
      </trkpt>
      <trkpt lat="51.90402" lon="4.46689">
        <ele>50.763927</ele>
        <time>2024-07-02T12:45:17.144Z</time>
      </trkpt>
      <trkpt lat="51.90412" lon="4.46683">
        <ele>50.820478</ele>
        <time>2024-07-02T12:45:20.116Z</time>
      </trkpt>
      <trkpt lat="51.90421" lon="4.46677">
        <ele>50.876411</ele>
        <time>2024-07-02T12:45:23.138Z</time>
      </trkpt>
      <trkpt lat="51.90432" lon="4.46671">
        <ele>50.999629</ele>
        <time>2024-07-02T12:45:26.122Z</time>
      </trkpt>
      <trkpt lat="51.90441" lon="4.46665">
        <ele>51.129536</ele>
        <time>2024-07-02T12:45:29.143Z</time>
      </trkpt>
      <trkpt lat="51.90449" lon="4.46659">
        <ele>51.256965</ele>
        <time>2024-07-02T12:45:32.133Z</time>
      </trkpt>
      <trkpt lat="51.90459" lon="4.46654">
        <ele>51.388112</ele>
        <time>2024-07-02T12:45:35.125Z</time>
      </trkpt>
      <trkpt lat="51.90468" lon="4.46648">
        <ele>51.529982</ele>
        <time>2024-07-02T12:45:38.132Z</time>
      </trkpt>
      <trkpt lat="51.90479" lon="4.46642">
        <ele>51.67566</ele>
        <time>2024-07-02T12:45:41.127Z</time>
      </trkpt>
      <trkpt lat="51.90489" lon="4.46636">
        <ele>51.824707</ele>
        <time>2024-07-02T12:45:44.123Z</time>
      </trkpt>
      <trkpt lat="51.90499" lon="4.4663">
        <ele>51.967844</ele>
        <time>2024-07-02T12:45:47.139Z</time>
      </trkpt>
      <trkpt lat="51.9051" lon="4.46622">
        <ele>52.136032</ele>
        <time>2024-07-02T12:45:50.115Z</time>
      </trkpt>
      <trkpt lat="51.9052" lon="4.46614">
        <ele>52.29035</ele>
        <time>2024-07-02T12:45:53.119Z</time>
      </trkpt>
      <trkpt lat="51.90531" lon="4.46608">
        <ele>52.44213</ele>
        <time>2024-07-02T12:45:56.132Z</time>
      </trkpt>
      <trkpt lat="51.90542" lon="4.46602">
        <ele>52.592905</ele>
        <time>2024-07-02T12:45:59.140Z</time>
      </trkpt>
      <trkpt lat="51.90552" lon="4.46597">
        <ele>52.742602</ele>
        <time>2024-07-02T12:46:02.116Z</time>
      </trkpt>
      <trkpt lat="51.90563" lon="4.4659">
        <ele>52.894522</ele>
        <time>2024-07-02T12:46:05.125Z</time>
      </trkpt>
      <trkpt lat="51.90573" lon="4.46584">
        <ele>53.045137</ele>
        <time>2024-07-02T12:46:08.148Z</time>
      </trkpt>
      <trkpt lat="51.90583" lon="4.46577">
        <ele>53.199523</ele>
        <time>2024-07-02T12:46:11.133Z</time>
      </trkpt>
      <trkpt lat="51.90595" lon="4.46571">
        <ele>53.323987</ele>
        <time>2024-07-02T12:46:14.122Z</time>
      </trkpt>
      <trkpt lat="51.90606" lon="4.46564">
        <ele>53.284411</ele>
        <time>2024-07-02T12:46:17.134Z</time>
      </trkpt>
      <trkpt lat="51.90617" lon="4.46556">
        <ele>53.244152</ele>
        <time>2024-07-02T12:46:20.134Z</time>
      </trkpt>
      <trkpt lat="51.90627" lon="4.46546">
        <ele>53.20458</ele>
        <time>2024-07-02T12:46:23.122Z</time>
      </trkpt>
      <trkpt lat="51.90638" lon="4.46537">
        <ele>53.165728</ele>
        <time>2024-07-02T12:46:26.136Z</time>
      </trkpt>
      <trkpt lat="51.90648" lon="4.46528">
        <ele>53.12727</ele>
        <time>2024-07-02T12:46:29.117Z</time>
      </trkpt>
      <trkpt lat="51.90657" lon="4.46518">
        <ele>53.092279</ele>
        <time>2024-07-02T12:46:32.134Z</time>
      </trkpt>
      <trkpt lat="51.90665" lon="4.46509">
        <ele>53.060738</ele>
        <time>2024-07-02T12:46:35.136Z</time>
      </trkpt>
      <trkpt lat="51.90673" lon="4.46497">
        <ele>53.023415</ele>
        <time>2024-07-02T12:46:39.142Z</time>
      </trkpt>
      <trkpt lat="51.90679" lon="4.46485">
        <ele>52.99181</ele>
        <time>2024-07-02T12:46:44.123Z</time>
      </trkpt>
      <trkpt lat="51.90697" lon="4.4647">
        <ele>52.925732</ele>
        <time>2024-07-02T12:47:23.131Z</time>
      </trkpt>
      <trkpt lat="51.90707" lon="4.46463">
        <ele>52.890105</ele>
        <time>2024-07-02T12:47:26.150Z</time>
      </trkpt>
      <trkpt lat="51.90718" lon="4.46457">
        <ele>52.853111</ele>
        <time>2024-07-02T12:47:29.126Z</time>
      </trkpt>
      <trkpt lat="51.90729" lon="4.4645">
        <ele>52.813248</ele>
        <time>2024-07-02T12:47:32.119Z</time>
      </trkpt>
      <trkpt lat="51.90741" lon="4.46443">
        <ele>52.77352</ele>
        <time>2024-07-02T12:47:35.117Z</time>
      </trkpt>
      <trkpt lat="51.90752" lon="4.46435">
        <ele>52.743483</ele>
        <time>2024-07-02T12:47:38.139Z</time>
      </trkpt>
      <trkpt lat="51.90763" lon="4.46427">
        <ele>52.759467</ele>
        <time>2024-07-02T12:47:41.138Z</time>
      </trkpt>
      <trkpt lat="51.90774" lon="4.46419">
        <ele>52.775862</ele>
        <time>2024-07-02T12:47:44.132Z</time>
      </trkpt>
      <trkpt lat="51.90785" lon="4.46411">
        <ele>52.791594</ele>
        <time>2024-07-02T12:47:47.127Z</time>
      </trkpt>
      <trkpt lat="51.90794" lon="4.46404">
        <ele>52.805608</ele>
        <time>2024-07-02T12:47:50.127Z</time>
      </trkpt>
      <trkpt lat="51.90803" lon="4.46394">
        <ele>52.820291</ele>
        <time>2024-07-02T12:47:54.127Z</time>
      </trkpt>
      <trkpt lat="51.90811" lon="4.46384">
        <ele>52.833484</ele>
        <time>2024-07-02T12:47:59.131Z</time>
      </trkpt>
      <trkpt lat="51.90828" lon="4.46371">
        <ele>52.85798</ele>
        <time>2024-07-02T12:48:28.125Z</time>
      </trkpt>
      <trkpt lat="51.90838" lon="4.46376">
        <ele>52.872527</ele>
        <time>2024-07-02T12:48:32.116Z</time>
      </trkpt>
      <trkpt lat="51.90849" lon="4.46375">
        <ele>52.887077</ele>
        <time>2024-07-02T12:48:35.117Z</time>
      </trkpt>
      <trkpt lat="51.90858" lon="4.46371">
        <ele>52.899501</ele>
        <time>2024-07-02T12:48:37.120Z</time>
      </trkpt>
      <trkpt lat="51.9087" lon="4.46365">
        <ele>52.916243</ele>
        <time>2024-07-02T12:48:40.133Z</time>
      </trkpt>
      <trkpt lat="51.90882" lon="4.46357">
        <ele>52.933182</ele>
        <time>2024-07-02T12:48:43.131Z</time>
      </trkpt>
      <trkpt lat="51.90891" lon="4.46352">
        <ele>52.94546</ele>
        <time>2024-07-02T12:48:45.115Z</time>
      </trkpt>
      <trkpt lat="51.90899" lon="4.46345">
        <ele>52.957841</ele>
        <time>2024-07-02T12:48:47.125Z</time>
      </trkpt>
      <trkpt lat="51.90908" lon="4.46341">
        <ele>52.970053</ele>
        <time>2024-07-02T12:48:49.131Z</time>
      </trkpt>
      <trkpt lat="51.90917" lon="4.46336">
        <ele>52.950107</ele>
        <time>2024-07-02T12:48:51.123Z</time>
      </trkpt>
      <trkpt lat="51.90925" lon="4.4633">
        <ele>52.812606</ele>
        <time>2024-07-02T12:48:53.135Z</time>
      </trkpt>
      <trkpt lat="51.90934" lon="4.46324">
        <ele>52.673542</ele>
        <time>2024-07-02T12:48:55.122Z</time>
      </trkpt>
      <trkpt lat="51.90943" lon="4.46316">
        <ele>52.521299</ele>
        <time>2024-07-02T12:48:57.126Z</time>
      </trkpt>
      <trkpt lat="51.90949" lon="4.46302">
        <ele>52.361965</ele>
        <time>2024-07-02T12:48:59.108Z</time>
      </trkpt>
      <trkpt lat="51.90954" lon="4.46286">
        <ele>52.199681</ele>
        <time>2024-07-02T12:49:01.112Z</time>
      </trkpt>
      <trkpt lat="51.90958" lon="4.4627">
        <ele>52.038934</ele>
        <time>2024-07-02T12:49:03.120Z</time>
      </trkpt>
      <trkpt lat="51.90961" lon="4.46254">
        <ele>51.882827</ele>
        <time>2024-07-02T12:49:05.127Z</time>
      </trkpt>
      <trkpt lat="51.90964" lon="4.46238">
        <ele>51.727068</ele>
        <time>2024-07-02T12:49:07.132Z</time>
      </trkpt>
      <trkpt lat="51.90967" lon="4.46222">
        <ele>51.574471</ele>
        <time>2024-07-02T12:49:09.151Z</time>
      </trkpt>
      <trkpt lat="51.9097" lon="4.46208">
        <ele>51.431099</ele>
        <time>2024-07-02T12:49:11.132Z</time>
      </trkpt>
      <trkpt lat="51.90973" lon="4.46192">
        <ele>51.284265</ele>
        <time>2024-07-02T12:49:13.140Z</time>
      </trkpt>
      <trkpt lat="51.90976" lon="4.46178">
        <ele>51.14351</ele>
        <time>2024-07-02T12:49:15.124Z</time>
      </trkpt>
      <trkpt lat="51.9098" lon="4.46164">
        <ele>51.0021</ele>
        <time>2024-07-02T12:49:17.113Z</time>
      </trkpt>
      <trkpt lat="51.90982" lon="4.46149">
        <ele>50.864042</ele>
        <time>2024-07-02T12:49:19.134Z</time>
      </trkpt>
      <trkpt lat="51.90985" lon="4.46135">
        <ele>50.728218</ele>
        <time>2024-07-02T12:49:21.116Z</time>
      </trkpt>
      <trkpt lat="51.90988" lon="4.46121">
        <ele>50.587949</ele>
        <time>2024-07-02T12:49:23.142Z</time>
      </trkpt>
      <trkpt lat="51.90992" lon="4.46101">
        <ele>50.389966</ele>
        <time>2024-07-02T12:49:26.123Z</time>
      </trkpt>
      <trkpt lat="51.90995" lon="4.46082">
        <ele>50.289423</ele>
        <time>2024-07-02T12:49:29.140Z</time>
      </trkpt>
      <trkpt lat="51.91" lon="4.46062">
        <ele>50.289423</ele>
        <time>2024-07-02T12:49:32.142Z</time>
      </trkpt>
      <trkpt lat="51.91004" lon="4.46044">
        <ele>50.289423</ele>
        <time>2024-07-02T12:49:35.115Z</time>
      </trkpt>
      <trkpt lat="51.91009" lon="4.46028">
        <ele>50.289423</ele>
        <time>2024-07-02T12:49:38.149Z</time>
      </trkpt>
      <trkpt lat="51.91014" lon="4.46014">
        <ele>50.289423</ele>
        <time>2024-07-02T12:49:41.131Z</time>
      </trkpt>
      <trkpt lat="51.9102" lon="4.46002">
        <ele>50.289423</ele>
        <time>2024-07-02T12:49:44.131Z</time>
      </trkpt>
      <trkpt lat="51.91031" lon="4.46003">
        <ele>50.289423</ele>
        <time>2024-07-02T12:49:49.129Z</time>
      </trkpt>
      <trkpt lat="51.91039" lon="4.46012">
        <ele>50.289423</ele>
        <time>2024-07-02T12:49:52.133Z</time>
      </trkpt>
      <trkpt lat="51.91047" lon="4.46021">
        <ele>50.289423</ele>
        <time>2024-07-02T12:49:55.139Z</time>
      </trkpt>
      <trkpt lat="51.91057" lon="4.46031">
        <ele>50.289423</ele>
        <time>2024-07-02T12:49:59.142Z</time>
      </trkpt>
      <trkpt lat="51.91066" lon="4.46038">
        <ele>50.289423</ele>
        <time>2024-07-02T12:50:04.120Z</time>
      </trkpt>
      <trkpt lat="51.91074" lon="4.46028">
        <ele>50.289423</ele>
        <time>2024-07-02T12:50:09.115Z</time>
      </trkpt>
      <trkpt lat="51.91085" lon="4.46022">
        <ele>50.289423</ele>
        <time>2024-07-02T12:50:13.162Z</time>
      </trkpt>
      <trkpt lat="51.91097" lon="4.46019">
        <ele>50.289423</ele>
        <time>2024-07-02T12:50:16.127Z</time>
      </trkpt>
      <trkpt lat="51.91108" lon="4.46019">
        <ele>50.289423</ele>
        <time>2024-07-02T12:50:19.129Z</time>
      </trkpt>
      <trkpt lat="51.91119" lon="4.4602">
        <ele>50.289423</ele>
        <time>2024-07-02T12:50:22.131Z</time>
      </trkpt>
      <trkpt lat="51.91131" lon="4.46022">
        <ele>50.289423</ele>
        <time>2024-07-02T12:50:25.123Z</time>
      </trkpt>
      <trkpt lat="51.91143" lon="4.46025">
        <ele>50.289423</ele>
        <time>2024-07-02T12:50:28.134Z</time>
      </trkpt>
      <trkpt lat="51.91156" lon="4.46031">
        <ele>50.289423</ele>
        <time>2024-07-02T12:50:31.132Z</time>
      </trkpt>
      <trkpt lat="51.91166" lon="4.46033">
        <ele>50.289423</ele>
        <time>2024-07-02T12:50:33.124Z</time>
      </trkpt>
      <trkpt lat="51.91178" lon="4.46034">
        <ele>50.289423</ele>
        <time>2024-07-02T12:50:36.146Z</time>
      </trkpt>
      <trkpt lat="51.9119" lon="4.46032">
        <ele>50.289423</ele>
        <time>2024-07-02T12:50:39.110Z</time>
      </trkpt>
      <trkpt lat="51.91195" lon="4.46032">
        <ele>50.289423</ele>
        <time>2024-07-02T12:50:40.447Z</time>
      </trkpt>
    </trkseg>
  </trk>
</gpx>